<?xml version="1.0" encoding="UTF-8" standalone="no" ?>
<gpx xmlns="http://www.topografix.com/GPX/1/1" xmlns:xsi="http://www.w3.org/2001/XMLSchema-instance" xsi:schemaLocation="http://www.topografix.com/GPX/1/1 http://www.topografix.com/GPX/1/1/gpx.xsd" version="1.1" creator="VisuGPX - https://www.visugpx.com">
  <metadata>
    <name>Vosges - Pyrénées 13. Du refuge des 3 Fours à l'abri du Neurod</name>
    <desc><![CDATA[Trace AlpineQuest 21/03/2026 08:40:34]]></desc>
  </metadata>
  <trk>
    <name><![CDATA[visugpx_VH66ATpHEv_1]]></name>
    <extensions>
      <line xmlns="http://www.topografix.com/GPX/gpx_style/0/2">
        <color>0000FF</color>
        <opacity>1</opacity>
        <width>4</width>
      </line>
    </extensions>
    <trkseg>
      <trkpt lat="48.05318" lon="7.02555">
        <ele>1196</ele>
        <time>2026-03-21T07:40:34Z</time>
      </trkpt>
      <trkpt lat="48.05311" lon="7.02576">
        <ele>1194.3</ele>
        <time>2026-03-21T07:40:40Z</time>
      </trkpt>
      <trkpt lat="48.05333" lon="7.02581">
        <ele>1196.1</ele>
        <time>2026-03-21T07:40:45Z</time>
      </trkpt>
      <trkpt lat="48.05328" lon="7.02581">
        <ele>1195.6</ele>
        <time>2026-03-21T07:40:50Z</time>
      </trkpt>
      <trkpt lat="48.05327" lon="7.0258">
        <ele>1195.6</ele>
        <time>2026-03-21T07:40:55Z</time>
      </trkpt>
      <trkpt lat="48.05326" lon="7.0258">
        <ele>1195.5</ele>
        <time>2026-03-21T07:41:00Z</time>
      </trkpt>
      <trkpt lat="48.05324" lon="7.02578">
        <ele>1195.4</ele>
        <time>2026-03-21T07:41:05Z</time>
      </trkpt>
      <trkpt lat="48.05324" lon="7.02578">
        <ele>1195.4</ele>
        <time>2026-03-21T07:41:10Z</time>
      </trkpt>
      <trkpt lat="48.05324" lon="7.02578">
        <ele>1195.4</ele>
        <time>2026-03-21T07:41:15Z</time>
      </trkpt>
      <trkpt lat="48.05324" lon="7.02578">
        <ele>1195.4</ele>
        <time>2026-03-21T07:41:20Z</time>
      </trkpt>
      <trkpt lat="48.05318" lon="7.02577">
        <ele>1194.9</ele>
        <time>2026-03-21T07:41:25Z</time>
      </trkpt>
      <trkpt lat="48.05319" lon="7.02568">
        <ele>1195.4</ele>
        <time>2026-03-21T07:41:30Z</time>
      </trkpt>
      <trkpt lat="48.05323" lon="7.02562">
        <ele>1196.1</ele>
        <time>2026-03-21T07:41:35Z</time>
      </trkpt>
      <trkpt lat="48.05325" lon="7.02554">
        <ele>1196.7</ele>
        <time>2026-03-21T07:41:40Z</time>
      </trkpt>
      <trkpt lat="48.05326" lon="7.02545">
        <ele>1197.2</ele>
        <time>2026-03-21T07:41:45Z</time>
      </trkpt>
      <trkpt lat="48.05329" lon="7.02539">
        <ele>1197.8</ele>
        <time>2026-03-21T07:41:50Z</time>
      </trkpt>
      <trkpt lat="48.05331" lon="7.02532">
        <ele>1198.3</ele>
        <time>2026-03-21T07:41:55Z</time>
      </trkpt>
      <trkpt lat="48.05331" lon="7.02525">
        <ele>1198.6</ele>
        <time>2026-03-21T07:42:00Z</time>
      </trkpt>
      <trkpt lat="48.05332" lon="7.02519">
        <ele>1199</ele>
        <time>2026-03-21T07:42:05Z</time>
      </trkpt>
      <trkpt lat="48.05332" lon="7.02516">
        <ele>1199.1</ele>
        <time>2026-03-21T07:42:10Z</time>
      </trkpt>
      <trkpt lat="48.05332" lon="7.02516">
        <ele>1199.1</ele>
        <time>2026-03-21T07:42:15Z</time>
      </trkpt>
      <trkpt lat="48.05332" lon="7.02516">
        <ele>1199.1</ele>
        <time>2026-03-21T07:42:20Z</time>
      </trkpt>
      <trkpt lat="48.05332" lon="7.02516">
        <ele>1199.1</ele>
        <time>2026-03-21T07:42:25Z</time>
      </trkpt>
      <trkpt lat="48.05332" lon="7.02516">
        <ele>1199.1</ele>
        <time>2026-03-21T07:42:30Z</time>
      </trkpt>
      <trkpt lat="48.05332" lon="7.02516">
        <ele>1199.1</ele>
        <time>2026-03-21T07:42:35Z</time>
      </trkpt>
      <trkpt lat="48.05332" lon="7.02516">
        <ele>1199.1</ele>
        <time>2026-03-21T07:42:40Z</time>
      </trkpt>
      <trkpt lat="48.05333" lon="7.02512">
        <ele>1199.4</ele>
        <time>2026-03-21T07:42:45Z</time>
      </trkpt>
      <trkpt lat="48.05333" lon="7.02505">
        <ele>1199.7</ele>
        <time>2026-03-21T07:42:50Z</time>
      </trkpt>
      <trkpt lat="48.05331" lon="7.02496">
        <ele>1200.2</ele>
        <time>2026-03-21T07:42:55Z</time>
      </trkpt>
      <trkpt lat="48.0533" lon="7.02488">
        <ele>1200.8</ele>
        <time>2026-03-21T07:43:00Z</time>
      </trkpt>
      <trkpt lat="48.0533" lon="7.02484">
        <ele>1201.1</ele>
        <time>2026-03-21T07:43:05Z</time>
      </trkpt>
      <trkpt lat="48.05329" lon="7.02484">
        <ele>1201</ele>
        <time>2026-03-21T07:43:10Z</time>
      </trkpt>
      <trkpt lat="48.05329" lon="7.02484">
        <ele>1201</ele>
        <time>2026-03-21T07:43:15Z</time>
      </trkpt>
      <trkpt lat="48.05329" lon="7.02484">
        <ele>1201</ele>
        <time>2026-03-21T07:43:20Z</time>
      </trkpt>
      <trkpt lat="48.05329" lon="7.02484">
        <ele>1201</ele>
        <time>2026-03-21T07:43:25Z</time>
      </trkpt>
      <trkpt lat="48.05329" lon="7.02484">
        <ele>1201</ele>
        <time>2026-03-21T07:43:30Z</time>
      </trkpt>
      <trkpt lat="48.05329" lon="7.02484">
        <ele>1201</ele>
        <time>2026-03-21T07:43:35Z</time>
      </trkpt>
      <trkpt lat="48.05329" lon="7.02484">
        <ele>1201</ele>
        <time>2026-03-21T07:43:40Z</time>
      </trkpt>
      <trkpt lat="48.05332" lon="7.02478">
        <ele>1201.7</ele>
        <time>2026-03-21T07:43:45Z</time>
      </trkpt>
      <trkpt lat="48.0533" lon="7.0247">
        <ele>1202.3</ele>
        <time>2026-03-21T07:43:50Z</time>
      </trkpt>
      <trkpt lat="48.0533" lon="7.02461">
        <ele>1203</ele>
        <time>2026-03-21T07:43:55Z</time>
      </trkpt>
      <trkpt lat="48.05328" lon="7.02453">
        <ele>1203.5</ele>
        <time>2026-03-21T07:44:00Z</time>
      </trkpt>
      <trkpt lat="48.05328" lon="7.02444">
        <ele>1204.3</ele>
        <time>2026-03-21T07:44:05Z</time>
      </trkpt>
      <trkpt lat="48.05328" lon="7.02436">
        <ele>1204.9</ele>
        <time>2026-03-21T07:44:10Z</time>
      </trkpt>
      <trkpt lat="48.05328" lon="7.02435">
        <ele>1205</ele>
        <time>2026-03-21T07:44:15Z</time>
      </trkpt>
      <trkpt lat="48.05328" lon="7.02436">
        <ele>1204.9</ele>
        <time>2026-03-21T07:44:20Z</time>
      </trkpt>
      <trkpt lat="48.05325" lon="7.02427">
        <ele>1205.4</ele>
        <time>2026-03-21T07:44:25Z</time>
      </trkpt>
      <trkpt lat="48.05324" lon="7.02418">
        <ele>1206.1</ele>
        <time>2026-03-21T07:44:30Z</time>
      </trkpt>
      <trkpt lat="48.05324" lon="7.02409">
        <ele>1206.5</ele>
        <time>2026-03-21T07:44:35Z</time>
      </trkpt>
      <trkpt lat="48.0532" lon="7.02402">
        <ele>1206.5</ele>
        <time>2026-03-21T07:44:40Z</time>
      </trkpt>
      <trkpt lat="48.05318" lon="7.02393">
        <ele>1206.8</ele>
        <time>2026-03-21T07:44:45Z</time>
      </trkpt>
      <trkpt lat="48.05315" lon="7.02383">
        <ele>1207</ele>
        <time>2026-03-21T07:44:50Z</time>
      </trkpt>
      <trkpt lat="48.05312" lon="7.02376">
        <ele>1207.2</ele>
        <time>2026-03-21T07:44:55Z</time>
      </trkpt>
      <trkpt lat="48.05309" lon="7.02367">
        <ele>1207.4</ele>
        <time>2026-03-21T07:45:00Z</time>
      </trkpt>
      <trkpt lat="48.05307" lon="7.02357">
        <ele>1207.8</ele>
        <time>2026-03-21T07:45:05Z</time>
      </trkpt>
      <trkpt lat="48.05305" lon="7.02349">
        <ele>1208.2</ele>
        <time>2026-03-21T07:45:10Z</time>
      </trkpt>
      <trkpt lat="48.05303" lon="7.02339">
        <ele>1208.6</ele>
        <time>2026-03-21T07:45:15Z</time>
      </trkpt>
      <trkpt lat="48.05301" lon="7.02329">
        <ele>1209.1</ele>
        <time>2026-03-21T07:45:20Z</time>
      </trkpt>
      <trkpt lat="48.05298" lon="7.02321">
        <ele>1209.5</ele>
        <time>2026-03-21T07:45:25Z</time>
      </trkpt>
      <trkpt lat="48.05296" lon="7.02311">
        <ele>1210.1</ele>
        <time>2026-03-21T07:45:30Z</time>
      </trkpt>
      <trkpt lat="48.05293" lon="7.02302">
        <ele>1210.6</ele>
        <time>2026-03-21T07:45:35Z</time>
      </trkpt>
      <trkpt lat="48.05289" lon="7.02295">
        <ele>1210.9</ele>
        <time>2026-03-21T07:45:40Z</time>
      </trkpt>
      <trkpt lat="48.05287" lon="7.02285">
        <ele>1211.6</ele>
        <time>2026-03-21T07:45:45Z</time>
      </trkpt>
      <trkpt lat="48.05285" lon="7.02276">
        <ele>1212.1</ele>
        <time>2026-03-21T07:45:50Z</time>
      </trkpt>
      <trkpt lat="48.05282" lon="7.02267">
        <ele>1212.6</ele>
        <time>2026-03-21T07:45:55Z</time>
      </trkpt>
      <trkpt lat="48.0528" lon="7.02259">
        <ele>1213.1</ele>
        <time>2026-03-21T07:46:00Z</time>
      </trkpt>
      <trkpt lat="48.05277" lon="7.0225">
        <ele>1213.6</ele>
        <time>2026-03-21T07:46:05Z</time>
      </trkpt>
      <trkpt lat="48.05275" lon="7.0224">
        <ele>1213.8</ele>
        <time>2026-03-21T07:46:10Z</time>
      </trkpt>
      <trkpt lat="48.05273" lon="7.02231">
        <ele>1214</ele>
        <time>2026-03-21T07:46:15Z</time>
      </trkpt>
      <trkpt lat="48.0527" lon="7.02221">
        <ele>1214.1</ele>
        <time>2026-03-21T07:46:20Z</time>
      </trkpt>
      <trkpt lat="48.05269" lon="7.02213">
        <ele>1214.2</ele>
        <time>2026-03-21T07:46:25Z</time>
      </trkpt>
      <trkpt lat="48.05266" lon="7.02204">
        <ele>1214.3</ele>
        <time>2026-03-21T07:46:30Z</time>
      </trkpt>
      <trkpt lat="48.05263" lon="7.02195">
        <ele>1214.3</ele>
        <time>2026-03-21T07:46:35Z</time>
      </trkpt>
      <trkpt lat="48.05261" lon="7.02186">
        <ele>1214.3</ele>
        <time>2026-03-21T07:46:40Z</time>
      </trkpt>
      <trkpt lat="48.05257" lon="7.02178">
        <ele>1214.2</ele>
        <time>2026-03-21T07:46:45Z</time>
      </trkpt>
      <trkpt lat="48.05254" lon="7.02168">
        <ele>1214.2</ele>
        <time>2026-03-21T07:46:50Z</time>
      </trkpt>
      <trkpt lat="48.05251" lon="7.02158">
        <ele>1214.6</ele>
        <time>2026-03-21T07:46:55Z</time>
      </trkpt>
      <trkpt lat="48.0525" lon="7.02151">
        <ele>1214.9</ele>
        <time>2026-03-21T07:47:00Z</time>
      </trkpt>
      <trkpt lat="48.05247" lon="7.02142">
        <ele>1215.3</ele>
        <time>2026-03-21T07:47:05Z</time>
      </trkpt>
      <trkpt lat="48.05244" lon="7.02133">
        <ele>1215.6</ele>
        <time>2026-03-21T07:47:10Z</time>
      </trkpt>
      <trkpt lat="48.05241" lon="7.02123">
        <ele>1215.8</ele>
        <time>2026-03-21T07:47:15Z</time>
      </trkpt>
      <trkpt lat="48.05239" lon="7.02114">
        <ele>1216</ele>
        <time>2026-03-21T07:47:20Z</time>
      </trkpt>
      <trkpt lat="48.05235" lon="7.02104">
        <ele>1216</ele>
        <time>2026-03-21T07:47:25Z</time>
      </trkpt>
      <trkpt lat="48.05232" lon="7.02094">
        <ele>1215.9</ele>
        <time>2026-03-21T07:47:30Z</time>
      </trkpt>
      <trkpt lat="48.05229" lon="7.02084">
        <ele>1215.7</ele>
        <time>2026-03-21T07:47:35Z</time>
      </trkpt>
      <trkpt lat="48.05225" lon="7.02076">
        <ele>1215.4</ele>
        <time>2026-03-21T07:47:40Z</time>
      </trkpt>
      <trkpt lat="48.05223" lon="7.02067">
        <ele>1215.3</ele>
        <time>2026-03-21T07:47:45Z</time>
      </trkpt>
      <trkpt lat="48.0522" lon="7.02057">
        <ele>1215.1</ele>
        <time>2026-03-21T07:47:50Z</time>
      </trkpt>
      <trkpt lat="48.05218" lon="7.02048">
        <ele>1214.9</ele>
        <time>2026-03-21T07:47:55Z</time>
      </trkpt>
      <trkpt lat="48.05216" lon="7.02038">
        <ele>1214.6</ele>
        <time>2026-03-21T07:48:00Z</time>
      </trkpt>
      <trkpt lat="48.05213" lon="7.0203">
        <ele>1214</ele>
        <time>2026-03-21T07:48:05Z</time>
      </trkpt>
      <trkpt lat="48.05211" lon="7.02022">
        <ele>1213.6</ele>
        <time>2026-03-21T07:48:10Z</time>
      </trkpt>
      <trkpt lat="48.05208" lon="7.02013">
        <ele>1212.8</ele>
        <time>2026-03-21T07:48:15Z</time>
      </trkpt>
      <trkpt lat="48.05207" lon="7.02005">
        <ele>1212.6</ele>
        <time>2026-03-21T07:48:20Z</time>
      </trkpt>
      <trkpt lat="48.05203" lon="7.01998">
        <ele>1211.4</ele>
        <time>2026-03-21T07:48:25Z</time>
      </trkpt>
      <trkpt lat="48.05199" lon="7.01991">
        <ele>1210.4</ele>
        <time>2026-03-21T07:48:30Z</time>
      </trkpt>
      <trkpt lat="48.05196" lon="7.01985">
        <ele>1209.6</ele>
        <time>2026-03-21T07:48:35Z</time>
      </trkpt>
      <trkpt lat="48.05195" lon="7.01975">
        <ele>1209.6</ele>
        <time>2026-03-21T07:48:40Z</time>
      </trkpt>
      <trkpt lat="48.05192" lon="7.01968">
        <ele>1208.9</ele>
        <time>2026-03-21T07:48:45Z</time>
      </trkpt>
      <trkpt lat="48.05188" lon="7.01962">
        <ele>1207.9</ele>
        <time>2026-03-21T07:48:50Z</time>
      </trkpt>
      <trkpt lat="48.05184" lon="7.01956">
        <ele>1206.9</ele>
        <time>2026-03-21T07:48:55Z</time>
      </trkpt>
      <trkpt lat="48.0518" lon="7.0195">
        <ele>1205.9</ele>
        <time>2026-03-21T07:49:00Z</time>
      </trkpt>
      <trkpt lat="48.05175" lon="7.01942">
        <ele>1204.6</ele>
        <time>2026-03-21T07:49:05Z</time>
      </trkpt>
      <trkpt lat="48.05173" lon="7.01934">
        <ele>1204.3</ele>
        <time>2026-03-21T07:49:10Z</time>
      </trkpt>
      <trkpt lat="48.0517" lon="7.01927">
        <ele>1203.6</ele>
        <time>2026-03-21T07:49:15Z</time>
      </trkpt>
      <trkpt lat="48.05168" lon="7.01918">
        <ele>1203.4</ele>
        <time>2026-03-21T07:49:20Z</time>
      </trkpt>
      <trkpt lat="48.05168" lon="7.0191">
        <ele>1204.6</ele>
        <time>2026-03-21T07:49:25Z</time>
      </trkpt>
      <trkpt lat="48.05167" lon="7.01901">
        <ele>1205.9</ele>
        <time>2026-03-21T07:49:30Z</time>
      </trkpt>
      <trkpt lat="48.05167" lon="7.01893">
        <ele>1207.3</ele>
        <time>2026-03-21T07:49:35Z</time>
      </trkpt>
      <trkpt lat="48.05168" lon="7.01885">
        <ele>1209</ele>
        <time>2026-03-21T07:49:40Z</time>
      </trkpt>
      <trkpt lat="48.05168" lon="7.01878">
        <ele>1210.3</ele>
        <time>2026-03-21T07:49:45Z</time>
      </trkpt>
      <trkpt lat="48.05168" lon="7.01869">
        <ele>1211.9</ele>
        <time>2026-03-21T07:49:50Z</time>
      </trkpt>
      <trkpt lat="48.05169" lon="7.01862">
        <ele>1213.3</ele>
        <time>2026-03-21T07:49:55Z</time>
      </trkpt>
      <trkpt lat="48.0517" lon="7.01851">
        <ele>1215.4</ele>
        <time>2026-03-21T07:50:00Z</time>
      </trkpt>
      <trkpt lat="48.0517" lon="7.01838">
        <ele>1217.7</ele>
        <time>2026-03-21T07:50:05Z</time>
      </trkpt>
      <trkpt lat="48.05171" lon="7.0183">
        <ele>1219.1</ele>
        <time>2026-03-21T07:50:10Z</time>
      </trkpt>
      <trkpt lat="48.05172" lon="7.0182">
        <ele>1220.7</ele>
        <time>2026-03-21T07:50:15Z</time>
      </trkpt>
      <trkpt lat="48.05172" lon="7.01813">
        <ele>1221.8</ele>
        <time>2026-03-21T07:50:20Z</time>
      </trkpt>
      <trkpt lat="48.05174" lon="7.01805">
        <ele>1223.1</ele>
        <time>2026-03-21T07:50:25Z</time>
      </trkpt>
      <trkpt lat="48.05175" lon="7.01797">
        <ele>1224.3</ele>
        <time>2026-03-21T07:50:30Z</time>
      </trkpt>
      <trkpt lat="48.05177" lon="7.01786">
        <ele>1226</ele>
        <time>2026-03-21T07:50:35Z</time>
      </trkpt>
      <trkpt lat="48.05178" lon="7.01774">
        <ele>1227.7</ele>
        <time>2026-03-21T07:50:40Z</time>
      </trkpt>
      <trkpt lat="48.05179" lon="7.01764">
        <ele>1229.1</ele>
        <time>2026-03-21T07:50:45Z</time>
      </trkpt>
      <trkpt lat="48.0518" lon="7.01751">
        <ele>1230.9</ele>
        <time>2026-03-21T07:50:50Z</time>
      </trkpt>
      <trkpt lat="48.05182" lon="7.01742">
        <ele>1231.5</ele>
        <time>2026-03-21T07:50:55Z</time>
      </trkpt>
      <trkpt lat="48.05183" lon="7.01733">
        <ele>1232</ele>
        <time>2026-03-21T07:51:00Z</time>
      </trkpt>
      <trkpt lat="48.05184" lon="7.01722">
        <ele>1232.6</ele>
        <time>2026-03-21T07:51:05Z</time>
      </trkpt>
      <trkpt lat="48.05183" lon="7.01712">
        <ele>1233.2</ele>
        <time>2026-03-21T07:51:10Z</time>
      </trkpt>
      <trkpt lat="48.05184" lon="7.01702">
        <ele>1233.8</ele>
        <time>2026-03-21T07:51:15Z</time>
      </trkpt>
      <trkpt lat="48.05183" lon="7.01689">
        <ele>1234.5</ele>
        <time>2026-03-21T07:51:20Z</time>
      </trkpt>
      <trkpt lat="48.05185" lon="7.01681">
        <ele>1235</ele>
        <time>2026-03-21T07:51:25Z</time>
      </trkpt>
      <trkpt lat="48.05185" lon="7.0167">
        <ele>1235.6</ele>
        <time>2026-03-21T07:51:30Z</time>
      </trkpt>
      <trkpt lat="48.05186" lon="7.01661">
        <ele>1235.9</ele>
        <time>2026-03-21T07:51:35Z</time>
      </trkpt>
      <trkpt lat="48.05185" lon="7.0165">
        <ele>1236.1</ele>
        <time>2026-03-21T07:51:40Z</time>
      </trkpt>
      <trkpt lat="48.05185" lon="7.01641">
        <ele>1236.3</ele>
        <time>2026-03-21T07:51:45Z</time>
      </trkpt>
      <trkpt lat="48.05187" lon="7.01634">
        <ele>1236.3</ele>
        <time>2026-03-21T07:51:50Z</time>
      </trkpt>
      <trkpt lat="48.05184" lon="7.01621">
        <ele>1236.7</ele>
        <time>2026-03-21T07:51:55Z</time>
      </trkpt>
      <trkpt lat="48.05181" lon="7.01612">
        <ele>1236.9</ele>
        <time>2026-03-21T07:52:00Z</time>
      </trkpt>
      <trkpt lat="48.05176" lon="7.01606">
        <ele>1237.2</ele>
        <time>2026-03-21T07:52:05Z</time>
      </trkpt>
      <trkpt lat="48.0517" lon="7.01604">
        <ele>1237.4</ele>
        <time>2026-03-21T07:52:10Z</time>
      </trkpt>
      <trkpt lat="48.05165" lon="7.01604">
        <ele>1237.6</ele>
        <time>2026-03-21T07:52:15Z</time>
      </trkpt>
      <trkpt lat="48.05159" lon="7.01601">
        <ele>1238</ele>
        <time>2026-03-21T07:52:20Z</time>
      </trkpt>
      <trkpt lat="48.05156" lon="7.01597">
        <ele>1238.2</ele>
        <time>2026-03-21T07:52:25Z</time>
      </trkpt>
      <trkpt lat="48.05152" lon="7.01595">
        <ele>1238.5</ele>
        <time>2026-03-21T07:52:30Z</time>
      </trkpt>
      <trkpt lat="48.05147" lon="7.01591">
        <ele>1238.8</ele>
        <time>2026-03-21T07:52:35Z</time>
      </trkpt>
      <trkpt lat="48.05142" lon="7.0159">
        <ele>1239.1</ele>
        <time>2026-03-21T07:52:40Z</time>
      </trkpt>
      <trkpt lat="48.05137" lon="7.0159">
        <ele>1239.3</ele>
        <time>2026-03-21T07:52:45Z</time>
      </trkpt>
      <trkpt lat="48.05132" lon="7.01588">
        <ele>1239.6</ele>
        <time>2026-03-21T07:52:50Z</time>
      </trkpt>
      <trkpt lat="48.05128" lon="7.01586">
        <ele>1239.8</ele>
        <time>2026-03-21T07:52:55Z</time>
      </trkpt>
      <trkpt lat="48.05122" lon="7.01585">
        <ele>1240.1</ele>
        <time>2026-03-21T07:53:00Z</time>
      </trkpt>
      <trkpt lat="48.05116" lon="7.01584">
        <ele>1240.4</ele>
        <time>2026-03-21T07:53:05Z</time>
      </trkpt>
      <trkpt lat="48.05111" lon="7.01582">
        <ele>1240.7</ele>
        <time>2026-03-21T07:53:10Z</time>
      </trkpt>
      <trkpt lat="48.05104" lon="7.0158">
        <ele>1241</ele>
        <time>2026-03-21T07:53:15Z</time>
      </trkpt>
      <trkpt lat="48.05098" lon="7.01577">
        <ele>1241.4</ele>
        <time>2026-03-21T07:53:20Z</time>
      </trkpt>
      <trkpt lat="48.05093" lon="7.01578">
        <ele>1241.6</ele>
        <time>2026-03-21T07:53:25Z</time>
      </trkpt>
      <trkpt lat="48.05087" lon="7.01578">
        <ele>1241.9</ele>
        <time>2026-03-21T07:53:30Z</time>
      </trkpt>
      <trkpt lat="48.05082" lon="7.01578">
        <ele>1242.1</ele>
        <time>2026-03-21T07:53:35Z</time>
      </trkpt>
      <trkpt lat="48.05077" lon="7.01577">
        <ele>1242.4</ele>
        <time>2026-03-21T07:53:40Z</time>
      </trkpt>
      <trkpt lat="48.05072" lon="7.01576">
        <ele>1242.7</ele>
        <time>2026-03-21T07:53:45Z</time>
      </trkpt>
      <trkpt lat="48.05066" lon="7.01573">
        <ele>1243.1</ele>
        <time>2026-03-21T07:53:50Z</time>
      </trkpt>
      <trkpt lat="48.0506" lon="7.0157">
        <ele>1243.5</ele>
        <time>2026-03-21T07:53:55Z</time>
      </trkpt>
      <trkpt lat="48.05055" lon="7.01569">
        <ele>1243.8</ele>
        <time>2026-03-21T07:54:00Z</time>
      </trkpt>
      <trkpt lat="48.0505" lon="7.01568">
        <ele>1244.2</ele>
        <time>2026-03-21T07:54:05Z</time>
      </trkpt>
      <trkpt lat="48.05045" lon="7.01567">
        <ele>1244.5</ele>
        <time>2026-03-21T07:54:10Z</time>
      </trkpt>
      <trkpt lat="48.05038" lon="7.01565">
        <ele>1245</ele>
        <time>2026-03-21T07:54:15Z</time>
      </trkpt>
      <trkpt lat="48.05033" lon="7.01564">
        <ele>1245.3</ele>
        <time>2026-03-21T07:54:20Z</time>
      </trkpt>
      <trkpt lat="48.05028" lon="7.01561">
        <ele>1245.8</ele>
        <time>2026-03-21T07:54:25Z</time>
      </trkpt>
      <trkpt lat="48.05023" lon="7.0156">
        <ele>1246.2</ele>
        <time>2026-03-21T07:54:30Z</time>
      </trkpt>
      <trkpt lat="48.05017" lon="7.01556">
        <ele>1246.8</ele>
        <time>2026-03-21T07:54:35Z</time>
      </trkpt>
      <trkpt lat="48.05011" lon="7.01552">
        <ele>1247.5</ele>
        <time>2026-03-21T07:54:40Z</time>
      </trkpt>
      <trkpt lat="48.05006" lon="7.01551">
        <ele>1247.9</ele>
        <time>2026-03-21T07:54:45Z</time>
      </trkpt>
      <trkpt lat="48.05002" lon="7.01549">
        <ele>1248.3</ele>
        <time>2026-03-21T07:54:50Z</time>
      </trkpt>
      <trkpt lat="48.04997" lon="7.01547">
        <ele>1248.7</ele>
        <time>2026-03-21T07:54:55Z</time>
      </trkpt>
      <trkpt lat="48.04992" lon="7.01545">
        <ele>1249.1</ele>
        <time>2026-03-21T07:55:00Z</time>
      </trkpt>
      <trkpt lat="48.04987" lon="7.01547">
        <ele>1249.1</ele>
        <time>2026-03-21T07:55:05Z</time>
      </trkpt>
      <trkpt lat="48.04982" lon="7.01545">
        <ele>1249.5</ele>
        <time>2026-03-21T07:55:10Z</time>
      </trkpt>
      <trkpt lat="48.04977" lon="7.0154">
        <ele>1250.1</ele>
        <time>2026-03-21T07:55:15Z</time>
      </trkpt>
      <trkpt lat="48.04972" lon="7.01537">
        <ele>1250.6</ele>
        <time>2026-03-21T07:55:20Z</time>
      </trkpt>
      <trkpt lat="48.04968" lon="7.01535">
        <ele>1251</ele>
        <time>2026-03-21T07:55:25Z</time>
      </trkpt>
      <trkpt lat="48.04963" lon="7.01531">
        <ele>1251.6</ele>
        <time>2026-03-21T07:55:30Z</time>
      </trkpt>
      <trkpt lat="48.04958" lon="7.01529">
        <ele>1252.1</ele>
        <time>2026-03-21T07:55:35Z</time>
      </trkpt>
      <trkpt lat="48.04954" lon="7.01527">
        <ele>1252.5</ele>
        <time>2026-03-21T07:55:40Z</time>
      </trkpt>
      <trkpt lat="48.04948" lon="7.01525">
        <ele>1253</ele>
        <time>2026-03-21T07:55:45Z</time>
      </trkpt>
      <trkpt lat="48.04943" lon="7.01522">
        <ele>1253.6</ele>
        <time>2026-03-21T07:55:50Z</time>
      </trkpt>
      <trkpt lat="48.04939" lon="7.01518">
        <ele>1254.3</ele>
        <time>2026-03-21T07:55:55Z</time>
      </trkpt>
      <trkpt lat="48.04935" lon="7.01516">
        <ele>1254.8</ele>
        <time>2026-03-21T07:56:00Z</time>
      </trkpt>
      <trkpt lat="48.0493" lon="7.01514">
        <ele>1255.3</ele>
        <time>2026-03-21T07:56:05Z</time>
      </trkpt>
      <trkpt lat="48.04925" lon="7.0151">
        <ele>1256.1</ele>
        <time>2026-03-21T07:56:10Z</time>
      </trkpt>
      <trkpt lat="48.04921" lon="7.01508">
        <ele>1256.7</ele>
        <time>2026-03-21T07:56:15Z</time>
      </trkpt>
      <trkpt lat="48.04917" lon="7.01506">
        <ele>1257.2</ele>
        <time>2026-03-21T07:56:20Z</time>
      </trkpt>
      <trkpt lat="48.04913" lon="7.01503">
        <ele>1257.9</ele>
        <time>2026-03-21T07:56:25Z</time>
      </trkpt>
      <trkpt lat="48.04909" lon="7.015">
        <ele>1258.6</ele>
        <time>2026-03-21T07:56:30Z</time>
      </trkpt>
      <trkpt lat="48.04905" lon="7.01497">
        <ele>1258.9</ele>
        <time>2026-03-21T07:56:35Z</time>
      </trkpt>
      <trkpt lat="48.04901" lon="7.01495">
        <ele>1259.2</ele>
        <time>2026-03-21T07:56:40Z</time>
      </trkpt>
      <trkpt lat="48.04897" lon="7.01493">
        <ele>1259.5</ele>
        <time>2026-03-21T07:56:45Z</time>
      </trkpt>
      <trkpt lat="48.04893" lon="7.01491">
        <ele>1259.9</ele>
        <time>2026-03-21T07:56:50Z</time>
      </trkpt>
      <trkpt lat="48.0489" lon="7.01488">
        <ele>1260.2</ele>
        <time>2026-03-21T07:56:55Z</time>
      </trkpt>
      <trkpt lat="48.04887" lon="7.01486">
        <ele>1260.4</ele>
        <time>2026-03-21T07:57:00Z</time>
      </trkpt>
      <trkpt lat="48.04884" lon="7.01484">
        <ele>1260.7</ele>
        <time>2026-03-21T07:57:05Z</time>
      </trkpt>
      <trkpt lat="48.0488" lon="7.01481">
        <ele>1261.1</ele>
        <time>2026-03-21T07:57:10Z</time>
      </trkpt>
      <trkpt lat="48.04877" lon="7.01478">
        <ele>1261.4</ele>
        <time>2026-03-21T07:57:15Z</time>
      </trkpt>
      <trkpt lat="48.04873" lon="7.01478">
        <ele>1261.7</ele>
        <time>2026-03-21T07:57:20Z</time>
      </trkpt>
      <trkpt lat="48.0487" lon="7.01475">
        <ele>1262</ele>
        <time>2026-03-21T07:57:25Z</time>
      </trkpt>
      <trkpt lat="48.04866" lon="7.01472">
        <ele>1262.4</ele>
        <time>2026-03-21T07:57:30Z</time>
      </trkpt>
      <trkpt lat="48.04863" lon="7.01471">
        <ele>1262.7</ele>
        <time>2026-03-21T07:57:35Z</time>
      </trkpt>
      <trkpt lat="48.04859" lon="7.0147">
        <ele>1263</ele>
        <time>2026-03-21T07:57:40Z</time>
      </trkpt>
      <trkpt lat="48.04855" lon="7.01466">
        <ele>1263.5</ele>
        <time>2026-03-21T07:57:45Z</time>
      </trkpt>
      <trkpt lat="48.04851" lon="7.01464">
        <ele>1263.8</ele>
        <time>2026-03-21T07:57:50Z</time>
      </trkpt>
      <trkpt lat="48.04847" lon="7.01463">
        <ele>1264.2</ele>
        <time>2026-03-21T07:57:55Z</time>
      </trkpt>
      <trkpt lat="48.04843" lon="7.01462">
        <ele>1264.6</ele>
        <time>2026-03-21T07:58:00Z</time>
      </trkpt>
      <trkpt lat="48.04839" lon="7.01461">
        <ele>1264.9</ele>
        <time>2026-03-21T07:58:05Z</time>
      </trkpt>
      <trkpt lat="48.04836" lon="7.01458">
        <ele>1265.3</ele>
        <time>2026-03-21T07:58:10Z</time>
      </trkpt>
      <trkpt lat="48.04832" lon="7.01458">
        <ele>1265.5</ele>
        <time>2026-03-21T07:58:15Z</time>
      </trkpt>
      <trkpt lat="48.04828" lon="7.01455">
        <ele>1265.5</ele>
        <time>2026-03-21T07:58:20Z</time>
      </trkpt>
      <trkpt lat="48.04824" lon="7.01453">
        <ele>1265.4</ele>
        <time>2026-03-21T07:58:25Z</time>
      </trkpt>
      <trkpt lat="48.04821" lon="7.01451">
        <ele>1265.5</ele>
        <time>2026-03-21T07:58:30Z</time>
      </trkpt>
      <trkpt lat="48.04817" lon="7.01448">
        <ele>1265.6</ele>
        <time>2026-03-21T07:58:35Z</time>
      </trkpt>
      <trkpt lat="48.04815" lon="7.01446">
        <ele>1265.7</ele>
        <time>2026-03-21T07:58:40Z</time>
      </trkpt>
      <trkpt lat="48.04812" lon="7.01445">
        <ele>1265.7</ele>
        <time>2026-03-21T07:58:45Z</time>
      </trkpt>
      <trkpt lat="48.04809" lon="7.01444">
        <ele>1265.7</ele>
        <time>2026-03-21T07:58:50Z</time>
      </trkpt>
      <trkpt lat="48.04804" lon="7.01444">
        <ele>1265.7</ele>
        <time>2026-03-21T07:58:55Z</time>
      </trkpt>
      <trkpt lat="48.04801" lon="7.01442">
        <ele>1265.8</ele>
        <time>2026-03-21T07:59:00Z</time>
      </trkpt>
      <trkpt lat="48.04796" lon="7.01444">
        <ele>1265.6</ele>
        <time>2026-03-21T07:59:05Z</time>
      </trkpt>
      <trkpt lat="48.04792" lon="7.01445">
        <ele>1265.4</ele>
        <time>2026-03-21T07:59:10Z</time>
      </trkpt>
      <trkpt lat="48.04788" lon="7.01449">
        <ele>1264.9</ele>
        <time>2026-03-21T07:59:15Z</time>
      </trkpt>
      <trkpt lat="48.04785" lon="7.01451">
        <ele>1264.6</ele>
        <time>2026-03-21T07:59:20Z</time>
      </trkpt>
      <trkpt lat="48.04782" lon="7.01456">
        <ele>1263.9</ele>
        <time>2026-03-21T07:59:25Z</time>
      </trkpt>
      <trkpt lat="48.04779" lon="7.01459">
        <ele>1263.5</ele>
        <time>2026-03-21T07:59:30Z</time>
      </trkpt>
      <trkpt lat="48.04774" lon="7.01463">
        <ele>1262.7</ele>
        <time>2026-03-21T07:59:35Z</time>
      </trkpt>
      <trkpt lat="48.0477" lon="7.01468">
        <ele>1261.8</ele>
        <time>2026-03-21T07:59:40Z</time>
      </trkpt>
      <trkpt lat="48.04766" lon="7.01473">
        <ele>1260.8</ele>
        <time>2026-03-21T07:59:45Z</time>
      </trkpt>
      <trkpt lat="48.04763" lon="7.01477">
        <ele>1260</ele>
        <time>2026-03-21T07:59:50Z</time>
      </trkpt>
      <trkpt lat="48.0476" lon="7.01482">
        <ele>1259</ele>
        <time>2026-03-21T07:59:55Z</time>
      </trkpt>
      <trkpt lat="48.04755" lon="7.0149">
        <ele>1257.3</ele>
        <time>2026-03-21T08:00:00Z</time>
      </trkpt>
      <trkpt lat="48.04753" lon="7.01494">
        <ele>1256.4</ele>
        <time>2026-03-21T08:00:05Z</time>
      </trkpt>
      <trkpt lat="48.04751" lon="7.01495">
        <ele>1256</ele>
        <time>2026-03-21T08:00:10Z</time>
      </trkpt>
      <trkpt lat="48.04751" lon="7.01495">
        <ele>1256</ele>
        <time>2026-03-21T08:00:15Z</time>
      </trkpt>
      <trkpt lat="48.04751" lon="7.01494">
        <ele>1256.2</ele>
        <time>2026-03-21T08:00:20Z</time>
      </trkpt>
      <trkpt lat="48.04749" lon="7.01492">
        <ele>1255.9</ele>
        <time>2026-03-21T08:00:25Z</time>
      </trkpt>
      <trkpt lat="48.04743" lon="7.0149">
        <ele>1253.4</ele>
        <time>2026-03-21T08:00:30Z</time>
      </trkpt>
      <trkpt lat="48.04738" lon="7.01488">
        <ele>1251.4</ele>
        <time>2026-03-21T08:00:35Z</time>
      </trkpt>
      <trkpt lat="48.04733" lon="7.01487">
        <ele>1249.2</ele>
        <time>2026-03-21T08:00:40Z</time>
      </trkpt>
      <trkpt lat="48.04728" lon="7.01483">
        <ele>1247.7</ele>
        <time>2026-03-21T08:00:45Z</time>
      </trkpt>
      <trkpt lat="48.04724" lon="7.01478">
        <ele>1247.1</ele>
        <time>2026-03-21T08:00:50Z</time>
      </trkpt>
      <trkpt lat="48.04719" lon="7.01472">
        <ele>1246.4</ele>
        <time>2026-03-21T08:00:55Z</time>
      </trkpt>
      <trkpt lat="48.04715" lon="7.01466">
        <ele>1246.3</ele>
        <time>2026-03-21T08:01:00Z</time>
      </trkpt>
      <trkpt lat="48.04711" lon="7.01459">
        <ele>1246.6</ele>
        <time>2026-03-21T08:01:05Z</time>
      </trkpt>
      <trkpt lat="48.04706" lon="7.01453">
        <ele>1246.4</ele>
        <time>2026-03-21T08:01:10Z</time>
      </trkpt>
      <trkpt lat="48.04702" lon="7.01447">
        <ele>1246.7</ele>
        <time>2026-03-21T08:01:15Z</time>
      </trkpt>
      <trkpt lat="48.04699" lon="7.01438">
        <ele>1248.5</ele>
        <time>2026-03-21T08:01:20Z</time>
      </trkpt>
      <trkpt lat="48.04696" lon="7.01429">
        <ele>1250.4</ele>
        <time>2026-03-21T08:01:25Z</time>
      </trkpt>
      <trkpt lat="48.04693" lon="7.0142">
        <ele>1252.5</ele>
        <time>2026-03-21T08:01:30Z</time>
      </trkpt>
      <trkpt lat="48.04693" lon="7.01418">
        <ele>1253.1</ele>
        <time>2026-03-21T08:01:35Z</time>
      </trkpt>
      <trkpt lat="48.04692" lon="7.01418">
        <ele>1252.8</ele>
        <time>2026-03-21T08:01:40Z</time>
      </trkpt>
      <trkpt lat="48.04692" lon="7.01418">
        <ele>1252.8</ele>
        <time>2026-03-21T08:01:45Z</time>
      </trkpt>
      <trkpt lat="48.04692" lon="7.01418">
        <ele>1252.8</ele>
        <time>2026-03-21T08:01:50Z</time>
      </trkpt>
      <trkpt lat="48.04692" lon="7.01418">
        <ele>1252.8</ele>
        <time>2026-03-21T08:01:55Z</time>
      </trkpt>
      <trkpt lat="48.04692" lon="7.01418">
        <ele>1252.8</ele>
        <time>2026-03-21T08:02:00Z</time>
      </trkpt>
      <trkpt lat="48.04692" lon="7.01418">
        <ele>1252.8</ele>
        <time>2026-03-21T08:02:05Z</time>
      </trkpt>
      <trkpt lat="48.04692" lon="7.01418">
        <ele>1252.8</ele>
        <time>2026-03-21T08:02:10Z</time>
      </trkpt>
      <trkpt lat="48.04692" lon="7.01418">
        <ele>1252.8</ele>
        <time>2026-03-21T08:02:15Z</time>
      </trkpt>
      <trkpt lat="48.04692" lon="7.01418">
        <ele>1252.8</ele>
        <time>2026-03-21T08:02:20Z</time>
      </trkpt>
      <trkpt lat="48.04692" lon="7.01418">
        <ele>1252.8</ele>
        <time>2026-03-21T08:02:25Z</time>
      </trkpt>
      <trkpt lat="48.04692" lon="7.01418">
        <ele>1252.8</ele>
        <time>2026-03-21T08:02:30Z</time>
      </trkpt>
      <trkpt lat="48.04692" lon="7.01418">
        <ele>1252.8</ele>
        <time>2026-03-21T08:02:35Z</time>
      </trkpt>
      <trkpt lat="48.04691" lon="7.01417">
        <ele>1252.9</ele>
        <time>2026-03-21T08:02:40Z</time>
      </trkpt>
      <trkpt lat="48.04686" lon="7.01411">
        <ele>1253.1</ele>
        <time>2026-03-21T08:02:45Z</time>
      </trkpt>
      <trkpt lat="48.04682" lon="7.01404">
        <ele>1253.9</ele>
        <time>2026-03-21T08:02:50Z</time>
      </trkpt>
      <trkpt lat="48.04677" lon="7.01399">
        <ele>1254.1</ele>
        <time>2026-03-21T08:02:55Z</time>
      </trkpt>
      <trkpt lat="48.04673" lon="7.01392">
        <ele>1255.3</ele>
        <time>2026-03-21T08:03:00Z</time>
      </trkpt>
      <trkpt lat="48.04668" lon="7.01385">
        <ele>1256.5</ele>
        <time>2026-03-21T08:03:05Z</time>
      </trkpt>
      <trkpt lat="48.04664" lon="7.0138">
        <ele>1256.6</ele>
        <time>2026-03-21T08:03:10Z</time>
      </trkpt>
      <trkpt lat="48.04657" lon="7.01376">
        <ele>1254.7</ele>
        <time>2026-03-21T08:03:15Z</time>
      </trkpt>
      <trkpt lat="48.04652" lon="7.01373">
        <ele>1253.5</ele>
        <time>2026-03-21T08:03:20Z</time>
      </trkpt>
      <trkpt lat="48.04645" lon="7.01369">
        <ele>1251.9</ele>
        <time>2026-03-21T08:03:25Z</time>
      </trkpt>
      <trkpt lat="48.04639" lon="7.01367">
        <ele>1250</ele>
        <time>2026-03-21T08:03:30Z</time>
      </trkpt>
      <trkpt lat="48.04633" lon="7.01365">
        <ele>1248.3</ele>
        <time>2026-03-21T08:03:35Z</time>
      </trkpt>
      <trkpt lat="48.04627" lon="7.01363">
        <ele>1246.6</ele>
        <time>2026-03-21T08:03:40Z</time>
      </trkpt>
      <trkpt lat="48.04621" lon="7.0136">
        <ele>1245.5</ele>
        <time>2026-03-21T08:03:45Z</time>
      </trkpt>
      <trkpt lat="48.04619" lon="7.0136">
        <ele>1244.7</ele>
        <time>2026-03-21T08:03:50Z</time>
      </trkpt>
      <trkpt lat="48.04619" lon="7.0136">
        <ele>1244.7</ele>
        <time>2026-03-21T08:03:55Z</time>
      </trkpt>
      <trkpt lat="48.04619" lon="7.0136">
        <ele>1244.7</ele>
        <time>2026-03-21T08:04:00Z</time>
      </trkpt>
      <trkpt lat="48.04619" lon="7.0136">
        <ele>1244.7</ele>
        <time>2026-03-21T08:04:05Z</time>
      </trkpt>
      <trkpt lat="48.04619" lon="7.0136">
        <ele>1244.7</ele>
        <time>2026-03-21T08:04:10Z</time>
      </trkpt>
      <trkpt lat="48.04619" lon="7.0136">
        <ele>1244.7</ele>
        <time>2026-03-21T08:04:15Z</time>
      </trkpt>
      <trkpt lat="48.04619" lon="7.0136">
        <ele>1244.7</ele>
        <time>2026-03-21T08:04:20Z</time>
      </trkpt>
      <trkpt lat="48.04619" lon="7.0136">
        <ele>1244.7</ele>
        <time>2026-03-21T08:04:25Z</time>
      </trkpt>
      <trkpt lat="48.04617" lon="7.01359">
        <ele>1244.4</ele>
        <time>2026-03-21T08:04:30Z</time>
      </trkpt>
      <trkpt lat="48.04613" lon="7.01357">
        <ele>1243.7</ele>
        <time>2026-03-21T08:04:35Z</time>
      </trkpt>
      <trkpt lat="48.04607" lon="7.01351">
        <ele>1244.5</ele>
        <time>2026-03-21T08:04:40Z</time>
      </trkpt>
      <trkpt lat="48.04602" lon="7.01347">
        <ele>1244.7</ele>
        <time>2026-03-21T08:04:45Z</time>
      </trkpt>
      <trkpt lat="48.04597" lon="7.01342">
        <ele>1245.6</ele>
        <time>2026-03-21T08:04:50Z</time>
      </trkpt>
      <trkpt lat="48.04592" lon="7.01336">
        <ele>1247.3</ele>
        <time>2026-03-21T08:04:55Z</time>
      </trkpt>
      <trkpt lat="48.04587" lon="7.01332">
        <ele>1247.7</ele>
        <time>2026-03-21T08:05:00Z</time>
      </trkpt>
      <trkpt lat="48.04582" lon="7.01327">
        <ele>1248.2</ele>
        <time>2026-03-21T08:05:05Z</time>
      </trkpt>
      <trkpt lat="48.04577" lon="7.01323">
        <ele>1247.8</ele>
        <time>2026-03-21T08:05:10Z</time>
      </trkpt>
      <trkpt lat="48.04571" lon="7.01321">
        <ele>1246.3</ele>
        <time>2026-03-21T08:05:15Z</time>
      </trkpt>
      <trkpt lat="48.04566" lon="7.01317">
        <ele>1246.2</ele>
        <time>2026-03-21T08:05:20Z</time>
      </trkpt>
      <trkpt lat="48.04561" lon="7.01314">
        <ele>1245.7</ele>
        <time>2026-03-21T08:05:25Z</time>
      </trkpt>
      <trkpt lat="48.04557" lon="7.0131">
        <ele>1246.3</ele>
        <time>2026-03-21T08:05:30Z</time>
      </trkpt>
      <trkpt lat="48.04554" lon="7.01307">
        <ele>1246.8</ele>
        <time>2026-03-21T08:05:35Z</time>
      </trkpt>
      <trkpt lat="48.04551" lon="7.01303">
        <ele>1247.9</ele>
        <time>2026-03-21T08:05:40Z</time>
      </trkpt>
      <trkpt lat="48.04547" lon="7.01302">
        <ele>1247.1</ele>
        <time>2026-03-21T08:05:45Z</time>
      </trkpt>
      <trkpt lat="48.04542" lon="7.01301">
        <ele>1245.9</ele>
        <time>2026-03-21T08:05:50Z</time>
      </trkpt>
      <trkpt lat="48.04538" lon="7.01297">
        <ele>1247</ele>
        <time>2026-03-21T08:05:55Z</time>
      </trkpt>
      <trkpt lat="48.04533" lon="7.01293">
        <ele>1247.8</ele>
        <time>2026-03-21T08:06:00Z</time>
      </trkpt>
      <trkpt lat="48.04529" lon="7.01288">
        <ele>1249.7</ele>
        <time>2026-03-21T08:06:05Z</time>
      </trkpt>
      <trkpt lat="48.04524" lon="7.01285">
        <ele>1250.1</ele>
        <time>2026-03-21T08:06:10Z</time>
      </trkpt>
      <trkpt lat="48.04521" lon="7.0128">
        <ele>1252.6</ele>
        <time>2026-03-21T08:06:15Z</time>
      </trkpt>
      <trkpt lat="48.04515" lon="7.01276">
        <ele>1253.7</ele>
        <time>2026-03-21T08:06:20Z</time>
      </trkpt>
      <trkpt lat="48.04511" lon="7.01272">
        <ele>1255.5</ele>
        <time>2026-03-21T08:06:25Z</time>
      </trkpt>
      <trkpt lat="48.04507" lon="7.01267">
        <ele>1258.1</ele>
        <time>2026-03-21T08:06:30Z</time>
      </trkpt>
      <trkpt lat="48.04502" lon="7.01265">
        <ele>1258.4</ele>
        <time>2026-03-21T08:06:35Z</time>
      </trkpt>
      <trkpt lat="48.04497" lon="7.01261">
        <ele>1260.6</ele>
        <time>2026-03-21T08:06:40Z</time>
      </trkpt>
      <trkpt lat="48.04492" lon="7.01259">
        <ele>1261.6</ele>
        <time>2026-03-21T08:06:45Z</time>
      </trkpt>
      <trkpt lat="48.04487" lon="7.01255">
        <ele>1263.9</ele>
        <time>2026-03-21T08:06:50Z</time>
      </trkpt>
      <trkpt lat="48.04481" lon="7.01253">
        <ele>1264.8</ele>
        <time>2026-03-21T08:06:55Z</time>
      </trkpt>
      <trkpt lat="48.04477" lon="7.0125">
        <ele>1266.5</ele>
        <time>2026-03-21T08:07:00Z</time>
      </trkpt>
      <trkpt lat="48.04473" lon="7.01248">
        <ele>1266.7</ele>
        <time>2026-03-21T08:07:05Z</time>
      </trkpt>
      <trkpt lat="48.04468" lon="7.01244">
        <ele>1267.4</ele>
        <time>2026-03-21T08:07:10Z</time>
      </trkpt>
      <trkpt lat="48.04464" lon="7.01241">
        <ele>1268</ele>
        <time>2026-03-21T08:07:15Z</time>
      </trkpt>
      <trkpt lat="48.04463" lon="7.01239">
        <ele>1268.5</ele>
        <time>2026-03-21T08:07:20Z</time>
      </trkpt>
      <trkpt lat="48.04463" lon="7.01239">
        <ele>1268.5</ele>
        <time>2026-03-21T08:07:25Z</time>
      </trkpt>
      <trkpt lat="48.04463" lon="7.01239">
        <ele>1268.5</ele>
        <time>2026-03-21T08:07:30Z</time>
      </trkpt>
      <trkpt lat="48.04463" lon="7.01239">
        <ele>1268.5</ele>
        <time>2026-03-21T08:07:35Z</time>
      </trkpt>
      <trkpt lat="48.04463" lon="7.01239">
        <ele>1268.5</ele>
        <time>2026-03-21T08:07:40Z</time>
      </trkpt>
      <trkpt lat="48.04463" lon="7.01239">
        <ele>1268.5</ele>
        <time>2026-03-21T08:07:45Z</time>
      </trkpt>
      <trkpt lat="48.04463" lon="7.01239">
        <ele>1268.5</ele>
        <time>2026-03-21T08:07:50Z</time>
      </trkpt>
      <trkpt lat="48.04463" lon="7.01239">
        <ele>1268.5</ele>
        <time>2026-03-21T08:07:55Z</time>
      </trkpt>
      <trkpt lat="48.04463" lon="7.01239">
        <ele>1268.5</ele>
        <time>2026-03-21T08:08:00Z</time>
      </trkpt>
      <trkpt lat="48.04459" lon="7.01237">
        <ele>1268.8</ele>
        <time>2026-03-21T08:08:05Z</time>
      </trkpt>
      <trkpt lat="48.04455" lon="7.01234">
        <ele>1269.4</ele>
        <time>2026-03-21T08:08:10Z</time>
      </trkpt>
      <trkpt lat="48.0445" lon="7.0123">
        <ele>1270.3</ele>
        <time>2026-03-21T08:08:15Z</time>
      </trkpt>
      <trkpt lat="48.04446" lon="7.01226">
        <ele>1271.4</ele>
        <time>2026-03-21T08:08:20Z</time>
      </trkpt>
      <trkpt lat="48.04441" lon="7.01221">
        <ele>1272.7</ele>
        <time>2026-03-21T08:08:25Z</time>
      </trkpt>
      <trkpt lat="48.04437" lon="7.01216">
        <ele>1274.3</ele>
        <time>2026-03-21T08:08:30Z</time>
      </trkpt>
      <trkpt lat="48.04433" lon="7.01211">
        <ele>1275.8</ele>
        <time>2026-03-21T08:08:35Z</time>
      </trkpt>
      <trkpt lat="48.0443" lon="7.01208">
        <ele>1276.8</ele>
        <time>2026-03-21T08:08:40Z</time>
      </trkpt>
      <trkpt lat="48.04427" lon="7.01206">
        <ele>1277.4</ele>
        <time>2026-03-21T08:08:45Z</time>
      </trkpt>
      <trkpt lat="48.04422" lon="7.01205">
        <ele>1277.5</ele>
        <time>2026-03-21T08:08:50Z</time>
      </trkpt>
      <trkpt lat="48.04419" lon="7.01205">
        <ele>1277.4</ele>
        <time>2026-03-21T08:08:55Z</time>
      </trkpt>
      <trkpt lat="48.04414" lon="7.01207">
        <ele>1276.1</ele>
        <time>2026-03-21T08:09:00Z</time>
      </trkpt>
      <trkpt lat="48.04408" lon="7.01209">
        <ele>1274.4</ele>
        <time>2026-03-21T08:09:05Z</time>
      </trkpt>
      <trkpt lat="48.04403" lon="7.0121">
        <ele>1273.2</ele>
        <time>2026-03-21T08:09:10Z</time>
      </trkpt>
      <trkpt lat="48.04397" lon="7.01208">
        <ele>1273.1</ele>
        <time>2026-03-21T08:09:15Z</time>
      </trkpt>
      <trkpt lat="48.0439" lon="7.01207">
        <ele>1272.4</ele>
        <time>2026-03-21T08:09:20Z</time>
      </trkpt>
      <trkpt lat="48.04384" lon="7.01203">
        <ele>1273.2</ele>
        <time>2026-03-21T08:09:25Z</time>
      </trkpt>
      <trkpt lat="48.04378" lon="7.012">
        <ele>1273.5</ele>
        <time>2026-03-21T08:09:30Z</time>
      </trkpt>
      <trkpt lat="48.04371" lon="7.01198">
        <ele>1273.4</ele>
        <time>2026-03-21T08:09:35Z</time>
      </trkpt>
      <trkpt lat="48.04366" lon="7.01195">
        <ele>1274</ele>
        <time>2026-03-21T08:09:40Z</time>
      </trkpt>
      <trkpt lat="48.04359" lon="7.01195">
        <ele>1273</ele>
        <time>2026-03-21T08:09:45Z</time>
      </trkpt>
      <trkpt lat="48.04353" lon="7.01195">
        <ele>1272.2</ele>
        <time>2026-03-21T08:09:50Z</time>
      </trkpt>
      <trkpt lat="48.04346" lon="7.01197">
        <ele>1270.3</ele>
        <time>2026-03-21T08:09:55Z</time>
      </trkpt>
      <trkpt lat="48.0434" lon="7.01193">
        <ele>1271.3</ele>
        <time>2026-03-21T08:10:00Z</time>
      </trkpt>
      <trkpt lat="48.04334" lon="7.01191">
        <ele>1271.4</ele>
        <time>2026-03-21T08:10:05Z</time>
      </trkpt>
      <trkpt lat="48.04329" lon="7.01188">
        <ele>1273.2</ele>
        <time>2026-03-21T08:10:10Z</time>
      </trkpt>
      <trkpt lat="48.04322" lon="7.01187">
        <ele>1274.2</ele>
        <time>2026-03-21T08:10:15Z</time>
      </trkpt>
      <trkpt lat="48.04321" lon="7.01186">
        <ele>1274.8</ele>
        <time>2026-03-21T08:10:20Z</time>
      </trkpt>
      <trkpt lat="48.0432" lon="7.01186">
        <ele>1274.9</ele>
        <time>2026-03-21T08:10:25Z</time>
      </trkpt>
      <trkpt lat="48.04321" lon="7.01185">
        <ele>1275.2</ele>
        <time>2026-03-21T08:10:30Z</time>
      </trkpt>
      <trkpt lat="48.04317" lon="7.01185">
        <ele>1275.5</ele>
        <time>2026-03-21T08:10:35Z</time>
      </trkpt>
      <trkpt lat="48.04314" lon="7.01182">
        <ele>1277</ele>
        <time>2026-03-21T08:10:40Z</time>
      </trkpt>
      <trkpt lat="48.04309" lon="7.01179">
        <ele>1278.6</ele>
        <time>2026-03-21T08:10:45Z</time>
      </trkpt>
      <trkpt lat="48.04304" lon="7.01176">
        <ele>1280.1</ele>
        <time>2026-03-21T08:10:50Z</time>
      </trkpt>
      <trkpt lat="48.04299" lon="7.01171">
        <ele>1282.2</ele>
        <time>2026-03-21T08:10:55Z</time>
      </trkpt>
      <trkpt lat="48.04294" lon="7.01168">
        <ele>1283.5</ele>
        <time>2026-03-21T08:11:00Z</time>
      </trkpt>
      <trkpt lat="48.0429" lon="7.01164">
        <ele>1284.4</ele>
        <time>2026-03-21T08:11:05Z</time>
      </trkpt>
      <trkpt lat="48.04285" lon="7.01161">
        <ele>1284.9</ele>
        <time>2026-03-21T08:11:10Z</time>
      </trkpt>
      <trkpt lat="48.04279" lon="7.01158">
        <ele>1285.4</ele>
        <time>2026-03-21T08:11:15Z</time>
      </trkpt>
      <trkpt lat="48.04273" lon="7.01153">
        <ele>1286.1</ele>
        <time>2026-03-21T08:11:20Z</time>
      </trkpt>
      <trkpt lat="48.04269" lon="7.01149">
        <ele>1286.6</ele>
        <time>2026-03-21T08:11:25Z</time>
      </trkpt>
      <trkpt lat="48.04263" lon="7.01149">
        <ele>1286.6</ele>
        <time>2026-03-21T08:11:30Z</time>
      </trkpt>
      <trkpt lat="48.04259" lon="7.01148">
        <ele>1286.8</ele>
        <time>2026-03-21T08:11:35Z</time>
      </trkpt>
      <trkpt lat="48.04254" lon="7.01145">
        <ele>1287.1</ele>
        <time>2026-03-21T08:11:40Z</time>
      </trkpt>
      <trkpt lat="48.04248" lon="7.01143">
        <ele>1287.6</ele>
        <time>2026-03-21T08:11:45Z</time>
      </trkpt>
      <trkpt lat="48.04242" lon="7.0114">
        <ele>1288.8</ele>
        <time>2026-03-21T08:11:50Z</time>
      </trkpt>
      <trkpt lat="48.04237" lon="7.01137">
        <ele>1289.8</ele>
        <time>2026-03-21T08:11:55Z</time>
      </trkpt>
      <trkpt lat="48.04232" lon="7.01134">
        <ele>1290.7</ele>
        <time>2026-03-21T08:12:00Z</time>
      </trkpt>
      <trkpt lat="48.04226" lon="7.01131">
        <ele>1291.6</ele>
        <time>2026-03-21T08:12:05Z</time>
      </trkpt>
      <trkpt lat="48.0422" lon="7.01127">
        <ele>1292.4</ele>
        <time>2026-03-21T08:12:10Z</time>
      </trkpt>
      <trkpt lat="48.04215" lon="7.01124">
        <ele>1293</ele>
        <time>2026-03-21T08:12:15Z</time>
      </trkpt>
      <trkpt lat="48.04208" lon="7.0112">
        <ele>1293.6</ele>
        <time>2026-03-21T08:12:20Z</time>
      </trkpt>
      <trkpt lat="48.04202" lon="7.01117">
        <ele>1294.1</ele>
        <time>2026-03-21T08:12:25Z</time>
      </trkpt>
      <trkpt lat="48.04195" lon="7.01114">
        <ele>1294.5</ele>
        <time>2026-03-21T08:12:30Z</time>
      </trkpt>
      <trkpt lat="48.04189" lon="7.01112">
        <ele>1294.8</ele>
        <time>2026-03-21T08:12:35Z</time>
      </trkpt>
      <trkpt lat="48.04182" lon="7.0111">
        <ele>1295.1</ele>
        <time>2026-03-21T08:12:40Z</time>
      </trkpt>
      <trkpt lat="48.04176" lon="7.01112">
        <ele>1295.8</ele>
        <time>2026-03-21T08:12:45Z</time>
      </trkpt>
      <trkpt lat="48.04172" lon="7.0111">
        <ele>1295.8</ele>
        <time>2026-03-21T08:12:50Z</time>
      </trkpt>
      <trkpt lat="48.04171" lon="7.01107">
        <ele>1295.4</ele>
        <time>2026-03-21T08:12:55Z</time>
      </trkpt>
      <trkpt lat="48.04167" lon="7.01103">
        <ele>1295.1</ele>
        <time>2026-03-21T08:13:00Z</time>
      </trkpt>
      <trkpt lat="48.04163" lon="7.011">
        <ele>1294.5</ele>
        <time>2026-03-21T08:13:05Z</time>
      </trkpt>
      <trkpt lat="48.04159" lon="7.01097">
        <ele>1293.9</ele>
        <time>2026-03-21T08:13:10Z</time>
      </trkpt>
      <trkpt lat="48.04154" lon="7.01094">
        <ele>1293.2</ele>
        <time>2026-03-21T08:13:15Z</time>
      </trkpt>
      <trkpt lat="48.0415" lon="7.01094">
        <ele>1293.1</ele>
        <time>2026-03-21T08:13:20Z</time>
      </trkpt>
      <trkpt lat="48.04145" lon="7.01092">
        <ele>1292.6</ele>
        <time>2026-03-21T08:13:25Z</time>
      </trkpt>
      <trkpt lat="48.04142" lon="7.01091">
        <ele>1292.4</ele>
        <time>2026-03-21T08:13:30Z</time>
      </trkpt>
      <trkpt lat="48.0414" lon="7.0109">
        <ele>1292.1</ele>
        <time>2026-03-21T08:13:35Z</time>
      </trkpt>
      <trkpt lat="48.0414" lon="7.0109">
        <ele>1292.1</ele>
        <time>2026-03-21T08:13:40Z</time>
      </trkpt>
      <trkpt lat="48.0414" lon="7.0109">
        <ele>1292.1</ele>
        <time>2026-03-21T08:13:45Z</time>
      </trkpt>
      <trkpt lat="48.0414" lon="7.0109">
        <ele>1292.1</ele>
        <time>2026-03-21T08:13:50Z</time>
      </trkpt>
      <trkpt lat="48.0414" lon="7.0109">
        <ele>1292.1</ele>
        <time>2026-03-21T08:13:55Z</time>
      </trkpt>
      <trkpt lat="48.0414" lon="7.0109">
        <ele>1292.1</ele>
        <time>2026-03-21T08:14:00Z</time>
      </trkpt>
      <trkpt lat="48.04128" lon="7.01097">
        <ele>1292.9</ele>
        <time>2026-03-21T08:14:05Z</time>
      </trkpt>
      <trkpt lat="48.04128" lon="7.01097">
        <ele>1292.9</ele>
        <time>2026-03-21T08:14:10Z</time>
      </trkpt>
      <trkpt lat="48.04128" lon="7.01097">
        <ele>1292.9</ele>
        <time>2026-03-21T08:14:15Z</time>
      </trkpt>
      <trkpt lat="48.04128" lon="7.01097">
        <ele>1292.9</ele>
        <time>2026-03-21T08:14:20Z</time>
      </trkpt>
      <trkpt lat="48.04127" lon="7.01097">
        <ele>1292.9</ele>
        <time>2026-03-21T08:14:25Z</time>
      </trkpt>
      <trkpt lat="48.04123" lon="7.011">
        <ele>1293.2</ele>
        <time>2026-03-21T08:14:30Z</time>
      </trkpt>
      <trkpt lat="48.04118" lon="7.01101">
        <ele>1293.3</ele>
        <time>2026-03-21T08:14:35Z</time>
      </trkpt>
      <trkpt lat="48.04115" lon="7.01102">
        <ele>1293.3</ele>
        <time>2026-03-21T08:14:40Z</time>
      </trkpt>
      <trkpt lat="48.04115" lon="7.01102">
        <ele>1293.3</ele>
        <time>2026-03-21T08:14:45Z</time>
      </trkpt>
      <trkpt lat="48.04115" lon="7.01103">
        <ele>1293.5</ele>
        <time>2026-03-21T08:14:50Z</time>
      </trkpt>
      <trkpt lat="48.0411" lon="7.0111">
        <ele>1294.6</ele>
        <time>2026-03-21T08:14:55Z</time>
      </trkpt>
      <trkpt lat="48.04105" lon="7.01114">
        <ele>1295.1</ele>
        <time>2026-03-21T08:15:00Z</time>
      </trkpt>
      <trkpt lat="48.041" lon="7.01119">
        <ele>1295.8</ele>
        <time>2026-03-21T08:15:05Z</time>
      </trkpt>
      <trkpt lat="48.04095" lon="7.01121">
        <ele>1296.1</ele>
        <time>2026-03-21T08:15:10Z</time>
      </trkpt>
      <trkpt lat="48.04091" lon="7.01124">
        <ele>1296.5</ele>
        <time>2026-03-21T08:15:15Z</time>
      </trkpt>
      <trkpt lat="48.04086" lon="7.01128">
        <ele>1297.1</ele>
        <time>2026-03-21T08:15:20Z</time>
      </trkpt>
      <trkpt lat="48.04083" lon="7.01132">
        <ele>1297.8</ele>
        <time>2026-03-21T08:15:25Z</time>
      </trkpt>
      <trkpt lat="48.04078" lon="7.01134">
        <ele>1298.1</ele>
        <time>2026-03-21T08:15:30Z</time>
      </trkpt>
      <trkpt lat="48.04074" lon="7.01138">
        <ele>1298.7</ele>
        <time>2026-03-21T08:15:35Z</time>
      </trkpt>
      <trkpt lat="48.0407" lon="7.0114">
        <ele>1299</ele>
        <time>2026-03-21T08:15:40Z</time>
      </trkpt>
      <trkpt lat="48.04066" lon="7.01143">
        <ele>1299.5</ele>
        <time>2026-03-21T08:15:45Z</time>
      </trkpt>
      <trkpt lat="48.04062" lon="7.01145">
        <ele>1299.8</ele>
        <time>2026-03-21T08:15:50Z</time>
      </trkpt>
      <trkpt lat="48.04058" lon="7.01148">
        <ele>1300.3</ele>
        <time>2026-03-21T08:15:55Z</time>
      </trkpt>
      <trkpt lat="48.04055" lon="7.0115">
        <ele>1300.7</ele>
        <time>2026-03-21T08:16:00Z</time>
      </trkpt>
      <trkpt lat="48.0405" lon="7.01151">
        <ele>1300.8</ele>
        <time>2026-03-21T08:16:05Z</time>
      </trkpt>
      <trkpt lat="48.04047" lon="7.01155">
        <ele>1301.5</ele>
        <time>2026-03-21T08:16:10Z</time>
      </trkpt>
      <trkpt lat="48.04042" lon="7.01159">
        <ele>1302.1</ele>
        <time>2026-03-21T08:16:15Z</time>
      </trkpt>
      <trkpt lat="48.04037" lon="7.01161">
        <ele>1302.4</ele>
        <time>2026-03-21T08:16:20Z</time>
      </trkpt>
      <trkpt lat="48.04033" lon="7.01164">
        <ele>1302.9</ele>
        <time>2026-03-21T08:16:25Z</time>
      </trkpt>
      <trkpt lat="48.0403" lon="7.01168">
        <ele>1303.6</ele>
        <time>2026-03-21T08:16:30Z</time>
      </trkpt>
      <trkpt lat="48.04025" lon="7.01172">
        <ele>1304.3</ele>
        <time>2026-03-21T08:16:35Z</time>
      </trkpt>
      <trkpt lat="48.04023" lon="7.01176">
        <ele>1305</ele>
        <time>2026-03-21T08:16:40Z</time>
      </trkpt>
      <trkpt lat="48.04019" lon="7.01179">
        <ele>1305.5</ele>
        <time>2026-03-21T08:16:45Z</time>
      </trkpt>
      <trkpt lat="48.04016" lon="7.01181">
        <ele>1305.8</ele>
        <time>2026-03-21T08:16:50Z</time>
      </trkpt>
      <trkpt lat="48.04011" lon="7.01183">
        <ele>1306.2</ele>
        <time>2026-03-21T08:16:55Z</time>
      </trkpt>
      <trkpt lat="48.04007" lon="7.01186">
        <ele>1306.7</ele>
        <time>2026-03-21T08:17:00Z</time>
      </trkpt>
      <trkpt lat="48.04003" lon="7.0119">
        <ele>1307.5</ele>
        <time>2026-03-21T08:17:05Z</time>
      </trkpt>
      <trkpt lat="48.03999" lon="7.01192">
        <ele>1307.9</ele>
        <time>2026-03-21T08:17:10Z</time>
      </trkpt>
      <trkpt lat="48.03995" lon="7.01195">
        <ele>1308.5</ele>
        <time>2026-03-21T08:17:15Z</time>
      </trkpt>
      <trkpt lat="48.03991" lon="7.01196">
        <ele>1308.7</ele>
        <time>2026-03-21T08:17:20Z</time>
      </trkpt>
      <trkpt lat="48.03987" lon="7.01197">
        <ele>1308.9</ele>
        <time>2026-03-21T08:17:25Z</time>
      </trkpt>
      <trkpt lat="48.03983" lon="7.01199">
        <ele>1309.3</ele>
        <time>2026-03-21T08:17:30Z</time>
      </trkpt>
      <trkpt lat="48.0398" lon="7.01202">
        <ele>1309.9</ele>
        <time>2026-03-21T08:17:35Z</time>
      </trkpt>
      <trkpt lat="48.03973" lon="7.01204">
        <ele>1310.2</ele>
        <time>2026-03-21T08:17:40Z</time>
      </trkpt>
      <trkpt lat="48.0397" lon="7.01208">
        <ele>1310.9</ele>
        <time>2026-03-21T08:17:45Z</time>
      </trkpt>
      <trkpt lat="48.03964" lon="7.0121">
        <ele>1311.3</ele>
        <time>2026-03-21T08:17:50Z</time>
      </trkpt>
      <trkpt lat="48.03961" lon="7.01213">
        <ele>1311.8</ele>
        <time>2026-03-21T08:17:55Z</time>
      </trkpt>
      <trkpt lat="48.03955" lon="7.01215">
        <ele>1312.1</ele>
        <time>2026-03-21T08:18:00Z</time>
      </trkpt>
      <trkpt lat="48.03952" lon="7.01217">
        <ele>1312.4</ele>
        <time>2026-03-21T08:18:05Z</time>
      </trkpt>
      <trkpt lat="48.03951" lon="7.01218">
        <ele>1312.6</ele>
        <time>2026-03-21T08:18:10Z</time>
      </trkpt>
      <trkpt lat="48.03951" lon="7.01218">
        <ele>1312.6</ele>
        <time>2026-03-21T08:18:15Z</time>
      </trkpt>
      <trkpt lat="48.03949" lon="7.01218">
        <ele>1312.6</ele>
        <time>2026-03-21T08:18:20Z</time>
      </trkpt>
      <trkpt lat="48.03944" lon="7.01222">
        <ele>1313.2</ele>
        <time>2026-03-21T08:18:25Z</time>
      </trkpt>
      <trkpt lat="48.03939" lon="7.01226">
        <ele>1313.8</ele>
        <time>2026-03-21T08:18:30Z</time>
      </trkpt>
      <trkpt lat="48.03934" lon="7.0123">
        <ele>1314.3</ele>
        <time>2026-03-21T08:18:35Z</time>
      </trkpt>
      <trkpt lat="48.03931" lon="7.01234">
        <ele>1314.9</ele>
        <time>2026-03-21T08:18:40Z</time>
      </trkpt>
      <trkpt lat="48.03928" lon="7.01238">
        <ele>1315.5</ele>
        <time>2026-03-21T08:18:45Z</time>
      </trkpt>
      <trkpt lat="48.03925" lon="7.01242">
        <ele>1316</ele>
        <time>2026-03-21T08:18:50Z</time>
      </trkpt>
      <trkpt lat="48.03919" lon="7.01245">
        <ele>1316.3</ele>
        <time>2026-03-21T08:18:55Z</time>
      </trkpt>
      <trkpt lat="48.03916" lon="7.01248">
        <ele>1316.7</ele>
        <time>2026-03-21T08:19:00Z</time>
      </trkpt>
      <trkpt lat="48.03911" lon="7.01251">
        <ele>1316.9</ele>
        <time>2026-03-21T08:19:05Z</time>
      </trkpt>
      <trkpt lat="48.03907" lon="7.01255">
        <ele>1317.2</ele>
        <time>2026-03-21T08:19:10Z</time>
      </trkpt>
      <trkpt lat="48.03904" lon="7.01259">
        <ele>1317.6</ele>
        <time>2026-03-21T08:19:15Z</time>
      </trkpt>
      <trkpt lat="48.03902" lon="7.01264">
        <ele>1318.1</ele>
        <time>2026-03-21T08:19:20Z</time>
      </trkpt>
      <trkpt lat="48.03897" lon="7.01267">
        <ele>1318.4</ele>
        <time>2026-03-21T08:19:25Z</time>
      </trkpt>
      <trkpt lat="48.03893" lon="7.01271">
        <ele>1318.8</ele>
        <time>2026-03-21T08:19:30Z</time>
      </trkpt>
      <trkpt lat="48.0389" lon="7.01275">
        <ele>1319.2</ele>
        <time>2026-03-21T08:19:35Z</time>
      </trkpt>
      <trkpt lat="48.03886" lon="7.01279">
        <ele>1319.7</ele>
        <time>2026-03-21T08:19:40Z</time>
      </trkpt>
      <trkpt lat="48.03883" lon="7.01283">
        <ele>1320.2</ele>
        <time>2026-03-21T08:19:45Z</time>
      </trkpt>
      <trkpt lat="48.03882" lon="7.0129">
        <ele>1321.1</ele>
        <time>2026-03-21T08:19:50Z</time>
      </trkpt>
      <trkpt lat="48.03879" lon="7.01294">
        <ele>1321.6</ele>
        <time>2026-03-21T08:19:55Z</time>
      </trkpt>
      <trkpt lat="48.03874" lon="7.01296">
        <ele>1321.8</ele>
        <time>2026-03-21T08:20:00Z</time>
      </trkpt>
      <trkpt lat="48.03871" lon="7.01301">
        <ele>1322.5</ele>
        <time>2026-03-21T08:20:05Z</time>
      </trkpt>
      <trkpt lat="48.03867" lon="7.01305">
        <ele>1323.1</ele>
        <time>2026-03-21T08:20:10Z</time>
      </trkpt>
      <trkpt lat="48.03864" lon="7.0131">
        <ele>1323.9</ele>
        <time>2026-03-21T08:20:15Z</time>
      </trkpt>
      <trkpt lat="48.0386" lon="7.01313">
        <ele>1324.3</ele>
        <time>2026-03-21T08:20:20Z</time>
      </trkpt>
      <trkpt lat="48.03857" lon="7.01317">
        <ele>1325</ele>
        <time>2026-03-21T08:20:25Z</time>
      </trkpt>
      <trkpt lat="48.03854" lon="7.01322">
        <ele>1325.8</ele>
        <time>2026-03-21T08:20:30Z</time>
      </trkpt>
      <trkpt lat="48.03852" lon="7.01327">
        <ele>1326.6</ele>
        <time>2026-03-21T08:20:35Z</time>
      </trkpt>
      <trkpt lat="48.03848" lon="7.01332">
        <ele>1327.4</ele>
        <time>2026-03-21T08:20:40Z</time>
      </trkpt>
      <trkpt lat="48.03846" lon="7.01336">
        <ele>1327.9</ele>
        <time>2026-03-21T08:20:45Z</time>
      </trkpt>
      <trkpt lat="48.03843" lon="7.0134">
        <ele>1328.4</ele>
        <time>2026-03-21T08:20:50Z</time>
      </trkpt>
      <trkpt lat="48.03839" lon="7.01346">
        <ele>1329</ele>
        <time>2026-03-21T08:20:55Z</time>
      </trkpt>
      <trkpt lat="48.03835" lon="7.01348">
        <ele>1329.2</ele>
        <time>2026-03-21T08:21:00Z</time>
      </trkpt>
      <trkpt lat="48.0383" lon="7.01351">
        <ele>1328.8</ele>
        <time>2026-03-21T08:21:05Z</time>
      </trkpt>
      <trkpt lat="48.03826" lon="7.01351">
        <ele>1328</ele>
        <time>2026-03-21T08:21:10Z</time>
      </trkpt>
      <trkpt lat="48.03821" lon="7.01352">
        <ele>1327</ele>
        <time>2026-03-21T08:21:15Z</time>
      </trkpt>
      <trkpt lat="48.03818" lon="7.01355">
        <ele>1326.5</ele>
        <time>2026-03-21T08:21:20Z</time>
      </trkpt>
      <trkpt lat="48.03815" lon="7.01359">
        <ele>1326</ele>
        <time>2026-03-21T08:21:25Z</time>
      </trkpt>
      <trkpt lat="48.0381" lon="7.01361">
        <ele>1324.9</ele>
        <time>2026-03-21T08:21:30Z</time>
      </trkpt>
      <trkpt lat="48.03807" lon="7.01364">
        <ele>1324.3</ele>
        <time>2026-03-21T08:21:35Z</time>
      </trkpt>
      <trkpt lat="48.03804" lon="7.0137">
        <ele>1323.7</ele>
        <time>2026-03-21T08:21:40Z</time>
      </trkpt>
      <trkpt lat="48.03802" lon="7.01374">
        <ele>1323.2</ele>
        <time>2026-03-21T08:21:45Z</time>
      </trkpt>
      <trkpt lat="48.03801" lon="7.01381">
        <ele>1323</ele>
        <time>2026-03-21T08:21:50Z</time>
      </trkpt>
      <trkpt lat="48.03802" lon="7.01386">
        <ele>1323.4</ele>
        <time>2026-03-21T08:21:55Z</time>
      </trkpt>
      <trkpt lat="48.03802" lon="7.01392">
        <ele>1323.4</ele>
        <time>2026-03-21T08:22:00Z</time>
      </trkpt>
      <trkpt lat="48.03804" lon="7.01398">
        <ele>1324.1</ele>
        <time>2026-03-21T08:22:05Z</time>
      </trkpt>
      <trkpt lat="48.03807" lon="7.01401">
        <ele>1325.2</ele>
        <time>2026-03-21T08:22:10Z</time>
      </trkpt>
      <trkpt lat="48.0381" lon="7.01405">
        <ele>1326.2</ele>
        <time>2026-03-21T08:22:15Z</time>
      </trkpt>
      <trkpt lat="48.03813" lon="7.01408">
        <ele>1327.4</ele>
        <time>2026-03-21T08:22:20Z</time>
      </trkpt>
      <trkpt lat="48.03816" lon="7.01412">
        <ele>1328.6</ele>
        <time>2026-03-21T08:22:25Z</time>
      </trkpt>
      <trkpt lat="48.03818" lon="7.01417">
        <ele>1329.5</ele>
        <time>2026-03-21T08:22:30Z</time>
      </trkpt>
      <trkpt lat="48.0382" lon="7.01422">
        <ele>1330.4</ele>
        <time>2026-03-21T08:22:35Z</time>
      </trkpt>
      <trkpt lat="48.03824" lon="7.01425">
        <ele>1332</ele>
        <time>2026-03-21T08:22:40Z</time>
      </trkpt>
      <trkpt lat="48.03826" lon="7.01431">
        <ele>1333.1</ele>
        <time>2026-03-21T08:22:45Z</time>
      </trkpt>
      <trkpt lat="48.03827" lon="7.01437">
        <ele>1333.7</ele>
        <time>2026-03-21T08:22:50Z</time>
      </trkpt>
      <trkpt lat="48.0383" lon="7.01443">
        <ele>1335.2</ele>
        <time>2026-03-21T08:22:55Z</time>
      </trkpt>
      <trkpt lat="48.03832" lon="7.01448">
        <ele>1336.3</ele>
        <time>2026-03-21T08:23:00Z</time>
      </trkpt>
      <trkpt lat="48.03834" lon="7.01454">
        <ele>1337.3</ele>
        <time>2026-03-21T08:23:05Z</time>
      </trkpt>
      <trkpt lat="48.03836" lon="7.0146">
        <ele>1337.8</ele>
        <time>2026-03-21T08:23:10Z</time>
      </trkpt>
      <trkpt lat="48.03837" lon="7.01466">
        <ele>1338.2</ele>
        <time>2026-03-21T08:23:15Z</time>
      </trkpt>
      <trkpt lat="48.03839" lon="7.01471">
        <ele>1338.7</ele>
        <time>2026-03-21T08:23:20Z</time>
      </trkpt>
      <trkpt lat="48.03841" lon="7.01477">
        <ele>1339.2</ele>
        <time>2026-03-21T08:23:25Z</time>
      </trkpt>
      <trkpt lat="48.0384" lon="7.01482">
        <ele>1339.5</ele>
        <time>2026-03-21T08:23:30Z</time>
      </trkpt>
      <trkpt lat="48.03841" lon="7.01488">
        <ele>1339.9</ele>
        <time>2026-03-21T08:23:35Z</time>
      </trkpt>
      <trkpt lat="48.0384" lon="7.01492">
        <ele>1340.1</ele>
        <time>2026-03-21T08:23:40Z</time>
      </trkpt>
      <trkpt lat="48.03838" lon="7.01495">
        <ele>1340.1</ele>
        <time>2026-03-21T08:23:45Z</time>
      </trkpt>
      <trkpt lat="48.03835" lon="7.01499">
        <ele>1340.1</ele>
        <time>2026-03-21T08:23:50Z</time>
      </trkpt>
      <trkpt lat="48.03831" lon="7.01501">
        <ele>1339</ele>
        <time>2026-03-21T08:23:55Z</time>
      </trkpt>
      <trkpt lat="48.03828" lon="7.01503">
        <ele>1337.7</ele>
        <time>2026-03-21T08:24:00Z</time>
      </trkpt>
      <trkpt lat="48.03825" lon="7.01505">
        <ele>1336.4</ele>
        <time>2026-03-21T08:24:05Z</time>
      </trkpt>
      <trkpt lat="48.03821" lon="7.01507">
        <ele>1334.6</ele>
        <time>2026-03-21T08:24:10Z</time>
      </trkpt>
      <trkpt lat="48.03817" lon="7.01509">
        <ele>1332.7</ele>
        <time>2026-03-21T08:24:15Z</time>
      </trkpt>
      <trkpt lat="48.03814" lon="7.01511">
        <ele>1331.4</ele>
        <time>2026-03-21T08:24:20Z</time>
      </trkpt>
      <trkpt lat="48.0381" lon="7.01512">
        <ele>1329.5</ele>
        <time>2026-03-21T08:24:25Z</time>
      </trkpt>
      <trkpt lat="48.03807" lon="7.01512">
        <ele>1327.9</ele>
        <time>2026-03-21T08:24:30Z</time>
      </trkpt>
      <trkpt lat="48.03803" lon="7.01511">
        <ele>1325.8</ele>
        <time>2026-03-21T08:24:35Z</time>
      </trkpt>
      <trkpt lat="48.03799" lon="7.01509">
        <ele>1323.7</ele>
        <time>2026-03-21T08:24:40Z</time>
      </trkpt>
      <trkpt lat="48.03794" lon="7.01508">
        <ele>1321.1</ele>
        <time>2026-03-21T08:24:45Z</time>
      </trkpt>
      <trkpt lat="48.0379" lon="7.01505">
        <ele>1318.9</ele>
        <time>2026-03-21T08:24:50Z</time>
      </trkpt>
      <trkpt lat="48.03788" lon="7.01502">
        <ele>1317.8</ele>
        <time>2026-03-21T08:24:55Z</time>
      </trkpt>
      <trkpt lat="48.03787" lon="7.01501">
        <ele>1317.3</ele>
        <time>2026-03-21T08:25:00Z</time>
      </trkpt>
      <trkpt lat="48.03787" lon="7.01501">
        <ele>1317.3</ele>
        <time>2026-03-21T08:25:05Z</time>
      </trkpt>
      <trkpt lat="48.03787" lon="7.01501">
        <ele>1317.3</ele>
        <time>2026-03-21T08:25:10Z</time>
      </trkpt>
      <trkpt lat="48.03787" lon="7.01501">
        <ele>1317.3</ele>
        <time>2026-03-21T08:25:15Z</time>
      </trkpt>
      <trkpt lat="48.03787" lon="7.01501">
        <ele>1317.3</ele>
        <time>2026-03-21T08:25:20Z</time>
      </trkpt>
      <trkpt lat="48.03787" lon="7.01501">
        <ele>1317.3</ele>
        <time>2026-03-21T08:25:25Z</time>
      </trkpt>
      <trkpt lat="48.03787" lon="7.01501">
        <ele>1317.3</ele>
        <time>2026-03-21T08:25:30Z</time>
      </trkpt>
      <trkpt lat="48.03787" lon="7.01501">
        <ele>1317.3</ele>
        <time>2026-03-21T08:25:35Z</time>
      </trkpt>
      <trkpt lat="48.03787" lon="7.01501">
        <ele>1317.3</ele>
        <time>2026-03-21T08:25:40Z</time>
      </trkpt>
      <trkpt lat="48.03787" lon="7.01501">
        <ele>1317.3</ele>
        <time>2026-03-21T08:25:45Z</time>
      </trkpt>
      <trkpt lat="48.03788" lon="7.01509">
        <ele>1318.1</ele>
        <time>2026-03-21T08:25:50Z</time>
      </trkpt>
      <trkpt lat="48.0379" lon="7.01517">
        <ele>1319.6</ele>
        <time>2026-03-21T08:25:55Z</time>
      </trkpt>
      <trkpt lat="48.03792" lon="7.01524">
        <ele>1321</ele>
        <time>2026-03-21T08:26:00Z</time>
      </trkpt>
      <trkpt lat="48.03793" lon="7.01531">
        <ele>1321.9</ele>
        <time>2026-03-21T08:26:05Z</time>
      </trkpt>
      <trkpt lat="48.03796" lon="7.01538">
        <ele>1323.9</ele>
        <time>2026-03-21T08:26:10Z</time>
      </trkpt>
      <trkpt lat="48.03797" lon="7.01545">
        <ele>1324.9</ele>
        <time>2026-03-21T08:26:15Z</time>
      </trkpt>
      <trkpt lat="48.03798" lon="7.01553">
        <ele>1325.9</ele>
        <time>2026-03-21T08:26:20Z</time>
      </trkpt>
      <trkpt lat="48.038" lon="7.01561">
        <ele>1327.6</ele>
        <time>2026-03-21T08:26:25Z</time>
      </trkpt>
      <trkpt lat="48.03802" lon="7.01569">
        <ele>1329.2</ele>
        <time>2026-03-21T08:26:30Z</time>
      </trkpt>
      <trkpt lat="48.03804" lon="7.01574">
        <ele>1330.7</ele>
        <time>2026-03-21T08:26:35Z</time>
      </trkpt>
      <trkpt lat="48.03804" lon="7.01575">
        <ele>1330.8</ele>
        <time>2026-03-21T08:26:40Z</time>
      </trkpt>
      <trkpt lat="48.03804" lon="7.01575">
        <ele>1330.8</ele>
        <time>2026-03-21T08:26:45Z</time>
      </trkpt>
      <trkpt lat="48.03798" lon="7.01576">
        <ele>1327.3</ele>
        <time>2026-03-21T08:26:50Z</time>
      </trkpt>
      <trkpt lat="48.0379" lon="7.01575">
        <ele>1322.6</ele>
        <time>2026-03-21T08:26:55Z</time>
      </trkpt>
      <trkpt lat="48.03779" lon="7.0157">
        <ele>1315.9</ele>
        <time>2026-03-21T08:27:00Z</time>
      </trkpt>
      <trkpt lat="48.03775" lon="7.01569">
        <ele>1313.5</ele>
        <time>2026-03-21T08:27:05Z</time>
      </trkpt>
      <trkpt lat="48.03771" lon="7.01567">
        <ele>1311.2</ele>
        <time>2026-03-21T08:27:10Z</time>
      </trkpt>
      <trkpt lat="48.03768" lon="7.01573">
        <ele>1309.6</ele>
        <time>2026-03-21T08:27:15Z</time>
      </trkpt>
      <trkpt lat="48.03769" lon="7.0158">
        <ele>1310.3</ele>
        <time>2026-03-21T08:27:20Z</time>
      </trkpt>
      <trkpt lat="48.0377" lon="7.01584">
        <ele>1311.1</ele>
        <time>2026-03-21T08:27:25Z</time>
      </trkpt>
      <trkpt lat="48.0377" lon="7.01592">
        <ele>1311.8</ele>
        <time>2026-03-21T08:27:30Z</time>
      </trkpt>
      <trkpt lat="48.03769" lon="7.01599">
        <ele>1312</ele>
        <time>2026-03-21T08:27:35Z</time>
      </trkpt>
      <trkpt lat="48.03769" lon="7.01607">
        <ele>1312.8</ele>
        <time>2026-03-21T08:27:40Z</time>
      </trkpt>
      <trkpt lat="48.03767" lon="7.01615">
        <ele>1312.5</ele>
        <time>2026-03-21T08:27:45Z</time>
      </trkpt>
      <trkpt lat="48.03766" lon="7.01623">
        <ele>1312.8</ele>
        <time>2026-03-21T08:27:50Z</time>
      </trkpt>
      <trkpt lat="48.03764" lon="7.01629">
        <ele>1312.5</ele>
        <time>2026-03-21T08:27:55Z</time>
      </trkpt>
      <trkpt lat="48.03762" lon="7.01633">
        <ele>1312</ele>
        <time>2026-03-21T08:28:00Z</time>
      </trkpt>
      <trkpt lat="48.03762" lon="7.01633">
        <ele>1312</ele>
        <time>2026-03-21T08:28:05Z</time>
      </trkpt>
      <trkpt lat="48.03762" lon="7.01633">
        <ele>1312</ele>
        <time>2026-03-21T08:28:10Z</time>
      </trkpt>
      <trkpt lat="48.03762" lon="7.01633">
        <ele>1312</ele>
        <time>2026-03-21T08:28:15Z</time>
      </trkpt>
      <trkpt lat="48.03762" lon="7.01633">
        <ele>1312</ele>
        <time>2026-03-21T08:28:20Z</time>
      </trkpt>
      <trkpt lat="48.03762" lon="7.01633">
        <ele>1312</ele>
        <time>2026-03-21T08:28:25Z</time>
      </trkpt>
      <trkpt lat="48.03762" lon="7.01633">
        <ele>1312</ele>
        <time>2026-03-21T08:28:30Z</time>
      </trkpt>
      <trkpt lat="48.03762" lon="7.01633">
        <ele>1312</ele>
        <time>2026-03-21T08:28:35Z</time>
      </trkpt>
      <trkpt lat="48.03762" lon="7.01633">
        <ele>1312</ele>
        <time>2026-03-21T08:28:40Z</time>
      </trkpt>
      <trkpt lat="48.03762" lon="7.01633">
        <ele>1312</ele>
        <time>2026-03-21T08:28:45Z</time>
      </trkpt>
      <trkpt lat="48.03762" lon="7.01633">
        <ele>1312</ele>
        <time>2026-03-21T08:28:50Z</time>
      </trkpt>
      <trkpt lat="48.03762" lon="7.01633">
        <ele>1312</ele>
        <time>2026-03-21T08:28:55Z</time>
      </trkpt>
      <trkpt lat="48.03762" lon="7.01633">
        <ele>1312</ele>
        <time>2026-03-21T08:29:00Z</time>
      </trkpt>
      <trkpt lat="48.03762" lon="7.01633">
        <ele>1312</ele>
        <time>2026-03-21T08:29:05Z</time>
      </trkpt>
      <trkpt lat="48.03762" lon="7.01633">
        <ele>1312</ele>
        <time>2026-03-21T08:29:10Z</time>
      </trkpt>
      <trkpt lat="48.03762" lon="7.01633">
        <ele>1312</ele>
        <time>2026-03-21T08:29:15Z</time>
      </trkpt>
      <trkpt lat="48.03762" lon="7.01633">
        <ele>1312</ele>
        <time>2026-03-21T08:29:20Z</time>
      </trkpt>
      <trkpt lat="48.03762" lon="7.01633">
        <ele>1312</ele>
        <time>2026-03-21T08:29:25Z</time>
      </trkpt>
      <trkpt lat="48.03762" lon="7.01633">
        <ele>1312</ele>
        <time>2026-03-21T08:29:30Z</time>
      </trkpt>
      <trkpt lat="48.03761" lon="7.01641">
        <ele>1312.4</ele>
        <time>2026-03-21T08:29:35Z</time>
      </trkpt>
      <trkpt lat="48.03759" lon="7.01647">
        <ele>1312.2</ele>
        <time>2026-03-21T08:29:40Z</time>
      </trkpt>
      <trkpt lat="48.03755" lon="7.01655">
        <ele>1311.5</ele>
        <time>2026-03-21T08:29:45Z</time>
      </trkpt>
      <trkpt lat="48.03752" lon="7.0166">
        <ele>1310.9</ele>
        <time>2026-03-21T08:29:50Z</time>
      </trkpt>
      <trkpt lat="48.03749" lon="7.01666">
        <ele>1310.1</ele>
        <time>2026-03-21T08:29:55Z</time>
      </trkpt>
      <trkpt lat="48.03745" lon="7.01671">
        <ele>1307.6</ele>
        <time>2026-03-21T08:30:00Z</time>
      </trkpt>
      <trkpt lat="48.03745" lon="7.01674">
        <ele>1308</ele>
        <time>2026-03-21T08:30:05Z</time>
      </trkpt>
      <trkpt lat="48.03747" lon="7.01678">
        <ele>1310.2</ele>
        <time>2026-03-21T08:30:10Z</time>
      </trkpt>
      <trkpt lat="48.03747" lon="7.01681">
        <ele>1310.6</ele>
        <time>2026-03-21T08:30:15Z</time>
      </trkpt>
      <trkpt lat="48.03747" lon="7.01681">
        <ele>1310.6</ele>
        <time>2026-03-21T08:30:20Z</time>
      </trkpt>
      <trkpt lat="48.03747" lon="7.01681">
        <ele>1310.6</ele>
        <time>2026-03-21T08:30:25Z</time>
      </trkpt>
      <trkpt lat="48.03744" lon="7.0168">
        <ele>1308.1</ele>
        <time>2026-03-21T08:30:30Z</time>
      </trkpt>
      <trkpt lat="48.03742" lon="7.01678">
        <ele>1306.3</ele>
        <time>2026-03-21T08:30:35Z</time>
      </trkpt>
      <trkpt lat="48.03739" lon="7.01678">
        <ele>1303.9</ele>
        <time>2026-03-21T08:30:40Z</time>
      </trkpt>
      <trkpt lat="48.03735" lon="7.01677">
        <ele>1300.6</ele>
        <time>2026-03-21T08:30:45Z</time>
      </trkpt>
      <trkpt lat="48.03733" lon="7.01676">
        <ele>1298.9</ele>
        <time>2026-03-21T08:30:50Z</time>
      </trkpt>
      <trkpt lat="48.0373" lon="7.01678">
        <ele>1296.9</ele>
        <time>2026-03-21T08:30:55Z</time>
      </trkpt>
      <trkpt lat="48.03728" lon="7.01681">
        <ele>1295.8</ele>
        <time>2026-03-21T08:31:00Z</time>
      </trkpt>
      <trkpt lat="48.03728" lon="7.01681">
        <ele>1295.8</ele>
        <time>2026-03-21T08:31:05Z</time>
      </trkpt>
      <trkpt lat="48.03728" lon="7.01682">
        <ele>1295.9</ele>
        <time>2026-03-21T08:31:10Z</time>
      </trkpt>
      <trkpt lat="48.03728" lon="7.01682">
        <ele>1295.9</ele>
        <time>2026-03-21T08:31:15Z</time>
      </trkpt>
      <trkpt lat="48.03728" lon="7.01682">
        <ele>1295.9</ele>
        <time>2026-03-21T08:31:20Z</time>
      </trkpt>
      <trkpt lat="48.03728" lon="7.01682">
        <ele>1295.9</ele>
        <time>2026-03-21T08:31:25Z</time>
      </trkpt>
      <trkpt lat="48.03728" lon="7.01682">
        <ele>1295.9</ele>
        <time>2026-03-21T08:31:30Z</time>
      </trkpt>
      <trkpt lat="48.03728" lon="7.01682">
        <ele>1295.9</ele>
        <time>2026-03-21T08:31:35Z</time>
      </trkpt>
      <trkpt lat="48.03728" lon="7.01682">
        <ele>1295.9</ele>
        <time>2026-03-21T08:31:40Z</time>
      </trkpt>
      <trkpt lat="48.03728" lon="7.01682">
        <ele>1295.9</ele>
        <time>2026-03-21T08:31:45Z</time>
      </trkpt>
      <trkpt lat="48.03728" lon="7.01682">
        <ele>1295.9</ele>
        <time>2026-03-21T08:31:50Z</time>
      </trkpt>
      <trkpt lat="48.03728" lon="7.01682">
        <ele>1295.9</ele>
        <time>2026-03-21T08:31:55Z</time>
      </trkpt>
      <trkpt lat="48.03728" lon="7.01687">
        <ele>1296.7</ele>
        <time>2026-03-21T08:32:00Z</time>
      </trkpt>
      <trkpt lat="48.03726" lon="7.01691">
        <ele>1295.8</ele>
        <time>2026-03-21T08:32:05Z</time>
      </trkpt>
      <trkpt lat="48.03723" lon="7.01693">
        <ele>1293.8</ele>
        <time>2026-03-21T08:32:10Z</time>
      </trkpt>
      <trkpt lat="48.03723" lon="7.01697">
        <ele>1294.4</ele>
        <time>2026-03-21T08:32:15Z</time>
      </trkpt>
      <trkpt lat="48.03723" lon="7.01701">
        <ele>1295.1</ele>
        <time>2026-03-21T08:32:20Z</time>
      </trkpt>
      <trkpt lat="48.03722" lon="7.01703">
        <ele>1294.6</ele>
        <time>2026-03-21T08:32:25Z</time>
      </trkpt>
      <trkpt lat="48.03718" lon="7.01705">
        <ele>1292</ele>
        <time>2026-03-21T08:32:30Z</time>
      </trkpt>
      <trkpt lat="48.03718" lon="7.01711">
        <ele>1292.9</ele>
        <time>2026-03-21T08:32:35Z</time>
      </trkpt>
      <trkpt lat="48.03718" lon="7.01712">
        <ele>1293.1</ele>
        <time>2026-03-21T08:32:40Z</time>
      </trkpt>
      <trkpt lat="48.03717" lon="7.01713">
        <ele>1292.5</ele>
        <time>2026-03-21T08:32:45Z</time>
      </trkpt>
      <trkpt lat="48.03717" lon="7.01713">
        <ele>1292.5</ele>
        <time>2026-03-21T08:32:50Z</time>
      </trkpt>
      <trkpt lat="48.03717" lon="7.01713">
        <ele>1292.5</ele>
        <time>2026-03-21T08:32:55Z</time>
      </trkpt>
      <trkpt lat="48.03717" lon="7.01713">
        <ele>1292.5</ele>
        <time>2026-03-21T08:33:00Z</time>
      </trkpt>
      <trkpt lat="48.03717" lon="7.01713">
        <ele>1292.5</ele>
        <time>2026-03-21T08:33:05Z</time>
      </trkpt>
      <trkpt lat="48.03717" lon="7.01713">
        <ele>1292.5</ele>
        <time>2026-03-21T08:33:10Z</time>
      </trkpt>
      <trkpt lat="48.03717" lon="7.01713">
        <ele>1292.5</ele>
        <time>2026-03-21T08:33:15Z</time>
      </trkpt>
      <trkpt lat="48.03715" lon="7.01719">
        <ele>1292</ele>
        <time>2026-03-21T08:33:20Z</time>
      </trkpt>
      <trkpt lat="48.03714" lon="7.01726">
        <ele>1292.5</ele>
        <time>2026-03-21T08:33:25Z</time>
      </trkpt>
      <trkpt lat="48.03711" lon="7.01732">
        <ele>1291.3</ele>
        <time>2026-03-21T08:33:30Z</time>
      </trkpt>
      <trkpt lat="48.03709" lon="7.01738">
        <ele>1290.9</ele>
        <time>2026-03-21T08:33:35Z</time>
      </trkpt>
      <trkpt lat="48.03707" lon="7.01745">
        <ele>1290.7</ele>
        <time>2026-03-21T08:33:40Z</time>
      </trkpt>
      <trkpt lat="48.03707" lon="7.01753">
        <ele>1291.9</ele>
        <time>2026-03-21T08:33:45Z</time>
      </trkpt>
      <trkpt lat="48.03706" lon="7.0176">
        <ele>1292.1</ele>
        <time>2026-03-21T08:33:50Z</time>
      </trkpt>
      <trkpt lat="48.03707" lon="7.01768">
        <ele>1293.8</ele>
        <time>2026-03-21T08:33:55Z</time>
      </trkpt>
      <trkpt lat="48.03709" lon="7.01774">
        <ele>1295.8</ele>
        <time>2026-03-21T08:34:00Z</time>
      </trkpt>
      <trkpt lat="48.0371" lon="7.0178">
        <ele>1297.1</ele>
        <time>2026-03-21T08:34:05Z</time>
      </trkpt>
      <trkpt lat="48.03711" lon="7.01786">
        <ele>1298.4</ele>
        <time>2026-03-21T08:34:10Z</time>
      </trkpt>
      <trkpt lat="48.0371" lon="7.0179">
        <ele>1298.3</ele>
        <time>2026-03-21T08:34:15Z</time>
      </trkpt>
      <trkpt lat="48.03708" lon="7.01793">
        <ele>1297.5</ele>
        <time>2026-03-21T08:34:20Z</time>
      </trkpt>
      <trkpt lat="48.03704" lon="7.01792">
        <ele>1295</ele>
        <time>2026-03-21T08:34:25Z</time>
      </trkpt>
      <trkpt lat="48.03697" lon="7.01793">
        <ele>1291.2</ele>
        <time>2026-03-21T08:34:30Z</time>
      </trkpt>
      <trkpt lat="48.03693" lon="7.01793">
        <ele>1288.9</ele>
        <time>2026-03-21T08:34:35Z</time>
      </trkpt>
      <trkpt lat="48.03688" lon="7.01793">
        <ele>1286</ele>
        <time>2026-03-21T08:34:40Z</time>
      </trkpt>
      <trkpt lat="48.03684" lon="7.01793">
        <ele>1283.7</ele>
        <time>2026-03-21T08:34:45Z</time>
      </trkpt>
      <trkpt lat="48.03681" lon="7.01792">
        <ele>1281.8</ele>
        <time>2026-03-21T08:34:50Z</time>
      </trkpt>
      <trkpt lat="48.03676" lon="7.01792">
        <ele>1279</ele>
        <time>2026-03-21T08:34:55Z</time>
      </trkpt>
      <trkpt lat="48.03673" lon="7.01792">
        <ele>1277.2</ele>
        <time>2026-03-21T08:35:00Z</time>
      </trkpt>
      <trkpt lat="48.03672" lon="7.01794">
        <ele>1277.1</ele>
        <time>2026-03-21T08:35:05Z</time>
      </trkpt>
      <trkpt lat="48.03672" lon="7.01795">
        <ele>1277.4</ele>
        <time>2026-03-21T08:35:10Z</time>
      </trkpt>
      <trkpt lat="48.03675" lon="7.018">
        <ele>1280.2</ele>
        <time>2026-03-21T08:35:15Z</time>
      </trkpt>
      <trkpt lat="48.03677" lon="7.01808">
        <ele>1283</ele>
        <time>2026-03-21T08:35:20Z</time>
      </trkpt>
      <trkpt lat="48.03679" lon="7.01813">
        <ele>1285.1</ele>
        <time>2026-03-21T08:35:25Z</time>
      </trkpt>
      <trkpt lat="48.03682" lon="7.01818">
        <ele>1287.7</ele>
        <time>2026-03-21T08:35:30Z</time>
      </trkpt>
      <trkpt lat="48.03683" lon="7.01824">
        <ele>1289.4</ele>
        <time>2026-03-21T08:35:35Z</time>
      </trkpt>
      <trkpt lat="48.03681" lon="7.01827">
        <ele>1289.1</ele>
        <time>2026-03-21T08:35:40Z</time>
      </trkpt>
      <trkpt lat="48.03677" lon="7.01828">
        <ele>1287.4</ele>
        <time>2026-03-21T08:35:45Z</time>
      </trkpt>
      <trkpt lat="48.03673" lon="7.0183">
        <ele>1286</ele>
        <time>2026-03-21T08:35:50Z</time>
      </trkpt>
      <trkpt lat="48.03667" lon="7.01831">
        <ele>1283.6</ele>
        <time>2026-03-21T08:35:55Z</time>
      </trkpt>
      <trkpt lat="48.03662" lon="7.01833">
        <ele>1280.7</ele>
        <time>2026-03-21T08:36:00Z</time>
      </trkpt>
      <trkpt lat="48.03657" lon="7.01835">
        <ele>1277.4</ele>
        <time>2026-03-21T08:36:05Z</time>
      </trkpt>
      <trkpt lat="48.03653" lon="7.01837">
        <ele>1274.6</ele>
        <time>2026-03-21T08:36:10Z</time>
      </trkpt>
      <trkpt lat="48.03648" lon="7.01837">
        <ele>1271.2</ele>
        <time>2026-03-21T08:36:15Z</time>
      </trkpt>
      <trkpt lat="48.03643" lon="7.01839">
        <ele>1267.8</ele>
        <time>2026-03-21T08:36:20Z</time>
      </trkpt>
      <trkpt lat="48.03639" lon="7.01841">
        <ele>1265.1</ele>
        <time>2026-03-21T08:36:25Z</time>
      </trkpt>
      <trkpt lat="48.03636" lon="7.01844">
        <ele>1263.1</ele>
        <time>2026-03-21T08:36:30Z</time>
      </trkpt>
      <trkpt lat="48.03634" lon="7.01851">
        <ele>1261.8</ele>
        <time>2026-03-21T08:36:35Z</time>
      </trkpt>
      <trkpt lat="48.0363" lon="7.01854">
        <ele>1259.1</ele>
        <time>2026-03-21T08:36:40Z</time>
      </trkpt>
      <trkpt lat="48.03627" lon="7.01858">
        <ele>1257.1</ele>
        <time>2026-03-21T08:36:45Z</time>
      </trkpt>
      <trkpt lat="48.03627" lon="7.01858">
        <ele>1257.1</ele>
        <time>2026-03-21T08:36:50Z</time>
      </trkpt>
      <trkpt lat="48.03627" lon="7.01858">
        <ele>1257.1</ele>
        <time>2026-03-21T08:36:55Z</time>
      </trkpt>
      <trkpt lat="48.03627" lon="7.01862">
        <ele>1257.2</ele>
        <time>2026-03-21T08:37:00Z</time>
      </trkpt>
      <trkpt lat="48.03623" lon="7.01867">
        <ele>1254.6</ele>
        <time>2026-03-21T08:37:05Z</time>
      </trkpt>
      <trkpt lat="48.0362" lon="7.01869">
        <ele>1252.6</ele>
        <time>2026-03-21T08:37:10Z</time>
      </trkpt>
      <trkpt lat="48.03618" lon="7.01872">
        <ele>1251.3</ele>
        <time>2026-03-21T08:37:15Z</time>
      </trkpt>
      <trkpt lat="48.03614" lon="7.01874">
        <ele>1248.7</ele>
        <time>2026-03-21T08:37:20Z</time>
      </trkpt>
      <trkpt lat="48.03613" lon="7.01877">
        <ele>1248.1</ele>
        <time>2026-03-21T08:37:25Z</time>
      </trkpt>
      <trkpt lat="48.03611" lon="7.0188">
        <ele>1246.9</ele>
        <time>2026-03-21T08:37:30Z</time>
      </trkpt>
      <trkpt lat="48.03611" lon="7.01882">
        <ele>1246.9</ele>
        <time>2026-03-21T08:37:35Z</time>
      </trkpt>
      <trkpt lat="48.03612" lon="7.01885">
        <ele>1247.6</ele>
        <time>2026-03-21T08:37:40Z</time>
      </trkpt>
      <trkpt lat="48.03614" lon="7.01887">
        <ele>1249</ele>
        <time>2026-03-21T08:37:45Z</time>
      </trkpt>
      <trkpt lat="48.03614" lon="7.01888">
        <ele>1249</ele>
        <time>2026-03-21T08:37:50Z</time>
      </trkpt>
      <trkpt lat="48.03614" lon="7.01888">
        <ele>1249</ele>
        <time>2026-03-21T08:37:55Z</time>
      </trkpt>
      <trkpt lat="48.03614" lon="7.01888">
        <ele>1249</ele>
        <time>2026-03-21T08:38:00Z</time>
      </trkpt>
      <trkpt lat="48.03614" lon="7.01888">
        <ele>1249</ele>
        <time>2026-03-21T08:38:05Z</time>
      </trkpt>
      <trkpt lat="48.03615" lon="7.01889">
        <ele>1249.6</ele>
        <time>2026-03-21T08:38:10Z</time>
      </trkpt>
      <trkpt lat="48.03619" lon="7.01894">
        <ele>1252.3</ele>
        <time>2026-03-21T08:38:15Z</time>
      </trkpt>
      <trkpt lat="48.03622" lon="7.01897">
        <ele>1254.3</ele>
        <time>2026-03-21T08:38:20Z</time>
      </trkpt>
      <trkpt lat="48.03623" lon="7.01899">
        <ele>1255</ele>
        <time>2026-03-21T08:38:25Z</time>
      </trkpt>
      <trkpt lat="48.03624" lon="7.01903">
        <ele>1255.7</ele>
        <time>2026-03-21T08:38:30Z</time>
      </trkpt>
      <trkpt lat="48.03626" lon="7.01907">
        <ele>1257</ele>
        <time>2026-03-21T08:38:35Z</time>
      </trkpt>
      <trkpt lat="48.03629" lon="7.0191">
        <ele>1259</ele>
        <time>2026-03-21T08:38:40Z</time>
      </trkpt>
      <trkpt lat="48.0363" lon="7.01911">
        <ele>1259.6</ele>
        <time>2026-03-21T08:38:45Z</time>
      </trkpt>
      <trkpt lat="48.03633" lon="7.01916">
        <ele>1261.6</ele>
        <time>2026-03-21T08:38:50Z</time>
      </trkpt>
      <trkpt lat="48.03635" lon="7.0192">
        <ele>1262.1</ele>
        <time>2026-03-21T08:38:55Z</time>
      </trkpt>
      <trkpt lat="48.03638" lon="7.01923">
        <ele>1263.3</ele>
        <time>2026-03-21T08:39:00Z</time>
      </trkpt>
      <trkpt lat="48.03639" lon="7.01926">
        <ele>1263.2</ele>
        <time>2026-03-21T08:39:05Z</time>
      </trkpt>
      <trkpt lat="48.03644" lon="7.01928">
        <ele>1266</ele>
        <time>2026-03-21T08:39:10Z</time>
      </trkpt>
      <trkpt lat="48.03647" lon="7.01932">
        <ele>1267</ele>
        <time>2026-03-21T08:39:15Z</time>
      </trkpt>
      <trkpt lat="48.03649" lon="7.01934">
        <ele>1267.8</ele>
        <time>2026-03-21T08:39:20Z</time>
      </trkpt>
      <trkpt lat="48.03647" lon="7.01937">
        <ele>1265.8</ele>
        <time>2026-03-21T08:39:25Z</time>
      </trkpt>
      <trkpt lat="48.03647" lon="7.01938">
        <ele>1265.6</ele>
        <time>2026-03-21T08:39:30Z</time>
      </trkpt>
      <trkpt lat="48.03646" lon="7.0194">
        <ele>1264.5</ele>
        <time>2026-03-21T08:39:35Z</time>
      </trkpt>
      <trkpt lat="48.03647" lon="7.01942">
        <ele>1264.6</ele>
        <time>2026-03-21T08:39:40Z</time>
      </trkpt>
      <trkpt lat="48.03651" lon="7.01945">
        <ele>1266.5</ele>
        <time>2026-03-21T08:39:45Z</time>
      </trkpt>
      <trkpt lat="48.03655" lon="7.01948">
        <ele>1268.4</ele>
        <time>2026-03-21T08:39:50Z</time>
      </trkpt>
      <trkpt lat="48.03657" lon="7.01952">
        <ele>1268.7</ele>
        <time>2026-03-21T08:39:55Z</time>
      </trkpt>
      <trkpt lat="48.03659" lon="7.01954">
        <ele>1269.6</ele>
        <time>2026-03-21T08:40:00Z</time>
      </trkpt>
      <trkpt lat="48.0366" lon="7.01962">
        <ele>1268.4</ele>
        <time>2026-03-21T08:40:05Z</time>
      </trkpt>
      <trkpt lat="48.03661" lon="7.01969">
        <ele>1267.4</ele>
        <time>2026-03-21T08:40:10Z</time>
      </trkpt>
      <trkpt lat="48.03661" lon="7.01974">
        <ele>1266.3</ele>
        <time>2026-03-21T08:40:15Z</time>
      </trkpt>
      <trkpt lat="48.03662" lon="7.01981">
        <ele>1265.3</ele>
        <time>2026-03-21T08:40:20Z</time>
      </trkpt>
      <trkpt lat="48.03663" lon="7.01985">
        <ele>1265.1</ele>
        <time>2026-03-21T08:40:25Z</time>
      </trkpt>
      <trkpt lat="48.03663" lon="7.0199">
        <ele>1263.9</ele>
        <time>2026-03-21T08:40:30Z</time>
      </trkpt>
      <trkpt lat="48.03664" lon="7.01994">
        <ele>1263.6</ele>
        <time>2026-03-21T08:40:35Z</time>
      </trkpt>
      <trkpt lat="48.03663" lon="7.01995">
        <ele>1262.8</ele>
        <time>2026-03-21T08:40:40Z</time>
      </trkpt>
      <trkpt lat="48.03663" lon="7.01995">
        <ele>1262.8</ele>
        <time>2026-03-21T08:40:45Z</time>
      </trkpt>
      <trkpt lat="48.03663" lon="7.01995">
        <ele>1262.8</ele>
        <time>2026-03-21T08:40:50Z</time>
      </trkpt>
      <trkpt lat="48.03663" lon="7.01995">
        <ele>1262.8</ele>
        <time>2026-03-21T08:40:55Z</time>
      </trkpt>
      <trkpt lat="48.03663" lon="7.01995">
        <ele>1262.8</ele>
        <time>2026-03-21T08:41:00Z</time>
      </trkpt>
      <trkpt lat="48.03663" lon="7.01995">
        <ele>1262.8</ele>
        <time>2026-03-21T08:41:05Z</time>
      </trkpt>
      <trkpt lat="48.03663" lon="7.01995">
        <ele>1262.8</ele>
        <time>2026-03-21T08:41:10Z</time>
      </trkpt>
      <trkpt lat="48.03663" lon="7.01995">
        <ele>1262.8</ele>
        <time>2026-03-21T08:41:15Z</time>
      </trkpt>
      <trkpt lat="48.03665" lon="7.02002">
        <ele>1262.6</ele>
        <time>2026-03-21T08:41:20Z</time>
      </trkpt>
      <trkpt lat="48.03667" lon="7.02006">
        <ele>1263</ele>
        <time>2026-03-21T08:41:25Z</time>
      </trkpt>
      <trkpt lat="48.03667" lon="7.02011">
        <ele>1262.1</ele>
        <time>2026-03-21T08:41:30Z</time>
      </trkpt>
      <trkpt lat="48.03669" lon="7.02015">
        <ele>1262.2</ele>
        <time>2026-03-21T08:41:35Z</time>
      </trkpt>
      <trkpt lat="48.0367" lon="7.02023">
        <ele>1261.2</ele>
        <time>2026-03-21T08:41:40Z</time>
      </trkpt>
      <trkpt lat="48.0367" lon="7.02028">
        <ele>1260.3</ele>
        <time>2026-03-21T08:41:45Z</time>
      </trkpt>
      <trkpt lat="48.03669" lon="7.02034">
        <ele>1258.9</ele>
        <time>2026-03-21T08:41:50Z</time>
      </trkpt>
      <trkpt lat="48.03668" lon="7.0204">
        <ele>1257.4</ele>
        <time>2026-03-21T08:41:55Z</time>
      </trkpt>
      <trkpt lat="48.03669" lon="7.02047">
        <ele>1256.6</ele>
        <time>2026-03-21T08:42:00Z</time>
      </trkpt>
      <trkpt lat="48.03671" lon="7.02051">
        <ele>1256.8</ele>
        <time>2026-03-21T08:42:05Z</time>
      </trkpt>
      <trkpt lat="48.0367" lon="7.02055">
        <ele>1255.6</ele>
        <time>2026-03-21T08:42:10Z</time>
      </trkpt>
      <trkpt lat="48.0367" lon="7.0206">
        <ele>1254.8</ele>
        <time>2026-03-21T08:42:15Z</time>
      </trkpt>
      <trkpt lat="48.03669" lon="7.02066">
        <ele>1253.2</ele>
        <time>2026-03-21T08:42:20Z</time>
      </trkpt>
      <trkpt lat="48.03669" lon="7.02073">
        <ele>1252</ele>
        <time>2026-03-21T08:42:25Z</time>
      </trkpt>
      <trkpt lat="48.03669" lon="7.0208">
        <ele>1250.8</ele>
        <time>2026-03-21T08:42:30Z</time>
      </trkpt>
      <trkpt lat="48.03669" lon="7.02084">
        <ele>1250.2</ele>
        <time>2026-03-21T08:42:35Z</time>
      </trkpt>
      <trkpt lat="48.03669" lon="7.0209">
        <ele>1250.1</ele>
        <time>2026-03-21T08:42:40Z</time>
      </trkpt>
      <trkpt lat="48.03669" lon="7.02098">
        <ele>1250</ele>
        <time>2026-03-21T08:42:45Z</time>
      </trkpt>
      <trkpt lat="48.03669" lon="7.02107">
        <ele>1249.9</ele>
        <time>2026-03-21T08:42:50Z</time>
      </trkpt>
      <trkpt lat="48.03668" lon="7.02115">
        <ele>1249.3</ele>
        <time>2026-03-21T08:42:55Z</time>
      </trkpt>
      <trkpt lat="48.03668" lon="7.02124">
        <ele>1249.1</ele>
        <time>2026-03-21T08:43:00Z</time>
      </trkpt>
      <trkpt lat="48.03668" lon="7.02133">
        <ele>1249</ele>
        <time>2026-03-21T08:43:05Z</time>
      </trkpt>
      <trkpt lat="48.03667" lon="7.0214">
        <ele>1248.5</ele>
        <time>2026-03-21T08:43:10Z</time>
      </trkpt>
      <trkpt lat="48.03667" lon="7.02149">
        <ele>1248.4</ele>
        <time>2026-03-21T08:43:15Z</time>
      </trkpt>
      <trkpt lat="48.03665" lon="7.02155">
        <ele>1246.8</ele>
        <time>2026-03-21T08:43:20Z</time>
      </trkpt>
      <trkpt lat="48.03663" lon="7.02163">
        <ele>1245.2</ele>
        <time>2026-03-21T08:43:25Z</time>
      </trkpt>
      <trkpt lat="48.03662" lon="7.0217">
        <ele>1244.1</ele>
        <time>2026-03-21T08:43:30Z</time>
      </trkpt>
      <trkpt lat="48.0366" lon="7.02177">
        <ele>1241.9</ele>
        <time>2026-03-21T08:43:35Z</time>
      </trkpt>
      <trkpt lat="48.03658" lon="7.02185">
        <ele>1239.6</ele>
        <time>2026-03-21T08:43:40Z</time>
      </trkpt>
      <trkpt lat="48.03656" lon="7.02192">
        <ele>1237.5</ele>
        <time>2026-03-21T08:43:45Z</time>
      </trkpt>
      <trkpt lat="48.03656" lon="7.02199">
        <ele>1236.9</ele>
        <time>2026-03-21T08:43:50Z</time>
      </trkpt>
      <trkpt lat="48.03655" lon="7.02206">
        <ele>1235.6</ele>
        <time>2026-03-21T08:43:55Z</time>
      </trkpt>
      <trkpt lat="48.03653" lon="7.02213">
        <ele>1233.5</ele>
        <time>2026-03-21T08:44:00Z</time>
      </trkpt>
      <trkpt lat="48.0365" lon="7.02219">
        <ele>1230.9</ele>
        <time>2026-03-21T08:44:05Z</time>
      </trkpt>
      <trkpt lat="48.0365" lon="7.02224">
        <ele>1230.5</ele>
        <time>2026-03-21T08:44:10Z</time>
      </trkpt>
      <trkpt lat="48.03651" lon="7.02232">
        <ele>1230.5</ele>
        <time>2026-03-21T08:44:15Z</time>
      </trkpt>
      <trkpt lat="48.03652" lon="7.02239">
        <ele>1230.7</ele>
        <time>2026-03-21T08:44:20Z</time>
      </trkpt>
      <trkpt lat="48.0365" lon="7.02244">
        <ele>1228.9</ele>
        <time>2026-03-21T08:44:25Z</time>
      </trkpt>
      <trkpt lat="48.03649" lon="7.0225">
        <ele>1227.7</ele>
        <time>2026-03-21T08:44:30Z</time>
      </trkpt>
      <trkpt lat="48.03648" lon="7.02257">
        <ele>1226.9</ele>
        <time>2026-03-21T08:44:35Z</time>
      </trkpt>
      <trkpt lat="48.03646" lon="7.02261">
        <ele>1225.5</ele>
        <time>2026-03-21T08:44:40Z</time>
      </trkpt>
      <trkpt lat="48.03645" lon="7.02268">
        <ele>1224.8</ele>
        <time>2026-03-21T08:44:45Z</time>
      </trkpt>
      <trkpt lat="48.03644" lon="7.02272">
        <ele>1224</ele>
        <time>2026-03-21T08:44:50Z</time>
      </trkpt>
      <trkpt lat="48.03643" lon="7.02275">
        <ele>1223.3</ele>
        <time>2026-03-21T08:44:55Z</time>
      </trkpt>
      <trkpt lat="48.03642" lon="7.02275">
        <ele>1222.6</ele>
        <time>2026-03-21T08:45:00Z</time>
      </trkpt>
      <trkpt lat="48.03642" lon="7.02275">
        <ele>1222.6</ele>
        <time>2026-03-21T08:45:05Z</time>
      </trkpt>
      <trkpt lat="48.03642" lon="7.02275">
        <ele>1222.6</ele>
        <time>2026-03-21T08:45:10Z</time>
      </trkpt>
      <trkpt lat="48.03642" lon="7.02275">
        <ele>1222.6</ele>
        <time>2026-03-21T08:45:15Z</time>
      </trkpt>
      <trkpt lat="48.03643" lon="7.02278">
        <ele>1223.3</ele>
        <time>2026-03-21T08:45:20Z</time>
      </trkpt>
      <trkpt lat="48.03643" lon="7.02278">
        <ele>1223.3</ele>
        <time>2026-03-21T08:45:25Z</time>
      </trkpt>
      <trkpt lat="48.03643" lon="7.02278">
        <ele>1223.3</ele>
        <time>2026-03-21T08:45:30Z</time>
      </trkpt>
      <trkpt lat="48.03643" lon="7.02278">
        <ele>1223.3</ele>
        <time>2026-03-21T08:45:35Z</time>
      </trkpt>
      <trkpt lat="48.03641" lon="7.02286">
        <ele>1221.8</ele>
        <time>2026-03-21T08:45:40Z</time>
      </trkpt>
      <trkpt lat="48.03639" lon="7.02291">
        <ele>1220.4</ele>
        <time>2026-03-21T08:45:45Z</time>
      </trkpt>
      <trkpt lat="48.03639" lon="7.02298">
        <ele>1220.4</ele>
        <time>2026-03-21T08:45:50Z</time>
      </trkpt>
      <trkpt lat="48.03639" lon="7.02304">
        <ele>1220.3</ele>
        <time>2026-03-21T08:45:55Z</time>
      </trkpt>
      <trkpt lat="48.03637" lon="7.02311">
        <ele>1218.9</ele>
        <time>2026-03-21T08:46:00Z</time>
      </trkpt>
      <trkpt lat="48.03634" lon="7.02318">
        <ele>1216.8</ele>
        <time>2026-03-21T08:46:05Z</time>
      </trkpt>
      <trkpt lat="48.03631" lon="7.02325">
        <ele>1214.7</ele>
        <time>2026-03-21T08:46:10Z</time>
      </trkpt>
      <trkpt lat="48.03627" lon="7.0233">
        <ele>1211.9</ele>
        <time>2026-03-21T08:46:15Z</time>
      </trkpt>
      <trkpt lat="48.03623" lon="7.02331">
        <ele>1209.1</ele>
        <time>2026-03-21T08:46:20Z</time>
      </trkpt>
      <trkpt lat="48.03618" lon="7.02334">
        <ele>1205.8</ele>
        <time>2026-03-21T08:46:25Z</time>
      </trkpt>
      <trkpt lat="48.03615" lon="7.02336">
        <ele>1203.9</ele>
        <time>2026-03-21T08:46:30Z</time>
      </trkpt>
      <trkpt lat="48.03613" lon="7.02337">
        <ele>1202.6</ele>
        <time>2026-03-21T08:46:35Z</time>
      </trkpt>
      <trkpt lat="48.0361" lon="7.02338">
        <ele>1200.7</ele>
        <time>2026-03-21T08:46:40Z</time>
      </trkpt>
      <trkpt lat="48.03609" lon="7.02341">
        <ele>1200.3</ele>
        <time>2026-03-21T08:46:45Z</time>
      </trkpt>
      <trkpt lat="48.0361" lon="7.02344">
        <ele>1201.3</ele>
        <time>2026-03-21T08:46:50Z</time>
      </trkpt>
      <trkpt lat="48.03609" lon="7.02347">
        <ele>1201</ele>
        <time>2026-03-21T08:46:55Z</time>
      </trkpt>
      <trkpt lat="48.03609" lon="7.02353">
        <ele>1201.6</ele>
        <time>2026-03-21T08:47:00Z</time>
      </trkpt>
      <trkpt lat="48.03608" lon="7.02358">
        <ele>1201.5</ele>
        <time>2026-03-21T08:47:05Z</time>
      </trkpt>
      <trkpt lat="48.03607" lon="7.02361">
        <ele>1201.1</ele>
        <time>2026-03-21T08:47:10Z</time>
      </trkpt>
      <trkpt lat="48.03607" lon="7.02369">
        <ele>1202</ele>
        <time>2026-03-21T08:47:15Z</time>
      </trkpt>
      <trkpt lat="48.03607" lon="7.02374">
        <ele>1202.5</ele>
        <time>2026-03-21T08:47:20Z</time>
      </trkpt>
      <trkpt lat="48.03607" lon="7.02378">
        <ele>1202.9</ele>
        <time>2026-03-21T08:47:25Z</time>
      </trkpt>
      <trkpt lat="48.03608" lon="7.0238">
        <ele>1203.8</ele>
        <time>2026-03-21T08:47:30Z</time>
      </trkpt>
      <trkpt lat="48.03607" lon="7.02383">
        <ele>1203.5</ele>
        <time>2026-03-21T08:47:35Z</time>
      </trkpt>
      <trkpt lat="48.03605" lon="7.02385">
        <ele>1202.5</ele>
        <time>2026-03-21T08:47:40Z</time>
      </trkpt>
      <trkpt lat="48.03605" lon="7.0239">
        <ele>1203</ele>
        <time>2026-03-21T08:47:45Z</time>
      </trkpt>
      <trkpt lat="48.03604" lon="7.02394">
        <ele>1202.9</ele>
        <time>2026-03-21T08:47:50Z</time>
      </trkpt>
      <trkpt lat="48.03603" lon="7.02398">
        <ele>1202.7</ele>
        <time>2026-03-21T08:47:55Z</time>
      </trkpt>
      <trkpt lat="48.03603" lon="7.02404">
        <ele>1203.4</ele>
        <time>2026-03-21T08:48:00Z</time>
      </trkpt>
      <trkpt lat="48.03604" lon="7.02412">
        <ele>1204.9</ele>
        <time>2026-03-21T08:48:05Z</time>
      </trkpt>
      <trkpt lat="48.03606" lon="7.0242">
        <ele>1206.3</ele>
        <time>2026-03-21T08:48:10Z</time>
      </trkpt>
      <trkpt lat="48.03607" lon="7.02426">
        <ele>1206.5</ele>
        <time>2026-03-21T08:48:15Z</time>
      </trkpt>
      <trkpt lat="48.03608" lon="7.0243">
        <ele>1206.7</ele>
        <time>2026-03-21T08:48:20Z</time>
      </trkpt>
      <trkpt lat="48.03609" lon="7.02434">
        <ele>1207</ele>
        <time>2026-03-21T08:48:25Z</time>
      </trkpt>
      <trkpt lat="48.0361" lon="7.02437">
        <ele>1207.3</ele>
        <time>2026-03-21T08:48:30Z</time>
      </trkpt>
      <trkpt lat="48.03611" lon="7.0244">
        <ele>1207.6</ele>
        <time>2026-03-21T08:48:35Z</time>
      </trkpt>
      <trkpt lat="48.03614" lon="7.02444">
        <ele>1208.8</ele>
        <time>2026-03-21T08:48:40Z</time>
      </trkpt>
      <trkpt lat="48.03618" lon="7.02449">
        <ele>1210.4</ele>
        <time>2026-03-21T08:48:45Z</time>
      </trkpt>
      <trkpt lat="48.03621" lon="7.02448">
        <ele>1212</ele>
        <time>2026-03-21T08:48:50Z</time>
      </trkpt>
      <trkpt lat="48.03623" lon="7.0245">
        <ele>1212.8</ele>
        <time>2026-03-21T08:48:55Z</time>
      </trkpt>
      <trkpt lat="48.03625" lon="7.02453">
        <ele>1213.5</ele>
        <time>2026-03-21T08:49:00Z</time>
      </trkpt>
      <trkpt lat="48.03625" lon="7.02454">
        <ele>1213.4</ele>
        <time>2026-03-21T08:49:05Z</time>
      </trkpt>
      <trkpt lat="48.03625" lon="7.02454">
        <ele>1213.4</ele>
        <time>2026-03-21T08:49:10Z</time>
      </trkpt>
      <trkpt lat="48.03625" lon="7.02454">
        <ele>1213.4</ele>
        <time>2026-03-21T08:49:15Z</time>
      </trkpt>
      <trkpt lat="48.03624" lon="7.02462">
        <ele>1212.2</ele>
        <time>2026-03-21T08:49:20Z</time>
      </trkpt>
      <trkpt lat="48.03625" lon="7.02464">
        <ele>1212.5</ele>
        <time>2026-03-21T08:49:25Z</time>
      </trkpt>
      <trkpt lat="48.03627" lon="7.02467">
        <ele>1213.1</ele>
        <time>2026-03-21T08:49:30Z</time>
      </trkpt>
      <trkpt lat="48.0363" lon="7.02469">
        <ele>1214.3</ele>
        <time>2026-03-21T08:49:35Z</time>
      </trkpt>
      <trkpt lat="48.03631" lon="7.02471">
        <ele>1214.5</ele>
        <time>2026-03-21T08:49:40Z</time>
      </trkpt>
      <trkpt lat="48.03634" lon="7.02474">
        <ele>1215.6</ele>
        <time>2026-03-21T08:49:45Z</time>
      </trkpt>
      <trkpt lat="48.03636" lon="7.02478">
        <ele>1216</ele>
        <time>2026-03-21T08:49:50Z</time>
      </trkpt>
      <trkpt lat="48.03639" lon="7.02482">
        <ele>1216.9</ele>
        <time>2026-03-21T08:49:55Z</time>
      </trkpt>
      <trkpt lat="48.03641" lon="7.02488">
        <ele>1217</ele>
        <time>2026-03-21T08:50:00Z</time>
      </trkpt>
      <trkpt lat="48.03644" lon="7.02491">
        <ele>1217.9</ele>
        <time>2026-03-21T08:50:05Z</time>
      </trkpt>
      <trkpt lat="48.03645" lon="7.02496">
        <ele>1217.7</ele>
        <time>2026-03-21T08:50:10Z</time>
      </trkpt>
      <trkpt lat="48.03647" lon="7.02501">
        <ele>1217.8</ele>
        <time>2026-03-21T08:50:15Z</time>
      </trkpt>
      <trkpt lat="48.0365" lon="7.02504">
        <ele>1218.7</ele>
        <time>2026-03-21T08:50:20Z</time>
      </trkpt>
      <trkpt lat="48.03651" lon="7.02508">
        <ele>1218.5</ele>
        <time>2026-03-21T08:50:25Z</time>
      </trkpt>
      <trkpt lat="48.03651" lon="7.0251">
        <ele>1218.2</ele>
        <time>2026-03-21T08:50:30Z</time>
      </trkpt>
      <trkpt lat="48.03653" lon="7.02513">
        <ele>1218.7</ele>
        <time>2026-03-21T08:50:35Z</time>
      </trkpt>
      <trkpt lat="48.03655" lon="7.02516">
        <ele>1219.1</ele>
        <time>2026-03-21T08:50:40Z</time>
      </trkpt>
      <trkpt lat="48.03658" lon="7.0252">
        <ele>1219.8</ele>
        <time>2026-03-21T08:50:45Z</time>
      </trkpt>
      <trkpt lat="48.0366" lon="7.02523">
        <ele>1220.2</ele>
        <time>2026-03-21T08:50:50Z</time>
      </trkpt>
      <trkpt lat="48.03661" lon="7.02526">
        <ele>1220.2</ele>
        <time>2026-03-21T08:50:55Z</time>
      </trkpt>
      <trkpt lat="48.03661" lon="7.02526">
        <ele>1220.2</ele>
        <time>2026-03-21T08:51:00Z</time>
      </trkpt>
      <trkpt lat="48.03657" lon="7.02528">
        <ele>1218.3</ele>
        <time>2026-03-21T08:51:05Z</time>
      </trkpt>
      <trkpt lat="48.03656" lon="7.02533">
        <ele>1217.2</ele>
        <time>2026-03-21T08:51:10Z</time>
      </trkpt>
      <trkpt lat="48.03659" lon="7.02537">
        <ele>1217.9</ele>
        <time>2026-03-21T08:51:15Z</time>
      </trkpt>
      <trkpt lat="48.03658" lon="7.0254">
        <ele>1217.1</ele>
        <time>2026-03-21T08:51:20Z</time>
      </trkpt>
      <trkpt lat="48.03657" lon="7.02545">
        <ele>1216</ele>
        <time>2026-03-21T08:51:25Z</time>
      </trkpt>
      <trkpt lat="48.03657" lon="7.02548">
        <ele>1215.6</ele>
        <time>2026-03-21T08:51:30Z</time>
      </trkpt>
      <trkpt lat="48.03656" lon="7.02549">
        <ele>1215</ele>
        <time>2026-03-21T08:51:35Z</time>
      </trkpt>
      <trkpt lat="48.03652" lon="7.02555">
        <ele>1212.5</ele>
        <time>2026-03-21T08:51:40Z</time>
      </trkpt>
      <trkpt lat="48.03648" lon="7.02562">
        <ele>1209.9</ele>
        <time>2026-03-21T08:51:45Z</time>
      </trkpt>
      <trkpt lat="48.03646" lon="7.0257">
        <ele>1207.9</ele>
        <time>2026-03-21T08:51:50Z</time>
      </trkpt>
      <trkpt lat="48.03644" lon="7.02574">
        <ele>1206.5</ele>
        <time>2026-03-21T08:51:55Z</time>
      </trkpt>
      <trkpt lat="48.03643" lon="7.02575">
        <ele>1205.9</ele>
        <time>2026-03-21T08:52:00Z</time>
      </trkpt>
      <trkpt lat="48.0364" lon="7.02578">
        <ele>1204.2</ele>
        <time>2026-03-21T08:52:05Z</time>
      </trkpt>
      <trkpt lat="48.03636" lon="7.02584">
        <ele>1201.8</ele>
        <time>2026-03-21T08:52:10Z</time>
      </trkpt>
      <trkpt lat="48.03631" lon="7.02588">
        <ele>1199.8</ele>
        <time>2026-03-21T08:52:15Z</time>
      </trkpt>
      <trkpt lat="48.03627" lon="7.02593">
        <ele>1198.4</ele>
        <time>2026-03-21T08:52:20Z</time>
      </trkpt>
      <trkpt lat="48.03622" lon="7.02599">
        <ele>1196.7</ele>
        <time>2026-03-21T08:52:25Z</time>
      </trkpt>
      <trkpt lat="48.03618" lon="7.02605">
        <ele>1195.4</ele>
        <time>2026-03-21T08:52:30Z</time>
      </trkpt>
      <trkpt lat="48.03615" lon="7.02612">
        <ele>1194.6</ele>
        <time>2026-03-21T08:52:35Z</time>
      </trkpt>
      <trkpt lat="48.03614" lon="7.02612">
        <ele>1194.2</ele>
        <time>2026-03-21T08:52:40Z</time>
      </trkpt>
      <trkpt lat="48.03612" lon="7.02614">
        <ele>1193.6</ele>
        <time>2026-03-21T08:52:45Z</time>
      </trkpt>
      <trkpt lat="48.0361" lon="7.02617">
        <ele>1193</ele>
        <time>2026-03-21T08:52:50Z</time>
      </trkpt>
      <trkpt lat="48.03609" lon="7.02619">
        <ele>1192.7</ele>
        <time>2026-03-21T08:52:55Z</time>
      </trkpt>
      <trkpt lat="48.03607" lon="7.02619">
        <ele>1191.9</ele>
        <time>2026-03-21T08:53:00Z</time>
      </trkpt>
      <trkpt lat="48.03604" lon="7.0262">
        <ele>1190.8</ele>
        <time>2026-03-21T08:53:05Z</time>
      </trkpt>
      <trkpt lat="48.03601" lon="7.02621">
        <ele>1189.7</ele>
        <time>2026-03-21T08:53:10Z</time>
      </trkpt>
      <trkpt lat="48.03599" lon="7.02621">
        <ele>1188.9</ele>
        <time>2026-03-21T08:53:15Z</time>
      </trkpt>
      <trkpt lat="48.03594" lon="7.02623">
        <ele>1187.1</ele>
        <time>2026-03-21T08:53:20Z</time>
      </trkpt>
      <trkpt lat="48.0359" lon="7.02629">
        <ele>1186</ele>
        <time>2026-03-21T08:53:25Z</time>
      </trkpt>
      <trkpt lat="48.03592" lon="7.02633">
        <ele>1187.1</ele>
        <time>2026-03-21T08:53:30Z</time>
      </trkpt>
      <trkpt lat="48.03592" lon="7.02636">
        <ele>1187.4</ele>
        <time>2026-03-21T08:53:35Z</time>
      </trkpt>
      <trkpt lat="48.03589" lon="7.02639">
        <ele>1186.5</ele>
        <time>2026-03-21T08:53:40Z</time>
      </trkpt>
      <trkpt lat="48.03587" lon="7.02642">
        <ele>1186</ele>
        <time>2026-03-21T08:53:45Z</time>
      </trkpt>
      <trkpt lat="48.03585" lon="7.02645">
        <ele>1185.6</ele>
        <time>2026-03-21T08:53:50Z</time>
      </trkpt>
      <trkpt lat="48.03582" lon="7.02649">
        <ele>1184.5</ele>
        <time>2026-03-21T08:53:55Z</time>
      </trkpt>
      <trkpt lat="48.0358" lon="7.02652">
        <ele>1183.6</ele>
        <time>2026-03-21T08:54:00Z</time>
      </trkpt>
      <trkpt lat="48.03579" lon="7.02655">
        <ele>1183.2</ele>
        <time>2026-03-21T08:54:05Z</time>
      </trkpt>
      <trkpt lat="48.03576" lon="7.02659">
        <ele>1181.8</ele>
        <time>2026-03-21T08:54:10Z</time>
      </trkpt>
      <trkpt lat="48.03574" lon="7.02664">
        <ele>1181</ele>
        <time>2026-03-21T08:54:15Z</time>
      </trkpt>
      <trkpt lat="48.03571" lon="7.02665">
        <ele>1179.3</ele>
        <time>2026-03-21T08:54:20Z</time>
      </trkpt>
      <trkpt lat="48.03568" lon="7.02668">
        <ele>1177.9</ele>
        <time>2026-03-21T08:54:25Z</time>
      </trkpt>
      <trkpt lat="48.03566" lon="7.0267">
        <ele>1177.2</ele>
        <time>2026-03-21T08:54:30Z</time>
      </trkpt>
      <trkpt lat="48.03563" lon="7.02672">
        <ele>1175.8</ele>
        <time>2026-03-21T08:54:35Z</time>
      </trkpt>
      <trkpt lat="48.03559" lon="7.02674">
        <ele>1173.8</ele>
        <time>2026-03-21T08:54:40Z</time>
      </trkpt>
      <trkpt lat="48.03556" lon="7.02677">
        <ele>1172.7</ele>
        <time>2026-03-21T08:54:45Z</time>
      </trkpt>
      <trkpt lat="48.03552" lon="7.02678">
        <ele>1170.5</ele>
        <time>2026-03-21T08:54:50Z</time>
      </trkpt>
      <trkpt lat="48.03548" lon="7.02679">
        <ele>1168.3</ele>
        <time>2026-03-21T08:54:55Z</time>
      </trkpt>
      <trkpt lat="48.03545" lon="7.02681">
        <ele>1166.9</ele>
        <time>2026-03-21T08:55:00Z</time>
      </trkpt>
      <trkpt lat="48.03542" lon="7.02685">
        <ele>1166</ele>
        <time>2026-03-21T08:55:05Z</time>
      </trkpt>
      <trkpt lat="48.03539" lon="7.02685">
        <ele>1164.2</ele>
        <time>2026-03-21T08:55:10Z</time>
      </trkpt>
      <trkpt lat="48.03537" lon="7.02687">
        <ele>1163.4</ele>
        <time>2026-03-21T08:55:15Z</time>
      </trkpt>
      <trkpt lat="48.03533" lon="7.02692">
        <ele>1162.1</ele>
        <time>2026-03-21T08:55:20Z</time>
      </trkpt>
      <trkpt lat="48.03529" lon="7.02694">
        <ele>1160.1</ele>
        <time>2026-03-21T08:55:25Z</time>
      </trkpt>
      <trkpt lat="48.03527" lon="7.02697">
        <ele>1159.6</ele>
        <time>2026-03-21T08:55:30Z</time>
      </trkpt>
      <trkpt lat="48.03525" lon="7.027">
        <ele>1159</ele>
        <time>2026-03-21T08:55:35Z</time>
      </trkpt>
      <trkpt lat="48.03522" lon="7.027">
        <ele>1157.2</ele>
        <time>2026-03-21T08:55:40Z</time>
      </trkpt>
      <trkpt lat="48.0352" lon="7.027">
        <ele>1155.9</ele>
        <time>2026-03-21T08:55:45Z</time>
      </trkpt>
      <trkpt lat="48.0352" lon="7.027">
        <ele>1155.9</ele>
        <time>2026-03-21T08:55:50Z</time>
      </trkpt>
      <trkpt lat="48.0352" lon="7.027">
        <ele>1155.9</ele>
        <time>2026-03-21T08:55:55Z</time>
      </trkpt>
      <trkpt lat="48.03511" lon="7.02706">
        <ele>1151.8</ele>
        <time>2026-03-21T08:56:00Z</time>
      </trkpt>
      <trkpt lat="48.03511" lon="7.02706">
        <ele>1151.8</ele>
        <time>2026-03-21T08:56:05Z</time>
      </trkpt>
      <trkpt lat="48.03511" lon="7.02706">
        <ele>1151.8</ele>
        <time>2026-03-21T08:56:10Z</time>
      </trkpt>
      <trkpt lat="48.03511" lon="7.02706">
        <ele>1151.8</ele>
        <time>2026-03-21T08:56:15Z</time>
      </trkpt>
      <trkpt lat="48.03511" lon="7.02706">
        <ele>1151.8</ele>
        <time>2026-03-21T08:56:20Z</time>
      </trkpt>
      <trkpt lat="48.03511" lon="7.02706">
        <ele>1151.8</ele>
        <time>2026-03-21T08:56:25Z</time>
      </trkpt>
      <trkpt lat="48.03511" lon="7.02706">
        <ele>1151.8</ele>
        <time>2026-03-21T08:56:30Z</time>
      </trkpt>
      <trkpt lat="48.03511" lon="7.02706">
        <ele>1151.8</ele>
        <time>2026-03-21T08:56:35Z</time>
      </trkpt>
      <trkpt lat="48.03511" lon="7.02706">
        <ele>1151.8</ele>
        <time>2026-03-21T08:56:40Z</time>
      </trkpt>
      <trkpt lat="48.03511" lon="7.02706">
        <ele>1151.8</ele>
        <time>2026-03-21T08:56:45Z</time>
      </trkpt>
      <trkpt lat="48.03511" lon="7.02706">
        <ele>1151.8</ele>
        <time>2026-03-21T08:56:50Z</time>
      </trkpt>
      <trkpt lat="48.03511" lon="7.02706">
        <ele>1151.8</ele>
        <time>2026-03-21T08:56:55Z</time>
      </trkpt>
      <trkpt lat="48.03511" lon="7.02706">
        <ele>1151.8</ele>
        <time>2026-03-21T08:57:00Z</time>
      </trkpt>
      <trkpt lat="48.03511" lon="7.02706">
        <ele>1151.8</ele>
        <time>2026-03-21T08:57:05Z</time>
      </trkpt>
      <trkpt lat="48.03511" lon="7.02706">
        <ele>1151.8</ele>
        <time>2026-03-21T08:57:10Z</time>
      </trkpt>
      <trkpt lat="48.03511" lon="7.02706">
        <ele>1151.8</ele>
        <time>2026-03-21T08:57:15Z</time>
      </trkpt>
      <trkpt lat="48.03511" lon="7.02706">
        <ele>1151.8</ele>
        <time>2026-03-21T08:57:20Z</time>
      </trkpt>
      <trkpt lat="48.03511" lon="7.02706">
        <ele>1151.8</ele>
        <time>2026-03-21T08:57:25Z</time>
      </trkpt>
      <trkpt lat="48.03511" lon="7.02706">
        <ele>1151.8</ele>
        <time>2026-03-21T08:57:30Z</time>
      </trkpt>
      <trkpt lat="48.03511" lon="7.02706">
        <ele>1151.8</ele>
        <time>2026-03-21T08:57:35Z</time>
      </trkpt>
      <trkpt lat="48.03511" lon="7.02706">
        <ele>1151.8</ele>
        <time>2026-03-21T08:57:40Z</time>
      </trkpt>
      <trkpt lat="48.03511" lon="7.02706">
        <ele>1151.8</ele>
        <time>2026-03-21T08:57:45Z</time>
      </trkpt>
      <trkpt lat="48.03511" lon="7.02706">
        <ele>1151.8</ele>
        <time>2026-03-21T08:57:50Z</time>
      </trkpt>
      <trkpt lat="48.03511" lon="7.02706">
        <ele>1151.8</ele>
        <time>2026-03-21T08:57:55Z</time>
      </trkpt>
      <trkpt lat="48.03511" lon="7.02706">
        <ele>1151.8</ele>
        <time>2026-03-21T08:58:00Z</time>
      </trkpt>
      <trkpt lat="48.03511" lon="7.02706">
        <ele>1151.8</ele>
        <time>2026-03-21T08:58:05Z</time>
      </trkpt>
      <trkpt lat="48.03511" lon="7.02706">
        <ele>1151.8</ele>
        <time>2026-03-21T08:58:10Z</time>
      </trkpt>
      <trkpt lat="48.03511" lon="7.02706">
        <ele>1151.8</ele>
        <time>2026-03-21T08:58:15Z</time>
      </trkpt>
      <trkpt lat="48.03511" lon="7.02706">
        <ele>1151.8</ele>
        <time>2026-03-21T08:58:20Z</time>
      </trkpt>
      <trkpt lat="48.03511" lon="7.02706">
        <ele>1151.8</ele>
        <time>2026-03-21T08:58:25Z</time>
      </trkpt>
      <trkpt lat="48.03511" lon="7.02706">
        <ele>1151.8</ele>
        <time>2026-03-21T08:58:30Z</time>
      </trkpt>
      <trkpt lat="48.03511" lon="7.02706">
        <ele>1151.8</ele>
        <time>2026-03-21T08:58:35Z</time>
      </trkpt>
      <trkpt lat="48.03511" lon="7.02706">
        <ele>1151.8</ele>
        <time>2026-03-21T08:58:40Z</time>
      </trkpt>
      <trkpt lat="48.03511" lon="7.02706">
        <ele>1151.8</ele>
        <time>2026-03-21T08:58:45Z</time>
      </trkpt>
      <trkpt lat="48.03511" lon="7.02706">
        <ele>1151.8</ele>
        <time>2026-03-21T08:58:50Z</time>
      </trkpt>
      <trkpt lat="48.03511" lon="7.02706">
        <ele>1151.8</ele>
        <time>2026-03-21T08:58:55Z</time>
      </trkpt>
      <trkpt lat="48.03511" lon="7.02706">
        <ele>1151.8</ele>
        <time>2026-03-21T08:59:00Z</time>
      </trkpt>
      <trkpt lat="48.03511" lon="7.02706">
        <ele>1151.8</ele>
        <time>2026-03-21T08:59:05Z</time>
      </trkpt>
      <trkpt lat="48.03511" lon="7.02706">
        <ele>1151.8</ele>
        <time>2026-03-21T08:59:10Z</time>
      </trkpt>
      <trkpt lat="48.03511" lon="7.02706">
        <ele>1151.8</ele>
        <time>2026-03-21T08:59:15Z</time>
      </trkpt>
      <trkpt lat="48.03511" lon="7.02706">
        <ele>1151.8</ele>
        <time>2026-03-21T08:59:20Z</time>
      </trkpt>
      <trkpt lat="48.03511" lon="7.02706">
        <ele>1151.8</ele>
        <time>2026-03-21T08:59:25Z</time>
      </trkpt>
      <trkpt lat="48.03511" lon="7.02706">
        <ele>1151.8</ele>
        <time>2026-03-21T08:59:30Z</time>
      </trkpt>
      <trkpt lat="48.03511" lon="7.02706">
        <ele>1151.8</ele>
        <time>2026-03-21T08:59:35Z</time>
      </trkpt>
      <trkpt lat="48.03511" lon="7.02706">
        <ele>1151.8</ele>
        <time>2026-03-21T08:59:40Z</time>
      </trkpt>
      <trkpt lat="48.03504" lon="7.02715">
        <ele>1149.5</ele>
        <time>2026-03-21T08:59:45Z</time>
      </trkpt>
      <trkpt lat="48.03502" lon="7.02715">
        <ele>1148.3</ele>
        <time>2026-03-21T08:59:50Z</time>
      </trkpt>
      <trkpt lat="48.03499" lon="7.02715">
        <ele>1146.5</ele>
        <time>2026-03-21T08:59:55Z</time>
      </trkpt>
      <trkpt lat="48.03499" lon="7.02715">
        <ele>1146.5</ele>
        <time>2026-03-21T09:00:00Z</time>
      </trkpt>
      <trkpt lat="48.03499" lon="7.02715">
        <ele>1146.5</ele>
        <time>2026-03-21T09:00:05Z</time>
      </trkpt>
      <trkpt lat="48.03499" lon="7.02715">
        <ele>1146.5</ele>
        <time>2026-03-21T09:00:10Z</time>
      </trkpt>
      <trkpt lat="48.03499" lon="7.02715">
        <ele>1146.5</ele>
        <time>2026-03-21T09:00:15Z</time>
      </trkpt>
      <trkpt lat="48.03499" lon="7.02715">
        <ele>1146.5</ele>
        <time>2026-03-21T09:00:20Z</time>
      </trkpt>
      <trkpt lat="48.03499" lon="7.02715">
        <ele>1146.5</ele>
        <time>2026-03-21T09:00:25Z</time>
      </trkpt>
      <trkpt lat="48.03499" lon="7.02715">
        <ele>1146.5</ele>
        <time>2026-03-21T09:00:30Z</time>
      </trkpt>
      <trkpt lat="48.03499" lon="7.02715">
        <ele>1146.5</ele>
        <time>2026-03-21T09:00:35Z</time>
      </trkpt>
      <trkpt lat="48.03499" lon="7.02715">
        <ele>1146.5</ele>
        <time>2026-03-21T09:00:40Z</time>
      </trkpt>
      <trkpt lat="48.03499" lon="7.02715">
        <ele>1146.5</ele>
        <time>2026-03-21T09:00:45Z</time>
      </trkpt>
      <trkpt lat="48.03499" lon="7.02715">
        <ele>1146.5</ele>
        <time>2026-03-21T09:00:50Z</time>
      </trkpt>
      <trkpt lat="48.03499" lon="7.02715">
        <ele>1146.5</ele>
        <time>2026-03-21T09:00:55Z</time>
      </trkpt>
      <trkpt lat="48.03499" lon="7.02715">
        <ele>1146.5</ele>
        <time>2026-03-21T09:01:00Z</time>
      </trkpt>
      <trkpt lat="48.03499" lon="7.02715">
        <ele>1146.5</ele>
        <time>2026-03-21T09:01:05Z</time>
      </trkpt>
      <trkpt lat="48.03499" lon="7.02715">
        <ele>1146.5</ele>
        <time>2026-03-21T09:01:10Z</time>
      </trkpt>
      <trkpt lat="48.03499" lon="7.02715">
        <ele>1146.5</ele>
        <time>2026-03-21T09:01:15Z</time>
      </trkpt>
      <trkpt lat="48.03495" lon="7.02722">
        <ele>1146</ele>
        <time>2026-03-21T09:01:20Z</time>
      </trkpt>
      <trkpt lat="48.03491" lon="7.02721">
        <ele>1143.7</ele>
        <time>2026-03-21T09:01:25Z</time>
      </trkpt>
      <trkpt lat="48.03489" lon="7.02722">
        <ele>1142.9</ele>
        <time>2026-03-21T09:01:30Z</time>
      </trkpt>
      <trkpt lat="48.03488" lon="7.02726">
        <ele>1143.3</ele>
        <time>2026-03-21T09:01:35Z</time>
      </trkpt>
      <trkpt lat="48.03484" lon="7.02728">
        <ele>1141.6</ele>
        <time>2026-03-21T09:01:40Z</time>
      </trkpt>
      <trkpt lat="48.03481" lon="7.02729">
        <ele>1140.3</ele>
        <time>2026-03-21T09:01:45Z</time>
      </trkpt>
      <trkpt lat="48.0348" lon="7.02732">
        <ele>1140.5</ele>
        <time>2026-03-21T09:01:50Z</time>
      </trkpt>
      <trkpt lat="48.03478" lon="7.02735">
        <ele>1140.1</ele>
        <time>2026-03-21T09:01:55Z</time>
      </trkpt>
      <trkpt lat="48.03475" lon="7.02737">
        <ele>1139</ele>
        <time>2026-03-21T09:02:00Z</time>
      </trkpt>
      <trkpt lat="48.03473" lon="7.02739">
        <ele>1138.5</ele>
        <time>2026-03-21T09:02:05Z</time>
      </trkpt>
      <trkpt lat="48.03473" lon="7.02745">
        <ele>1139.9</ele>
        <time>2026-03-21T09:02:10Z</time>
      </trkpt>
      <trkpt lat="48.03472" lon="7.02752">
        <ele>1141.3</ele>
        <time>2026-03-21T09:02:15Z</time>
      </trkpt>
      <trkpt lat="48.03469" lon="7.02758">
        <ele>1141.9</ele>
        <time>2026-03-21T09:02:20Z</time>
      </trkpt>
      <trkpt lat="48.03468" lon="7.02756">
        <ele>1140.6</ele>
        <time>2026-03-21T09:02:25Z</time>
      </trkpt>
      <trkpt lat="48.03467" lon="7.02755">
        <ele>1139.8</ele>
        <time>2026-03-21T09:02:30Z</time>
      </trkpt>
      <trkpt lat="48.03464" lon="7.02759">
        <ele>1139.6</ele>
        <time>2026-03-21T09:02:35Z</time>
      </trkpt>
      <trkpt lat="48.03462" lon="7.02762">
        <ele>1139.7</ele>
        <time>2026-03-21T09:02:40Z</time>
      </trkpt>
      <trkpt lat="48.0346" lon="7.02767">
        <ele>1140.5</ele>
        <time>2026-03-21T09:02:45Z</time>
      </trkpt>
      <trkpt lat="48.0346" lon="7.02768">
        <ele>1140.8</ele>
        <time>2026-03-21T09:02:50Z</time>
      </trkpt>
      <trkpt lat="48.0346" lon="7.02768">
        <ele>1140.8</ele>
        <time>2026-03-21T09:02:55Z</time>
      </trkpt>
      <trkpt lat="48.0346" lon="7.02768">
        <ele>1140.8</ele>
        <time>2026-03-21T09:03:00Z</time>
      </trkpt>
      <trkpt lat="48.03452" lon="7.02776">
        <ele>1139.6</ele>
        <time>2026-03-21T09:03:05Z</time>
      </trkpt>
      <trkpt lat="48.03449" lon="7.02778">
        <ele>1138.8</ele>
        <time>2026-03-21T09:03:10Z</time>
      </trkpt>
      <trkpt lat="48.03447" lon="7.0278">
        <ele>1138.5</ele>
        <time>2026-03-21T09:03:15Z</time>
      </trkpt>
      <trkpt lat="48.03444" lon="7.02783">
        <ele>1138.1</ele>
        <time>2026-03-21T09:03:20Z</time>
      </trkpt>
      <trkpt lat="48.03441" lon="7.02785">
        <ele>1137.3</ele>
        <time>2026-03-21T09:03:25Z</time>
      </trkpt>
      <trkpt lat="48.03439" lon="7.0279">
        <ele>1138.1</ele>
        <time>2026-03-21T09:03:30Z</time>
      </trkpt>
      <trkpt lat="48.03436" lon="7.02794">
        <ele>1138.1</ele>
        <time>2026-03-21T09:03:35Z</time>
      </trkpt>
      <trkpt lat="48.03432" lon="7.02797">
        <ele>1137.2</ele>
        <time>2026-03-21T09:03:40Z</time>
      </trkpt>
      <trkpt lat="48.03429" lon="7.028">
        <ele>1136.8</ele>
        <time>2026-03-21T09:03:45Z</time>
      </trkpt>
      <trkpt lat="48.03425" lon="7.02802">
        <ele>1135.5</ele>
        <time>2026-03-21T09:03:50Z</time>
      </trkpt>
      <trkpt lat="48.0342" lon="7.02805">
        <ele>1134.1</ele>
        <time>2026-03-21T09:03:55Z</time>
      </trkpt>
      <trkpt lat="48.03417" lon="7.0281">
        <ele>1134.5</ele>
        <time>2026-03-21T09:04:00Z</time>
      </trkpt>
      <trkpt lat="48.03415" lon="7.02816">
        <ele>1135.8</ele>
        <time>2026-03-21T09:04:05Z</time>
      </trkpt>
      <trkpt lat="48.03411" lon="7.02823">
        <ele>1136.6</ele>
        <time>2026-03-21T09:04:10Z</time>
      </trkpt>
      <trkpt lat="48.03409" lon="7.02829">
        <ele>1137.9</ele>
        <time>2026-03-21T09:04:15Z</time>
      </trkpt>
      <trkpt lat="48.03404" lon="7.02833">
        <ele>1137.1</ele>
        <time>2026-03-21T09:04:20Z</time>
      </trkpt>
      <trkpt lat="48.034" lon="7.02835">
        <ele>1135.9</ele>
        <time>2026-03-21T09:04:25Z</time>
      </trkpt>
      <trkpt lat="48.03397" lon="7.02841">
        <ele>1136.3</ele>
        <time>2026-03-21T09:04:30Z</time>
      </trkpt>
      <trkpt lat="48.03393" lon="7.02845">
        <ele>1135.7</ele>
        <time>2026-03-21T09:04:35Z</time>
      </trkpt>
      <trkpt lat="48.0339" lon="7.02848">
        <ele>1135.2</ele>
        <time>2026-03-21T09:04:40Z</time>
      </trkpt>
      <trkpt lat="48.03386" lon="7.02851">
        <ele>1134.3</ele>
        <time>2026-03-21T09:04:45Z</time>
      </trkpt>
      <trkpt lat="48.03383" lon="7.02853">
        <ele>1133.5</ele>
        <time>2026-03-21T09:04:50Z</time>
      </trkpt>
      <trkpt lat="48.0338" lon="7.02855">
        <ele>1132.8</ele>
        <time>2026-03-21T09:04:55Z</time>
      </trkpt>
      <trkpt lat="48.03377" lon="7.02859">
        <ele>1132.6</ele>
        <time>2026-03-21T09:05:00Z</time>
      </trkpt>
      <trkpt lat="48.03376" lon="7.02863">
        <ele>1133.4</ele>
        <time>2026-03-21T09:05:05Z</time>
      </trkpt>
      <trkpt lat="48.03374" lon="7.02868">
        <ele>1133.9</ele>
        <time>2026-03-21T09:05:10Z</time>
      </trkpt>
      <trkpt lat="48.0337" lon="7.02872">
        <ele>1133.3</ele>
        <time>2026-03-21T09:05:15Z</time>
      </trkpt>
      <trkpt lat="48.03368" lon="7.02877">
        <ele>1133.9</ele>
        <time>2026-03-21T09:05:20Z</time>
      </trkpt>
      <trkpt lat="48.03364" lon="7.02881">
        <ele>1133.3</ele>
        <time>2026-03-21T09:05:25Z</time>
      </trkpt>
      <trkpt lat="48.03361" lon="7.02885">
        <ele>1133.1</ele>
        <time>2026-03-21T09:05:30Z</time>
      </trkpt>
      <trkpt lat="48.03358" lon="7.02889">
        <ele>1132.9</ele>
        <time>2026-03-21T09:05:35Z</time>
      </trkpt>
      <trkpt lat="48.03355" lon="7.02893">
        <ele>1132.8</ele>
        <time>2026-03-21T09:05:40Z</time>
      </trkpt>
      <trkpt lat="48.03353" lon="7.02896">
        <ele>1132.8</ele>
        <time>2026-03-21T09:05:45Z</time>
      </trkpt>
      <trkpt lat="48.0335" lon="7.02899">
        <ele>1132.3</ele>
        <time>2026-03-21T09:05:50Z</time>
      </trkpt>
      <trkpt lat="48.03347" lon="7.02902">
        <ele>1131.8</ele>
        <time>2026-03-21T09:05:55Z</time>
      </trkpt>
      <trkpt lat="48.03343" lon="7.02906">
        <ele>1131.2</ele>
        <time>2026-03-21T09:06:00Z</time>
      </trkpt>
      <trkpt lat="48.03339" lon="7.02911">
        <ele>1130.9</ele>
        <time>2026-03-21T09:06:05Z</time>
      </trkpt>
      <trkpt lat="48.03335" lon="7.02916">
        <ele>1130.6</ele>
        <time>2026-03-21T09:06:10Z</time>
      </trkpt>
      <trkpt lat="48.03332" lon="7.02924">
        <ele>1131.1</ele>
        <time>2026-03-21T09:06:15Z</time>
      </trkpt>
      <trkpt lat="48.03328" lon="7.02929">
        <ele>1130.4</ele>
        <time>2026-03-21T09:06:20Z</time>
      </trkpt>
      <trkpt lat="48.03325" lon="7.02929">
        <ele>1129</ele>
        <time>2026-03-21T09:06:25Z</time>
      </trkpt>
      <trkpt lat="48.03322" lon="7.02932">
        <ele>1128.3</ele>
        <time>2026-03-21T09:06:30Z</time>
      </trkpt>
      <trkpt lat="48.03319" lon="7.02936">
        <ele>1127.8</ele>
        <time>2026-03-21T09:06:35Z</time>
      </trkpt>
      <trkpt lat="48.03316" lon="7.02943">
        <ele>1128</ele>
        <time>2026-03-21T09:06:40Z</time>
      </trkpt>
      <trkpt lat="48.03311" lon="7.02948">
        <ele>1126.9</ele>
        <time>2026-03-21T09:06:45Z</time>
      </trkpt>
      <trkpt lat="48.03309" lon="7.02951">
        <ele>1126.6</ele>
        <time>2026-03-21T09:06:50Z</time>
      </trkpt>
      <trkpt lat="48.03308" lon="7.02951">
        <ele>1126.2</ele>
        <time>2026-03-21T09:06:55Z</time>
      </trkpt>
      <trkpt lat="48.03305" lon="7.02953">
        <ele>1125.2</ele>
        <time>2026-03-21T09:07:00Z</time>
      </trkpt>
      <trkpt lat="48.03302" lon="7.02957">
        <ele>1124.7</ele>
        <time>2026-03-21T09:07:05Z</time>
      </trkpt>
      <trkpt lat="48.033" lon="7.02963">
        <ele>1125.1</ele>
        <time>2026-03-21T09:07:10Z</time>
      </trkpt>
      <trkpt lat="48.03297" lon="7.02968">
        <ele>1124.9</ele>
        <time>2026-03-21T09:07:15Z</time>
      </trkpt>
      <trkpt lat="48.03292" lon="7.0297">
        <ele>1123</ele>
        <time>2026-03-21T09:07:20Z</time>
      </trkpt>
      <trkpt lat="48.03289" lon="7.02977">
        <ele>1123.2</ele>
        <time>2026-03-21T09:07:25Z</time>
      </trkpt>
      <trkpt lat="48.03286" lon="7.02985">
        <ele>1123.5</ele>
        <time>2026-03-21T09:07:30Z</time>
      </trkpt>
      <trkpt lat="48.03283" lon="7.02993">
        <ele>1123.9</ele>
        <time>2026-03-21T09:07:35Z</time>
      </trkpt>
      <trkpt lat="48.0328" lon="7.03001">
        <ele>1124.3</ele>
        <time>2026-03-21T09:07:40Z</time>
      </trkpt>
      <trkpt lat="48.03277" lon="7.03007">
        <ele>1124.2</ele>
        <time>2026-03-21T09:07:45Z</time>
      </trkpt>
      <trkpt lat="48.03274" lon="7.03015">
        <ele>1124.5</ele>
        <time>2026-03-21T09:07:50Z</time>
      </trkpt>
      <trkpt lat="48.0327" lon="7.03025">
        <ele>1124.9</ele>
        <time>2026-03-21T09:07:55Z</time>
      </trkpt>
      <trkpt lat="48.03267" lon="7.03034">
        <ele>1125.5</ele>
        <time>2026-03-21T09:08:00Z</time>
      </trkpt>
      <trkpt lat="48.03265" lon="7.03042">
        <ele>1126.4</ele>
        <time>2026-03-21T09:08:05Z</time>
      </trkpt>
      <trkpt lat="48.03263" lon="7.03049">
        <ele>1127.1</ele>
        <time>2026-03-21T09:08:10Z</time>
      </trkpt>
      <trkpt lat="48.03261" lon="7.03054">
        <ele>1127.3</ele>
        <time>2026-03-21T09:08:15Z</time>
      </trkpt>
      <trkpt lat="48.03259" lon="7.03055">
        <ele>1126.6</ele>
        <time>2026-03-21T09:08:20Z</time>
      </trkpt>
      <trkpt lat="48.03256" lon="7.03063">
        <ele>1127.1</ele>
        <time>2026-03-21T09:08:25Z</time>
      </trkpt>
      <trkpt lat="48.03251" lon="7.03071">
        <ele>1126.6</ele>
        <time>2026-03-21T09:08:30Z</time>
      </trkpt>
      <trkpt lat="48.03248" lon="7.03079">
        <ele>1127.5</ele>
        <time>2026-03-21T09:08:35Z</time>
      </trkpt>
      <trkpt lat="48.03246" lon="7.03082">
        <ele>1127.8</ele>
        <time>2026-03-21T09:08:40Z</time>
      </trkpt>
      <trkpt lat="48.03242" lon="7.0309">
        <ele>1129.2</ele>
        <time>2026-03-21T09:08:45Z</time>
      </trkpt>
      <trkpt lat="48.03236" lon="7.03097">
        <ele>1130</ele>
        <time>2026-03-21T09:08:50Z</time>
      </trkpt>
      <trkpt lat="48.03236" lon="7.03097">
        <ele>1130</ele>
        <time>2026-03-21T09:08:55Z</time>
      </trkpt>
      <trkpt lat="48.03236" lon="7.03097">
        <ele>1130</ele>
        <time>2026-03-21T09:09:00Z</time>
      </trkpt>
      <trkpt lat="48.03231" lon="7.03103">
        <ele>1130.8</ele>
        <time>2026-03-21T09:09:05Z</time>
      </trkpt>
      <trkpt lat="48.03225" lon="7.03109">
        <ele>1131.2</ele>
        <time>2026-03-21T09:09:10Z</time>
      </trkpt>
      <trkpt lat="48.03221" lon="7.03113">
        <ele>1131.5</ele>
        <time>2026-03-21T09:09:15Z</time>
      </trkpt>
      <trkpt lat="48.03217" lon="7.03118">
        <ele>1132.1</ele>
        <time>2026-03-21T09:09:20Z</time>
      </trkpt>
      <trkpt lat="48.03213" lon="7.03122">
        <ele>1132.4</ele>
        <time>2026-03-21T09:09:25Z</time>
      </trkpt>
      <trkpt lat="48.03208" lon="7.03126">
        <ele>1132.5</ele>
        <time>2026-03-21T09:09:30Z</time>
      </trkpt>
      <trkpt lat="48.03203" lon="7.0313">
        <ele>1132.5</ele>
        <time>2026-03-21T09:09:35Z</time>
      </trkpt>
      <trkpt lat="48.03199" lon="7.03133">
        <ele>1132.5</ele>
        <time>2026-03-21T09:09:40Z</time>
      </trkpt>
      <trkpt lat="48.03198" lon="7.03132">
        <ele>1132</ele>
        <time>2026-03-21T09:09:45Z</time>
      </trkpt>
      <trkpt lat="48.03199" lon="7.0313">
        <ele>1131.6</ele>
        <time>2026-03-21T09:09:50Z</time>
      </trkpt>
      <trkpt lat="48.03199" lon="7.0313">
        <ele>1131.6</ele>
        <time>2026-03-21T09:09:55Z</time>
      </trkpt>
      <trkpt lat="48.03199" lon="7.0313">
        <ele>1131.6</ele>
        <time>2026-03-21T09:10:00Z</time>
      </trkpt>
      <trkpt lat="48.03199" lon="7.0313">
        <ele>1131.6</ele>
        <time>2026-03-21T09:10:05Z</time>
      </trkpt>
      <trkpt lat="48.03199" lon="7.0313">
        <ele>1131.6</ele>
        <time>2026-03-21T09:10:10Z</time>
      </trkpt>
      <trkpt lat="48.03199" lon="7.0313">
        <ele>1131.6</ele>
        <time>2026-03-21T09:10:15Z</time>
      </trkpt>
      <trkpt lat="48.03195" lon="7.03137">
        <ele>1132.8</ele>
        <time>2026-03-21T09:10:20Z</time>
      </trkpt>
      <trkpt lat="48.03192" lon="7.0314">
        <ele>1133</ele>
        <time>2026-03-21T09:10:25Z</time>
      </trkpt>
      <trkpt lat="48.03191" lon="7.03142">
        <ele>1133.4</ele>
        <time>2026-03-21T09:10:30Z</time>
      </trkpt>
      <trkpt lat="48.03191" lon="7.03142">
        <ele>1133.4</ele>
        <time>2026-03-21T09:10:35Z</time>
      </trkpt>
      <trkpt lat="48.03191" lon="7.03142">
        <ele>1133.4</ele>
        <time>2026-03-21T09:10:40Z</time>
      </trkpt>
      <trkpt lat="48.03191" lon="7.03142">
        <ele>1133.4</ele>
        <time>2026-03-21T09:10:45Z</time>
      </trkpt>
      <trkpt lat="48.03187" lon="7.03147">
        <ele>1133.9</ele>
        <time>2026-03-21T09:10:50Z</time>
      </trkpt>
      <trkpt lat="48.03184" lon="7.03149">
        <ele>1133.8</ele>
        <time>2026-03-21T09:10:55Z</time>
      </trkpt>
      <trkpt lat="48.03179" lon="7.0315">
        <ele>1132.9</ele>
        <time>2026-03-21T09:11:00Z</time>
      </trkpt>
      <trkpt lat="48.03173" lon="7.03155">
        <ele>1133</ele>
        <time>2026-03-21T09:11:05Z</time>
      </trkpt>
      <trkpt lat="48.03169" lon="7.03156">
        <ele>1132.4</ele>
        <time>2026-03-21T09:11:10Z</time>
      </trkpt>
      <trkpt lat="48.03165" lon="7.03158">
        <ele>1132.1</ele>
        <time>2026-03-21T09:11:15Z</time>
      </trkpt>
      <trkpt lat="48.03159" lon="7.03161">
        <ele>1131.8</ele>
        <time>2026-03-21T09:11:20Z</time>
      </trkpt>
      <trkpt lat="48.03154" lon="7.03162">
        <ele>1131.2</ele>
        <time>2026-03-21T09:11:25Z</time>
      </trkpt>
      <trkpt lat="48.03149" lon="7.03164">
        <ele>1130.8</ele>
        <time>2026-03-21T09:11:30Z</time>
      </trkpt>
      <trkpt lat="48.03144" lon="7.03167">
        <ele>1130.7</ele>
        <time>2026-03-21T09:11:35Z</time>
      </trkpt>
      <trkpt lat="48.03138" lon="7.0317">
        <ele>1130.4</ele>
        <time>2026-03-21T09:11:40Z</time>
      </trkpt>
      <trkpt lat="48.03133" lon="7.03172">
        <ele>1129.9</ele>
        <time>2026-03-21T09:11:45Z</time>
      </trkpt>
      <trkpt lat="48.03128" lon="7.03176">
        <ele>1130</ele>
        <time>2026-03-21T09:11:50Z</time>
      </trkpt>
      <trkpt lat="48.03125" lon="7.03178">
        <ele>1129.9</ele>
        <time>2026-03-21T09:11:55Z</time>
      </trkpt>
      <trkpt lat="48.0312" lon="7.03179">
        <ele>1129.2</ele>
        <time>2026-03-21T09:12:00Z</time>
      </trkpt>
      <trkpt lat="48.03116" lon="7.03182">
        <ele>1129.1</ele>
        <time>2026-03-21T09:12:05Z</time>
      </trkpt>
      <trkpt lat="48.03113" lon="7.03184">
        <ele>1129</ele>
        <time>2026-03-21T09:12:10Z</time>
      </trkpt>
      <trkpt lat="48.03106" lon="7.03189">
        <ele>1128.8</ele>
        <time>2026-03-21T09:12:15Z</time>
      </trkpt>
      <trkpt lat="48.031" lon="7.03193">
        <ele>1128.5</ele>
        <time>2026-03-21T09:12:20Z</time>
      </trkpt>
      <trkpt lat="48.03095" lon="7.03198">
        <ele>1128.6</ele>
        <time>2026-03-21T09:12:25Z</time>
      </trkpt>
      <trkpt lat="48.0309" lon="7.03203">
        <ele>1128.7</ele>
        <time>2026-03-21T09:12:30Z</time>
      </trkpt>
      <trkpt lat="48.03086" lon="7.03204">
        <ele>1128.1</ele>
        <time>2026-03-21T09:12:35Z</time>
      </trkpt>
      <trkpt lat="48.03083" lon="7.03208">
        <ele>1128.4</ele>
        <time>2026-03-21T09:12:40Z</time>
      </trkpt>
      <trkpt lat="48.0308" lon="7.03209">
        <ele>1128</ele>
        <time>2026-03-21T09:12:45Z</time>
      </trkpt>
      <trkpt lat="48.03076" lon="7.03213">
        <ele>1128.2</ele>
        <time>2026-03-21T09:12:50Z</time>
      </trkpt>
      <trkpt lat="48.0307" lon="7.03216">
        <ele>1127.7</ele>
        <time>2026-03-21T09:12:55Z</time>
      </trkpt>
      <trkpt lat="48.03064" lon="7.03221">
        <ele>1127.7</ele>
        <time>2026-03-21T09:13:00Z</time>
      </trkpt>
      <trkpt lat="48.03059" lon="7.03224">
        <ele>1127.4</ele>
        <time>2026-03-21T09:13:05Z</time>
      </trkpt>
      <trkpt lat="48.03053" lon="7.03227">
        <ele>1126.9</ele>
        <time>2026-03-21T09:13:10Z</time>
      </trkpt>
      <trkpt lat="48.03048" lon="7.03231">
        <ele>1126.9</ele>
        <time>2026-03-21T09:13:15Z</time>
      </trkpt>
      <trkpt lat="48.03044" lon="7.03233">
        <ele>1126.6</ele>
        <time>2026-03-21T09:13:20Z</time>
      </trkpt>
      <trkpt lat="48.03039" lon="7.03236">
        <ele>1126.3</ele>
        <time>2026-03-21T09:13:25Z</time>
      </trkpt>
      <trkpt lat="48.03034" lon="7.0324">
        <ele>1126.2</ele>
        <time>2026-03-21T09:13:30Z</time>
      </trkpt>
      <trkpt lat="48.0303" lon="7.03242">
        <ele>1125.9</ele>
        <time>2026-03-21T09:13:35Z</time>
      </trkpt>
      <trkpt lat="48.03023" lon="7.03244">
        <ele>1125</ele>
        <time>2026-03-21T09:13:40Z</time>
      </trkpt>
      <trkpt lat="48.03018" lon="7.03248">
        <ele>1125</ele>
        <time>2026-03-21T09:13:45Z</time>
      </trkpt>
      <trkpt lat="48.03014" lon="7.03251">
        <ele>1124.8</ele>
        <time>2026-03-21T09:13:50Z</time>
      </trkpt>
      <trkpt lat="48.03009" lon="7.03256">
        <ele>1124.3</ele>
        <time>2026-03-21T09:13:55Z</time>
      </trkpt>
      <trkpt lat="48.03004" lon="7.0326">
        <ele>1123.7</ele>
        <time>2026-03-21T09:14:00Z</time>
      </trkpt>
      <trkpt lat="48.02998" lon="7.03265">
        <ele>1122.9</ele>
        <time>2026-03-21T09:14:05Z</time>
      </trkpt>
      <trkpt lat="48.02993" lon="7.0327">
        <ele>1122.1</ele>
        <time>2026-03-21T09:14:10Z</time>
      </trkpt>
      <trkpt lat="48.02988" lon="7.03274">
        <ele>1121.3</ele>
        <time>2026-03-21T09:14:15Z</time>
      </trkpt>
      <trkpt lat="48.02982" lon="7.03277">
        <ele>1120.1</ele>
        <time>2026-03-21T09:14:20Z</time>
      </trkpt>
      <trkpt lat="48.02976" lon="7.03283">
        <ele>1119.4</ele>
        <time>2026-03-21T09:14:25Z</time>
      </trkpt>
      <trkpt lat="48.02971" lon="7.03291">
        <ele>1119.3</ele>
        <time>2026-03-21T09:14:30Z</time>
      </trkpt>
      <trkpt lat="48.02965" lon="7.03297">
        <ele>1118.8</ele>
        <time>2026-03-21T09:14:35Z</time>
      </trkpt>
      <trkpt lat="48.02961" lon="7.03302">
        <ele>1118.7</ele>
        <time>2026-03-21T09:14:40Z</time>
      </trkpt>
      <trkpt lat="48.02956" lon="7.03308">
        <ele>1118.6</ele>
        <time>2026-03-21T09:14:45Z</time>
      </trkpt>
      <trkpt lat="48.02954" lon="7.03315">
        <ele>1119.3</ele>
        <time>2026-03-21T09:14:50Z</time>
      </trkpt>
      <trkpt lat="48.02952" lon="7.03319">
        <ele>1119.6</ele>
        <time>2026-03-21T09:14:55Z</time>
      </trkpt>
      <trkpt lat="48.02951" lon="7.03321">
        <ele>1119.7</ele>
        <time>2026-03-21T09:15:00Z</time>
      </trkpt>
      <trkpt lat="48.02949" lon="7.03324">
        <ele>1119.9</ele>
        <time>2026-03-21T09:15:05Z</time>
      </trkpt>
      <trkpt lat="48.02949" lon="7.03325">
        <ele>1120</ele>
        <time>2026-03-21T09:15:10Z</time>
      </trkpt>
      <trkpt lat="48.02946" lon="7.03332">
        <ele>1120.7</ele>
        <time>2026-03-21T09:15:15Z</time>
      </trkpt>
      <trkpt lat="48.02943" lon="7.0334">
        <ele>1121</ele>
        <time>2026-03-21T09:15:20Z</time>
      </trkpt>
      <trkpt lat="48.02943" lon="7.03349">
        <ele>1121.8</ele>
        <time>2026-03-21T09:15:25Z</time>
      </trkpt>
      <trkpt lat="48.02941" lon="7.03357">
        <ele>1122.3</ele>
        <time>2026-03-21T09:15:30Z</time>
      </trkpt>
      <trkpt lat="48.02937" lon="7.03355">
        <ele>1121.6</ele>
        <time>2026-03-21T09:15:35Z</time>
      </trkpt>
      <trkpt lat="48.02935" lon="7.03348">
        <ele>1120.6</ele>
        <time>2026-03-21T09:15:40Z</time>
      </trkpt>
      <trkpt lat="48.02934" lon="7.03339">
        <ele>1119.5</ele>
        <time>2026-03-21T09:15:45Z</time>
      </trkpt>
      <trkpt lat="48.02933" lon="7.03329">
        <ele>1117.9</ele>
        <time>2026-03-21T09:15:50Z</time>
      </trkpt>
      <trkpt lat="48.02932" lon="7.0332">
        <ele>1116</ele>
        <time>2026-03-21T09:15:55Z</time>
      </trkpt>
      <trkpt lat="48.02933" lon="7.03311">
        <ele>1114.4</ele>
        <time>2026-03-21T09:16:00Z</time>
      </trkpt>
      <trkpt lat="48.02932" lon="7.03304">
        <ele>1112.9</ele>
        <time>2026-03-21T09:16:05Z</time>
      </trkpt>
      <trkpt lat="48.0293" lon="7.03304">
        <ele>1112.5</ele>
        <time>2026-03-21T09:16:10Z</time>
      </trkpt>
      <trkpt lat="48.02927" lon="7.03301">
        <ele>1111.2</ele>
        <time>2026-03-21T09:16:15Z</time>
      </trkpt>
      <trkpt lat="48.02922" lon="7.03296">
        <ele>1109.1</ele>
        <time>2026-03-21T09:16:20Z</time>
      </trkpt>
      <trkpt lat="48.02918" lon="7.03291">
        <ele>1107.2</ele>
        <time>2026-03-21T09:16:25Z</time>
      </trkpt>
      <trkpt lat="48.02916" lon="7.03287">
        <ele>1106</ele>
        <time>2026-03-21T09:16:30Z</time>
      </trkpt>
      <trkpt lat="48.02914" lon="7.03281">
        <ele>1104.5</ele>
        <time>2026-03-21T09:16:35Z</time>
      </trkpt>
      <trkpt lat="48.02911" lon="7.03277">
        <ele>1103.4</ele>
        <time>2026-03-21T09:16:40Z</time>
      </trkpt>
      <trkpt lat="48.02913" lon="7.03271">
        <ele>1102.2</ele>
        <time>2026-03-21T09:16:45Z</time>
      </trkpt>
      <trkpt lat="48.02915" lon="7.03264">
        <ele>1100.9</ele>
        <time>2026-03-21T09:16:50Z</time>
      </trkpt>
      <trkpt lat="48.02918" lon="7.03258">
        <ele>1100.1</ele>
        <time>2026-03-21T09:16:55Z</time>
      </trkpt>
      <trkpt lat="48.0292" lon="7.03253">
        <ele>1099.6</ele>
        <time>2026-03-21T09:17:00Z</time>
      </trkpt>
      <trkpt lat="48.02925" lon="7.03246">
        <ele>1099.5</ele>
        <time>2026-03-21T09:17:05Z</time>
      </trkpt>
      <trkpt lat="48.02929" lon="7.03239">
        <ele>1099</ele>
        <time>2026-03-21T09:17:10Z</time>
      </trkpt>
      <trkpt lat="48.02933" lon="7.03232">
        <ele>1098.6</ele>
        <time>2026-03-21T09:17:15Z</time>
      </trkpt>
      <trkpt lat="48.02936" lon="7.03227">
        <ele>1098.3</ele>
        <time>2026-03-21T09:17:20Z</time>
      </trkpt>
      <trkpt lat="48.02939" lon="7.03224">
        <ele>1098.5</ele>
        <time>2026-03-21T09:17:25Z</time>
      </trkpt>
      <trkpt lat="48.02941" lon="7.03218">
        <ele>1097.7</ele>
        <time>2026-03-21T09:17:30Z</time>
      </trkpt>
      <trkpt lat="48.02944" lon="7.03214">
        <ele>1097.7</ele>
        <time>2026-03-21T09:17:35Z</time>
      </trkpt>
      <trkpt lat="48.02943" lon="7.03213">
        <ele>1097.1</ele>
        <time>2026-03-21T09:17:40Z</time>
      </trkpt>
      <trkpt lat="48.02943" lon="7.03213">
        <ele>1097.1</ele>
        <time>2026-03-21T09:17:45Z</time>
      </trkpt>
      <trkpt lat="48.02943" lon="7.03213">
        <ele>1097.1</ele>
        <time>2026-03-21T09:17:50Z</time>
      </trkpt>
      <trkpt lat="48.02943" lon="7.03213">
        <ele>1097.1</ele>
        <time>2026-03-21T09:17:55Z</time>
      </trkpt>
      <trkpt lat="48.02943" lon="7.03213">
        <ele>1097.1</ele>
        <time>2026-03-21T09:18:00Z</time>
      </trkpt>
      <trkpt lat="48.02943" lon="7.03213">
        <ele>1097.1</ele>
        <time>2026-03-21T09:18:05Z</time>
      </trkpt>
      <trkpt lat="48.02943" lon="7.03213">
        <ele>1097.1</ele>
        <time>2026-03-21T09:18:10Z</time>
      </trkpt>
      <trkpt lat="48.02943" lon="7.03213">
        <ele>1097.1</ele>
        <time>2026-03-21T09:18:15Z</time>
      </trkpt>
      <trkpt lat="48.02943" lon="7.03213">
        <ele>1097.1</ele>
        <time>2026-03-21T09:18:20Z</time>
      </trkpt>
      <trkpt lat="48.02947" lon="7.0321">
        <ele>1097.6</ele>
        <time>2026-03-21T09:18:25Z</time>
      </trkpt>
      <trkpt lat="48.0295" lon="7.03206">
        <ele>1097.6</ele>
        <time>2026-03-21T09:18:30Z</time>
      </trkpt>
      <trkpt lat="48.02955" lon="7.03201">
        <ele>1097.9</ele>
        <time>2026-03-21T09:18:35Z</time>
      </trkpt>
      <trkpt lat="48.02959" lon="7.03199">
        <ele>1098.6</ele>
        <time>2026-03-21T09:18:40Z</time>
      </trkpt>
      <trkpt lat="48.02963" lon="7.03199">
        <ele>1099.7</ele>
        <time>2026-03-21T09:18:45Z</time>
      </trkpt>
      <trkpt lat="48.02965" lon="7.03196">
        <ele>1099.6</ele>
        <time>2026-03-21T09:18:50Z</time>
      </trkpt>
      <trkpt lat="48.02967" lon="7.03191">
        <ele>1099</ele>
        <time>2026-03-21T09:18:55Z</time>
      </trkpt>
      <trkpt lat="48.0297" lon="7.03188">
        <ele>1099.2</ele>
        <time>2026-03-21T09:19:00Z</time>
      </trkpt>
      <trkpt lat="48.02975" lon="7.03184">
        <ele>1099.8</ele>
        <time>2026-03-21T09:19:05Z</time>
      </trkpt>
      <trkpt lat="48.0298" lon="7.0318">
        <ele>1100.3</ele>
        <time>2026-03-21T09:19:10Z</time>
      </trkpt>
      <trkpt lat="48.02983" lon="7.03177">
        <ele>1100.5</ele>
        <time>2026-03-21T09:19:15Z</time>
      </trkpt>
      <trkpt lat="48.02986" lon="7.03172">
        <ele>1100.2</ele>
        <time>2026-03-21T09:19:20Z</time>
      </trkpt>
      <trkpt lat="48.02989" lon="7.03168">
        <ele>1100.1</ele>
        <time>2026-03-21T09:19:25Z</time>
      </trkpt>
      <trkpt lat="48.02994" lon="7.03163">
        <ele>1099.9</ele>
        <time>2026-03-21T09:19:30Z</time>
      </trkpt>
      <trkpt lat="48.02999" lon="7.03162">
        <ele>1101</ele>
        <time>2026-03-21T09:19:35Z</time>
      </trkpt>
      <trkpt lat="48.03001" lon="7.03159">
        <ele>1100.3</ele>
        <time>2026-03-21T09:19:40Z</time>
      </trkpt>
      <trkpt lat="48.03005" lon="7.03155">
        <ele>1099.7</ele>
        <time>2026-03-21T09:19:45Z</time>
      </trkpt>
      <trkpt lat="48.03008" lon="7.03149">
        <ele>1098.1</ele>
        <time>2026-03-21T09:19:50Z</time>
      </trkpt>
      <trkpt lat="48.03012" lon="7.03147">
        <ele>1098.2</ele>
        <time>2026-03-21T09:19:55Z</time>
      </trkpt>
      <trkpt lat="48.03015" lon="7.03144">
        <ele>1097.7</ele>
        <time>2026-03-21T09:20:00Z</time>
      </trkpt>
      <trkpt lat="48.03018" lon="7.03139">
        <ele>1096.5</ele>
        <time>2026-03-21T09:20:05Z</time>
      </trkpt>
      <trkpt lat="48.03021" lon="7.03135">
        <ele>1095.7</ele>
        <time>2026-03-21T09:20:10Z</time>
      </trkpt>
      <trkpt lat="48.03023" lon="7.03131">
        <ele>1094.7</ele>
        <time>2026-03-21T09:20:15Z</time>
      </trkpt>
      <trkpt lat="48.03025" lon="7.03128">
        <ele>1094.1</ele>
        <time>2026-03-21T09:20:20Z</time>
      </trkpt>
      <trkpt lat="48.03029" lon="7.03124">
        <ele>1093.6</ele>
        <time>2026-03-21T09:20:25Z</time>
      </trkpt>
      <trkpt lat="48.03033" lon="7.03121">
        <ele>1093.4</ele>
        <time>2026-03-21T09:20:30Z</time>
      </trkpt>
      <trkpt lat="48.03039" lon="7.03118">
        <ele>1093.8</ele>
        <time>2026-03-21T09:20:35Z</time>
      </trkpt>
      <trkpt lat="48.03043" lon="7.03114">
        <ele>1093.3</ele>
        <time>2026-03-21T09:20:40Z</time>
      </trkpt>
      <trkpt lat="48.03046" lon="7.03111">
        <ele>1093</ele>
        <time>2026-03-21T09:20:45Z</time>
      </trkpt>
      <trkpt lat="48.03048" lon="7.03106">
        <ele>1091.7</ele>
        <time>2026-03-21T09:20:50Z</time>
      </trkpt>
      <trkpt lat="48.03051" lon="7.03102">
        <ele>1091.1</ele>
        <time>2026-03-21T09:20:55Z</time>
      </trkpt>
      <trkpt lat="48.03056" lon="7.03095">
        <ele>1090</ele>
        <time>2026-03-21T09:21:00Z</time>
      </trkpt>
      <trkpt lat="48.0306" lon="7.03093">
        <ele>1090.3</ele>
        <time>2026-03-21T09:21:05Z</time>
      </trkpt>
      <trkpt lat="48.03063" lon="7.03086">
        <ele>1088.7</ele>
        <time>2026-03-21T09:21:10Z</time>
      </trkpt>
      <trkpt lat="48.03067" lon="7.03083">
        <ele>1088.8</ele>
        <time>2026-03-21T09:21:15Z</time>
      </trkpt>
      <trkpt lat="48.03072" lon="7.0308">
        <ele>1088.9</ele>
        <time>2026-03-21T09:21:20Z</time>
      </trkpt>
      <trkpt lat="48.03075" lon="7.03077">
        <ele>1088.5</ele>
        <time>2026-03-21T09:21:25Z</time>
      </trkpt>
      <trkpt lat="48.03079" lon="7.03075">
        <ele>1088.8</ele>
        <time>2026-03-21T09:21:30Z</time>
      </trkpt>
      <trkpt lat="48.0308" lon="7.03072">
        <ele>1087.9</ele>
        <time>2026-03-21T09:21:35Z</time>
      </trkpt>
      <trkpt lat="48.03081" lon="7.03069">
        <ele>1087.1</ele>
        <time>2026-03-21T09:21:40Z</time>
      </trkpt>
      <trkpt lat="48.03082" lon="7.03068">
        <ele>1086.9</ele>
        <time>2026-03-21T09:21:45Z</time>
      </trkpt>
      <trkpt lat="48.03075" lon="7.03063">
        <ele>1083.2</ele>
        <time>2026-03-21T09:21:50Z</time>
      </trkpt>
      <trkpt lat="48.03072" lon="7.03059">
        <ele>1080.9</ele>
        <time>2026-03-21T09:21:55Z</time>
      </trkpt>
      <trkpt lat="48.0307" lon="7.0306">
        <ele>1080.7</ele>
        <time>2026-03-21T09:22:00Z</time>
      </trkpt>
      <trkpt lat="48.0307" lon="7.0306">
        <ele>1080.7</ele>
        <time>2026-03-21T09:22:05Z</time>
      </trkpt>
      <trkpt lat="48.03063" lon="7.03061">
        <ele>1079.2</ele>
        <time>2026-03-21T09:22:10Z</time>
      </trkpt>
      <trkpt lat="48.03057" lon="7.03063">
        <ele>1078.4</ele>
        <time>2026-03-21T09:22:15Z</time>
      </trkpt>
      <trkpt lat="48.03053" lon="7.03065">
        <ele>1078.1</ele>
        <time>2026-03-21T09:22:20Z</time>
      </trkpt>
      <trkpt lat="48.03048" lon="7.03067">
        <ele>1077.6</ele>
        <time>2026-03-21T09:22:25Z</time>
      </trkpt>
      <trkpt lat="48.03044" lon="7.03067">
        <ele>1076.5</ele>
        <time>2026-03-21T09:22:30Z</time>
      </trkpt>
      <trkpt lat="48.03041" lon="7.03067">
        <ele>1075.8</ele>
        <time>2026-03-21T09:22:35Z</time>
      </trkpt>
      <trkpt lat="48.03041" lon="7.03067">
        <ele>1075.8</ele>
        <time>2026-03-21T09:22:40Z</time>
      </trkpt>
      <trkpt lat="48.03041" lon="7.03067">
        <ele>1075.8</ele>
        <time>2026-03-21T09:22:45Z</time>
      </trkpt>
      <trkpt lat="48.03041" lon="7.03067">
        <ele>1075.8</ele>
        <time>2026-03-21T09:22:50Z</time>
      </trkpt>
      <trkpt lat="48.03041" lon="7.03067">
        <ele>1075.8</ele>
        <time>2026-03-21T09:22:55Z</time>
      </trkpt>
      <trkpt lat="48.03041" lon="7.03067">
        <ele>1075.8</ele>
        <time>2026-03-21T09:23:00Z</time>
      </trkpt>
      <trkpt lat="48.03048" lon="7.03057">
        <ele>1073.6</ele>
        <time>2026-03-21T09:23:05Z</time>
      </trkpt>
      <trkpt lat="48.03052" lon="7.03053">
        <ele>1073.1</ele>
        <time>2026-03-21T09:23:10Z</time>
      </trkpt>
      <trkpt lat="48.03056" lon="7.0305">
        <ele>1073.1</ele>
        <time>2026-03-21T09:23:15Z</time>
      </trkpt>
      <trkpt lat="48.03058" lon="7.03046">
        <ele>1072</ele>
        <time>2026-03-21T09:23:20Z</time>
      </trkpt>
      <trkpt lat="48.0306" lon="7.03041">
        <ele>1070.7</ele>
        <time>2026-03-21T09:23:25Z</time>
      </trkpt>
      <trkpt lat="48.03061" lon="7.03038">
        <ele>1069.8</ele>
        <time>2026-03-21T09:23:30Z</time>
      </trkpt>
      <trkpt lat="48.03061" lon="7.03038">
        <ele>1069.8</ele>
        <time>2026-03-21T09:23:35Z</time>
      </trkpt>
      <trkpt lat="48.03061" lon="7.03038">
        <ele>1069.8</ele>
        <time>2026-03-21T09:23:40Z</time>
      </trkpt>
      <trkpt lat="48.03068" lon="7.03028">
        <ele>1067.9</ele>
        <time>2026-03-21T09:23:45Z</time>
      </trkpt>
      <trkpt lat="48.0307" lon="7.03026">
        <ele>1067.8</ele>
        <time>2026-03-21T09:23:50Z</time>
      </trkpt>
      <trkpt lat="48.03069" lon="7.03025">
        <ele>1067.1</ele>
        <time>2026-03-21T09:23:55Z</time>
      </trkpt>
      <trkpt lat="48.03071" lon="7.0302">
        <ele>1065.8</ele>
        <time>2026-03-21T09:24:00Z</time>
      </trkpt>
      <trkpt lat="48.03073" lon="7.03016">
        <ele>1064.8</ele>
        <time>2026-03-21T09:24:05Z</time>
      </trkpt>
      <trkpt lat="48.03073" lon="7.03016">
        <ele>1064.8</ele>
        <time>2026-03-21T09:24:10Z</time>
      </trkpt>
      <trkpt lat="48.03078" lon="7.03011">
        <ele>1064.5</ele>
        <time>2026-03-21T09:24:15Z</time>
      </trkpt>
      <trkpt lat="48.03082" lon="7.03008">
        <ele>1064.6</ele>
        <time>2026-03-21T09:24:20Z</time>
      </trkpt>
      <trkpt lat="48.03087" lon="7.03004">
        <ele>1064.5</ele>
        <time>2026-03-21T09:24:25Z</time>
      </trkpt>
      <trkpt lat="48.0309" lon="7.03002">
        <ele>1064.6</ele>
        <time>2026-03-21T09:24:30Z</time>
      </trkpt>
      <trkpt lat="48.0309" lon="7.02999">
        <ele>1063.4</ele>
        <time>2026-03-21T09:24:35Z</time>
      </trkpt>
      <trkpt lat="48.03084" lon="7.02998">
        <ele>1061.3</ele>
        <time>2026-03-21T09:24:40Z</time>
      </trkpt>
      <trkpt lat="48.03076" lon="7.02997">
        <ele>1058.5</ele>
        <time>2026-03-21T09:24:45Z</time>
      </trkpt>
      <trkpt lat="48.03072" lon="7.02996">
        <ele>1056.8</ele>
        <time>2026-03-21T09:24:50Z</time>
      </trkpt>
      <trkpt lat="48.03068" lon="7.02996">
        <ele>1055.5</ele>
        <time>2026-03-21T09:24:55Z</time>
      </trkpt>
      <trkpt lat="48.03064" lon="7.02998">
        <ele>1055.1</ele>
        <time>2026-03-21T09:25:00Z</time>
      </trkpt>
      <trkpt lat="48.03057" lon="7.03">
        <ele>1053.8</ele>
        <time>2026-03-21T09:25:05Z</time>
      </trkpt>
      <trkpt lat="48.03051" lon="7.03003">
        <ele>1053.1</ele>
        <time>2026-03-21T09:25:10Z</time>
      </trkpt>
      <trkpt lat="48.03046" lon="7.03004">
        <ele>1051.9</ele>
        <time>2026-03-21T09:25:15Z</time>
      </trkpt>
      <trkpt lat="48.0304" lon="7.03004">
        <ele>1050.1</ele>
        <time>2026-03-21T09:25:20Z</time>
      </trkpt>
      <trkpt lat="48.03035" lon="7.03004">
        <ele>1048.5</ele>
        <time>2026-03-21T09:25:25Z</time>
      </trkpt>
      <trkpt lat="48.0303" lon="7.03008">
        <ele>1048.6</ele>
        <time>2026-03-21T09:25:30Z</time>
      </trkpt>
      <trkpt lat="48.03024" lon="7.03012">
        <ele>1048.5</ele>
        <time>2026-03-21T09:25:35Z</time>
      </trkpt>
      <trkpt lat="48.03019" lon="7.03016">
        <ele>1048.6</ele>
        <time>2026-03-21T09:25:40Z</time>
      </trkpt>
      <trkpt lat="48.03016" lon="7.03018">
        <ele>1048.6</ele>
        <time>2026-03-21T09:25:45Z</time>
      </trkpt>
      <trkpt lat="48.03012" lon="7.03018">
        <ele>1047.4</ele>
        <time>2026-03-21T09:25:50Z</time>
      </trkpt>
      <trkpt lat="48.03012" lon="7.03018">
        <ele>1047.4</ele>
        <time>2026-03-21T09:25:55Z</time>
      </trkpt>
      <trkpt lat="48.03016" lon="7.03005">
        <ele>1043.1</ele>
        <time>2026-03-21T09:26:00Z</time>
      </trkpt>
      <trkpt lat="48.0302" lon="7.03">
        <ele>1042.2</ele>
        <time>2026-03-21T09:26:05Z</time>
      </trkpt>
      <trkpt lat="48.03025" lon="7.02997">
        <ele>1042.5</ele>
        <time>2026-03-21T09:26:10Z</time>
      </trkpt>
      <trkpt lat="48.03031" lon="7.02993">
        <ele>1042.7</ele>
        <time>2026-03-21T09:26:15Z</time>
      </trkpt>
      <trkpt lat="48.03034" lon="7.02988">
        <ele>1041.6</ele>
        <time>2026-03-21T09:26:20Z</time>
      </trkpt>
      <trkpt lat="48.03039" lon="7.02983">
        <ele>1041</ele>
        <time>2026-03-21T09:26:25Z</time>
      </trkpt>
      <trkpt lat="48.03043" lon="7.02982">
        <ele>1041.9</ele>
        <time>2026-03-21T09:26:30Z</time>
      </trkpt>
      <trkpt lat="48.03048" lon="7.02977">
        <ele>1041.3</ele>
        <time>2026-03-21T09:26:35Z</time>
      </trkpt>
      <trkpt lat="48.03051" lon="7.02974">
        <ele>1041</ele>
        <time>2026-03-21T09:26:40Z</time>
      </trkpt>
      <trkpt lat="48.03054" lon="7.02968">
        <ele>1039.4</ele>
        <time>2026-03-21T09:26:45Z</time>
      </trkpt>
      <trkpt lat="48.03057" lon="7.02962">
        <ele>1037.8</ele>
        <time>2026-03-21T09:26:50Z</time>
      </trkpt>
      <trkpt lat="48.03061" lon="7.02961">
        <ele>1038.7</ele>
        <time>2026-03-21T09:26:55Z</time>
      </trkpt>
      <trkpt lat="48.03067" lon="7.0296">
        <ele>1040.1</ele>
        <time>2026-03-21T09:27:00Z</time>
      </trkpt>
      <trkpt lat="48.03073" lon="7.02958">
        <ele>1041.1</ele>
        <time>2026-03-21T09:27:05Z</time>
      </trkpt>
      <trkpt lat="48.03078" lon="7.02956">
        <ele>1041.9</ele>
        <time>2026-03-21T09:27:10Z</time>
      </trkpt>
      <trkpt lat="48.03084" lon="7.02954">
        <ele>1042.9</ele>
        <time>2026-03-21T09:27:15Z</time>
      </trkpt>
      <trkpt lat="48.03091" lon="7.02949">
        <ele>1043.2</ele>
        <time>2026-03-21T09:27:20Z</time>
      </trkpt>
      <trkpt lat="48.03097" lon="7.02943">
        <ele>1042.8</ele>
        <time>2026-03-21T09:27:25Z</time>
      </trkpt>
      <trkpt lat="48.031" lon="7.02937">
        <ele>1041.5</ele>
        <time>2026-03-21T09:27:30Z</time>
      </trkpt>
      <trkpt lat="48.03104" lon="7.0293">
        <ele>1040.2</ele>
        <time>2026-03-21T09:27:35Z</time>
      </trkpt>
      <trkpt lat="48.03109" lon="7.02923">
        <ele>1039.3</ele>
        <time>2026-03-21T09:27:40Z</time>
      </trkpt>
      <trkpt lat="48.03108" lon="7.02919">
        <ele>1037.4</ele>
        <time>2026-03-21T09:27:45Z</time>
      </trkpt>
      <trkpt lat="48.03103" lon="7.02922">
        <ele>1036.7</ele>
        <time>2026-03-21T09:27:50Z</time>
      </trkpt>
      <trkpt lat="48.03096" lon="7.02925">
        <ele>1035.2</ele>
        <time>2026-03-21T09:27:55Z</time>
      </trkpt>
      <trkpt lat="48.03091" lon="7.0293">
        <ele>1035.4</ele>
        <time>2026-03-21T09:28:00Z</time>
      </trkpt>
      <trkpt lat="48.03085" lon="7.0293">
        <ele>1033.2</ele>
        <time>2026-03-21T09:28:05Z</time>
      </trkpt>
      <trkpt lat="48.03081" lon="7.02929">
        <ele>1031.5</ele>
        <time>2026-03-21T09:28:10Z</time>
      </trkpt>
      <trkpt lat="48.03076" lon="7.02927">
        <ele>1029.1</ele>
        <time>2026-03-21T09:28:15Z</time>
      </trkpt>
      <trkpt lat="48.03072" lon="7.02922">
        <ele>1025.7</ele>
        <time>2026-03-21T09:28:20Z</time>
      </trkpt>
      <trkpt lat="48.03068" lon="7.0292">
        <ele>1023.6</ele>
        <time>2026-03-21T09:28:25Z</time>
      </trkpt>
      <trkpt lat="48.03065" lon="7.02918">
        <ele>1021.8</ele>
        <time>2026-03-21T09:28:30Z</time>
      </trkpt>
      <trkpt lat="48.0306" lon="7.02918">
        <ele>1020.3</ele>
        <time>2026-03-21T09:28:35Z</time>
      </trkpt>
      <trkpt lat="48.03055" lon="7.02918">
        <ele>1018.7</ele>
        <time>2026-03-21T09:28:40Z</time>
      </trkpt>
      <trkpt lat="48.0305" lon="7.02918">
        <ele>1017.2</ele>
        <time>2026-03-21T09:28:45Z</time>
      </trkpt>
      <trkpt lat="48.03045" lon="7.02918">
        <ele>1015.6</ele>
        <time>2026-03-21T09:28:50Z</time>
      </trkpt>
      <trkpt lat="48.03041" lon="7.02919">
        <ele>1014.8</ele>
        <time>2026-03-21T09:28:55Z</time>
      </trkpt>
      <trkpt lat="48.03036" lon="7.02925">
        <ele>1015.7</ele>
        <time>2026-03-21T09:29:00Z</time>
      </trkpt>
      <trkpt lat="48.03031" lon="7.02929">
        <ele>1015.9</ele>
        <time>2026-03-21T09:29:05Z</time>
      </trkpt>
      <trkpt lat="48.03025" lon="7.02932">
        <ele>1015.2</ele>
        <time>2026-03-21T09:29:10Z</time>
      </trkpt>
      <trkpt lat="48.03021" lon="7.02936">
        <ele>1015.7</ele>
        <time>2026-03-21T09:29:15Z</time>
      </trkpt>
      <trkpt lat="48.03019" lon="7.02935">
        <ele>1014.6</ele>
        <time>2026-03-21T09:29:20Z</time>
      </trkpt>
      <trkpt lat="48.03021" lon="7.02929">
        <ele>1012.7</ele>
        <time>2026-03-21T09:29:25Z</time>
      </trkpt>
      <trkpt lat="48.03026" lon="7.02925">
        <ele>1012.6</ele>
        <time>2026-03-21T09:29:30Z</time>
      </trkpt>
      <trkpt lat="48.0303" lon="7.0292">
        <ele>1011.8</ele>
        <time>2026-03-21T09:29:35Z</time>
      </trkpt>
      <trkpt lat="48.03034" lon="7.02918">
        <ele>1012.2</ele>
        <time>2026-03-21T09:29:40Z</time>
      </trkpt>
      <trkpt lat="48.03037" lon="7.02914">
        <ele>1011.7</ele>
        <time>2026-03-21T09:29:45Z</time>
      </trkpt>
      <trkpt lat="48.03042" lon="7.02909">
        <ele>1011.6</ele>
        <time>2026-03-21T09:29:50Z</time>
      </trkpt>
      <trkpt lat="48.03045" lon="7.02903">
        <ele>1010.6</ele>
        <time>2026-03-21T09:29:55Z</time>
      </trkpt>
      <trkpt lat="48.03047" lon="7.029">
        <ele>1010.3</ele>
        <time>2026-03-21T09:30:00Z</time>
      </trkpt>
      <trkpt lat="48.03052" lon="7.02896">
        <ele>1010.6</ele>
        <time>2026-03-21T09:30:05Z</time>
      </trkpt>
      <trkpt lat="48.03057" lon="7.02893">
        <ele>1011.2</ele>
        <time>2026-03-21T09:30:10Z</time>
      </trkpt>
      <trkpt lat="48.03062" lon="7.02892">
        <ele>1012.5</ele>
        <time>2026-03-21T09:30:15Z</time>
      </trkpt>
      <trkpt lat="48.03067" lon="7.02891">
        <ele>1013.8</ele>
        <time>2026-03-21T09:30:20Z</time>
      </trkpt>
      <trkpt lat="48.0307" lon="7.0289">
        <ele>1014.4</ele>
        <time>2026-03-21T09:30:25Z</time>
      </trkpt>
      <trkpt lat="48.03076" lon="7.02886">
        <ele>1015.1</ele>
        <time>2026-03-21T09:30:30Z</time>
      </trkpt>
      <trkpt lat="48.0308" lon="7.02881">
        <ele>1014.8</ele>
        <time>2026-03-21T09:30:35Z</time>
      </trkpt>
      <trkpt lat="48.03083" lon="7.02875">
        <ele>1013.9</ele>
        <time>2026-03-21T09:30:40Z</time>
      </trkpt>
      <trkpt lat="48.03085" lon="7.02867">
        <ele>1012.1</ele>
        <time>2026-03-21T09:30:45Z</time>
      </trkpt>
      <trkpt lat="48.03081" lon="7.02862">
        <ele>1009.2</ele>
        <time>2026-03-21T09:30:50Z</time>
      </trkpt>
      <trkpt lat="48.03076" lon="7.02866">
        <ele>1008.8</ele>
        <time>2026-03-21T09:30:55Z</time>
      </trkpt>
      <trkpt lat="48.03071" lon="7.0287">
        <ele>1008.4</ele>
        <time>2026-03-21T09:31:00Z</time>
      </trkpt>
      <trkpt lat="48.03067" lon="7.02874">
        <ele>1008.4</ele>
        <time>2026-03-21T09:31:05Z</time>
      </trkpt>
      <trkpt lat="48.03061" lon="7.02869">
        <ele>1004.9</ele>
        <time>2026-03-21T09:31:10Z</time>
      </trkpt>
      <trkpt lat="48.03055" lon="7.02863">
        <ele>1001</ele>
        <time>2026-03-21T09:31:15Z</time>
      </trkpt>
      <trkpt lat="48.0305" lon="7.02861">
        <ele>998.7</ele>
        <time>2026-03-21T09:31:20Z</time>
      </trkpt>
      <trkpt lat="48.03044" lon="7.02864">
        <ele>997.7</ele>
        <time>2026-03-21T09:31:25Z</time>
      </trkpt>
      <trkpt lat="48.0304" lon="7.02868">
        <ele>997.7</ele>
        <time>2026-03-21T09:31:30Z</time>
      </trkpt>
      <trkpt lat="48.03035" lon="7.02871">
        <ele>997</ele>
        <time>2026-03-21T09:31:35Z</time>
      </trkpt>
      <trkpt lat="48.03027" lon="7.0287">
        <ele>994.1</ele>
        <time>2026-03-21T09:31:40Z</time>
      </trkpt>
      <trkpt lat="48.03022" lon="7.02873">
        <ele>993.5</ele>
        <time>2026-03-21T09:31:45Z</time>
      </trkpt>
      <trkpt lat="48.0302" lon="7.02871">
        <ele>992.2</ele>
        <time>2026-03-21T09:31:50Z</time>
      </trkpt>
      <trkpt lat="48.0302" lon="7.02869">
        <ele>991.5</ele>
        <time>2026-03-21T09:31:55Z</time>
      </trkpt>
      <trkpt lat="48.03021" lon="7.0286">
        <ele>988.9</ele>
        <time>2026-03-21T09:32:00Z</time>
      </trkpt>
      <trkpt lat="48.03023" lon="7.02858">
        <ele>988.9</ele>
        <time>2026-03-21T09:32:05Z</time>
      </trkpt>
      <trkpt lat="48.03026" lon="7.02856">
        <ele>989.2</ele>
        <time>2026-03-21T09:32:10Z</time>
      </trkpt>
      <trkpt lat="48.0303" lon="7.02855">
        <ele>990.2</ele>
        <time>2026-03-21T09:32:15Z</time>
      </trkpt>
      <trkpt lat="48.03034" lon="7.02854">
        <ele>991.2</ele>
        <time>2026-03-21T09:32:20Z</time>
      </trkpt>
      <trkpt lat="48.03036" lon="7.02852">
        <ele>991.2</ele>
        <time>2026-03-21T09:32:25Z</time>
      </trkpt>
      <trkpt lat="48.03038" lon="7.02847">
        <ele>990.2</ele>
        <time>2026-03-21T09:32:30Z</time>
      </trkpt>
      <trkpt lat="48.0304" lon="7.02844">
        <ele>989.9</ele>
        <time>2026-03-21T09:32:35Z</time>
      </trkpt>
      <trkpt lat="48.0304" lon="7.02844">
        <ele>989.9</ele>
        <time>2026-03-21T09:32:40Z</time>
      </trkpt>
      <trkpt lat="48.03031" lon="7.02841">
        <ele>985.9</ele>
        <time>2026-03-21T09:32:45Z</time>
      </trkpt>
      <trkpt lat="48.03026" lon="7.02845">
        <ele>985.6</ele>
        <time>2026-03-21T09:32:50Z</time>
      </trkpt>
      <trkpt lat="48.03021" lon="7.02847">
        <ele>984.6</ele>
        <time>2026-03-21T09:32:55Z</time>
      </trkpt>
      <trkpt lat="48.03016" lon="7.0285">
        <ele>983.9</ele>
        <time>2026-03-21T09:33:00Z</time>
      </trkpt>
      <trkpt lat="48.03011" lon="7.02855">
        <ele>983.9</ele>
        <time>2026-03-21T09:33:05Z</time>
      </trkpt>
      <trkpt lat="48.03004" lon="7.02859">
        <ele>982.9</ele>
        <time>2026-03-21T09:33:10Z</time>
      </trkpt>
      <trkpt lat="48.02998" lon="7.02862">
        <ele>982.3</ele>
        <time>2026-03-21T09:33:15Z</time>
      </trkpt>
      <trkpt lat="48.02993" lon="7.02867">
        <ele>983.2</ele>
        <time>2026-03-21T09:33:20Z</time>
      </trkpt>
      <trkpt lat="48.02989" lon="7.02873">
        <ele>984.6</ele>
        <time>2026-03-21T09:33:25Z</time>
      </trkpt>
      <trkpt lat="48.02986" lon="7.02875">
        <ele>984.8</ele>
        <time>2026-03-21T09:33:30Z</time>
      </trkpt>
      <trkpt lat="48.02986" lon="7.02875">
        <ele>984.8</ele>
        <time>2026-03-21T09:33:35Z</time>
      </trkpt>
      <trkpt lat="48.02986" lon="7.02875">
        <ele>984.8</ele>
        <time>2026-03-21T09:33:40Z</time>
      </trkpt>
      <trkpt lat="48.02986" lon="7.02875">
        <ele>984.8</ele>
        <time>2026-03-21T09:33:45Z</time>
      </trkpt>
      <trkpt lat="48.0298" lon="7.02874">
        <ele>983.5</ele>
        <time>2026-03-21T09:33:50Z</time>
      </trkpt>
      <trkpt lat="48.02976" lon="7.02875">
        <ele>983.3</ele>
        <time>2026-03-21T09:33:55Z</time>
      </trkpt>
      <trkpt lat="48.02973" lon="7.02879">
        <ele>984.2</ele>
        <time>2026-03-21T09:34:00Z</time>
      </trkpt>
      <trkpt lat="48.02972" lon="7.02878">
        <ele>983.7</ele>
        <time>2026-03-21T09:34:05Z</time>
      </trkpt>
      <trkpt lat="48.02978" lon="7.02871">
        <ele>982.2</ele>
        <time>2026-03-21T09:34:10Z</time>
      </trkpt>
      <trkpt lat="48.02982" lon="7.02865">
        <ele>980.7</ele>
        <time>2026-03-21T09:34:15Z</time>
      </trkpt>
      <trkpt lat="48.02987" lon="7.0286">
        <ele>979.8</ele>
        <time>2026-03-21T09:34:20Z</time>
      </trkpt>
      <trkpt lat="48.02989" lon="7.02857">
        <ele>979.1</ele>
        <time>2026-03-21T09:34:25Z</time>
      </trkpt>
      <trkpt lat="48.02991" lon="7.02853">
        <ele>978.1</ele>
        <time>2026-03-21T09:34:30Z</time>
      </trkpt>
      <trkpt lat="48.02994" lon="7.02849">
        <ele>977.2</ele>
        <time>2026-03-21T09:34:35Z</time>
      </trkpt>
      <trkpt lat="48.02997" lon="7.02845">
        <ele>976.4</ele>
        <time>2026-03-21T09:34:40Z</time>
      </trkpt>
      <trkpt lat="48.03001" lon="7.0284">
        <ele>975.6</ele>
        <time>2026-03-21T09:34:45Z</time>
      </trkpt>
      <trkpt lat="48.03004" lon="7.02835">
        <ele>974.9</ele>
        <time>2026-03-21T09:34:50Z</time>
      </trkpt>
      <trkpt lat="48.03007" lon="7.0283">
        <ele>974.2</ele>
        <time>2026-03-21T09:34:55Z</time>
      </trkpt>
      <trkpt lat="48.0301" lon="7.02826">
        <ele>973.8</ele>
        <time>2026-03-21T09:35:00Z</time>
      </trkpt>
      <trkpt lat="48.03013" lon="7.02819">
        <ele>972.3</ele>
        <time>2026-03-21T09:35:05Z</time>
      </trkpt>
      <trkpt lat="48.03017" lon="7.02813">
        <ele>971.5</ele>
        <time>2026-03-21T09:35:10Z</time>
      </trkpt>
      <trkpt lat="48.03022" lon="7.02812">
        <ele>972.8</ele>
        <time>2026-03-21T09:35:15Z</time>
      </trkpt>
      <trkpt lat="48.03027" lon="7.02808">
        <ele>973.1</ele>
        <time>2026-03-21T09:35:20Z</time>
      </trkpt>
      <trkpt lat="48.0303" lon="7.02807">
        <ele>973.7</ele>
        <time>2026-03-21T09:35:25Z</time>
      </trkpt>
      <trkpt lat="48.03037" lon="7.02806">
        <ele>975.6</ele>
        <time>2026-03-21T09:35:30Z</time>
      </trkpt>
      <trkpt lat="48.03044" lon="7.02804">
        <ele>977.2</ele>
        <time>2026-03-21T09:35:35Z</time>
      </trkpt>
      <trkpt lat="48.03049" lon="7.02803">
        <ele>978.5</ele>
        <time>2026-03-21T09:35:40Z</time>
      </trkpt>
      <trkpt lat="48.03052" lon="7.02805">
        <ele>980.2</ele>
        <time>2026-03-21T09:35:45Z</time>
      </trkpt>
      <trkpt lat="48.03055" lon="7.02804">
        <ele>980.8</ele>
        <time>2026-03-21T09:35:50Z</time>
      </trkpt>
      <trkpt lat="48.03059" lon="7.02801">
        <ele>981</ele>
        <time>2026-03-21T09:35:55Z</time>
      </trkpt>
      <trkpt lat="48.03063" lon="7.02794">
        <ele>979.8</ele>
        <time>2026-03-21T09:36:00Z</time>
      </trkpt>
      <trkpt lat="48.03064" lon="7.02786">
        <ele>977.2</ele>
        <time>2026-03-21T09:36:05Z</time>
      </trkpt>
      <trkpt lat="48.03065" lon="7.02779">
        <ele>974.9</ele>
        <time>2026-03-21T09:36:10Z</time>
      </trkpt>
      <trkpt lat="48.03067" lon="7.02776">
        <ele>974.5</ele>
        <time>2026-03-21T09:36:15Z</time>
      </trkpt>
      <trkpt lat="48.0307" lon="7.02773">
        <ele>974.3</ele>
        <time>2026-03-21T09:36:20Z</time>
      </trkpt>
      <trkpt lat="48.03074" lon="7.02771">
        <ele>974.8</ele>
        <time>2026-03-21T09:36:25Z</time>
      </trkpt>
      <trkpt lat="48.03079" lon="7.02768">
        <ele>975.3</ele>
        <time>2026-03-21T09:36:30Z</time>
      </trkpt>
      <trkpt lat="48.03081" lon="7.02766">
        <ele>975.2</ele>
        <time>2026-03-21T09:36:35Z</time>
      </trkpt>
      <trkpt lat="48.03082" lon="7.02765">
        <ele>975.2</ele>
        <time>2026-03-21T09:36:40Z</time>
      </trkpt>
      <trkpt lat="48.03085" lon="7.0276">
        <ele>974.3</ele>
        <time>2026-03-21T09:36:45Z</time>
      </trkpt>
      <trkpt lat="48.03088" lon="7.02753">
        <ele>972.7</ele>
        <time>2026-03-21T09:36:50Z</time>
      </trkpt>
      <trkpt lat="48.03092" lon="7.02747">
        <ele>972</ele>
        <time>2026-03-21T09:36:55Z</time>
      </trkpt>
      <trkpt lat="48.03094" lon="7.02742">
        <ele>971.1</ele>
        <time>2026-03-21T09:37:00Z</time>
      </trkpt>
      <trkpt lat="48.03097" lon="7.02739">
        <ele>971.2</ele>
        <time>2026-03-21T09:37:05Z</time>
      </trkpt>
      <trkpt lat="48.03098" lon="7.02737">
        <ele>970.9</ele>
        <time>2026-03-21T09:37:10Z</time>
      </trkpt>
      <trkpt lat="48.03094" lon="7.02728">
        <ele>966.9</ele>
        <time>2026-03-21T09:37:15Z</time>
      </trkpt>
      <trkpt lat="48.03086" lon="7.0273">
        <ele>964.9</ele>
        <time>2026-03-21T09:37:20Z</time>
      </trkpt>
      <trkpt lat="48.03081" lon="7.02731">
        <ele>963.6</ele>
        <time>2026-03-21T09:37:25Z</time>
      </trkpt>
      <trkpt lat="48.03077" lon="7.02731">
        <ele>962.5</ele>
        <time>2026-03-21T09:37:30Z</time>
      </trkpt>
      <trkpt lat="48.03074" lon="7.02733">
        <ele>962.2</ele>
        <time>2026-03-21T09:37:35Z</time>
      </trkpt>
      <trkpt lat="48.03071" lon="7.02737">
        <ele>962.5</ele>
        <time>2026-03-21T09:37:40Z</time>
      </trkpt>
      <trkpt lat="48.03067" lon="7.02738">
        <ele>961.6</ele>
        <time>2026-03-21T09:37:45Z</time>
      </trkpt>
      <trkpt lat="48.03063" lon="7.02738">
        <ele>960.4</ele>
        <time>2026-03-21T09:37:50Z</time>
      </trkpt>
      <trkpt lat="48.03059" lon="7.02741">
        <ele>960</ele>
        <time>2026-03-21T09:37:55Z</time>
      </trkpt>
      <trkpt lat="48.03055" lon="7.02745">
        <ele>959.9</ele>
        <time>2026-03-21T09:38:00Z</time>
      </trkpt>
      <trkpt lat="48.0305" lon="7.02746">
        <ele>958.6</ele>
        <time>2026-03-21T09:38:05Z</time>
      </trkpt>
      <trkpt lat="48.03047" lon="7.02747">
        <ele>957.9</ele>
        <time>2026-03-21T09:38:10Z</time>
      </trkpt>
      <trkpt lat="48.03043" lon="7.02746">
        <ele>956.4</ele>
        <time>2026-03-21T09:38:15Z</time>
      </trkpt>
      <trkpt lat="48.03038" lon="7.02746">
        <ele>954.9</ele>
        <time>2026-03-21T09:38:20Z</time>
      </trkpt>
      <trkpt lat="48.03034" lon="7.02745">
        <ele>953.5</ele>
        <time>2026-03-21T09:38:25Z</time>
      </trkpt>
      <trkpt lat="48.03036" lon="7.0275">
        <ele>955.2</ele>
        <time>2026-03-21T09:38:30Z</time>
      </trkpt>
      <trkpt lat="48.03035" lon="7.02755">
        <ele>956.7</ele>
        <time>2026-03-21T09:38:35Z</time>
      </trkpt>
      <trkpt lat="48.03032" lon="7.02756">
        <ele>956.1</ele>
        <time>2026-03-21T09:38:40Z</time>
      </trkpt>
      <trkpt lat="48.03027" lon="7.02756">
        <ele>954.6</ele>
        <time>2026-03-21T09:38:45Z</time>
      </trkpt>
      <trkpt lat="48.03022" lon="7.02753">
        <ele>951.9</ele>
        <time>2026-03-21T09:38:50Z</time>
      </trkpt>
      <trkpt lat="48.03018" lon="7.02751">
        <ele>950</ele>
        <time>2026-03-21T09:38:55Z</time>
      </trkpt>
      <trkpt lat="48.03015" lon="7.02755">
        <ele>950.4</ele>
        <time>2026-03-21T09:39:00Z</time>
      </trkpt>
      <trkpt lat="48.0301" lon="7.02756">
        <ele>949.2</ele>
        <time>2026-03-21T09:39:05Z</time>
      </trkpt>
      <trkpt lat="48.03005" lon="7.02751">
        <ele>945.9</ele>
        <time>2026-03-21T09:39:10Z</time>
      </trkpt>
      <trkpt lat="48.02998" lon="7.02753">
        <ele>944.7</ele>
        <time>2026-03-21T09:39:15Z</time>
      </trkpt>
      <trkpt lat="48.02993" lon="7.02755">
        <ele>944.6</ele>
        <time>2026-03-21T09:39:20Z</time>
      </trkpt>
      <trkpt lat="48.02989" lon="7.02758">
        <ele>945</ele>
        <time>2026-03-21T09:39:25Z</time>
      </trkpt>
      <trkpt lat="48.02984" lon="7.02761">
        <ele>945.3</ele>
        <time>2026-03-21T09:39:30Z</time>
      </trkpt>
      <trkpt lat="48.02982" lon="7.02766">
        <ele>946.7</ele>
        <time>2026-03-21T09:39:35Z</time>
      </trkpt>
      <trkpt lat="48.02979" lon="7.02772">
        <ele>948.2</ele>
        <time>2026-03-21T09:39:40Z</time>
      </trkpt>
      <trkpt lat="48.02976" lon="7.02774">
        <ele>948.4</ele>
        <time>2026-03-21T09:39:45Z</time>
      </trkpt>
      <trkpt lat="48.02973" lon="7.02777">
        <ele>949</ele>
        <time>2026-03-21T09:39:50Z</time>
      </trkpt>
      <trkpt lat="48.0297" lon="7.02777">
        <ele>948.5</ele>
        <time>2026-03-21T09:39:55Z</time>
      </trkpt>
      <trkpt lat="48.02965" lon="7.02778">
        <ele>948</ele>
        <time>2026-03-21T09:40:00Z</time>
      </trkpt>
      <trkpt lat="48.02962" lon="7.0278">
        <ele>948.2</ele>
        <time>2026-03-21T09:40:05Z</time>
      </trkpt>
      <trkpt lat="48.02958" lon="7.02782">
        <ele>948.2</ele>
        <time>2026-03-21T09:40:10Z</time>
      </trkpt>
      <trkpt lat="48.02953" lon="7.02782">
        <ele>947.4</ele>
        <time>2026-03-21T09:40:15Z</time>
      </trkpt>
      <trkpt lat="48.02949" lon="7.02784">
        <ele>947.4</ele>
        <time>2026-03-21T09:40:20Z</time>
      </trkpt>
      <trkpt lat="48.02946" lon="7.02792">
        <ele>949.5</ele>
        <time>2026-03-21T09:40:25Z</time>
      </trkpt>
      <trkpt lat="48.02943" lon="7.02793">
        <ele>949.4</ele>
        <time>2026-03-21T09:40:30Z</time>
      </trkpt>
      <trkpt lat="48.02939" lon="7.02795">
        <ele>949.4</ele>
        <time>2026-03-21T09:40:35Z</time>
      </trkpt>
      <trkpt lat="48.02936" lon="7.02796">
        <ele>949.2</ele>
        <time>2026-03-21T09:40:40Z</time>
      </trkpt>
      <trkpt lat="48.02932" lon="7.02795">
        <ele>948.2</ele>
        <time>2026-03-21T09:40:45Z</time>
      </trkpt>
      <trkpt lat="48.02927" lon="7.02796">
        <ele>947.7</ele>
        <time>2026-03-21T09:40:50Z</time>
      </trkpt>
      <trkpt lat="48.02922" lon="7.02796">
        <ele>946.8</ele>
        <time>2026-03-21T09:40:55Z</time>
      </trkpt>
      <trkpt lat="48.02916" lon="7.02796">
        <ele>945.8</ele>
        <time>2026-03-21T09:41:00Z</time>
      </trkpt>
      <trkpt lat="48.02912" lon="7.02798">
        <ele>946.1</ele>
        <time>2026-03-21T09:41:05Z</time>
      </trkpt>
      <trkpt lat="48.0291" lon="7.02803">
        <ele>947.5</ele>
        <time>2026-03-21T09:41:10Z</time>
      </trkpt>
      <trkpt lat="48.02907" lon="7.02805">
        <ele>947.9</ele>
        <time>2026-03-21T09:41:15Z</time>
      </trkpt>
      <trkpt lat="48.02902" lon="7.02807">
        <ele>948.1</ele>
        <time>2026-03-21T09:41:20Z</time>
      </trkpt>
      <trkpt lat="48.02897" lon="7.0281">
        <ele>948.6</ele>
        <time>2026-03-21T09:41:25Z</time>
      </trkpt>
      <trkpt lat="48.02894" lon="7.02813">
        <ele>949.3</ele>
        <time>2026-03-21T09:41:30Z</time>
      </trkpt>
      <trkpt lat="48.02891" lon="7.02816">
        <ele>950</ele>
        <time>2026-03-21T09:41:35Z</time>
      </trkpt>
      <trkpt lat="48.02887" lon="7.02819">
        <ele>950.7</ele>
        <time>2026-03-21T09:41:40Z</time>
      </trkpt>
      <trkpt lat="48.02884" lon="7.02816">
        <ele>949.4</ele>
        <time>2026-03-21T09:41:45Z</time>
      </trkpt>
      <trkpt lat="48.02882" lon="7.02812">
        <ele>947.9</ele>
        <time>2026-03-21T09:41:50Z</time>
      </trkpt>
      <trkpt lat="48.02882" lon="7.02812">
        <ele>947.9</ele>
        <time>2026-03-21T09:41:55Z</time>
      </trkpt>
      <trkpt lat="48.02876" lon="7.02807">
        <ele>945.6</ele>
        <time>2026-03-21T09:42:00Z</time>
      </trkpt>
      <trkpt lat="48.02873" lon="7.02804">
        <ele>944.3</ele>
        <time>2026-03-21T09:42:05Z</time>
      </trkpt>
      <trkpt lat="48.02869" lon="7.028">
        <ele>942.5</ele>
        <time>2026-03-21T09:42:10Z</time>
      </trkpt>
      <trkpt lat="48.02872" lon="7.02795">
        <ele>941.1</ele>
        <time>2026-03-21T09:42:15Z</time>
      </trkpt>
      <trkpt lat="48.02876" lon="7.02793">
        <ele>940.8</ele>
        <time>2026-03-21T09:42:20Z</time>
      </trkpt>
      <trkpt lat="48.02883" lon="7.02792">
        <ele>941.2</ele>
        <time>2026-03-21T09:42:25Z</time>
      </trkpt>
      <trkpt lat="48.02888" lon="7.02791">
        <ele>941.4</ele>
        <time>2026-03-21T09:42:30Z</time>
      </trkpt>
      <trkpt lat="48.02892" lon="7.02789">
        <ele>941.1</ele>
        <time>2026-03-21T09:42:35Z</time>
      </trkpt>
      <trkpt lat="48.02894" lon="7.02786">
        <ele>940.3</ele>
        <time>2026-03-21T09:42:40Z</time>
      </trkpt>
      <trkpt lat="48.02899" lon="7.02784">
        <ele>940.2</ele>
        <time>2026-03-21T09:42:45Z</time>
      </trkpt>
      <trkpt lat="48.02903" lon="7.02781">
        <ele>939.6</ele>
        <time>2026-03-21T09:42:50Z</time>
      </trkpt>
      <trkpt lat="48.02907" lon="7.02777">
        <ele>938.7</ele>
        <time>2026-03-21T09:42:55Z</time>
      </trkpt>
      <trkpt lat="48.02912" lon="7.02772">
        <ele>937.6</ele>
        <time>2026-03-21T09:43:00Z</time>
      </trkpt>
      <trkpt lat="48.02915" lon="7.02766">
        <ele>936</ele>
        <time>2026-03-21T09:43:05Z</time>
      </trkpt>
      <trkpt lat="48.0292" lon="7.02759">
        <ele>934.4</ele>
        <time>2026-03-21T09:43:10Z</time>
      </trkpt>
      <trkpt lat="48.02927" lon="7.02751">
        <ele>932.9</ele>
        <time>2026-03-21T09:43:15Z</time>
      </trkpt>
      <trkpt lat="48.02931" lon="7.02742">
        <ele>932</ele>
        <time>2026-03-21T09:43:20Z</time>
      </trkpt>
      <trkpt lat="48.02935" lon="7.02735">
        <ele>931.6</ele>
        <time>2026-03-21T09:43:25Z</time>
      </trkpt>
      <trkpt lat="48.0294" lon="7.0273">
        <ele>931.6</ele>
        <time>2026-03-21T09:43:30Z</time>
      </trkpt>
      <trkpt lat="48.02944" lon="7.02728">
        <ele>931.8</ele>
        <time>2026-03-21T09:43:35Z</time>
      </trkpt>
      <trkpt lat="48.02946" lon="7.02723">
        <ele>931.3</ele>
        <time>2026-03-21T09:43:40Z</time>
      </trkpt>
      <trkpt lat="48.02944" lon="7.02714">
        <ele>929.7</ele>
        <time>2026-03-21T09:43:45Z</time>
      </trkpt>
      <trkpt lat="48.02939" lon="7.02702">
        <ele>927.1</ele>
        <time>2026-03-21T09:43:50Z</time>
      </trkpt>
      <trkpt lat="48.02938" lon="7.02694">
        <ele>925.7</ele>
        <time>2026-03-21T09:43:55Z</time>
      </trkpt>
      <trkpt lat="48.02939" lon="7.02686">
        <ele>924.7</ele>
        <time>2026-03-21T09:44:00Z</time>
      </trkpt>
      <trkpt lat="48.0294" lon="7.0268">
        <ele>923.9</ele>
        <time>2026-03-21T09:44:05Z</time>
      </trkpt>
      <trkpt lat="48.02939" lon="7.02676">
        <ele>923.1</ele>
        <time>2026-03-21T09:44:10Z</time>
      </trkpt>
      <trkpt lat="48.02939" lon="7.02676">
        <ele>923.1</ele>
        <time>2026-03-21T09:44:15Z</time>
      </trkpt>
      <trkpt lat="48.02939" lon="7.02676">
        <ele>923.1</ele>
        <time>2026-03-21T09:44:20Z</time>
      </trkpt>
      <trkpt lat="48.02939" lon="7.02676">
        <ele>923.1</ele>
        <time>2026-03-21T09:44:25Z</time>
      </trkpt>
      <trkpt lat="48.02939" lon="7.02676">
        <ele>923.1</ele>
        <time>2026-03-21T09:44:30Z</time>
      </trkpt>
      <trkpt lat="48.02939" lon="7.02676">
        <ele>923.1</ele>
        <time>2026-03-21T09:44:35Z</time>
      </trkpt>
      <trkpt lat="48.02939" lon="7.02676">
        <ele>923.1</ele>
        <time>2026-03-21T09:44:40Z</time>
      </trkpt>
      <trkpt lat="48.02939" lon="7.02676">
        <ele>923.1</ele>
        <time>2026-03-21T09:44:45Z</time>
      </trkpt>
      <trkpt lat="48.02939" lon="7.02676">
        <ele>923.1</ele>
        <time>2026-03-21T09:44:50Z</time>
      </trkpt>
      <trkpt lat="48.02934" lon="7.02677">
        <ele>922.6</ele>
        <time>2026-03-21T09:44:55Z</time>
      </trkpt>
      <trkpt lat="48.02931" lon="7.02684">
        <ele>923.3</ele>
        <time>2026-03-21T09:45:00Z</time>
      </trkpt>
      <trkpt lat="48.02926" lon="7.02689">
        <ele>923.4</ele>
        <time>2026-03-21T09:45:05Z</time>
      </trkpt>
      <trkpt lat="48.02923" lon="7.02691">
        <ele>923.3</ele>
        <time>2026-03-21T09:45:10Z</time>
      </trkpt>
      <trkpt lat="48.02921" lon="7.02686">
        <ele>922.3</ele>
        <time>2026-03-21T09:45:15Z</time>
      </trkpt>
      <trkpt lat="48.02917" lon="7.02683">
        <ele>921.4</ele>
        <time>2026-03-21T09:45:20Z</time>
      </trkpt>
      <trkpt lat="48.02914" lon="7.02687">
        <ele>921.7</ele>
        <time>2026-03-21T09:45:25Z</time>
      </trkpt>
      <trkpt lat="48.02909" lon="7.02693">
        <ele>922.2</ele>
        <time>2026-03-21T09:45:30Z</time>
      </trkpt>
      <trkpt lat="48.02906" lon="7.02695">
        <ele>922.2</ele>
        <time>2026-03-21T09:45:35Z</time>
      </trkpt>
      <trkpt lat="48.02906" lon="7.02695">
        <ele>922.2</ele>
        <time>2026-03-21T09:45:40Z</time>
      </trkpt>
      <trkpt lat="48.02906" lon="7.02694">
        <ele>922.1</ele>
        <time>2026-03-21T09:45:45Z</time>
      </trkpt>
      <trkpt lat="48.02906" lon="7.02694">
        <ele>922.1</ele>
        <time>2026-03-21T09:45:50Z</time>
      </trkpt>
      <trkpt lat="48.02906" lon="7.02694">
        <ele>922.1</ele>
        <time>2026-03-21T09:45:55Z</time>
      </trkpt>
      <trkpt lat="48.02906" lon="7.02694">
        <ele>922.1</ele>
        <time>2026-03-21T09:46:00Z</time>
      </trkpt>
      <trkpt lat="48.02909" lon="7.0268">
        <ele>920.4</ele>
        <time>2026-03-21T09:46:05Z</time>
      </trkpt>
      <trkpt lat="48.02913" lon="7.02672">
        <ele>919.5</ele>
        <time>2026-03-21T09:46:10Z</time>
      </trkpt>
      <trkpt lat="48.02908" lon="7.02667">
        <ele>918.5</ele>
        <time>2026-03-21T09:46:15Z</time>
      </trkpt>
      <trkpt lat="48.02905" lon="7.02662">
        <ele>919</ele>
        <time>2026-03-21T09:46:20Z</time>
      </trkpt>
      <trkpt lat="48.02901" lon="7.02657">
        <ele>919.5</ele>
        <time>2026-03-21T09:46:25Z</time>
      </trkpt>
      <trkpt lat="48.02901" lon="7.02651">
        <ele>920.3</ele>
        <time>2026-03-21T09:46:30Z</time>
      </trkpt>
      <trkpt lat="48.02901" lon="7.02649">
        <ele>920.6</ele>
        <time>2026-03-21T09:46:35Z</time>
      </trkpt>
      <trkpt lat="48.02902" lon="7.02648">
        <ele>920.8</ele>
        <time>2026-03-21T09:46:40Z</time>
      </trkpt>
      <trkpt lat="48.02898" lon="7.02644">
        <ele>921.2</ele>
        <time>2026-03-21T09:46:45Z</time>
      </trkpt>
      <trkpt lat="48.02894" lon="7.02637">
        <ele>922.1</ele>
        <time>2026-03-21T09:46:50Z</time>
      </trkpt>
      <trkpt lat="48.02891" lon="7.02632">
        <ele>922.8</ele>
        <time>2026-03-21T09:46:55Z</time>
      </trkpt>
      <trkpt lat="48.02889" lon="7.02628">
        <ele>923.4</ele>
        <time>2026-03-21T09:47:00Z</time>
      </trkpt>
      <trkpt lat="48.02886" lon="7.02623">
        <ele>924.1</ele>
        <time>2026-03-21T09:47:05Z</time>
      </trkpt>
      <trkpt lat="48.02883" lon="7.02616">
        <ele>925.1</ele>
        <time>2026-03-21T09:47:10Z</time>
      </trkpt>
      <trkpt lat="48.02878" lon="7.02608">
        <ele>926.4</ele>
        <time>2026-03-21T09:47:15Z</time>
      </trkpt>
      <trkpt lat="48.02875" lon="7.026">
        <ele>927.7</ele>
        <time>2026-03-21T09:47:20Z</time>
      </trkpt>
      <trkpt lat="48.02874" lon="7.02591">
        <ele>929.2</ele>
        <time>2026-03-21T09:47:25Z</time>
      </trkpt>
      <trkpt lat="48.0287" lon="7.02583">
        <ele>930.6</ele>
        <time>2026-03-21T09:47:30Z</time>
      </trkpt>
      <trkpt lat="48.02867" lon="7.02575">
        <ele>932.2</ele>
        <time>2026-03-21T09:47:35Z</time>
      </trkpt>
      <trkpt lat="48.02864" lon="7.02567">
        <ele>933.8</ele>
        <time>2026-03-21T09:47:40Z</time>
      </trkpt>
      <trkpt lat="48.02861" lon="7.0256">
        <ele>935.1</ele>
        <time>2026-03-21T09:47:45Z</time>
      </trkpt>
      <trkpt lat="48.02859" lon="7.02552">
        <ele>936.7</ele>
        <time>2026-03-21T09:47:50Z</time>
      </trkpt>
      <trkpt lat="48.02857" lon="7.02544">
        <ele>938.3</ele>
        <time>2026-03-21T09:47:55Z</time>
      </trkpt>
      <trkpt lat="48.02855" lon="7.02537">
        <ele>939.6</ele>
        <time>2026-03-21T09:48:00Z</time>
      </trkpt>
      <trkpt lat="48.02853" lon="7.02529">
        <ele>941.2</ele>
        <time>2026-03-21T09:48:05Z</time>
      </trkpt>
      <trkpt lat="48.02853" lon="7.02524">
        <ele>942.2</ele>
        <time>2026-03-21T09:48:10Z</time>
      </trkpt>
      <trkpt lat="48.02853" lon="7.02526">
        <ele>941.8</ele>
        <time>2026-03-21T09:48:15Z</time>
      </trkpt>
      <trkpt lat="48.0285" lon="7.02531">
        <ele>940.8</ele>
        <time>2026-03-21T09:48:20Z</time>
      </trkpt>
      <trkpt lat="48.02845" lon="7.02541">
        <ele>939</ele>
        <time>2026-03-21T09:48:25Z</time>
      </trkpt>
      <trkpt lat="48.02844" lon="7.02549">
        <ele>937.5</ele>
        <time>2026-03-21T09:48:30Z</time>
      </trkpt>
      <trkpt lat="48.02842" lon="7.02557">
        <ele>936</ele>
        <time>2026-03-21T09:48:35Z</time>
      </trkpt>
      <trkpt lat="48.02839" lon="7.02566">
        <ele>934.3</ele>
        <time>2026-03-21T09:48:40Z</time>
      </trkpt>
      <trkpt lat="48.02835" lon="7.02573">
        <ele>933</ele>
        <time>2026-03-21T09:48:45Z</time>
      </trkpt>
      <trkpt lat="48.02833" lon="7.0258">
        <ele>931.6</ele>
        <time>2026-03-21T09:48:50Z</time>
      </trkpt>
      <trkpt lat="48.02831" lon="7.02587">
        <ele>929.8</ele>
        <time>2026-03-21T09:48:55Z</time>
      </trkpt>
      <trkpt lat="48.02833" lon="7.02595">
        <ele>928.6</ele>
        <time>2026-03-21T09:49:00Z</time>
      </trkpt>
      <trkpt lat="48.0283" lon="7.02598">
        <ele>927.4</ele>
        <time>2026-03-21T09:49:05Z</time>
      </trkpt>
      <trkpt lat="48.02828" lon="7.02602">
        <ele>926.2</ele>
        <time>2026-03-21T09:49:10Z</time>
      </trkpt>
      <trkpt lat="48.02825" lon="7.02607">
        <ele>924.6</ele>
        <time>2026-03-21T09:49:15Z</time>
      </trkpt>
      <trkpt lat="48.02822" lon="7.02611">
        <ele>923.2</ele>
        <time>2026-03-21T09:49:20Z</time>
      </trkpt>
      <trkpt lat="48.02818" lon="7.02613">
        <ele>922.1</ele>
        <time>2026-03-21T09:49:25Z</time>
      </trkpt>
      <trkpt lat="48.02815" lon="7.02615">
        <ele>921.1</ele>
        <time>2026-03-21T09:49:30Z</time>
      </trkpt>
      <trkpt lat="48.02811" lon="7.02617">
        <ele>919.9</ele>
        <time>2026-03-21T09:49:35Z</time>
      </trkpt>
      <trkpt lat="48.02808" lon="7.02624">
        <ele>917.8</ele>
        <time>2026-03-21T09:49:40Z</time>
      </trkpt>
      <trkpt lat="48.02804" lon="7.02626">
        <ele>916.7</ele>
        <time>2026-03-21T09:49:45Z</time>
      </trkpt>
      <trkpt lat="48.028" lon="7.02632">
        <ele>914.6</ele>
        <time>2026-03-21T09:49:50Z</time>
      </trkpt>
      <trkpt lat="48.02798" lon="7.02638">
        <ele>912.9</ele>
        <time>2026-03-21T09:49:55Z</time>
      </trkpt>
      <trkpt lat="48.02798" lon="7.02638">
        <ele>912.9</ele>
        <time>2026-03-21T09:50:00Z</time>
      </trkpt>
      <trkpt lat="48.02798" lon="7.02638">
        <ele>912.9</ele>
        <time>2026-03-21T09:50:05Z</time>
      </trkpt>
      <trkpt lat="48.02798" lon="7.02638">
        <ele>912.9</ele>
        <time>2026-03-21T09:50:10Z</time>
      </trkpt>
      <trkpt lat="48.02798" lon="7.02638">
        <ele>912.9</ele>
        <time>2026-03-21T09:50:15Z</time>
      </trkpt>
      <trkpt lat="48.02798" lon="7.02638">
        <ele>912.9</ele>
        <time>2026-03-21T09:50:20Z</time>
      </trkpt>
      <trkpt lat="48.02798" lon="7.02638">
        <ele>912.9</ele>
        <time>2026-03-21T09:50:25Z</time>
      </trkpt>
      <trkpt lat="48.02798" lon="7.02638">
        <ele>912.9</ele>
        <time>2026-03-21T09:50:30Z</time>
      </trkpt>
      <trkpt lat="48.02804" lon="7.02654">
        <ele>910.7</ele>
        <time>2026-03-21T09:50:35Z</time>
      </trkpt>
      <trkpt lat="48.02811" lon="7.02653">
        <ele>912.3</ele>
        <time>2026-03-21T09:50:40Z</time>
      </trkpt>
      <trkpt lat="48.02818" lon="7.02653">
        <ele>913.7</ele>
        <time>2026-03-21T09:50:45Z</time>
      </trkpt>
      <trkpt lat="48.02819" lon="7.02652">
        <ele>914.1</ele>
        <time>2026-03-21T09:50:50Z</time>
      </trkpt>
      <trkpt lat="48.02815" lon="7.02654">
        <ele>912.9</ele>
        <time>2026-03-21T09:50:55Z</time>
      </trkpt>
      <trkpt lat="48.02811" lon="7.02657">
        <ele>911.5</ele>
        <time>2026-03-21T09:51:00Z</time>
      </trkpt>
      <trkpt lat="48.02807" lon="7.0266">
        <ele>910</ele>
        <time>2026-03-21T09:51:05Z</time>
      </trkpt>
      <trkpt lat="48.02805" lon="7.02662">
        <ele>909.2</ele>
        <time>2026-03-21T09:51:10Z</time>
      </trkpt>
      <trkpt lat="48.02802" lon="7.02665">
        <ele>908</ele>
        <time>2026-03-21T09:51:15Z</time>
      </trkpt>
      <trkpt lat="48.02798" lon="7.02671">
        <ele>907.1</ele>
        <time>2026-03-21T09:51:20Z</time>
      </trkpt>
      <trkpt lat="48.02795" lon="7.02674">
        <ele>906.8</ele>
        <time>2026-03-21T09:51:25Z</time>
      </trkpt>
      <trkpt lat="48.02794" lon="7.02675">
        <ele>906.6</ele>
        <time>2026-03-21T09:51:30Z</time>
      </trkpt>
      <trkpt lat="48.02792" lon="7.02674">
        <ele>906.1</ele>
        <time>2026-03-21T09:51:35Z</time>
      </trkpt>
      <trkpt lat="48.02786" lon="7.02678">
        <ele>905.2</ele>
        <time>2026-03-21T09:51:40Z</time>
      </trkpt>
      <trkpt lat="48.02784" lon="7.02679">
        <ele>904.9</ele>
        <time>2026-03-21T09:51:45Z</time>
      </trkpt>
      <trkpt lat="48.02784" lon="7.02679">
        <ele>904.9</ele>
        <time>2026-03-21T09:51:50Z</time>
      </trkpt>
      <trkpt lat="48.02784" lon="7.02679">
        <ele>904.9</ele>
        <time>2026-03-21T09:51:55Z</time>
      </trkpt>
      <trkpt lat="48.02784" lon="7.02679">
        <ele>904.9</ele>
        <time>2026-03-21T09:52:00Z</time>
      </trkpt>
      <trkpt lat="48.02784" lon="7.02679">
        <ele>904.9</ele>
        <time>2026-03-21T09:52:05Z</time>
      </trkpt>
      <trkpt lat="48.02784" lon="7.02679">
        <ele>904.9</ele>
        <time>2026-03-21T09:52:10Z</time>
      </trkpt>
      <trkpt lat="48.02781" lon="7.02681">
        <ele>904.4</ele>
        <time>2026-03-21T09:52:15Z</time>
      </trkpt>
      <trkpt lat="48.02776" lon="7.02688">
        <ele>903.9</ele>
        <time>2026-03-21T09:52:20Z</time>
      </trkpt>
      <trkpt lat="48.02772" lon="7.0269">
        <ele>903.2</ele>
        <time>2026-03-21T09:52:25Z</time>
      </trkpt>
      <trkpt lat="48.02767" lon="7.02691">
        <ele>902.3</ele>
        <time>2026-03-21T09:52:30Z</time>
      </trkpt>
      <trkpt lat="48.02761" lon="7.0269">
        <ele>901</ele>
        <time>2026-03-21T09:52:35Z</time>
      </trkpt>
      <trkpt lat="48.02757" lon="7.02687">
        <ele>899.9</ele>
        <time>2026-03-21T09:52:40Z</time>
      </trkpt>
      <trkpt lat="48.02753" lon="7.02684">
        <ele>898.9</ele>
        <time>2026-03-21T09:52:45Z</time>
      </trkpt>
      <trkpt lat="48.02748" lon="7.02683">
        <ele>898</ele>
        <time>2026-03-21T09:52:50Z</time>
      </trkpt>
      <trkpt lat="48.02743" lon="7.02683">
        <ele>897.5</ele>
        <time>2026-03-21T09:52:55Z</time>
      </trkpt>
      <trkpt lat="48.02738" lon="7.02682">
        <ele>897</ele>
        <time>2026-03-21T09:53:00Z</time>
      </trkpt>
      <trkpt lat="48.02734" lon="7.02681">
        <ele>896.6</ele>
        <time>2026-03-21T09:53:05Z</time>
      </trkpt>
      <trkpt lat="48.02729" lon="7.02681">
        <ele>896.1</ele>
        <time>2026-03-21T09:53:10Z</time>
      </trkpt>
      <trkpt lat="48.02723" lon="7.02683">
        <ele>895.7</ele>
        <time>2026-03-21T09:53:15Z</time>
      </trkpt>
      <trkpt lat="48.02717" lon="7.02685">
        <ele>895.3</ele>
        <time>2026-03-21T09:53:20Z</time>
      </trkpt>
      <trkpt lat="48.02714" lon="7.02684">
        <ele>895</ele>
        <time>2026-03-21T09:53:25Z</time>
      </trkpt>
      <trkpt lat="48.0271" lon="7.02683">
        <ele>894.5</ele>
        <time>2026-03-21T09:53:30Z</time>
      </trkpt>
      <trkpt lat="48.02703" lon="7.02681">
        <ele>893.7</ele>
        <time>2026-03-21T09:53:35Z</time>
      </trkpt>
      <trkpt lat="48.02697" lon="7.02681">
        <ele>893.2</ele>
        <time>2026-03-21T09:53:40Z</time>
      </trkpt>
      <trkpt lat="48.02691" lon="7.02684">
        <ele>892.9</ele>
        <time>2026-03-21T09:53:45Z</time>
      </trkpt>
      <trkpt lat="48.02686" lon="7.02682">
        <ele>892.2</ele>
        <time>2026-03-21T09:53:50Z</time>
      </trkpt>
      <trkpt lat="48.02685" lon="7.02675">
        <ele>891.5</ele>
        <time>2026-03-21T09:53:55Z</time>
      </trkpt>
      <trkpt lat="48.02682" lon="7.02668">
        <ele>890.6</ele>
        <time>2026-03-21T09:54:00Z</time>
      </trkpt>
      <trkpt lat="48.02679" lon="7.02662">
        <ele>890.8</ele>
        <time>2026-03-21T09:54:05Z</time>
      </trkpt>
      <trkpt lat="48.02674" lon="7.0266">
        <ele>890.6</ele>
        <time>2026-03-21T09:54:10Z</time>
      </trkpt>
      <trkpt lat="48.02668" lon="7.02659">
        <ele>890.1</ele>
        <time>2026-03-21T09:54:15Z</time>
      </trkpt>
      <trkpt lat="48.02663" lon="7.0266">
        <ele>888.9</ele>
        <time>2026-03-21T09:54:20Z</time>
      </trkpt>
      <trkpt lat="48.0266" lon="7.02658">
        <ele>888.4</ele>
        <time>2026-03-21T09:54:25Z</time>
      </trkpt>
      <trkpt lat="48.02655" lon="7.02657">
        <ele>887.2</ele>
        <time>2026-03-21T09:54:30Z</time>
      </trkpt>
      <trkpt lat="48.02649" lon="7.02662">
        <ele>885.2</ele>
        <time>2026-03-21T09:54:35Z</time>
      </trkpt>
      <trkpt lat="48.02643" lon="7.02665">
        <ele>883.5</ele>
        <time>2026-03-21T09:54:40Z</time>
      </trkpt>
      <trkpt lat="48.02637" lon="7.02662">
        <ele>882.3</ele>
        <time>2026-03-21T09:54:45Z</time>
      </trkpt>
      <trkpt lat="48.02635" lon="7.02656">
        <ele>882.2</ele>
        <time>2026-03-21T09:54:50Z</time>
      </trkpt>
      <trkpt lat="48.02633" lon="7.02648">
        <ele>882.3</ele>
        <time>2026-03-21T09:54:55Z</time>
      </trkpt>
      <trkpt lat="48.02631" lon="7.0264">
        <ele>882.4</ele>
        <time>2026-03-21T09:55:00Z</time>
      </trkpt>
      <trkpt lat="48.02628" lon="7.02634">
        <ele>882</ele>
        <time>2026-03-21T09:55:05Z</time>
      </trkpt>
      <trkpt lat="48.02622" lon="7.02637">
        <ele>880.1</ele>
        <time>2026-03-21T09:55:10Z</time>
      </trkpt>
      <trkpt lat="48.02616" lon="7.02642">
        <ele>878.2</ele>
        <time>2026-03-21T09:55:15Z</time>
      </trkpt>
      <trkpt lat="48.0261" lon="7.02644">
        <ele>876.5</ele>
        <time>2026-03-21T09:55:20Z</time>
      </trkpt>
      <trkpt lat="48.02604" lon="7.02648">
        <ele>874.7</ele>
        <time>2026-03-21T09:55:25Z</time>
      </trkpt>
      <trkpt lat="48.02598" lon="7.02652">
        <ele>873</ele>
        <time>2026-03-21T09:55:30Z</time>
      </trkpt>
      <trkpt lat="48.02593" lon="7.02656">
        <ele>871.6</ele>
        <time>2026-03-21T09:55:35Z</time>
      </trkpt>
      <trkpt lat="48.02588" lon="7.02658">
        <ele>870.3</ele>
        <time>2026-03-21T09:55:40Z</time>
      </trkpt>
      <trkpt lat="48.02583" lon="7.02659">
        <ele>868.9</ele>
        <time>2026-03-21T09:55:45Z</time>
      </trkpt>
      <trkpt lat="48.02577" lon="7.02666">
        <ele>866</ele>
        <time>2026-03-21T09:55:50Z</time>
      </trkpt>
      <trkpt lat="48.02572" lon="7.02667">
        <ele>863.6</ele>
        <time>2026-03-21T09:55:55Z</time>
      </trkpt>
      <trkpt lat="48.02567" lon="7.02668">
        <ele>861.3</ele>
        <time>2026-03-21T09:56:00Z</time>
      </trkpt>
      <trkpt lat="48.02562" lon="7.02663">
        <ele>858.8</ele>
        <time>2026-03-21T09:56:05Z</time>
      </trkpt>
      <trkpt lat="48.02559" lon="7.0266">
        <ele>857.4</ele>
        <time>2026-03-21T09:56:10Z</time>
      </trkpt>
      <trkpt lat="48.02557" lon="7.02657">
        <ele>856.4</ele>
        <time>2026-03-21T09:56:15Z</time>
      </trkpt>
      <trkpt lat="48.02554" lon="7.02654">
        <ele>855</ele>
        <time>2026-03-21T09:56:20Z</time>
      </trkpt>
      <trkpt lat="48.02551" lon="7.02652">
        <ele>853.6</ele>
        <time>2026-03-21T09:56:25Z</time>
      </trkpt>
      <trkpt lat="48.02552" lon="7.02658">
        <ele>854</ele>
        <time>2026-03-21T09:56:30Z</time>
      </trkpt>
      <trkpt lat="48.0255" lon="7.0266">
        <ele>853</ele>
        <time>2026-03-21T09:56:35Z</time>
      </trkpt>
      <trkpt lat="48.02547" lon="7.02655">
        <ele>851.6</ele>
        <time>2026-03-21T09:56:40Z</time>
      </trkpt>
      <trkpt lat="48.02541" lon="7.02647">
        <ele>848.8</ele>
        <time>2026-03-21T09:56:45Z</time>
      </trkpt>
      <trkpt lat="48.02538" lon="7.02641">
        <ele>847.4</ele>
        <time>2026-03-21T09:56:50Z</time>
      </trkpt>
      <trkpt lat="48.02536" lon="7.02639">
        <ele>846.4</ele>
        <time>2026-03-21T09:56:55Z</time>
      </trkpt>
      <trkpt lat="48.02533" lon="7.0264">
        <ele>845</ele>
        <time>2026-03-21T09:57:00Z</time>
      </trkpt>
      <trkpt lat="48.02532" lon="7.0264">
        <ele>844.5</ele>
        <time>2026-03-21T09:57:05Z</time>
      </trkpt>
      <trkpt lat="48.02532" lon="7.0264">
        <ele>844.5</ele>
        <time>2026-03-21T09:57:10Z</time>
      </trkpt>
      <trkpt lat="48.02532" lon="7.0264">
        <ele>844.5</ele>
        <time>2026-03-21T09:57:15Z</time>
      </trkpt>
      <trkpt lat="48.02527" lon="7.02625">
        <ele>842.1</ele>
        <time>2026-03-21T09:57:20Z</time>
      </trkpt>
      <trkpt lat="48.02521" lon="7.02622">
        <ele>839.2</ele>
        <time>2026-03-21T09:57:25Z</time>
      </trkpt>
      <trkpt lat="48.02518" lon="7.0262">
        <ele>837.8</ele>
        <time>2026-03-21T09:57:30Z</time>
      </trkpt>
      <trkpt lat="48.02518" lon="7.0262">
        <ele>837.8</ele>
        <time>2026-03-21T09:57:35Z</time>
      </trkpt>
      <trkpt lat="48.02517" lon="7.02626">
        <ele>837.3</ele>
        <time>2026-03-21T09:57:40Z</time>
      </trkpt>
      <trkpt lat="48.02517" lon="7.02626">
        <ele>837.3</ele>
        <time>2026-03-21T09:57:45Z</time>
      </trkpt>
      <trkpt lat="48.02511" lon="7.02626">
        <ele>834.3</ele>
        <time>2026-03-21T09:57:50Z</time>
      </trkpt>
      <trkpt lat="48.02507" lon="7.02618">
        <ele>832.4</ele>
        <time>2026-03-21T09:57:55Z</time>
      </trkpt>
      <trkpt lat="48.02504" lon="7.02612">
        <ele>831</ele>
        <time>2026-03-21T09:58:00Z</time>
      </trkpt>
      <trkpt lat="48.02503" lon="7.02605">
        <ele>830.5</ele>
        <time>2026-03-21T09:58:05Z</time>
      </trkpt>
      <trkpt lat="48.02504" lon="7.02597">
        <ele>831</ele>
        <time>2026-03-21T09:58:10Z</time>
      </trkpt>
      <trkpt lat="48.02505" lon="7.02591">
        <ele>831.5</ele>
        <time>2026-03-21T09:58:15Z</time>
      </trkpt>
      <trkpt lat="48.02504" lon="7.02586">
        <ele>831</ele>
        <time>2026-03-21T09:58:20Z</time>
      </trkpt>
      <trkpt lat="48.02505" lon="7.02579">
        <ele>831.6</ele>
        <time>2026-03-21T09:58:25Z</time>
      </trkpt>
      <trkpt lat="48.02505" lon="7.02574">
        <ele>831.8</ele>
        <time>2026-03-21T09:58:30Z</time>
      </trkpt>
      <trkpt lat="48.02504" lon="7.02567">
        <ele>831.6</ele>
        <time>2026-03-21T09:58:35Z</time>
      </trkpt>
      <trkpt lat="48.02499" lon="7.02559">
        <ele>829.4</ele>
        <time>2026-03-21T09:58:40Z</time>
      </trkpt>
      <trkpt lat="48.02495" lon="7.02559">
        <ele>827.7</ele>
        <time>2026-03-21T09:58:45Z</time>
      </trkpt>
      <trkpt lat="48.02495" lon="7.02568">
        <ele>827.3</ele>
        <time>2026-03-21T09:58:50Z</time>
      </trkpt>
      <trkpt lat="48.02496" lon="7.02579">
        <ele>827.3</ele>
        <time>2026-03-21T09:58:55Z</time>
      </trkpt>
      <trkpt lat="48.02495" lon="7.02587">
        <ele>826.7</ele>
        <time>2026-03-21T09:59:00Z</time>
      </trkpt>
      <trkpt lat="48.02492" lon="7.02592">
        <ele>825.4</ele>
        <time>2026-03-21T09:59:05Z</time>
      </trkpt>
      <trkpt lat="48.02489" lon="7.02594">
        <ele>824.1</ele>
        <time>2026-03-21T09:59:10Z</time>
      </trkpt>
      <trkpt lat="48.02489" lon="7.02593">
        <ele>824</ele>
        <time>2026-03-21T09:59:15Z</time>
      </trkpt>
      <trkpt lat="48.02489" lon="7.02593">
        <ele>824</ele>
        <time>2026-03-21T09:59:20Z</time>
      </trkpt>
      <trkpt lat="48.02489" lon="7.02593">
        <ele>824</ele>
        <time>2026-03-21T09:59:25Z</time>
      </trkpt>
      <trkpt lat="48.02489" lon="7.02593">
        <ele>824</ele>
        <time>2026-03-21T09:59:30Z</time>
      </trkpt>
      <trkpt lat="48.02491" lon="7.0258">
        <ele>825</ele>
        <time>2026-03-21T09:59:35Z</time>
      </trkpt>
      <trkpt lat="48.02491" lon="7.02572">
        <ele>825.4</ele>
        <time>2026-03-21T09:59:40Z</time>
      </trkpt>
      <trkpt lat="48.0249" lon="7.02567">
        <ele>825.1</ele>
        <time>2026-03-21T09:59:45Z</time>
      </trkpt>
      <trkpt lat="48.02488" lon="7.02558">
        <ele>824.7</ele>
        <time>2026-03-21T09:59:50Z</time>
      </trkpt>
      <trkpt lat="48.02489" lon="7.02552">
        <ele>825.4</ele>
        <time>2026-03-21T09:59:55Z</time>
      </trkpt>
      <trkpt lat="48.02489" lon="7.02548">
        <ele>825.5</ele>
        <time>2026-03-21T10:00:00Z</time>
      </trkpt>
      <trkpt lat="48.0249" lon="7.02541">
        <ele>826.3</ele>
        <time>2026-03-21T10:00:05Z</time>
      </trkpt>
      <trkpt lat="48.02488" lon="7.02534">
        <ele>825.7</ele>
        <time>2026-03-21T10:00:10Z</time>
      </trkpt>
      <trkpt lat="48.02488" lon="7.02529">
        <ele>826</ele>
        <time>2026-03-21T10:00:15Z</time>
      </trkpt>
      <trkpt lat="48.0249" lon="7.02525">
        <ele>827</ele>
        <time>2026-03-21T10:00:20Z</time>
      </trkpt>
      <trkpt lat="48.0249" lon="7.02519">
        <ele>827.2</ele>
        <time>2026-03-21T10:00:25Z</time>
      </trkpt>
      <trkpt lat="48.0249" lon="7.02519">
        <ele>827.2</ele>
        <time>2026-03-21T10:00:30Z</time>
      </trkpt>
      <trkpt lat="48.0249" lon="7.02519">
        <ele>827.2</ele>
        <time>2026-03-21T10:00:35Z</time>
      </trkpt>
      <trkpt lat="48.02483" lon="7.02538">
        <ele>823.4</ele>
        <time>2026-03-21T10:00:40Z</time>
      </trkpt>
      <trkpt lat="48.02481" lon="7.02545">
        <ele>822.2</ele>
        <time>2026-03-21T10:00:45Z</time>
      </trkpt>
      <trkpt lat="48.02481" lon="7.02548">
        <ele>822.1</ele>
        <time>2026-03-21T10:00:50Z</time>
      </trkpt>
      <trkpt lat="48.02481" lon="7.02551">
        <ele>821.9</ele>
        <time>2026-03-21T10:00:55Z</time>
      </trkpt>
      <trkpt lat="48.02481" lon="7.02551">
        <ele>821.9</ele>
        <time>2026-03-21T10:01:00Z</time>
      </trkpt>
      <trkpt lat="48.02481" lon="7.02551">
        <ele>821.9</ele>
        <time>2026-03-21T10:01:05Z</time>
      </trkpt>
      <trkpt lat="48.02475" lon="7.02556">
        <ele>819.1</ele>
        <time>2026-03-21T10:01:10Z</time>
      </trkpt>
      <trkpt lat="48.02475" lon="7.02562">
        <ele>818.8</ele>
        <time>2026-03-21T10:01:15Z</time>
      </trkpt>
      <trkpt lat="48.02476" lon="7.0257">
        <ele>818.8</ele>
        <time>2026-03-21T10:01:20Z</time>
      </trkpt>
      <trkpt lat="48.02476" lon="7.02573">
        <ele>818.6</ele>
        <time>2026-03-21T10:01:25Z</time>
      </trkpt>
      <trkpt lat="48.02475" lon="7.02577">
        <ele>817.9</ele>
        <time>2026-03-21T10:01:30Z</time>
      </trkpt>
      <trkpt lat="48.02475" lon="7.02581">
        <ele>817.7</ele>
        <time>2026-03-21T10:01:35Z</time>
      </trkpt>
      <trkpt lat="48.02472" lon="7.02585">
        <ele>816.3</ele>
        <time>2026-03-21T10:01:40Z</time>
      </trkpt>
      <trkpt lat="48.0247" lon="7.02589">
        <ele>815.4</ele>
        <time>2026-03-21T10:01:45Z</time>
      </trkpt>
      <trkpt lat="48.02469" lon="7.02595">
        <ele>815.1</ele>
        <time>2026-03-21T10:01:50Z</time>
      </trkpt>
      <trkpt lat="48.02467" lon="7.02601">
        <ele>814.3</ele>
        <time>2026-03-21T10:01:55Z</time>
      </trkpt>
      <trkpt lat="48.02465" lon="7.02603">
        <ele>813.4</ele>
        <time>2026-03-21T10:02:00Z</time>
      </trkpt>
      <trkpt lat="48.02466" lon="7.02597">
        <ele>813.8</ele>
        <time>2026-03-21T10:02:05Z</time>
      </trkpt>
      <trkpt lat="48.02466" lon="7.02591">
        <ele>813.6</ele>
        <time>2026-03-21T10:02:10Z</time>
      </trkpt>
      <trkpt lat="48.02466" lon="7.02588">
        <ele>813.6</ele>
        <time>2026-03-21T10:02:15Z</time>
      </trkpt>
      <trkpt lat="48.02467" lon="7.02583">
        <ele>814</ele>
        <time>2026-03-21T10:02:20Z</time>
      </trkpt>
      <trkpt lat="48.02467" lon="7.02577">
        <ele>814.3</ele>
        <time>2026-03-21T10:02:25Z</time>
      </trkpt>
      <trkpt lat="48.02467" lon="7.02571">
        <ele>814.7</ele>
        <time>2026-03-21T10:02:30Z</time>
      </trkpt>
      <trkpt lat="48.02466" lon="7.02565">
        <ele>814.6</ele>
        <time>2026-03-21T10:02:35Z</time>
      </trkpt>
      <trkpt lat="48.02465" lon="7.02559">
        <ele>814.5</ele>
        <time>2026-03-21T10:02:40Z</time>
      </trkpt>
      <trkpt lat="48.02462" lon="7.02564">
        <ele>812.9</ele>
        <time>2026-03-21T10:02:45Z</time>
      </trkpt>
      <trkpt lat="48.0246" lon="7.02575">
        <ele>811.3</ele>
        <time>2026-03-21T10:02:50Z</time>
      </trkpt>
      <trkpt lat="48.02456" lon="7.02582">
        <ele>809</ele>
        <time>2026-03-21T10:02:55Z</time>
      </trkpt>
      <trkpt lat="48.02454" lon="7.02589">
        <ele>808.2</ele>
        <time>2026-03-21T10:03:00Z</time>
      </trkpt>
      <trkpt lat="48.02454" lon="7.02596">
        <ele>808.4</ele>
        <time>2026-03-21T10:03:05Z</time>
      </trkpt>
      <trkpt lat="48.02457" lon="7.02598">
        <ele>809.8</ele>
        <time>2026-03-21T10:03:10Z</time>
      </trkpt>
      <trkpt lat="48.02455" lon="7.026">
        <ele>808.9</ele>
        <time>2026-03-21T10:03:15Z</time>
      </trkpt>
      <trkpt lat="48.02455" lon="7.026">
        <ele>808.9</ele>
        <time>2026-03-21T10:03:20Z</time>
      </trkpt>
      <trkpt lat="48.02455" lon="7.026">
        <ele>808.9</ele>
        <time>2026-03-21T10:03:25Z</time>
      </trkpt>
      <trkpt lat="48.02455" lon="7.026">
        <ele>808.9</ele>
        <time>2026-03-21T10:03:30Z</time>
      </trkpt>
      <trkpt lat="48.02448" lon="7.0261">
        <ele>806.1</ele>
        <time>2026-03-21T10:03:35Z</time>
      </trkpt>
      <trkpt lat="48.02448" lon="7.02612">
        <ele>806.1</ele>
        <time>2026-03-21T10:03:40Z</time>
      </trkpt>
      <trkpt lat="48.02448" lon="7.02612">
        <ele>806.1</ele>
        <time>2026-03-21T10:03:45Z</time>
      </trkpt>
      <trkpt lat="48.0245" lon="7.02624">
        <ele>807.4</ele>
        <time>2026-03-21T10:03:50Z</time>
      </trkpt>
      <trkpt lat="48.02451" lon="7.02627">
        <ele>807.9</ele>
        <time>2026-03-21T10:03:55Z</time>
      </trkpt>
      <trkpt lat="48.02454" lon="7.02631">
        <ele>809.3</ele>
        <time>2026-03-21T10:04:00Z</time>
      </trkpt>
      <trkpt lat="48.02457" lon="7.02634">
        <ele>810.6</ele>
        <time>2026-03-21T10:04:05Z</time>
      </trkpt>
      <trkpt lat="48.02459" lon="7.02637">
        <ele>811.6</ele>
        <time>2026-03-21T10:04:10Z</time>
      </trkpt>
      <trkpt lat="48.02459" lon="7.02642">
        <ele>811.7</ele>
        <time>2026-03-21T10:04:15Z</time>
      </trkpt>
      <trkpt lat="48.02457" lon="7.02645">
        <ele>810.9</ele>
        <time>2026-03-21T10:04:20Z</time>
      </trkpt>
      <trkpt lat="48.02451" lon="7.02647">
        <ele>808.5</ele>
        <time>2026-03-21T10:04:25Z</time>
      </trkpt>
      <trkpt lat="48.02449" lon="7.02651">
        <ele>807.7</ele>
        <time>2026-03-21T10:04:30Z</time>
      </trkpt>
      <trkpt lat="48.02448" lon="7.02651">
        <ele>807.3</ele>
        <time>2026-03-21T10:04:35Z</time>
      </trkpt>
      <trkpt lat="48.02448" lon="7.02651">
        <ele>807.3</ele>
        <time>2026-03-21T10:04:40Z</time>
      </trkpt>
      <trkpt lat="48.0245" lon="7.02641">
        <ele>807.9</ele>
        <time>2026-03-21T10:04:45Z</time>
      </trkpt>
      <trkpt lat="48.02449" lon="7.02625">
        <ele>807</ele>
        <time>2026-03-21T10:04:50Z</time>
      </trkpt>
      <trkpt lat="48.02447" lon="7.02617">
        <ele>805.9</ele>
        <time>2026-03-21T10:04:55Z</time>
      </trkpt>
      <trkpt lat="48.02443" lon="7.02612">
        <ele>803.9</ele>
        <time>2026-03-21T10:05:00Z</time>
      </trkpt>
      <trkpt lat="48.02442" lon="7.02605">
        <ele>803.3</ele>
        <time>2026-03-21T10:05:05Z</time>
      </trkpt>
      <trkpt lat="48.02442" lon="7.026">
        <ele>803.1</ele>
        <time>2026-03-21T10:05:10Z</time>
      </trkpt>
      <trkpt lat="48.02444" lon="7.02596">
        <ele>803.9</ele>
        <time>2026-03-21T10:05:15Z</time>
      </trkpt>
      <trkpt lat="48.02446" lon="7.02593">
        <ele>804.7</ele>
        <time>2026-03-21T10:05:20Z</time>
      </trkpt>
      <trkpt lat="48.02445" lon="7.02589">
        <ele>804.1</ele>
        <time>2026-03-21T10:05:25Z</time>
      </trkpt>
      <trkpt lat="48.02443" lon="7.02579">
        <ele>803.3</ele>
        <time>2026-03-21T10:05:30Z</time>
      </trkpt>
      <trkpt lat="48.0244" lon="7.02571">
        <ele>802.6</ele>
        <time>2026-03-21T10:05:35Z</time>
      </trkpt>
      <trkpt lat="48.0244" lon="7.02567">
        <ele>802.9</ele>
        <time>2026-03-21T10:05:40Z</time>
      </trkpt>
      <trkpt lat="48.0244" lon="7.02562">
        <ele>803.3</ele>
        <time>2026-03-21T10:05:45Z</time>
      </trkpt>
      <trkpt lat="48.0244" lon="7.02558">
        <ele>803.6</ele>
        <time>2026-03-21T10:05:50Z</time>
      </trkpt>
      <trkpt lat="48.0244" lon="7.02551">
        <ele>804.2</ele>
        <time>2026-03-21T10:05:55Z</time>
      </trkpt>
      <trkpt lat="48.02438" lon="7.02545">
        <ele>803.8</ele>
        <time>2026-03-21T10:06:00Z</time>
      </trkpt>
      <trkpt lat="48.02437" lon="7.02539">
        <ele>803.9</ele>
        <time>2026-03-21T10:06:05Z</time>
      </trkpt>
      <trkpt lat="48.02435" lon="7.02534">
        <ele>803.4</ele>
        <time>2026-03-21T10:06:10Z</time>
      </trkpt>
      <trkpt lat="48.02434" lon="7.02529">
        <ele>803.4</ele>
        <time>2026-03-21T10:06:15Z</time>
      </trkpt>
      <trkpt lat="48.02429" lon="7.02518">
        <ele>802.3</ele>
        <time>2026-03-21T10:06:20Z</time>
      </trkpt>
      <trkpt lat="48.02429" lon="7.0251">
        <ele>803</ele>
        <time>2026-03-21T10:06:25Z</time>
      </trkpt>
      <trkpt lat="48.02427" lon="7.02504">
        <ele>802.7</ele>
        <time>2026-03-21T10:06:30Z</time>
      </trkpt>
      <trkpt lat="48.02427" lon="7.02503">
        <ele>802.8</ele>
        <time>2026-03-21T10:06:35Z</time>
      </trkpt>
      <trkpt lat="48.02429" lon="7.02504">
        <ele>803.5</ele>
        <time>2026-03-21T10:06:40Z</time>
      </trkpt>
      <trkpt lat="48.02429" lon="7.02504">
        <ele>803.5</ele>
        <time>2026-03-21T10:06:45Z</time>
      </trkpt>
      <trkpt lat="48.02424" lon="7.02512">
        <ele>800.8</ele>
        <time>2026-03-21T10:06:50Z</time>
      </trkpt>
      <trkpt lat="48.02424" lon="7.02523">
        <ele>799.8</ele>
        <time>2026-03-21T10:06:55Z</time>
      </trkpt>
      <trkpt lat="48.02425" lon="7.02532">
        <ele>799.4</ele>
        <time>2026-03-21T10:07:00Z</time>
      </trkpt>
      <trkpt lat="48.0242" lon="7.02532">
        <ele>797.3</ele>
        <time>2026-03-21T10:07:05Z</time>
      </trkpt>
      <trkpt lat="48.0242" lon="7.02531">
        <ele>797.4</ele>
        <time>2026-03-21T10:07:10Z</time>
      </trkpt>
      <trkpt lat="48.0242" lon="7.02522">
        <ele>798.3</ele>
        <time>2026-03-21T10:07:15Z</time>
      </trkpt>
      <trkpt lat="48.0242" lon="7.02522">
        <ele>798.3</ele>
        <time>2026-03-21T10:07:20Z</time>
      </trkpt>
      <trkpt lat="48.02415" lon="7.02511">
        <ele>797.8</ele>
        <time>2026-03-21T10:07:25Z</time>
      </trkpt>
      <trkpt lat="48.02412" lon="7.02506">
        <ele>798.2</ele>
        <time>2026-03-21T10:07:30Z</time>
      </trkpt>
      <trkpt lat="48.0241" lon="7.02501">
        <ele>798.6</ele>
        <time>2026-03-21T10:07:35Z</time>
      </trkpt>
      <trkpt lat="48.02407" lon="7.02493">
        <ele>799.3</ele>
        <time>2026-03-21T10:07:40Z</time>
      </trkpt>
      <trkpt lat="48.02404" lon="7.02488">
        <ele>799.8</ele>
        <time>2026-03-21T10:07:45Z</time>
      </trkpt>
      <trkpt lat="48.02404" lon="7.02481">
        <ele>800.5</ele>
        <time>2026-03-21T10:07:50Z</time>
      </trkpt>
      <trkpt lat="48.02402" lon="7.02477">
        <ele>801</ele>
        <time>2026-03-21T10:07:55Z</time>
      </trkpt>
      <trkpt lat="48.024" lon="7.02474">
        <ele>801.4</ele>
        <time>2026-03-21T10:08:00Z</time>
      </trkpt>
      <trkpt lat="48.02396" lon="7.02473">
        <ele>801.6</ele>
        <time>2026-03-21T10:08:05Z</time>
      </trkpt>
      <trkpt lat="48.02394" lon="7.02472">
        <ele>801.7</ele>
        <time>2026-03-21T10:08:10Z</time>
      </trkpt>
      <trkpt lat="48.0239" lon="7.0247">
        <ele>802.1</ele>
        <time>2026-03-21T10:08:15Z</time>
      </trkpt>
      <trkpt lat="48.02387" lon="7.02465">
        <ele>802.9</ele>
        <time>2026-03-21T10:08:20Z</time>
      </trkpt>
      <trkpt lat="48.02384" lon="7.02459">
        <ele>804</ele>
        <time>2026-03-21T10:08:25Z</time>
      </trkpt>
      <trkpt lat="48.02383" lon="7.02453">
        <ele>805</ele>
        <time>2026-03-21T10:08:30Z</time>
      </trkpt>
      <trkpt lat="48.02381" lon="7.02448">
        <ele>805.9</ele>
        <time>2026-03-21T10:08:35Z</time>
      </trkpt>
      <trkpt lat="48.02381" lon="7.02445">
        <ele>806.4</ele>
        <time>2026-03-21T10:08:40Z</time>
      </trkpt>
      <trkpt lat="48.02382" lon="7.02444">
        <ele>806.5</ele>
        <time>2026-03-21T10:08:45Z</time>
      </trkpt>
      <trkpt lat="48.02387" lon="7.02443">
        <ele>806.3</ele>
        <time>2026-03-21T10:08:50Z</time>
      </trkpt>
      <trkpt lat="48.02387" lon="7.02438">
        <ele>807</ele>
        <time>2026-03-21T10:08:55Z</time>
      </trkpt>
      <trkpt lat="48.02387" lon="7.02434">
        <ele>807.6</ele>
        <time>2026-03-21T10:09:00Z</time>
      </trkpt>
      <trkpt lat="48.02386" lon="7.0243">
        <ele>808.4</ele>
        <time>2026-03-21T10:09:05Z</time>
      </trkpt>
      <trkpt lat="48.02384" lon="7.02426">
        <ele>809.2</ele>
        <time>2026-03-21T10:09:10Z</time>
      </trkpt>
      <trkpt lat="48.02384" lon="7.02426">
        <ele>809.2</ele>
        <time>2026-03-21T10:09:15Z</time>
      </trkpt>
      <trkpt lat="48.02384" lon="7.02426">
        <ele>809.2</ele>
        <time>2026-03-21T10:09:20Z</time>
      </trkpt>
      <trkpt lat="48.02374" lon="7.02423">
        <ele>811</ele>
        <time>2026-03-21T10:09:25Z</time>
      </trkpt>
      <trkpt lat="48.0237" lon="7.02418">
        <ele>812.5</ele>
        <time>2026-03-21T10:09:30Z</time>
      </trkpt>
      <trkpt lat="48.02368" lon="7.0241">
        <ele>815.6</ele>
        <time>2026-03-21T10:09:35Z</time>
      </trkpt>
      <trkpt lat="48.02368" lon="7.024">
        <ele>819.5</ele>
        <time>2026-03-21T10:09:40Z</time>
      </trkpt>
      <trkpt lat="48.02365" lon="7.02393">
        <ele>823</ele>
        <time>2026-03-21T10:09:45Z</time>
      </trkpt>
      <trkpt lat="48.02363" lon="7.02385">
        <ele>826.9</ele>
        <time>2026-03-21T10:09:50Z</time>
      </trkpt>
      <trkpt lat="48.02359" lon="7.02379">
        <ele>830.7</ele>
        <time>2026-03-21T10:09:55Z</time>
      </trkpt>
      <trkpt lat="48.02358" lon="7.02377">
        <ele>831.9</ele>
        <time>2026-03-21T10:10:00Z</time>
      </trkpt>
      <trkpt lat="48.02363" lon="7.02375">
        <ele>831</ele>
        <time>2026-03-21T10:10:05Z</time>
      </trkpt>
      <trkpt lat="48.02371" lon="7.02371">
        <ele>829.7</ele>
        <time>2026-03-21T10:10:10Z</time>
      </trkpt>
      <trkpt lat="48.02366" lon="7.02366">
        <ele>833.5</ele>
        <time>2026-03-21T10:10:15Z</time>
      </trkpt>
      <trkpt lat="48.02359" lon="7.02371">
        <ele>834.2</ele>
        <time>2026-03-21T10:10:20Z</time>
      </trkpt>
      <trkpt lat="48.02357" lon="7.02369">
        <ele>835.8</ele>
        <time>2026-03-21T10:10:25Z</time>
      </trkpt>
      <trkpt lat="48.02357" lon="7.02369">
        <ele>835.8</ele>
        <time>2026-03-21T10:10:30Z</time>
      </trkpt>
      <trkpt lat="48.02357" lon="7.02369">
        <ele>835.8</ele>
        <time>2026-03-21T10:10:35Z</time>
      </trkpt>
      <trkpt lat="48.02357" lon="7.02369">
        <ele>835.8</ele>
        <time>2026-03-21T10:10:40Z</time>
      </trkpt>
      <trkpt lat="48.02357" lon="7.02369">
        <ele>835.8</ele>
        <time>2026-03-21T10:10:45Z</time>
      </trkpt>
      <trkpt lat="48.02357" lon="7.02369">
        <ele>835.8</ele>
        <time>2026-03-21T10:10:50Z</time>
      </trkpt>
      <trkpt lat="48.02357" lon="7.02369">
        <ele>835.8</ele>
        <time>2026-03-21T10:10:55Z</time>
      </trkpt>
      <trkpt lat="48.02357" lon="7.02369">
        <ele>835.8</ele>
        <time>2026-03-21T10:11:00Z</time>
      </trkpt>
      <trkpt lat="48.02357" lon="7.02369">
        <ele>835.8</ele>
        <time>2026-03-21T10:11:05Z</time>
      </trkpt>
      <trkpt lat="48.02357" lon="7.02369">
        <ele>835.8</ele>
        <time>2026-03-21T10:11:10Z</time>
      </trkpt>
      <trkpt lat="48.02357" lon="7.02369">
        <ele>835.8</ele>
        <time>2026-03-21T10:11:15Z</time>
      </trkpt>
      <trkpt lat="48.02357" lon="7.02369">
        <ele>835.8</ele>
        <time>2026-03-21T10:11:20Z</time>
      </trkpt>
      <trkpt lat="48.02357" lon="7.02369">
        <ele>835.8</ele>
        <time>2026-03-21T10:11:25Z</time>
      </trkpt>
      <trkpt lat="48.02357" lon="7.02369">
        <ele>835.8</ele>
        <time>2026-03-21T10:11:30Z</time>
      </trkpt>
      <trkpt lat="48.02348" lon="7.02382">
        <ele>832.9</ele>
        <time>2026-03-21T10:11:35Z</time>
      </trkpt>
      <trkpt lat="48.02342" lon="7.02383">
        <ele>834.3</ele>
        <time>2026-03-21T10:11:40Z</time>
      </trkpt>
      <trkpt lat="48.02337" lon="7.0238">
        <ele>837.5</ele>
        <time>2026-03-21T10:11:45Z</time>
      </trkpt>
      <trkpt lat="48.02337" lon="7.02377">
        <ele>839.1</ele>
        <time>2026-03-21T10:11:50Z</time>
      </trkpt>
      <trkpt lat="48.02337" lon="7.02377">
        <ele>839.1</ele>
        <time>2026-03-21T10:11:55Z</time>
      </trkpt>
      <trkpt lat="48.02337" lon="7.02377">
        <ele>839.1</ele>
        <time>2026-03-21T10:12:00Z</time>
      </trkpt>
      <trkpt lat="48.02337" lon="7.02377">
        <ele>839.1</ele>
        <time>2026-03-21T10:12:05Z</time>
      </trkpt>
      <trkpt lat="48.02337" lon="7.02377">
        <ele>839.1</ele>
        <time>2026-03-21T10:12:10Z</time>
      </trkpt>
      <trkpt lat="48.02337" lon="7.02377">
        <ele>839.1</ele>
        <time>2026-03-21T10:12:15Z</time>
      </trkpt>
      <trkpt lat="48.02337" lon="7.02377">
        <ele>839.1</ele>
        <time>2026-03-21T10:12:20Z</time>
      </trkpt>
      <trkpt lat="48.02337" lon="7.02377">
        <ele>839.1</ele>
        <time>2026-03-21T10:12:25Z</time>
      </trkpt>
      <trkpt lat="48.02337" lon="7.02377">
        <ele>839.1</ele>
        <time>2026-03-21T10:12:30Z</time>
      </trkpt>
      <trkpt lat="48.02337" lon="7.02377">
        <ele>839.1</ele>
        <time>2026-03-21T10:12:35Z</time>
      </trkpt>
      <trkpt lat="48.02337" lon="7.02377">
        <ele>839.1</ele>
        <time>2026-03-21T10:12:40Z</time>
      </trkpt>
      <trkpt lat="48.02337" lon="7.02377">
        <ele>839.1</ele>
        <time>2026-03-21T10:12:45Z</time>
      </trkpt>
      <trkpt lat="48.02337" lon="7.02377">
        <ele>839.1</ele>
        <time>2026-03-21T10:12:50Z</time>
      </trkpt>
      <trkpt lat="48.02337" lon="7.02377">
        <ele>839.1</ele>
        <time>2026-03-21T10:12:55Z</time>
      </trkpt>
      <trkpt lat="48.02337" lon="7.02377">
        <ele>839.1</ele>
        <time>2026-03-21T10:13:00Z</time>
      </trkpt>
      <trkpt lat="48.02338" lon="7.02388">
        <ele>832.8</ele>
        <time>2026-03-21T10:13:05Z</time>
      </trkpt>
      <trkpt lat="48.02338" lon="7.02397">
        <ele>828</ele>
        <time>2026-03-21T10:13:10Z</time>
      </trkpt>
      <trkpt lat="48.02341" lon="7.02407">
        <ele>822</ele>
        <time>2026-03-21T10:13:15Z</time>
      </trkpt>
      <trkpt lat="48.02346" lon="7.02414">
        <ele>817.5</ele>
        <time>2026-03-21T10:13:20Z</time>
      </trkpt>
      <trkpt lat="48.0235" lon="7.02421">
        <ele>814.6</ele>
        <time>2026-03-21T10:13:25Z</time>
      </trkpt>
      <trkpt lat="48.02352" lon="7.0243">
        <ele>812.2</ele>
        <time>2026-03-21T10:13:30Z</time>
      </trkpt>
      <trkpt lat="48.02354" lon="7.02436">
        <ele>810.6</ele>
        <time>2026-03-21T10:13:35Z</time>
      </trkpt>
      <trkpt lat="48.02355" lon="7.02448">
        <ele>807.8</ele>
        <time>2026-03-21T10:13:40Z</time>
      </trkpt>
      <trkpt lat="48.02354" lon="7.02457">
        <ele>805.8</ele>
        <time>2026-03-21T10:13:45Z</time>
      </trkpt>
      <trkpt lat="48.02352" lon="7.02458">
        <ele>805.7</ele>
        <time>2026-03-21T10:13:50Z</time>
      </trkpt>
      <trkpt lat="48.02346" lon="7.02462">
        <ele>805</ele>
        <time>2026-03-21T10:13:55Z</time>
      </trkpt>
      <trkpt lat="48.02344" lon="7.02468">
        <ele>803.6</ele>
        <time>2026-03-21T10:14:00Z</time>
      </trkpt>
      <trkpt lat="48.02347" lon="7.02478">
        <ele>801</ele>
        <time>2026-03-21T10:14:05Z</time>
      </trkpt>
      <trkpt lat="48.02353" lon="7.02486">
        <ele>799.2</ele>
        <time>2026-03-21T10:14:10Z</time>
      </trkpt>
      <trkpt lat="48.02355" lon="7.02492">
        <ele>797.8</ele>
        <time>2026-03-21T10:14:15Z</time>
      </trkpt>
      <trkpt lat="48.02354" lon="7.025">
        <ele>796</ele>
        <time>2026-03-21T10:14:20Z</time>
      </trkpt>
      <trkpt lat="48.02354" lon="7.02509">
        <ele>794.5</ele>
        <time>2026-03-21T10:14:25Z</time>
      </trkpt>
      <trkpt lat="48.02356" lon="7.02518">
        <ele>793.1</ele>
        <time>2026-03-21T10:14:30Z</time>
      </trkpt>
      <trkpt lat="48.02359" lon="7.02529">
        <ele>791.5</ele>
        <time>2026-03-21T10:14:35Z</time>
      </trkpt>
      <trkpt lat="48.02363" lon="7.0254">
        <ele>790.1</ele>
        <time>2026-03-21T10:14:40Z</time>
      </trkpt>
      <trkpt lat="48.02365" lon="7.02551">
        <ele>788.6</ele>
        <time>2026-03-21T10:14:45Z</time>
      </trkpt>
      <trkpt lat="48.02366" lon="7.0256">
        <ele>787.3</ele>
        <time>2026-03-21T10:14:50Z</time>
      </trkpt>
      <trkpt lat="48.02366" lon="7.02571">
        <ele>785.6</ele>
        <time>2026-03-21T10:14:55Z</time>
      </trkpt>
      <trkpt lat="48.02368" lon="7.02574">
        <ele>785.4</ele>
        <time>2026-03-21T10:15:00Z</time>
      </trkpt>
      <trkpt lat="48.02375" lon="7.02581">
        <ele>785.3</ele>
        <time>2026-03-21T10:15:05Z</time>
      </trkpt>
      <trkpt lat="48.02372" lon="7.02589">
        <ele>784.6</ele>
        <time>2026-03-21T10:15:10Z</time>
      </trkpt>
      <trkpt lat="48.02367" lon="7.02596">
        <ele>783.8</ele>
        <time>2026-03-21T10:15:15Z</time>
      </trkpt>
      <trkpt lat="48.0236" lon="7.02603">
        <ele>782.7</ele>
        <time>2026-03-21T10:15:20Z</time>
      </trkpt>
      <trkpt lat="48.02354" lon="7.02605">
        <ele>781.6</ele>
        <time>2026-03-21T10:15:25Z</time>
      </trkpt>
      <trkpt lat="48.02351" lon="7.02602">
        <ele>781.2</ele>
        <time>2026-03-21T10:15:30Z</time>
      </trkpt>
      <trkpt lat="48.02351" lon="7.02602">
        <ele>781.2</ele>
        <time>2026-03-21T10:15:35Z</time>
      </trkpt>
      <trkpt lat="48.02351" lon="7.02602">
        <ele>781.2</ele>
        <time>2026-03-21T10:15:40Z</time>
      </trkpt>
      <trkpt lat="48.02351" lon="7.02602">
        <ele>781.2</ele>
        <time>2026-03-21T10:15:45Z</time>
      </trkpt>
      <trkpt lat="48.02351" lon="7.02602">
        <ele>781.2</ele>
        <time>2026-03-21T10:15:50Z</time>
      </trkpt>
      <trkpt lat="48.02355" lon="7.0261">
        <ele>781.7</ele>
        <time>2026-03-21T10:15:55Z</time>
      </trkpt>
      <trkpt lat="48.02351" lon="7.0262">
        <ele>780.9</ele>
        <time>2026-03-21T10:16:00Z</time>
      </trkpt>
      <trkpt lat="48.02351" lon="7.02625">
        <ele>780.8</ele>
        <time>2026-03-21T10:16:05Z</time>
      </trkpt>
      <trkpt lat="48.02352" lon="7.02627">
        <ele>780.9</ele>
        <time>2026-03-21T10:16:10Z</time>
      </trkpt>
      <trkpt lat="48.02352" lon="7.02627">
        <ele>780.9</ele>
        <time>2026-03-21T10:16:15Z</time>
      </trkpt>
      <trkpt lat="48.02352" lon="7.02627">
        <ele>780.9</ele>
        <time>2026-03-21T10:16:20Z</time>
      </trkpt>
      <trkpt lat="48.02352" lon="7.02627">
        <ele>780.9</ele>
        <time>2026-03-21T10:16:25Z</time>
      </trkpt>
      <trkpt lat="48.0235" lon="7.02641">
        <ele>780.3</ele>
        <time>2026-03-21T10:16:30Z</time>
      </trkpt>
      <trkpt lat="48.02343" lon="7.02652">
        <ele>778.6</ele>
        <time>2026-03-21T10:16:35Z</time>
      </trkpt>
      <trkpt lat="48.02338" lon="7.02659">
        <ele>777.3</ele>
        <time>2026-03-21T10:16:40Z</time>
      </trkpt>
      <trkpt lat="48.02335" lon="7.02664">
        <ele>776.5</ele>
        <time>2026-03-21T10:16:45Z</time>
      </trkpt>
      <trkpt lat="48.02331" lon="7.02671">
        <ele>775.6</ele>
        <time>2026-03-21T10:16:50Z</time>
      </trkpt>
      <trkpt lat="48.02328" lon="7.02679">
        <ele>774.9</ele>
        <time>2026-03-21T10:16:55Z</time>
      </trkpt>
      <trkpt lat="48.02324" lon="7.0269">
        <ele>773.6</ele>
        <time>2026-03-21T10:17:00Z</time>
      </trkpt>
      <trkpt lat="48.02319" lon="7.02695">
        <ele>772.9</ele>
        <time>2026-03-21T10:17:05Z</time>
      </trkpt>
      <trkpt lat="48.02311" lon="7.02694">
        <ele>772.9</ele>
        <time>2026-03-21T10:17:10Z</time>
      </trkpt>
      <trkpt lat="48.02306" lon="7.0269">
        <ele>773.4</ele>
        <time>2026-03-21T10:17:15Z</time>
      </trkpt>
      <trkpt lat="48.02303" lon="7.0268">
        <ele>774.9</ele>
        <time>2026-03-21T10:17:20Z</time>
      </trkpt>
      <trkpt lat="48.023" lon="7.02673">
        <ele>776.1</ele>
        <time>2026-03-21T10:17:25Z</time>
      </trkpt>
      <trkpt lat="48.02297" lon="7.02677">
        <ele>775.5</ele>
        <time>2026-03-21T10:17:30Z</time>
      </trkpt>
      <trkpt lat="48.02292" lon="7.02685">
        <ele>774.1</ele>
        <time>2026-03-21T10:17:35Z</time>
      </trkpt>
      <trkpt lat="48.02289" lon="7.02695">
        <ele>772.2</ele>
        <time>2026-03-21T10:17:40Z</time>
      </trkpt>
      <trkpt lat="48.02286" lon="7.027">
        <ele>771.1</ele>
        <time>2026-03-21T10:17:45Z</time>
      </trkpt>
      <trkpt lat="48.02282" lon="7.02705">
        <ele>769.9</ele>
        <time>2026-03-21T10:17:50Z</time>
      </trkpt>
      <trkpt lat="48.02278" lon="7.02711">
        <ele>768.4</ele>
        <time>2026-03-21T10:17:55Z</time>
      </trkpt>
      <trkpt lat="48.02272" lon="7.02712">
        <ele>767.9</ele>
        <time>2026-03-21T10:18:00Z</time>
      </trkpt>
      <trkpt lat="48.02268" lon="7.02706">
        <ele>769</ele>
        <time>2026-03-21T10:18:05Z</time>
      </trkpt>
      <trkpt lat="48.02267" lon="7.027">
        <ele>770.4</ele>
        <time>2026-03-21T10:18:10Z</time>
      </trkpt>
      <trkpt lat="48.02266" lon="7.027">
        <ele>770.4</ele>
        <time>2026-03-21T10:18:15Z</time>
      </trkpt>
      <trkpt lat="48.02266" lon="7.027">
        <ele>770.4</ele>
        <time>2026-03-21T10:18:20Z</time>
      </trkpt>
      <trkpt lat="48.02266" lon="7.027">
        <ele>770.4</ele>
        <time>2026-03-21T10:18:25Z</time>
      </trkpt>
      <trkpt lat="48.02266" lon="7.027">
        <ele>770.4</ele>
        <time>2026-03-21T10:18:30Z</time>
      </trkpt>
      <trkpt lat="48.02266" lon="7.027">
        <ele>770.4</ele>
        <time>2026-03-21T10:18:35Z</time>
      </trkpt>
      <trkpt lat="48.02266" lon="7.027">
        <ele>770.4</ele>
        <time>2026-03-21T10:18:40Z</time>
      </trkpt>
      <trkpt lat="48.0228" lon="7.02696">
        <ele>771.7</ele>
        <time>2026-03-21T10:18:45Z</time>
      </trkpt>
      <trkpt lat="48.02284" lon="7.02694">
        <ele>772.2</ele>
        <time>2026-03-21T10:18:50Z</time>
      </trkpt>
      <trkpt lat="48.02284" lon="7.02694">
        <ele>772.2</ele>
        <time>2026-03-21T10:18:55Z</time>
      </trkpt>
      <trkpt lat="48.02284" lon="7.02694">
        <ele>772.2</ele>
        <time>2026-03-21T10:19:00Z</time>
      </trkpt>
      <trkpt lat="48.02284" lon="7.02694">
        <ele>772.2</ele>
        <time>2026-03-21T10:19:05Z</time>
      </trkpt>
      <trkpt lat="48.02284" lon="7.02694">
        <ele>772.2</ele>
        <time>2026-03-21T10:19:10Z</time>
      </trkpt>
      <trkpt lat="48.02284" lon="7.02694">
        <ele>772.2</ele>
        <time>2026-03-21T10:19:15Z</time>
      </trkpt>
      <trkpt lat="48.02284" lon="7.02694">
        <ele>772.2</ele>
        <time>2026-03-21T10:19:20Z</time>
      </trkpt>
      <trkpt lat="48.02284" lon="7.02694">
        <ele>772.2</ele>
        <time>2026-03-21T10:19:25Z</time>
      </trkpt>
      <trkpt lat="48.02273" lon="7.02692">
        <ele>772.4</ele>
        <time>2026-03-21T10:19:30Z</time>
      </trkpt>
      <trkpt lat="48.0227" lon="7.02693">
        <ele>772.1</ele>
        <time>2026-03-21T10:19:35Z</time>
      </trkpt>
      <trkpt lat="48.0227" lon="7.02693">
        <ele>772.1</ele>
        <time>2026-03-21T10:19:40Z</time>
      </trkpt>
      <trkpt lat="48.02272" lon="7.02694">
        <ele>772</ele>
        <time>2026-03-21T10:19:45Z</time>
      </trkpt>
      <trkpt lat="48.02272" lon="7.02694">
        <ele>772</ele>
        <time>2026-03-21T10:19:50Z</time>
      </trkpt>
      <trkpt lat="48.02271" lon="7.02702">
        <ele>770.1</ele>
        <time>2026-03-21T10:19:55Z</time>
      </trkpt>
      <trkpt lat="48.02276" lon="7.02708">
        <ele>769</ele>
        <time>2026-03-21T10:20:00Z</time>
      </trkpt>
      <trkpt lat="48.02274" lon="7.02712">
        <ele>768</ele>
        <time>2026-03-21T10:20:05Z</time>
      </trkpt>
      <trkpt lat="48.0227" lon="7.02716">
        <ele>766.8</ele>
        <time>2026-03-21T10:20:10Z</time>
      </trkpt>
      <trkpt lat="48.02264" lon="7.02723">
        <ele>764.7</ele>
        <time>2026-03-21T10:20:15Z</time>
      </trkpt>
      <trkpt lat="48.02261" lon="7.0273">
        <ele>762.6</ele>
        <time>2026-03-21T10:20:20Z</time>
      </trkpt>
      <trkpt lat="48.02257" lon="7.02731">
        <ele>762</ele>
        <time>2026-03-21T10:20:25Z</time>
      </trkpt>
      <trkpt lat="48.02254" lon="7.02725">
        <ele>763.3</ele>
        <time>2026-03-21T10:20:30Z</time>
      </trkpt>
      <trkpt lat="48.02255" lon="7.02716">
        <ele>765.7</ele>
        <time>2026-03-21T10:20:35Z</time>
      </trkpt>
      <trkpt lat="48.02256" lon="7.02714">
        <ele>766.3</ele>
        <time>2026-03-21T10:20:40Z</time>
      </trkpt>
      <trkpt lat="48.02256" lon="7.02714">
        <ele>766.3</ele>
        <time>2026-03-21T10:20:45Z</time>
      </trkpt>
      <trkpt lat="48.02256" lon="7.02714">
        <ele>766.3</ele>
        <time>2026-03-21T10:20:50Z</time>
      </trkpt>
      <trkpt lat="48.02256" lon="7.02714">
        <ele>766.3</ele>
        <time>2026-03-21T10:20:55Z</time>
      </trkpt>
      <trkpt lat="48.02258" lon="7.02729">
        <ele>762.6</ele>
        <time>2026-03-21T10:21:00Z</time>
      </trkpt>
      <trkpt lat="48.02262" lon="7.02731">
        <ele>762.5</ele>
        <time>2026-03-21T10:21:05Z</time>
      </trkpt>
      <trkpt lat="48.02267" lon="7.02728">
        <ele>763.7</ele>
        <time>2026-03-21T10:21:10Z</time>
      </trkpt>
      <trkpt lat="48.02269" lon="7.02724">
        <ele>764.8</ele>
        <time>2026-03-21T10:21:15Z</time>
      </trkpt>
      <trkpt lat="48.02272" lon="7.02724">
        <ele>765.1</ele>
        <time>2026-03-21T10:21:20Z</time>
      </trkpt>
      <trkpt lat="48.02277" lon="7.02725">
        <ele>765.3</ele>
        <time>2026-03-21T10:21:25Z</time>
      </trkpt>
      <trkpt lat="48.02278" lon="7.02731">
        <ele>764.1</ele>
        <time>2026-03-21T10:21:30Z</time>
      </trkpt>
      <trkpt lat="48.02279" lon="7.02738">
        <ele>762.7</ele>
        <time>2026-03-21T10:21:35Z</time>
      </trkpt>
      <trkpt lat="48.02275" lon="7.02747">
        <ele>760.3</ele>
        <time>2026-03-21T10:21:40Z</time>
      </trkpt>
      <trkpt lat="48.02273" lon="7.02755">
        <ele>758</ele>
        <time>2026-03-21T10:21:45Z</time>
      </trkpt>
      <trkpt lat="48.02273" lon="7.02755">
        <ele>758</ele>
        <time>2026-03-21T10:21:50Z</time>
      </trkpt>
      <trkpt lat="48.02274" lon="7.02756">
        <ele>757.9</ele>
        <time>2026-03-21T10:21:55Z</time>
      </trkpt>
      <trkpt lat="48.02276" lon="7.02765">
        <ele>756</ele>
        <time>2026-03-21T10:22:00Z</time>
      </trkpt>
      <trkpt lat="48.02273" lon="7.02769">
        <ele>754.4</ele>
        <time>2026-03-21T10:22:05Z</time>
      </trkpt>
      <trkpt lat="48.02272" lon="7.02774">
        <ele>752.9</ele>
        <time>2026-03-21T10:22:10Z</time>
      </trkpt>
      <trkpt lat="48.02272" lon="7.0278">
        <ele>751.3</ele>
        <time>2026-03-21T10:22:15Z</time>
      </trkpt>
      <trkpt lat="48.02273" lon="7.02786">
        <ele>750</ele>
        <time>2026-03-21T10:22:20Z</time>
      </trkpt>
      <trkpt lat="48.02274" lon="7.0279">
        <ele>749.3</ele>
        <time>2026-03-21T10:22:25Z</time>
      </trkpt>
      <trkpt lat="48.02269" lon="7.02792">
        <ele>747.2</ele>
        <time>2026-03-21T10:22:30Z</time>
      </trkpt>
      <trkpt lat="48.02263" lon="7.0279">
        <ele>746</ele>
        <time>2026-03-21T10:22:35Z</time>
      </trkpt>
      <trkpt lat="48.0226" lon="7.0279">
        <ele>745.1</ele>
        <time>2026-03-21T10:22:40Z</time>
      </trkpt>
      <trkpt lat="48.02258" lon="7.02793">
        <ele>743.5</ele>
        <time>2026-03-21T10:22:45Z</time>
      </trkpt>
      <trkpt lat="48.02255" lon="7.02795">
        <ele>741.9</ele>
        <time>2026-03-21T10:22:50Z</time>
      </trkpt>
      <trkpt lat="48.02255" lon="7.02796">
        <ele>741.6</ele>
        <time>2026-03-21T10:22:55Z</time>
      </trkpt>
      <trkpt lat="48.02255" lon="7.02796">
        <ele>741.6</ele>
        <time>2026-03-21T10:23:00Z</time>
      </trkpt>
      <trkpt lat="48.02255" lon="7.02796">
        <ele>741.6</ele>
        <time>2026-03-21T10:23:05Z</time>
      </trkpt>
      <trkpt lat="48.02255" lon="7.02796">
        <ele>741.6</ele>
        <time>2026-03-21T10:23:10Z</time>
      </trkpt>
      <trkpt lat="48.02255" lon="7.02796">
        <ele>741.6</ele>
        <time>2026-03-21T10:23:15Z</time>
      </trkpt>
      <trkpt lat="48.02255" lon="7.02796">
        <ele>741.6</ele>
        <time>2026-03-21T10:23:20Z</time>
      </trkpt>
      <trkpt lat="48.02255" lon="7.02796">
        <ele>741.6</ele>
        <time>2026-03-21T10:23:25Z</time>
      </trkpt>
      <trkpt lat="48.02255" lon="7.02796">
        <ele>741.6</ele>
        <time>2026-03-21T10:23:30Z</time>
      </trkpt>
      <trkpt lat="48.02255" lon="7.02796">
        <ele>741.6</ele>
        <time>2026-03-21T10:23:35Z</time>
      </trkpt>
      <trkpt lat="48.02255" lon="7.02796">
        <ele>741.6</ele>
        <time>2026-03-21T10:23:40Z</time>
      </trkpt>
      <trkpt lat="48.02255" lon="7.02796">
        <ele>741.6</ele>
        <time>2026-03-21T10:23:45Z</time>
      </trkpt>
      <trkpt lat="48.02243" lon="7.02797">
        <ele>738.3</ele>
        <time>2026-03-21T10:23:50Z</time>
      </trkpt>
      <trkpt lat="48.02241" lon="7.02788">
        <ele>741.3</ele>
        <time>2026-03-21T10:23:55Z</time>
      </trkpt>
      <trkpt lat="48.02237" lon="7.02779">
        <ele>744.2</ele>
        <time>2026-03-21T10:24:00Z</time>
      </trkpt>
      <trkpt lat="48.02237" lon="7.02774">
        <ele>746.1</ele>
        <time>2026-03-21T10:24:05Z</time>
      </trkpt>
      <trkpt lat="48.02239" lon="7.0277">
        <ele>747.9</ele>
        <time>2026-03-21T10:24:10Z</time>
      </trkpt>
      <trkpt lat="48.02244" lon="7.02784">
        <ele>743.3</ele>
        <time>2026-03-21T10:24:15Z</time>
      </trkpt>
      <trkpt lat="48.02247" lon="7.02796">
        <ele>739.4</ele>
        <time>2026-03-21T10:24:20Z</time>
      </trkpt>
      <trkpt lat="48.02247" lon="7.02796">
        <ele>739.4</ele>
        <time>2026-03-21T10:24:25Z</time>
      </trkpt>
      <trkpt lat="48.02247" lon="7.02796">
        <ele>739.4</ele>
        <time>2026-03-21T10:24:30Z</time>
      </trkpt>
      <trkpt lat="48.02247" lon="7.02796">
        <ele>739.4</ele>
        <time>2026-03-21T10:24:35Z</time>
      </trkpt>
      <trkpt lat="48.02247" lon="7.02796">
        <ele>739.4</ele>
        <time>2026-03-21T10:24:40Z</time>
      </trkpt>
      <trkpt lat="48.02247" lon="7.02796">
        <ele>739.4</ele>
        <time>2026-03-21T10:24:45Z</time>
      </trkpt>
      <trkpt lat="48.02247" lon="7.02796">
        <ele>739.4</ele>
        <time>2026-03-21T10:24:50Z</time>
      </trkpt>
      <trkpt lat="48.02247" lon="7.02796">
        <ele>739.4</ele>
        <time>2026-03-21T10:24:55Z</time>
      </trkpt>
      <trkpt lat="48.02247" lon="7.02796">
        <ele>739.4</ele>
        <time>2026-03-21T10:25:00Z</time>
      </trkpt>
      <trkpt lat="48.02247" lon="7.02796">
        <ele>739.4</ele>
        <time>2026-03-21T10:25:05Z</time>
      </trkpt>
      <trkpt lat="48.02245" lon="7.02808">
        <ele>734.7</ele>
        <time>2026-03-21T10:25:10Z</time>
      </trkpt>
      <trkpt lat="48.02242" lon="7.02819">
        <ele>729.9</ele>
        <time>2026-03-21T10:25:15Z</time>
      </trkpt>
      <trkpt lat="48.02242" lon="7.02819">
        <ele>729.9</ele>
        <time>2026-03-21T10:25:20Z</time>
      </trkpt>
      <trkpt lat="48.02242" lon="7.02819">
        <ele>729.9</ele>
        <time>2026-03-21T10:25:25Z</time>
      </trkpt>
      <trkpt lat="48.02242" lon="7.02819">
        <ele>729.9</ele>
        <time>2026-03-21T10:25:30Z</time>
      </trkpt>
      <trkpt lat="48.02242" lon="7.02819">
        <ele>729.9</ele>
        <time>2026-03-21T10:25:35Z</time>
      </trkpt>
      <trkpt lat="48.02242" lon="7.02819">
        <ele>729.9</ele>
        <time>2026-03-21T10:25:40Z</time>
      </trkpt>
      <trkpt lat="48.02233" lon="7.02819">
        <ele>727.5</ele>
        <time>2026-03-21T10:25:45Z</time>
      </trkpt>
      <trkpt lat="48.02229" lon="7.02815">
        <ele>728.1</ele>
        <time>2026-03-21T10:25:50Z</time>
      </trkpt>
      <trkpt lat="48.0223" lon="7.0281">
        <ele>730.4</ele>
        <time>2026-03-21T10:25:55Z</time>
      </trkpt>
      <trkpt lat="48.0223" lon="7.02803">
        <ele>733.3</ele>
        <time>2026-03-21T10:26:00Z</time>
      </trkpt>
      <trkpt lat="48.0223" lon="7.02802">
        <ele>733.7</ele>
        <time>2026-03-21T10:26:05Z</time>
      </trkpt>
      <trkpt lat="48.0223" lon="7.02802">
        <ele>733.7</ele>
        <time>2026-03-21T10:26:10Z</time>
      </trkpt>
      <trkpt lat="48.0223" lon="7.02802">
        <ele>733.7</ele>
        <time>2026-03-21T10:26:15Z</time>
      </trkpt>
      <trkpt lat="48.0223" lon="7.02802">
        <ele>733.7</ele>
        <time>2026-03-21T10:26:20Z</time>
      </trkpt>
      <trkpt lat="48.0223" lon="7.02802">
        <ele>733.7</ele>
        <time>2026-03-21T10:26:25Z</time>
      </trkpt>
      <trkpt lat="48.0223" lon="7.02802">
        <ele>733.7</ele>
        <time>2026-03-21T10:26:30Z</time>
      </trkpt>
      <trkpt lat="48.0223" lon="7.02802">
        <ele>733.7</ele>
        <time>2026-03-21T10:26:35Z</time>
      </trkpt>
      <trkpt lat="48.0223" lon="7.02802">
        <ele>733.7</ele>
        <time>2026-03-21T10:26:40Z</time>
      </trkpt>
      <trkpt lat="48.0223" lon="7.02802">
        <ele>733.7</ele>
        <time>2026-03-21T10:26:45Z</time>
      </trkpt>
      <trkpt lat="48.0223" lon="7.02802">
        <ele>733.7</ele>
        <time>2026-03-21T10:26:50Z</time>
      </trkpt>
      <trkpt lat="48.0223" lon="7.02802">
        <ele>733.7</ele>
        <time>2026-03-21T10:26:55Z</time>
      </trkpt>
      <trkpt lat="48.02228" lon="7.02794">
        <ele>736.7</ele>
        <time>2026-03-21T10:27:00Z</time>
      </trkpt>
      <trkpt lat="48.02222" lon="7.0279">
        <ele>737.4</ele>
        <time>2026-03-21T10:27:05Z</time>
      </trkpt>
      <trkpt lat="48.02217" lon="7.0279">
        <ele>736.5</ele>
        <time>2026-03-21T10:27:10Z</time>
      </trkpt>
      <trkpt lat="48.0222" lon="7.02791">
        <ele>736.6</ele>
        <time>2026-03-21T10:27:15Z</time>
      </trkpt>
      <trkpt lat="48.02225" lon="7.02795">
        <ele>735.7</ele>
        <time>2026-03-21T10:27:20Z</time>
      </trkpt>
      <trkpt lat="48.0223" lon="7.02796">
        <ele>736.2</ele>
        <time>2026-03-21T10:27:25Z</time>
      </trkpt>
      <trkpt lat="48.02235" lon="7.02797">
        <ele>736.8</ele>
        <time>2026-03-21T10:27:30Z</time>
      </trkpt>
      <trkpt lat="48.02239" lon="7.02799">
        <ele>736.8</ele>
        <time>2026-03-21T10:27:35Z</time>
      </trkpt>
      <trkpt lat="48.02231" lon="7.02796">
        <ele>736.4</ele>
        <time>2026-03-21T10:27:40Z</time>
      </trkpt>
      <trkpt lat="48.02217" lon="7.02793">
        <ele>735.1</ele>
        <time>2026-03-21T10:27:45Z</time>
      </trkpt>
      <trkpt lat="48.02209" lon="7.02792">
        <ele>734.2</ele>
        <time>2026-03-21T10:27:50Z</time>
      </trkpt>
      <trkpt lat="48.02204" lon="7.02791">
        <ele>733.8</ele>
        <time>2026-03-21T10:27:55Z</time>
      </trkpt>
      <trkpt lat="48.02202" lon="7.0279">
        <ele>734</ele>
        <time>2026-03-21T10:28:00Z</time>
      </trkpt>
      <trkpt lat="48.02199" lon="7.02789">
        <ele>734</ele>
        <time>2026-03-21T10:28:05Z</time>
      </trkpt>
      <trkpt lat="48.02198" lon="7.02789">
        <ele>733.8</ele>
        <time>2026-03-21T10:28:10Z</time>
      </trkpt>
      <trkpt lat="48.02198" lon="7.02789">
        <ele>733.8</ele>
        <time>2026-03-21T10:28:15Z</time>
      </trkpt>
      <trkpt lat="48.02193" lon="7.02801">
        <ele>726.6</ele>
        <time>2026-03-21T10:28:20Z</time>
      </trkpt>
      <trkpt lat="48.02192" lon="7.02805">
        <ele>724.2</ele>
        <time>2026-03-21T10:28:25Z</time>
      </trkpt>
      <trkpt lat="48.02189" lon="7.02805">
        <ele>723.6</ele>
        <time>2026-03-21T10:28:30Z</time>
      </trkpt>
      <trkpt lat="48.02194" lon="7.02805">
        <ele>724.6</ele>
        <time>2026-03-21T10:28:35Z</time>
      </trkpt>
      <trkpt lat="48.02203" lon="7.02808">
        <ele>725.1</ele>
        <time>2026-03-21T10:28:40Z</time>
      </trkpt>
      <trkpt lat="48.02205" lon="7.02816">
        <ele>721.6</ele>
        <time>2026-03-21T10:28:45Z</time>
      </trkpt>
      <trkpt lat="48.02207" lon="7.02824">
        <ele>718.2</ele>
        <time>2026-03-21T10:28:50Z</time>
      </trkpt>
      <trkpt lat="48.0221" lon="7.02831">
        <ele>715.6</ele>
        <time>2026-03-21T10:28:55Z</time>
      </trkpt>
      <trkpt lat="48.02213" lon="7.02836">
        <ele>715</ele>
        <time>2026-03-21T10:29:00Z</time>
      </trkpt>
      <trkpt lat="48.02212" lon="7.02841">
        <ele>713.8</ele>
        <time>2026-03-21T10:29:05Z</time>
      </trkpt>
      <trkpt lat="48.02211" lon="7.02843">
        <ele>713.1</ele>
        <time>2026-03-21T10:29:10Z</time>
      </trkpt>
      <trkpt lat="48.02211" lon="7.02843">
        <ele>713.1</ele>
        <time>2026-03-21T10:29:15Z</time>
      </trkpt>
      <trkpt lat="48.02211" lon="7.02828">
        <ele>717.4</ele>
        <time>2026-03-21T10:29:20Z</time>
      </trkpt>
      <trkpt lat="48.02211" lon="7.0282">
        <ele>721.2</ele>
        <time>2026-03-21T10:29:25Z</time>
      </trkpt>
      <trkpt lat="48.02211" lon="7.0282">
        <ele>721.2</ele>
        <time>2026-03-21T10:29:30Z</time>
      </trkpt>
      <trkpt lat="48.02211" lon="7.0282">
        <ele>721.2</ele>
        <time>2026-03-21T10:29:35Z</time>
      </trkpt>
      <trkpt lat="48.02211" lon="7.0282">
        <ele>721.2</ele>
        <time>2026-03-21T10:29:40Z</time>
      </trkpt>
      <trkpt lat="48.02211" lon="7.0282">
        <ele>721.2</ele>
        <time>2026-03-21T10:29:45Z</time>
      </trkpt>
      <trkpt lat="48.02211" lon="7.0282">
        <ele>721.2</ele>
        <time>2026-03-21T10:29:50Z</time>
      </trkpt>
      <trkpt lat="48.02211" lon="7.0282">
        <ele>721.2</ele>
        <time>2026-03-21T10:29:55Z</time>
      </trkpt>
      <trkpt lat="48.02211" lon="7.0282">
        <ele>721.2</ele>
        <time>2026-03-21T10:30:00Z</time>
      </trkpt>
      <trkpt lat="48.02211" lon="7.0282">
        <ele>721.2</ele>
        <time>2026-03-21T10:30:05Z</time>
      </trkpt>
      <trkpt lat="48.02211" lon="7.0282">
        <ele>721.2</ele>
        <time>2026-03-21T10:30:10Z</time>
      </trkpt>
      <trkpt lat="48.02211" lon="7.0282">
        <ele>721.2</ele>
        <time>2026-03-21T10:30:15Z</time>
      </trkpt>
      <trkpt lat="48.02211" lon="7.0282">
        <ele>721.2</ele>
        <time>2026-03-21T10:30:20Z</time>
      </trkpt>
      <trkpt lat="48.02211" lon="7.0282">
        <ele>721.2</ele>
        <time>2026-03-21T10:30:25Z</time>
      </trkpt>
      <trkpt lat="48.02211" lon="7.0282">
        <ele>721.2</ele>
        <time>2026-03-21T10:30:30Z</time>
      </trkpt>
      <trkpt lat="48.02211" lon="7.0282">
        <ele>721.2</ele>
        <time>2026-03-21T10:30:35Z</time>
      </trkpt>
      <trkpt lat="48.02211" lon="7.0282">
        <ele>721.2</ele>
        <time>2026-03-21T10:30:40Z</time>
      </trkpt>
      <trkpt lat="48.02207" lon="7.02832">
        <ele>714.2</ele>
        <time>2026-03-21T10:30:45Z</time>
      </trkpt>
      <trkpt lat="48.02207" lon="7.02844">
        <ele>711.5</ele>
        <time>2026-03-21T10:30:50Z</time>
      </trkpt>
      <trkpt lat="48.02204" lon="7.02852">
        <ele>708.9</ele>
        <time>2026-03-21T10:30:55Z</time>
      </trkpt>
      <trkpt lat="48.02199" lon="7.02855">
        <ele>706.3</ele>
        <time>2026-03-21T10:31:00Z</time>
      </trkpt>
      <trkpt lat="48.02193" lon="7.02857">
        <ele>703.5</ele>
        <time>2026-03-21T10:31:05Z</time>
      </trkpt>
      <trkpt lat="48.02191" lon="7.02861">
        <ele>701.7</ele>
        <time>2026-03-21T10:31:10Z</time>
      </trkpt>
      <trkpt lat="48.02188" lon="7.02864">
        <ele>699.7</ele>
        <time>2026-03-21T10:31:15Z</time>
      </trkpt>
      <trkpt lat="48.02184" lon="7.02867">
        <ele>697.2</ele>
        <time>2026-03-21T10:31:20Z</time>
      </trkpt>
      <trkpt lat="48.02178" lon="7.02868">
        <ele>694.3</ele>
        <time>2026-03-21T10:31:25Z</time>
      </trkpt>
      <trkpt lat="48.02175" lon="7.02868">
        <ele>693</ele>
        <time>2026-03-21T10:31:30Z</time>
      </trkpt>
      <trkpt lat="48.02176" lon="7.02864">
        <ele>694.6</ele>
        <time>2026-03-21T10:31:35Z</time>
      </trkpt>
      <trkpt lat="48.02175" lon="7.0286">
        <ele>695.4</ele>
        <time>2026-03-21T10:31:40Z</time>
      </trkpt>
      <trkpt lat="48.0218" lon="7.02843">
        <ele>702.4</ele>
        <time>2026-03-21T10:31:45Z</time>
      </trkpt>
      <trkpt lat="48.02184" lon="7.02839">
        <ele>704.9</ele>
        <time>2026-03-21T10:31:50Z</time>
      </trkpt>
      <trkpt lat="48.02186" lon="7.02836">
        <ele>706.3</ele>
        <time>2026-03-21T10:31:55Z</time>
      </trkpt>
      <trkpt lat="48.02188" lon="7.02836">
        <ele>707</ele>
        <time>2026-03-21T10:32:00Z</time>
      </trkpt>
      <trkpt lat="48.02188" lon="7.02836">
        <ele>707</ele>
        <time>2026-03-21T10:32:05Z</time>
      </trkpt>
      <trkpt lat="48.02188" lon="7.02836">
        <ele>707</ele>
        <time>2026-03-21T10:32:10Z</time>
      </trkpt>
      <trkpt lat="48.02188" lon="7.02836">
        <ele>707</ele>
        <time>2026-03-21T10:32:15Z</time>
      </trkpt>
      <trkpt lat="48.02188" lon="7.02836">
        <ele>707</ele>
        <time>2026-03-21T10:32:20Z</time>
      </trkpt>
      <trkpt lat="48.02188" lon="7.02836">
        <ele>707</ele>
        <time>2026-03-21T10:32:25Z</time>
      </trkpt>
      <trkpt lat="48.02188" lon="7.02836">
        <ele>707</ele>
        <time>2026-03-21T10:32:30Z</time>
      </trkpt>
      <trkpt lat="48.02188" lon="7.02836">
        <ele>707</ele>
        <time>2026-03-21T10:32:35Z</time>
      </trkpt>
      <trkpt lat="48.02188" lon="7.02836">
        <ele>707</ele>
        <time>2026-03-21T10:32:40Z</time>
      </trkpt>
      <trkpt lat="48.02188" lon="7.02836">
        <ele>707</ele>
        <time>2026-03-21T10:32:45Z</time>
      </trkpt>
      <trkpt lat="48.02182" lon="7.02836">
        <ele>705</ele>
        <time>2026-03-21T10:32:50Z</time>
      </trkpt>
      <trkpt lat="48.02179" lon="7.02837">
        <ele>703.8</ele>
        <time>2026-03-21T10:32:55Z</time>
      </trkpt>
      <trkpt lat="48.02175" lon="7.02836">
        <ele>702.8</ele>
        <time>2026-03-21T10:33:00Z</time>
      </trkpt>
      <trkpt lat="48.02173" lon="7.02834">
        <ele>702.8</ele>
        <time>2026-03-21T10:33:05Z</time>
      </trkpt>
      <trkpt lat="48.0217" lon="7.02835">
        <ele>701.5</ele>
        <time>2026-03-21T10:33:10Z</time>
      </trkpt>
      <trkpt lat="48.02165" lon="7.02834">
        <ele>700.5</ele>
        <time>2026-03-21T10:33:15Z</time>
      </trkpt>
      <trkpt lat="48.02163" lon="7.02832">
        <ele>701.3</ele>
        <time>2026-03-21T10:33:20Z</time>
      </trkpt>
      <trkpt lat="48.02161" lon="7.02829">
        <ele>702.9</ele>
        <time>2026-03-21T10:33:25Z</time>
      </trkpt>
      <trkpt lat="48.02161" lon="7.02827">
        <ele>704.2</ele>
        <time>2026-03-21T10:33:30Z</time>
      </trkpt>
      <trkpt lat="48.02163" lon="7.02818">
        <ele>710.2</ele>
        <time>2026-03-21T10:33:35Z</time>
      </trkpt>
      <trkpt lat="48.02163" lon="7.02814">
        <ele>712.7</ele>
        <time>2026-03-21T10:33:40Z</time>
      </trkpt>
      <trkpt lat="48.02162" lon="7.02808">
        <ele>716.4</ele>
        <time>2026-03-21T10:33:45Z</time>
      </trkpt>
      <trkpt lat="48.02162" lon="7.02808">
        <ele>716.4</ele>
        <time>2026-03-21T10:33:50Z</time>
      </trkpt>
      <trkpt lat="48.02162" lon="7.02808">
        <ele>716.4</ele>
        <time>2026-03-21T10:33:55Z</time>
      </trkpt>
      <trkpt lat="48.02162" lon="7.02808">
        <ele>716.4</ele>
        <time>2026-03-21T10:34:00Z</time>
      </trkpt>
      <trkpt lat="48.02162" lon="7.02808">
        <ele>716.4</ele>
        <time>2026-03-21T10:34:05Z</time>
      </trkpt>
      <trkpt lat="48.02162" lon="7.02808">
        <ele>716.4</ele>
        <time>2026-03-21T10:34:10Z</time>
      </trkpt>
      <trkpt lat="48.02159" lon="7.028">
        <ele>721.2</ele>
        <time>2026-03-21T10:34:15Z</time>
      </trkpt>
      <trkpt lat="48.02159" lon="7.028">
        <ele>721.2</ele>
        <time>2026-03-21T10:34:20Z</time>
      </trkpt>
      <trkpt lat="48.02159" lon="7.028">
        <ele>721.2</ele>
        <time>2026-03-21T10:34:25Z</time>
      </trkpt>
      <trkpt lat="48.02151" lon="7.02805">
        <ele>717.4</ele>
        <time>2026-03-21T10:34:30Z</time>
      </trkpt>
      <trkpt lat="48.02147" lon="7.02809">
        <ele>714.4</ele>
        <time>2026-03-21T10:34:35Z</time>
      </trkpt>
      <trkpt lat="48.02148" lon="7.02817">
        <ele>709.2</ele>
        <time>2026-03-21T10:34:40Z</time>
      </trkpt>
      <trkpt lat="48.0215" lon="7.02823">
        <ele>705.4</ele>
        <time>2026-03-21T10:34:45Z</time>
      </trkpt>
      <trkpt lat="48.0215" lon="7.02823">
        <ele>705.4</ele>
        <time>2026-03-21T10:34:50Z</time>
      </trkpt>
      <trkpt lat="48.0215" lon="7.02823">
        <ele>705.4</ele>
        <time>2026-03-21T10:34:55Z</time>
      </trkpt>
      <trkpt lat="48.0215" lon="7.02823">
        <ele>705.4</ele>
        <time>2026-03-21T10:35:00Z</time>
      </trkpt>
      <trkpt lat="48.02157" lon="7.02834">
        <ele>699.4</ele>
        <time>2026-03-21T10:35:05Z</time>
      </trkpt>
      <trkpt lat="48.02157" lon="7.02835">
        <ele>699</ele>
        <time>2026-03-21T10:35:10Z</time>
      </trkpt>
      <trkpt lat="48.02157" lon="7.02835">
        <ele>699</ele>
        <time>2026-03-21T10:35:15Z</time>
      </trkpt>
      <trkpt lat="48.02143" lon="7.02824">
        <ele>703.9</ele>
        <time>2026-03-21T10:35:20Z</time>
      </trkpt>
      <trkpt lat="48.02136" lon="7.02814">
        <ele>709.9</ele>
        <time>2026-03-21T10:35:25Z</time>
      </trkpt>
      <trkpt lat="48.02131" lon="7.02808">
        <ele>713.6</ele>
        <time>2026-03-21T10:35:30Z</time>
      </trkpt>
      <trkpt lat="48.02127" lon="7.02805">
        <ele>715.4</ele>
        <time>2026-03-21T10:35:35Z</time>
      </trkpt>
      <trkpt lat="48.02123" lon="7.02805">
        <ele>715.1</ele>
        <time>2026-03-21T10:35:40Z</time>
      </trkpt>
      <trkpt lat="48.02116" lon="7.02805">
        <ele>714.5</ele>
        <time>2026-03-21T10:35:45Z</time>
      </trkpt>
      <trkpt lat="48.02111" lon="7.02806">
        <ele>713.3</ele>
        <time>2026-03-21T10:35:50Z</time>
      </trkpt>
      <trkpt lat="48.02106" lon="7.02808">
        <ele>711.4</ele>
        <time>2026-03-21T10:35:55Z</time>
      </trkpt>
      <trkpt lat="48.02102" lon="7.02808">
        <ele>711</ele>
        <time>2026-03-21T10:36:00Z</time>
      </trkpt>
      <trkpt lat="48.021" lon="7.02808">
        <ele>710.9</ele>
        <time>2026-03-21T10:36:05Z</time>
      </trkpt>
      <trkpt lat="48.02096" lon="7.02807">
        <ele>711.3</ele>
        <time>2026-03-21T10:36:10Z</time>
      </trkpt>
      <trkpt lat="48.02094" lon="7.02808">
        <ele>710.3</ele>
        <time>2026-03-21T10:36:15Z</time>
      </trkpt>
      <trkpt lat="48.02094" lon="7.02808">
        <ele>710.3</ele>
        <time>2026-03-21T10:36:20Z</time>
      </trkpt>
      <trkpt lat="48.0209" lon="7.02809">
        <ele>709.2</ele>
        <time>2026-03-21T10:36:25Z</time>
      </trkpt>
      <trkpt lat="48.02084" lon="7.02807">
        <ele>710.2</ele>
        <time>2026-03-21T10:36:30Z</time>
      </trkpt>
      <trkpt lat="48.0208" lon="7.02804">
        <ele>712.6</ele>
        <time>2026-03-21T10:36:35Z</time>
      </trkpt>
      <trkpt lat="48.0208" lon="7.02803">
        <ele>713.4</ele>
        <time>2026-03-21T10:36:40Z</time>
      </trkpt>
      <trkpt lat="48.0208" lon="7.02802">
        <ele>714.2</ele>
        <time>2026-03-21T10:36:45Z</time>
      </trkpt>
      <trkpt lat="48.0208" lon="7.02802">
        <ele>714.2</ele>
        <time>2026-03-21T10:36:50Z</time>
      </trkpt>
      <trkpt lat="48.02065" lon="7.02802">
        <ele>714.1</ele>
        <time>2026-03-21T10:36:55Z</time>
      </trkpt>
      <trkpt lat="48.02062" lon="7.02803">
        <ele>713.3</ele>
        <time>2026-03-21T10:37:00Z</time>
      </trkpt>
      <trkpt lat="48.0206" lon="7.02801">
        <ele>714.9</ele>
        <time>2026-03-21T10:37:05Z</time>
      </trkpt>
      <trkpt lat="48.02057" lon="7.02798">
        <ele>717.3</ele>
        <time>2026-03-21T10:37:10Z</time>
      </trkpt>
      <trkpt lat="48.02055" lon="7.02797">
        <ele>718.1</ele>
        <time>2026-03-21T10:37:15Z</time>
      </trkpt>
      <trkpt lat="48.02051" lon="7.02799">
        <ele>716.4</ele>
        <time>2026-03-21T10:37:20Z</time>
      </trkpt>
      <trkpt lat="48.02046" lon="7.02805">
        <ele>711.6</ele>
        <time>2026-03-21T10:37:25Z</time>
      </trkpt>
      <trkpt lat="48.02044" lon="7.02807">
        <ele>710</ele>
        <time>2026-03-21T10:37:30Z</time>
      </trkpt>
      <trkpt lat="48.02041" lon="7.0281">
        <ele>707.6</ele>
        <time>2026-03-21T10:37:35Z</time>
      </trkpt>
      <trkpt lat="48.02038" lon="7.02814">
        <ele>704.4</ele>
        <time>2026-03-21T10:37:40Z</time>
      </trkpt>
      <trkpt lat="48.02043" lon="7.02816">
        <ele>702.8</ele>
        <time>2026-03-21T10:37:45Z</time>
      </trkpt>
      <trkpt lat="48.02055" lon="7.02813">
        <ele>705.3</ele>
        <time>2026-03-21T10:37:50Z</time>
      </trkpt>
      <trkpt lat="48.02059" lon="7.02815">
        <ele>703.7</ele>
        <time>2026-03-21T10:37:55Z</time>
      </trkpt>
      <trkpt lat="48.02061" lon="7.02816">
        <ele>702.9</ele>
        <time>2026-03-21T10:38:00Z</time>
      </trkpt>
      <trkpt lat="48.02063" lon="7.02819">
        <ele>700.5</ele>
        <time>2026-03-21T10:38:05Z</time>
      </trkpt>
      <trkpt lat="48.02063" lon="7.02821">
        <ele>698.9</ele>
        <time>2026-03-21T10:38:10Z</time>
      </trkpt>
      <trkpt lat="48.02057" lon="7.0282">
        <ele>699.7</ele>
        <time>2026-03-21T10:38:15Z</time>
      </trkpt>
      <trkpt lat="48.0205" lon="7.02822">
        <ele>698.1</ele>
        <time>2026-03-21T10:38:20Z</time>
      </trkpt>
      <trkpt lat="48.02046" lon="7.02822">
        <ele>698.1</ele>
        <time>2026-03-21T10:38:25Z</time>
      </trkpt>
      <trkpt lat="48.02042" lon="7.02821">
        <ele>698.8</ele>
        <time>2026-03-21T10:38:30Z</time>
      </trkpt>
      <trkpt lat="48.02039" lon="7.02821">
        <ele>698.8</ele>
        <time>2026-03-21T10:38:35Z</time>
      </trkpt>
      <trkpt lat="48.0204" lon="7.02826">
        <ele>694.9</ele>
        <time>2026-03-21T10:38:40Z</time>
      </trkpt>
      <trkpt lat="48.02044" lon="7.02828">
        <ele>693.3</ele>
        <time>2026-03-21T10:38:45Z</time>
      </trkpt>
      <trkpt lat="48.0205" lon="7.02822">
        <ele>698.1</ele>
        <time>2026-03-21T10:38:50Z</time>
      </trkpt>
      <trkpt lat="48.02053" lon="7.02818">
        <ele>701.3</ele>
        <time>2026-03-21T10:38:55Z</time>
      </trkpt>
      <trkpt lat="48.02053" lon="7.02818">
        <ele>701.3</ele>
        <time>2026-03-21T10:39:00Z</time>
      </trkpt>
      <trkpt lat="48.02053" lon="7.02818">
        <ele>701.3</ele>
        <time>2026-03-21T10:39:05Z</time>
      </trkpt>
      <trkpt lat="48.02053" lon="7.02818">
        <ele>701.3</ele>
        <time>2026-03-21T10:39:10Z</time>
      </trkpt>
      <trkpt lat="48.02045" lon="7.02831">
        <ele>690.9</ele>
        <time>2026-03-21T10:39:15Z</time>
      </trkpt>
      <trkpt lat="48.02045" lon="7.02831">
        <ele>690.9</ele>
        <time>2026-03-21T10:39:20Z</time>
      </trkpt>
      <trkpt lat="48.02045" lon="7.02831">
        <ele>690.9</ele>
        <time>2026-03-21T10:39:25Z</time>
      </trkpt>
      <trkpt lat="48.02045" lon="7.02831">
        <ele>690.9</ele>
        <time>2026-03-21T10:39:30Z</time>
      </trkpt>
      <trkpt lat="48.02045" lon="7.02831">
        <ele>690.9</ele>
        <time>2026-03-21T10:39:35Z</time>
      </trkpt>
      <trkpt lat="48.02037" lon="7.02831">
        <ele>690.9</ele>
        <time>2026-03-21T10:39:40Z</time>
      </trkpt>
      <trkpt lat="48.02033" lon="7.02833">
        <ele>689.3</ele>
        <time>2026-03-21T10:39:45Z</time>
      </trkpt>
      <trkpt lat="48.02031" lon="7.02835">
        <ele>688.2</ele>
        <time>2026-03-21T10:39:50Z</time>
      </trkpt>
      <trkpt lat="48.02026" lon="7.02837">
        <ele>687.3</ele>
        <time>2026-03-21T10:39:55Z</time>
      </trkpt>
      <trkpt lat="48.02021" lon="7.02838">
        <ele>686.8</ele>
        <time>2026-03-21T10:40:00Z</time>
      </trkpt>
      <trkpt lat="48.0202" lon="7.02839">
        <ele>686.3</ele>
        <time>2026-03-21T10:40:05Z</time>
      </trkpt>
      <trkpt lat="48.02017" lon="7.02834">
        <ele>688.7</ele>
        <time>2026-03-21T10:40:10Z</time>
      </trkpt>
      <trkpt lat="48.02016" lon="7.02832">
        <ele>690.1</ele>
        <time>2026-03-21T10:40:15Z</time>
      </trkpt>
      <trkpt lat="48.02016" lon="7.02832">
        <ele>690.1</ele>
        <time>2026-03-21T10:40:20Z</time>
      </trkpt>
      <trkpt lat="48.02016" lon="7.02832">
        <ele>690.1</ele>
        <time>2026-03-21T10:40:25Z</time>
      </trkpt>
      <trkpt lat="48.02025" lon="7.02823">
        <ele>697.2</ele>
        <time>2026-03-21T10:40:30Z</time>
      </trkpt>
      <trkpt lat="48.02022" lon="7.02824">
        <ele>696.4</ele>
        <time>2026-03-21T10:40:35Z</time>
      </trkpt>
      <trkpt lat="48.02018" lon="7.02833">
        <ele>689.3</ele>
        <time>2026-03-21T10:40:40Z</time>
      </trkpt>
      <trkpt lat="48.0201" lon="7.02839">
        <ele>686.3</ele>
        <time>2026-03-21T10:40:45Z</time>
      </trkpt>
      <trkpt lat="48.02003" lon="7.02839">
        <ele>686.3</ele>
        <time>2026-03-21T10:40:50Z</time>
      </trkpt>
      <trkpt lat="48.01997" lon="7.02842">
        <ele>685.1</ele>
        <time>2026-03-21T10:40:55Z</time>
      </trkpt>
      <trkpt lat="48.01996" lon="7.0285">
        <ele>681.3</ele>
        <time>2026-03-21T10:41:00Z</time>
      </trkpt>
      <trkpt lat="48.01995" lon="7.02851">
        <ele>680.9</ele>
        <time>2026-03-21T10:41:05Z</time>
      </trkpt>
      <trkpt lat="48.01992" lon="7.02854">
        <ele>679.6</ele>
        <time>2026-03-21T10:41:10Z</time>
      </trkpt>
      <trkpt lat="48.01989" lon="7.02854">
        <ele>679.8</ele>
        <time>2026-03-21T10:41:15Z</time>
      </trkpt>
      <trkpt lat="48.01987" lon="7.02855">
        <ele>679.5</ele>
        <time>2026-03-21T10:41:20Z</time>
      </trkpt>
      <trkpt lat="48.01984" lon="7.02855">
        <ele>679.7</ele>
        <time>2026-03-21T10:41:25Z</time>
      </trkpt>
      <trkpt lat="48.01981" lon="7.02855">
        <ele>679.9</ele>
        <time>2026-03-21T10:41:30Z</time>
      </trkpt>
      <trkpt lat="48.01981" lon="7.02854">
        <ele>680.4</ele>
        <time>2026-03-21T10:41:35Z</time>
      </trkpt>
      <trkpt lat="48.01981" lon="7.02854">
        <ele>680.4</ele>
        <time>2026-03-21T10:41:40Z</time>
      </trkpt>
      <trkpt lat="48.01974" lon="7.02858">
        <ele>678.9</ele>
        <time>2026-03-21T10:41:45Z</time>
      </trkpt>
      <trkpt lat="48.01971" lon="7.02859">
        <ele>678.6</ele>
        <time>2026-03-21T10:41:50Z</time>
      </trkpt>
      <trkpt lat="48.01966" lon="7.0286">
        <ele>678.4</ele>
        <time>2026-03-21T10:41:55Z</time>
      </trkpt>
      <trkpt lat="48.01961" lon="7.0286">
        <ele>678.7</ele>
        <time>2026-03-21T10:42:00Z</time>
      </trkpt>
      <trkpt lat="48.0196" lon="7.02861">
        <ele>678.3</ele>
        <time>2026-03-21T10:42:05Z</time>
      </trkpt>
      <trkpt lat="48.01956" lon="7.02859">
        <ele>679.6</ele>
        <time>2026-03-21T10:42:10Z</time>
      </trkpt>
      <trkpt lat="48.01952" lon="7.0286">
        <ele>679.3</ele>
        <time>2026-03-21T10:42:15Z</time>
      </trkpt>
      <trkpt lat="48.01949" lon="7.0286">
        <ele>679.5</ele>
        <time>2026-03-21T10:42:20Z</time>
      </trkpt>
      <trkpt lat="48.01949" lon="7.0286">
        <ele>679.5</ele>
        <time>2026-03-21T10:42:25Z</time>
      </trkpt>
      <trkpt lat="48.01949" lon="7.0286">
        <ele>679.5</ele>
        <time>2026-03-21T10:42:30Z</time>
      </trkpt>
      <trkpt lat="48.01944" lon="7.02866">
        <ele>676.7</ele>
        <time>2026-03-21T10:42:35Z</time>
      </trkpt>
      <trkpt lat="48.01939" lon="7.02868">
        <ele>676</ele>
        <time>2026-03-21T10:42:40Z</time>
      </trkpt>
      <trkpt lat="48.01936" lon="7.02868">
        <ele>676.1</ele>
        <time>2026-03-21T10:42:45Z</time>
      </trkpt>
      <trkpt lat="48.01931" lon="7.02869">
        <ele>675.9</ele>
        <time>2026-03-21T10:42:50Z</time>
      </trkpt>
      <trkpt lat="48.01927" lon="7.02869">
        <ele>676.1</ele>
        <time>2026-03-21T10:42:55Z</time>
      </trkpt>
      <trkpt lat="48.01923" lon="7.02871">
        <ele>675.3</ele>
        <time>2026-03-21T10:43:00Z</time>
      </trkpt>
      <trkpt lat="48.01922" lon="7.02877">
        <ele>672.1</ele>
        <time>2026-03-21T10:43:05Z</time>
      </trkpt>
      <trkpt lat="48.01922" lon="7.02883">
        <ele>668.9</ele>
        <time>2026-03-21T10:43:10Z</time>
      </trkpt>
      <trkpt lat="48.01918" lon="7.02885">
        <ele>668</ele>
        <time>2026-03-21T10:43:15Z</time>
      </trkpt>
      <trkpt lat="48.01915" lon="7.02887">
        <ele>667.3</ele>
        <time>2026-03-21T10:43:20Z</time>
      </trkpt>
      <trkpt lat="48.01909" lon="7.02887">
        <ele>668.4</ele>
        <time>2026-03-21T10:43:25Z</time>
      </trkpt>
      <trkpt lat="48.01903" lon="7.02888">
        <ele>668.9</ele>
        <time>2026-03-21T10:43:30Z</time>
      </trkpt>
      <trkpt lat="48.01899" lon="7.02887">
        <ele>670.1</ele>
        <time>2026-03-21T10:43:35Z</time>
      </trkpt>
      <trkpt lat="48.01894" lon="7.02891">
        <ele>668.7</ele>
        <time>2026-03-21T10:43:40Z</time>
      </trkpt>
      <trkpt lat="48.01889" lon="7.02893">
        <ele>668.3</ele>
        <time>2026-03-21T10:43:45Z</time>
      </trkpt>
      <trkpt lat="48.01884" lon="7.02895">
        <ele>667.9</ele>
        <time>2026-03-21T10:43:50Z</time>
      </trkpt>
      <trkpt lat="48.0188" lon="7.02894">
        <ele>669.2</ele>
        <time>2026-03-21T10:43:55Z</time>
      </trkpt>
      <trkpt lat="48.01876" lon="7.02894">
        <ele>669.8</ele>
        <time>2026-03-21T10:44:00Z</time>
      </trkpt>
      <trkpt lat="48.01873" lon="7.02892">
        <ele>671.6</ele>
        <time>2026-03-21T10:44:05Z</time>
      </trkpt>
      <trkpt lat="48.0187" lon="7.0289">
        <ele>673.3</ele>
        <time>2026-03-21T10:44:10Z</time>
      </trkpt>
      <trkpt lat="48.01866" lon="7.02889">
        <ele>674.6</ele>
        <time>2026-03-21T10:44:15Z</time>
      </trkpt>
      <trkpt lat="48.01862" lon="7.02891">
        <ele>674</ele>
        <time>2026-03-21T10:44:20Z</time>
      </trkpt>
      <trkpt lat="48.01858" lon="7.02893">
        <ele>673.4</ele>
        <time>2026-03-21T10:44:25Z</time>
      </trkpt>
      <trkpt lat="48.01856" lon="7.02895">
        <ele>672.4</ele>
        <time>2026-03-21T10:44:30Z</time>
      </trkpt>
      <trkpt lat="48.01853" lon="7.02895">
        <ele>672.9</ele>
        <time>2026-03-21T10:44:35Z</time>
      </trkpt>
      <trkpt lat="48.01849" lon="7.02896">
        <ele>672.9</ele>
        <time>2026-03-21T10:44:40Z</time>
      </trkpt>
      <trkpt lat="48.01844" lon="7.02895">
        <ele>674.4</ele>
        <time>2026-03-21T10:44:45Z</time>
      </trkpt>
      <trkpt lat="48.01839" lon="7.02894">
        <ele>675.9</ele>
        <time>2026-03-21T10:44:50Z</time>
      </trkpt>
      <trkpt lat="48.01837" lon="7.02897">
        <ele>674.1</ele>
        <time>2026-03-21T10:44:55Z</time>
      </trkpt>
      <trkpt lat="48.01835" lon="7.02901">
        <ele>671.7</ele>
        <time>2026-03-21T10:45:00Z</time>
      </trkpt>
      <trkpt lat="48.01831" lon="7.02902">
        <ele>671.6</ele>
        <time>2026-03-21T10:45:05Z</time>
      </trkpt>
      <trkpt lat="48.01827" lon="7.02906">
        <ele>669.4</ele>
        <time>2026-03-21T10:45:10Z</time>
      </trkpt>
      <trkpt lat="48.0182" lon="7.02908">
        <ele>669.1</ele>
        <time>2026-03-21T10:45:15Z</time>
      </trkpt>
      <trkpt lat="48.01813" lon="7.02913">
        <ele>666.7</ele>
        <time>2026-03-21T10:45:20Z</time>
      </trkpt>
      <trkpt lat="48.0181" lon="7.02917">
        <ele>664.5</ele>
        <time>2026-03-21T10:45:25Z</time>
      </trkpt>
      <trkpt lat="48.01807" lon="7.0292">
        <ele>663.4</ele>
        <time>2026-03-21T10:45:30Z</time>
      </trkpt>
      <trkpt lat="48.01804" lon="7.02923">
        <ele>662.4</ele>
        <time>2026-03-21T10:45:35Z</time>
      </trkpt>
      <trkpt lat="48.018" lon="7.02926">
        <ele>661.5</ele>
        <time>2026-03-21T10:45:40Z</time>
      </trkpt>
      <trkpt lat="48.01796" lon="7.02928">
        <ele>661</ele>
        <time>2026-03-21T10:45:45Z</time>
      </trkpt>
      <trkpt lat="48.01792" lon="7.02931">
        <ele>660.1</ele>
        <time>2026-03-21T10:45:50Z</time>
      </trkpt>
      <trkpt lat="48.01789" lon="7.02931">
        <ele>660.5</ele>
        <time>2026-03-21T10:45:55Z</time>
      </trkpt>
      <trkpt lat="48.01785" lon="7.02934">
        <ele>659.5</ele>
        <time>2026-03-21T10:46:00Z</time>
      </trkpt>
      <trkpt lat="48.01779" lon="7.02934">
        <ele>660.3</ele>
        <time>2026-03-21T10:46:05Z</time>
      </trkpt>
      <trkpt lat="48.01776" lon="7.02934">
        <ele>660.8</ele>
        <time>2026-03-21T10:46:10Z</time>
      </trkpt>
      <trkpt lat="48.01771" lon="7.02934">
        <ele>661.5</ele>
        <time>2026-03-21T10:46:15Z</time>
      </trkpt>
      <trkpt lat="48.01765" lon="7.02932">
        <ele>663.4</ele>
        <time>2026-03-21T10:46:20Z</time>
      </trkpt>
      <trkpt lat="48.01761" lon="7.02932">
        <ele>664</ele>
        <time>2026-03-21T10:46:25Z</time>
      </trkpt>
      <trkpt lat="48.01757" lon="7.02932">
        <ele>664.5</ele>
        <time>2026-03-21T10:46:30Z</time>
      </trkpt>
      <trkpt lat="48.0175" lon="7.02938">
        <ele>662.2</ele>
        <time>2026-03-21T10:46:35Z</time>
      </trkpt>
      <trkpt lat="48.01745" lon="7.02943">
        <ele>660.3</ele>
        <time>2026-03-21T10:46:40Z</time>
      </trkpt>
      <trkpt lat="48.0174" lon="7.02946">
        <ele>659.5</ele>
        <time>2026-03-21T10:46:45Z</time>
      </trkpt>
      <trkpt lat="48.01736" lon="7.02951">
        <ele>657.4</ele>
        <time>2026-03-21T10:46:50Z</time>
      </trkpt>
      <trkpt lat="48.01734" lon="7.02954">
        <ele>656</ele>
        <time>2026-03-21T10:46:55Z</time>
      </trkpt>
      <trkpt lat="48.01733" lon="7.02955">
        <ele>655.6</ele>
        <time>2026-03-21T10:47:00Z</time>
      </trkpt>
      <trkpt lat="48.01733" lon="7.02957">
        <ele>654.5</ele>
        <time>2026-03-21T10:47:05Z</time>
      </trkpt>
      <trkpt lat="48.01733" lon="7.02957">
        <ele>654.5</ele>
        <time>2026-03-21T10:47:10Z</time>
      </trkpt>
      <trkpt lat="48.01733" lon="7.02957">
        <ele>654.5</ele>
        <time>2026-03-21T10:47:15Z</time>
      </trkpt>
      <trkpt lat="48.01727" lon="7.0296">
        <ele>653.8</ele>
        <time>2026-03-21T10:47:20Z</time>
      </trkpt>
      <trkpt lat="48.01727" lon="7.0296">
        <ele>653.8</ele>
        <time>2026-03-21T10:47:25Z</time>
      </trkpt>
      <trkpt lat="48.01721" lon="7.02964">
        <ele>652.5</ele>
        <time>2026-03-21T10:47:30Z</time>
      </trkpt>
      <trkpt lat="48.01718" lon="7.02967">
        <ele>651.3</ele>
        <time>2026-03-21T10:47:35Z</time>
      </trkpt>
      <trkpt lat="48.01713" lon="7.02967">
        <ele>652.1</ele>
        <time>2026-03-21T10:47:40Z</time>
      </trkpt>
      <trkpt lat="48.01709" lon="7.02968">
        <ele>652.1</ele>
        <time>2026-03-21T10:47:45Z</time>
      </trkpt>
      <trkpt lat="48.01707" lon="7.02969">
        <ele>651.9</ele>
        <time>2026-03-21T10:47:50Z</time>
      </trkpt>
      <trkpt lat="48.01703" lon="7.02971">
        <ele>651.4</ele>
        <time>2026-03-21T10:47:55Z</time>
      </trkpt>
      <trkpt lat="48.01699" lon="7.02975">
        <ele>649.7</ele>
        <time>2026-03-21T10:48:00Z</time>
      </trkpt>
      <trkpt lat="48.01696" lon="7.02979">
        <ele>647.9</ele>
        <time>2026-03-21T10:48:05Z</time>
      </trkpt>
      <trkpt lat="48.01693" lon="7.02984">
        <ele>645.4</ele>
        <time>2026-03-21T10:48:10Z</time>
      </trkpt>
      <trkpt lat="48.01691" lon="7.0299">
        <ele>642.3</ele>
        <time>2026-03-21T10:48:15Z</time>
      </trkpt>
      <trkpt lat="48.01687" lon="7.02995">
        <ele>640</ele>
        <time>2026-03-21T10:48:20Z</time>
      </trkpt>
      <trkpt lat="48.0168" lon="7.02995">
        <ele>641</ele>
        <time>2026-03-21T10:48:25Z</time>
      </trkpt>
      <trkpt lat="48.01675" lon="7.02997">
        <ele>640.6</ele>
        <time>2026-03-21T10:48:30Z</time>
      </trkpt>
      <trkpt lat="48.01672" lon="7.03">
        <ele>639.2</ele>
        <time>2026-03-21T10:48:35Z</time>
      </trkpt>
      <trkpt lat="48.01672" lon="7.03003">
        <ele>638.1</ele>
        <time>2026-03-21T10:48:40Z</time>
      </trkpt>
      <trkpt lat="48.01672" lon="7.03003">
        <ele>638.1</ele>
        <time>2026-03-21T10:48:45Z</time>
      </trkpt>
      <trkpt lat="48.01672" lon="7.03003">
        <ele>638.1</ele>
        <time>2026-03-21T10:48:50Z</time>
      </trkpt>
      <trkpt lat="48.01672" lon="7.03003">
        <ele>638.1</ele>
        <time>2026-03-21T10:48:55Z</time>
      </trkpt>
      <trkpt lat="48.01666" lon="7.03">
        <ele>640.3</ele>
        <time>2026-03-21T10:49:00Z</time>
      </trkpt>
      <trkpt lat="48.01661" lon="7.03">
        <ele>642.4</ele>
        <time>2026-03-21T10:49:05Z</time>
      </trkpt>
      <trkpt lat="48.01653" lon="7.03">
        <ele>645.7</ele>
        <time>2026-03-21T10:49:10Z</time>
      </trkpt>
      <trkpt lat="48.01648" lon="7.03001">
        <ele>647.4</ele>
        <time>2026-03-21T10:49:15Z</time>
      </trkpt>
      <trkpt lat="48.01642" lon="7.03005">
        <ele>648.1</ele>
        <time>2026-03-21T10:49:20Z</time>
      </trkpt>
      <trkpt lat="48.01639" lon="7.03009">
        <ele>647.5</ele>
        <time>2026-03-21T10:49:25Z</time>
      </trkpt>
      <trkpt lat="48.01638" lon="7.03012">
        <ele>646.5</ele>
        <time>2026-03-21T10:49:30Z</time>
      </trkpt>
      <trkpt lat="48.01634" lon="7.03016">
        <ele>646.1</ele>
        <time>2026-03-21T10:49:35Z</time>
      </trkpt>
      <trkpt lat="48.01629" lon="7.03019">
        <ele>646.6</ele>
        <time>2026-03-21T10:49:40Z</time>
      </trkpt>
      <trkpt lat="48.01625" lon="7.03021">
        <ele>647</ele>
        <time>2026-03-21T10:49:45Z</time>
      </trkpt>
      <trkpt lat="48.01619" lon="7.03022">
        <ele>648.7</ele>
        <time>2026-03-21T10:49:50Z</time>
      </trkpt>
      <trkpt lat="48.01614" lon="7.03023">
        <ele>650</ele>
        <time>2026-03-21T10:49:55Z</time>
      </trkpt>
      <trkpt lat="48.01611" lon="7.03024">
        <ele>650.5</ele>
        <time>2026-03-21T10:50:00Z</time>
      </trkpt>
      <trkpt lat="48.01606" lon="7.03026">
        <ele>651.2</ele>
        <time>2026-03-21T10:50:05Z</time>
      </trkpt>
      <trkpt lat="48.01602" lon="7.03026">
        <ele>652.6</ele>
        <time>2026-03-21T10:50:10Z</time>
      </trkpt>
      <trkpt lat="48.01599" lon="7.03027">
        <ele>653.1</ele>
        <time>2026-03-21T10:50:15Z</time>
      </trkpt>
      <trkpt lat="48.01597" lon="7.03031">
        <ele>651.4</ele>
        <time>2026-03-21T10:50:20Z</time>
      </trkpt>
      <trkpt lat="48.01596" lon="7.03032">
        <ele>651.2</ele>
        <time>2026-03-21T10:50:25Z</time>
      </trkpt>
      <trkpt lat="48.01593" lon="7.03035">
        <ele>650.4</ele>
        <time>2026-03-21T10:50:30Z</time>
      </trkpt>
      <trkpt lat="48.01593" lon="7.03035">
        <ele>650.4</ele>
        <time>2026-03-21T10:50:35Z</time>
      </trkpt>
      <trkpt lat="48.01593" lon="7.03035">
        <ele>650.4</ele>
        <time>2026-03-21T10:50:40Z</time>
      </trkpt>
      <trkpt lat="48.01593" lon="7.03035">
        <ele>650.4</ele>
        <time>2026-03-21T10:50:45Z</time>
      </trkpt>
      <trkpt lat="48.01591" lon="7.03044">
        <ele>645.8</ele>
        <time>2026-03-21T10:50:50Z</time>
      </trkpt>
      <trkpt lat="48.01584" lon="7.0304">
        <ele>650.3</ele>
        <time>2026-03-21T10:50:55Z</time>
      </trkpt>
      <trkpt lat="48.0158" lon="7.0304">
        <ele>652.3</ele>
        <time>2026-03-21T10:51:00Z</time>
      </trkpt>
      <trkpt lat="48.01576" lon="7.0304">
        <ele>654.5</ele>
        <time>2026-03-21T10:51:05Z</time>
      </trkpt>
      <trkpt lat="48.01573" lon="7.03043">
        <ele>654.3</ele>
        <time>2026-03-21T10:51:10Z</time>
      </trkpt>
      <trkpt lat="48.01569" lon="7.03045">
        <ele>655.2</ele>
        <time>2026-03-21T10:51:15Z</time>
      </trkpt>
      <trkpt lat="48.01566" lon="7.03047">
        <ele>655.6</ele>
        <time>2026-03-21T10:51:20Z</time>
      </trkpt>
      <trkpt lat="48.01563" lon="7.0305">
        <ele>655.4</ele>
        <time>2026-03-21T10:51:25Z</time>
      </trkpt>
      <trkpt lat="48.0156" lon="7.03053">
        <ele>655.2</ele>
        <time>2026-03-21T10:51:30Z</time>
      </trkpt>
      <trkpt lat="48.01558" lon="7.03055">
        <ele>655</ele>
        <time>2026-03-21T10:51:35Z</time>
      </trkpt>
      <trkpt lat="48.01559" lon="7.0306">
        <ele>651.4</ele>
        <time>2026-03-21T10:51:40Z</time>
      </trkpt>
      <trkpt lat="48.01559" lon="7.0306">
        <ele>651.4</ele>
        <time>2026-03-21T10:51:45Z</time>
      </trkpt>
      <trkpt lat="48.01559" lon="7.0306">
        <ele>651.4</ele>
        <time>2026-03-21T10:51:50Z</time>
      </trkpt>
      <trkpt lat="48.01559" lon="7.0306">
        <ele>651.4</ele>
        <time>2026-03-21T10:51:55Z</time>
      </trkpt>
      <trkpt lat="48.01559" lon="7.0306">
        <ele>651.4</ele>
        <time>2026-03-21T10:52:00Z</time>
      </trkpt>
      <trkpt lat="48.01559" lon="7.0306">
        <ele>651.4</ele>
        <time>2026-03-21T10:52:05Z</time>
      </trkpt>
      <trkpt lat="48.01559" lon="7.0306">
        <ele>651.4</ele>
        <time>2026-03-21T10:52:10Z</time>
      </trkpt>
      <trkpt lat="48.01559" lon="7.0306">
        <ele>651.4</ele>
        <time>2026-03-21T10:52:15Z</time>
      </trkpt>
      <trkpt lat="48.01559" lon="7.0306">
        <ele>651.4</ele>
        <time>2026-03-21T10:52:20Z</time>
      </trkpt>
      <trkpt lat="48.01559" lon="7.0306">
        <ele>651.4</ele>
        <time>2026-03-21T10:52:25Z</time>
      </trkpt>
      <trkpt lat="48.01559" lon="7.0306">
        <ele>651.4</ele>
        <time>2026-03-21T10:52:30Z</time>
      </trkpt>
      <trkpt lat="48.01559" lon="7.0306">
        <ele>651.4</ele>
        <time>2026-03-21T10:52:35Z</time>
      </trkpt>
      <trkpt lat="48.01559" lon="7.0306">
        <ele>651.4</ele>
        <time>2026-03-21T10:52:40Z</time>
      </trkpt>
      <trkpt lat="48.01559" lon="7.0306">
        <ele>651.4</ele>
        <time>2026-03-21T10:52:45Z</time>
      </trkpt>
      <trkpt lat="48.01559" lon="7.0306">
        <ele>651.4</ele>
        <time>2026-03-21T10:52:50Z</time>
      </trkpt>
      <trkpt lat="48.01559" lon="7.0306">
        <ele>651.4</ele>
        <time>2026-03-21T10:52:55Z</time>
      </trkpt>
      <trkpt lat="48.01559" lon="7.0306">
        <ele>651.4</ele>
        <time>2026-03-21T10:53:00Z</time>
      </trkpt>
      <trkpt lat="48.01559" lon="7.0306">
        <ele>651.4</ele>
        <time>2026-03-21T10:53:05Z</time>
      </trkpt>
      <trkpt lat="48.01559" lon="7.0306">
        <ele>651.4</ele>
        <time>2026-03-21T10:53:10Z</time>
      </trkpt>
      <trkpt lat="48.01559" lon="7.0306">
        <ele>651.4</ele>
        <time>2026-03-21T10:53:15Z</time>
      </trkpt>
      <trkpt lat="48.01559" lon="7.0306">
        <ele>651.4</ele>
        <time>2026-03-21T10:53:20Z</time>
      </trkpt>
      <trkpt lat="48.01559" lon="7.0306">
        <ele>651.4</ele>
        <time>2026-03-21T10:53:25Z</time>
      </trkpt>
      <trkpt lat="48.01559" lon="7.0306">
        <ele>651.4</ele>
        <time>2026-03-21T10:53:30Z</time>
      </trkpt>
      <trkpt lat="48.01559" lon="7.0306">
        <ele>651.4</ele>
        <time>2026-03-21T10:53:35Z</time>
      </trkpt>
      <trkpt lat="48.01559" lon="7.0306">
        <ele>651.4</ele>
        <time>2026-03-21T10:53:40Z</time>
      </trkpt>
      <trkpt lat="48.01559" lon="7.0306">
        <ele>651.4</ele>
        <time>2026-03-21T10:53:45Z</time>
      </trkpt>
      <trkpt lat="48.01559" lon="7.0306">
        <ele>651.4</ele>
        <time>2026-03-21T10:53:50Z</time>
      </trkpt>
      <trkpt lat="48.01559" lon="7.0306">
        <ele>651.4</ele>
        <time>2026-03-21T10:53:55Z</time>
      </trkpt>
      <trkpt lat="48.01559" lon="7.0306">
        <ele>651.4</ele>
        <time>2026-03-21T10:54:00Z</time>
      </trkpt>
      <trkpt lat="48.01559" lon="7.0306">
        <ele>651.4</ele>
        <time>2026-03-21T10:54:05Z</time>
      </trkpt>
      <trkpt lat="48.01559" lon="7.0306">
        <ele>651.4</ele>
        <time>2026-03-21T10:54:10Z</time>
      </trkpt>
      <trkpt lat="48.01549" lon="7.03066">
        <ele>653.1</ele>
        <time>2026-03-21T10:54:15Z</time>
      </trkpt>
      <trkpt lat="48.01547" lon="7.03069">
        <ele>652.4</ele>
        <time>2026-03-21T10:54:20Z</time>
      </trkpt>
      <trkpt lat="48.01544" lon="7.0307">
        <ele>653.4</ele>
        <time>2026-03-21T10:54:25Z</time>
      </trkpt>
      <trkpt lat="48.01541" lon="7.03074">
        <ele>652.6</ele>
        <time>2026-03-21T10:54:30Z</time>
      </trkpt>
      <trkpt lat="48.01537" lon="7.03077">
        <ele>652.9</ele>
        <time>2026-03-21T10:54:35Z</time>
      </trkpt>
      <trkpt lat="48.01535" lon="7.03082">
        <ele>650.9</ele>
        <time>2026-03-21T10:54:40Z</time>
      </trkpt>
      <trkpt lat="48.01532" lon="7.03087">
        <ele>650</ele>
        <time>2026-03-21T10:54:45Z</time>
      </trkpt>
      <trkpt lat="48.01528" lon="7.03086">
        <ele>652.6</ele>
        <time>2026-03-21T10:54:50Z</time>
      </trkpt>
      <trkpt lat="48.01525" lon="7.03087">
        <ele>653.7</ele>
        <time>2026-03-21T10:54:55Z</time>
      </trkpt>
      <trkpt lat="48.01518" lon="7.03094">
        <ele>653.7</ele>
        <time>2026-03-21T10:55:00Z</time>
      </trkpt>
      <trkpt lat="48.01517" lon="7.03095">
        <ele>653.7</ele>
        <time>2026-03-21T10:55:05Z</time>
      </trkpt>
      <trkpt lat="48.01513" lon="7.03097">
        <ele>654.7</ele>
        <time>2026-03-21T10:55:10Z</time>
      </trkpt>
      <trkpt lat="48.0151" lon="7.03102">
        <ele>653.4</ele>
        <time>2026-03-21T10:55:15Z</time>
      </trkpt>
      <trkpt lat="48.01506" lon="7.03106">
        <ele>653.1</ele>
        <time>2026-03-21T10:55:20Z</time>
      </trkpt>
      <trkpt lat="48.01502" lon="7.03112">
        <ele>651.6</ele>
        <time>2026-03-21T10:55:25Z</time>
      </trkpt>
      <trkpt lat="48.01501" lon="7.03116">
        <ele>649.7</ele>
        <time>2026-03-21T10:55:30Z</time>
      </trkpt>
      <trkpt lat="48.01502" lon="7.03118">
        <ele>648.2</ele>
        <time>2026-03-21T10:55:35Z</time>
      </trkpt>
      <trkpt lat="48.01502" lon="7.03118">
        <ele>648.2</ele>
        <time>2026-03-21T10:55:40Z</time>
      </trkpt>
      <trkpt lat="48.01502" lon="7.03118">
        <ele>648.2</ele>
        <time>2026-03-21T10:55:45Z</time>
      </trkpt>
      <trkpt lat="48.01502" lon="7.03118">
        <ele>648.2</ele>
        <time>2026-03-21T10:55:50Z</time>
      </trkpt>
      <trkpt lat="48.01502" lon="7.03118">
        <ele>648.2</ele>
        <time>2026-03-21T10:55:55Z</time>
      </trkpt>
      <trkpt lat="48.01502" lon="7.03118">
        <ele>648.2</ele>
        <time>2026-03-21T10:56:00Z</time>
      </trkpt>
      <trkpt lat="48.01502" lon="7.03118">
        <ele>648.2</ele>
        <time>2026-03-21T10:56:05Z</time>
      </trkpt>
      <trkpt lat="48.01502" lon="7.03118">
        <ele>648.2</ele>
        <time>2026-03-21T10:56:10Z</time>
      </trkpt>
      <trkpt lat="48.01502" lon="7.03118">
        <ele>648.2</ele>
        <time>2026-03-21T10:56:15Z</time>
      </trkpt>
      <trkpt lat="48.01502" lon="7.03118">
        <ele>648.2</ele>
        <time>2026-03-21T10:56:20Z</time>
      </trkpt>
      <trkpt lat="48.01502" lon="7.03118">
        <ele>648.2</ele>
        <time>2026-03-21T10:56:25Z</time>
      </trkpt>
      <trkpt lat="48.01502" lon="7.03118">
        <ele>648.2</ele>
        <time>2026-03-21T10:56:30Z</time>
      </trkpt>
      <trkpt lat="48.01502" lon="7.03118">
        <ele>648.2</ele>
        <time>2026-03-21T10:56:35Z</time>
      </trkpt>
      <trkpt lat="48.01502" lon="7.03118">
        <ele>648.2</ele>
        <time>2026-03-21T10:56:40Z</time>
      </trkpt>
      <trkpt lat="48.01498" lon="7.0312">
        <ele>648.9</ele>
        <time>2026-03-21T10:56:45Z</time>
      </trkpt>
      <trkpt lat="48.01494" lon="7.03126">
        <ele>647.5</ele>
        <time>2026-03-21T10:56:50Z</time>
      </trkpt>
      <trkpt lat="48.0149" lon="7.0313">
        <ele>647.2</ele>
        <time>2026-03-21T10:56:55Z</time>
      </trkpt>
      <trkpt lat="48.01485" lon="7.03134">
        <ele>647.4</ele>
        <time>2026-03-21T10:57:00Z</time>
      </trkpt>
      <trkpt lat="48.01481" lon="7.03137">
        <ele>647.6</ele>
        <time>2026-03-21T10:57:05Z</time>
      </trkpt>
      <trkpt lat="48.01477" lon="7.03142">
        <ele>646.6</ele>
        <time>2026-03-21T10:57:10Z</time>
      </trkpt>
      <trkpt lat="48.01473" lon="7.03147">
        <ele>645.6</ele>
        <time>2026-03-21T10:57:15Z</time>
      </trkpt>
      <trkpt lat="48.01469" lon="7.03152">
        <ele>644.5</ele>
        <time>2026-03-21T10:57:20Z</time>
      </trkpt>
      <trkpt lat="48.01464" lon="7.03159">
        <ele>642.6</ele>
        <time>2026-03-21T10:57:25Z</time>
      </trkpt>
      <trkpt lat="48.01459" lon="7.03162">
        <ele>643.1</ele>
        <time>2026-03-21T10:57:30Z</time>
      </trkpt>
      <trkpt lat="48.01455" lon="7.03166">
        <ele>642.5</ele>
        <time>2026-03-21T10:57:35Z</time>
      </trkpt>
      <trkpt lat="48.01451" lon="7.03172">
        <ele>641.7</ele>
        <time>2026-03-21T10:57:40Z</time>
      </trkpt>
      <trkpt lat="48.01448" lon="7.03179">
        <ele>640.1</ele>
        <time>2026-03-21T10:57:45Z</time>
      </trkpt>
      <trkpt lat="48.01445" lon="7.03187">
        <ele>638</ele>
        <time>2026-03-21T10:57:50Z</time>
      </trkpt>
      <trkpt lat="48.01443" lon="7.03196">
        <ele>634.9</ele>
        <time>2026-03-21T10:57:55Z</time>
      </trkpt>
      <trkpt lat="48.01441" lon="7.03203">
        <ele>632.7</ele>
        <time>2026-03-21T10:58:00Z</time>
      </trkpt>
      <trkpt lat="48.01436" lon="7.0321">
        <ele>631.6</ele>
        <time>2026-03-21T10:58:05Z</time>
      </trkpt>
      <trkpt lat="48.01434" lon="7.03216">
        <ele>629.7</ele>
        <time>2026-03-21T10:58:10Z</time>
      </trkpt>
      <trkpt lat="48.01432" lon="7.03224">
        <ele>626.8</ele>
        <time>2026-03-21T10:58:15Z</time>
      </trkpt>
      <trkpt lat="48.0143" lon="7.0323">
        <ele>624.8</ele>
        <time>2026-03-21T10:58:20Z</time>
      </trkpt>
      <trkpt lat="48.01427" lon="7.03237">
        <ele>622.7</ele>
        <time>2026-03-21T10:58:25Z</time>
      </trkpt>
      <trkpt lat="48.01423" lon="7.03243">
        <ele>621.2</ele>
        <time>2026-03-21T10:58:30Z</time>
      </trkpt>
      <trkpt lat="48.01419" lon="7.03248">
        <ele>620.2</ele>
        <time>2026-03-21T10:58:35Z</time>
      </trkpt>
      <trkpt lat="48.01415" lon="7.03255">
        <ele>620</ele>
        <time>2026-03-21T10:58:40Z</time>
      </trkpt>
      <trkpt lat="48.01412" lon="7.03263">
        <ele>620</ele>
        <time>2026-03-21T10:58:45Z</time>
      </trkpt>
      <trkpt lat="48.01405" lon="7.03267">
        <ele>623.3</ele>
        <time>2026-03-21T10:58:50Z</time>
      </trkpt>
      <trkpt lat="48.01401" lon="7.03272">
        <ele>624.5</ele>
        <time>2026-03-21T10:58:55Z</time>
      </trkpt>
      <trkpt lat="48.01396" lon="7.03274">
        <ele>626.9</ele>
        <time>2026-03-21T10:59:00Z</time>
      </trkpt>
      <trkpt lat="48.01392" lon="7.03276">
        <ele>628.7</ele>
        <time>2026-03-21T10:59:05Z</time>
      </trkpt>
      <trkpt lat="48.01387" lon="7.03279">
        <ele>630.7</ele>
        <time>2026-03-21T10:59:10Z</time>
      </trkpt>
      <trkpt lat="48.01385" lon="7.03283">
        <ele>630.8</ele>
        <time>2026-03-21T10:59:15Z</time>
      </trkpt>
      <trkpt lat="48.01383" lon="7.03288">
        <ele>630.4</ele>
        <time>2026-03-21T10:59:20Z</time>
      </trkpt>
      <trkpt lat="48.01385" lon="7.03298">
        <ele>626.5</ele>
        <time>2026-03-21T10:59:25Z</time>
      </trkpt>
      <trkpt lat="48.01386" lon="7.03309">
        <ele>622.9</ele>
        <time>2026-03-21T10:59:30Z</time>
      </trkpt>
      <trkpt lat="48.01385" lon="7.03319">
        <ele>620.5</ele>
        <time>2026-03-21T10:59:35Z</time>
      </trkpt>
      <trkpt lat="48.01384" lon="7.03329">
        <ele>618.1</ele>
        <time>2026-03-21T10:59:40Z</time>
      </trkpt>
      <trkpt lat="48.01384" lon="7.03338">
        <ele>615.3</ele>
        <time>2026-03-21T10:59:45Z</time>
      </trkpt>
      <trkpt lat="48.01382" lon="7.03347">
        <ele>613.1</ele>
        <time>2026-03-21T10:59:50Z</time>
      </trkpt>
      <trkpt lat="48.0138" lon="7.03357">
        <ele>610.3</ele>
        <time>2026-03-21T10:59:55Z</time>
      </trkpt>
      <trkpt lat="48.01378" lon="7.03366">
        <ele>607.8</ele>
        <time>2026-03-21T11:00:00Z</time>
      </trkpt>
      <trkpt lat="48.01375" lon="7.03374">
        <ele>605.9</ele>
        <time>2026-03-21T11:00:05Z</time>
      </trkpt>
      <trkpt lat="48.01368" lon="7.03382">
        <ele>604.9</ele>
        <time>2026-03-21T11:00:10Z</time>
      </trkpt>
      <trkpt lat="48.01365" lon="7.03389">
        <ele>602.9</ele>
        <time>2026-03-21T11:00:15Z</time>
      </trkpt>
      <trkpt lat="48.0136" lon="7.03396">
        <ele>601.3</ele>
        <time>2026-03-21T11:00:20Z</time>
      </trkpt>
      <trkpt lat="48.01355" lon="7.03402">
        <ele>599.8</ele>
        <time>2026-03-21T11:00:25Z</time>
      </trkpt>
      <trkpt lat="48.01352" lon="7.0341">
        <ele>596.9</ele>
        <time>2026-03-21T11:00:30Z</time>
      </trkpt>
      <trkpt lat="48.0135" lon="7.0342">
        <ele>593.5</ele>
        <time>2026-03-21T11:00:35Z</time>
      </trkpt>
      <trkpt lat="48.01346" lon="7.03429">
        <ele>592.3</ele>
        <time>2026-03-21T11:00:40Z</time>
      </trkpt>
      <trkpt lat="48.01341" lon="7.03436">
        <ele>591.6</ele>
        <time>2026-03-21T11:00:45Z</time>
      </trkpt>
      <trkpt lat="48.01335" lon="7.0344">
        <ele>591.7</ele>
        <time>2026-03-21T11:00:50Z</time>
      </trkpt>
      <trkpt lat="48.01329" lon="7.03443">
        <ele>593.6</ele>
        <time>2026-03-21T11:00:55Z</time>
      </trkpt>
      <trkpt lat="48.01321" lon="7.03447">
        <ele>596.7</ele>
        <time>2026-03-21T11:01:00Z</time>
      </trkpt>
      <trkpt lat="48.01315" lon="7.03452">
        <ele>598.3</ele>
        <time>2026-03-21T11:01:05Z</time>
      </trkpt>
      <trkpt lat="48.01309" lon="7.03461">
        <ele>598.4</ele>
        <time>2026-03-21T11:01:10Z</time>
      </trkpt>
      <trkpt lat="48.01304" lon="7.03467">
        <ele>598.6</ele>
        <time>2026-03-21T11:01:15Z</time>
      </trkpt>
      <trkpt lat="48.013" lon="7.03476">
        <ele>597.1</ele>
        <time>2026-03-21T11:01:20Z</time>
      </trkpt>
      <trkpt lat="48.01294" lon="7.03483">
        <ele>596.8</ele>
        <time>2026-03-21T11:01:25Z</time>
      </trkpt>
      <trkpt lat="48.0129" lon="7.03491">
        <ele>595.1</ele>
        <time>2026-03-21T11:01:30Z</time>
      </trkpt>
      <trkpt lat="48.01285" lon="7.03497">
        <ele>594.2</ele>
        <time>2026-03-21T11:01:35Z</time>
      </trkpt>
      <trkpt lat="48.01281" lon="7.035">
        <ele>594.1</ele>
        <time>2026-03-21T11:01:40Z</time>
      </trkpt>
      <trkpt lat="48.01277" lon="7.03503">
        <ele>594.5</ele>
        <time>2026-03-21T11:01:45Z</time>
      </trkpt>
      <trkpt lat="48.01272" lon="7.0351">
        <ele>594</ele>
        <time>2026-03-21T11:01:50Z</time>
      </trkpt>
      <trkpt lat="48.01268" lon="7.03516">
        <ele>593.4</ele>
        <time>2026-03-21T11:01:55Z</time>
      </trkpt>
      <trkpt lat="48.01263" lon="7.03524">
        <ele>592.4</ele>
        <time>2026-03-21T11:02:00Z</time>
      </trkpt>
      <trkpt lat="48.0126" lon="7.03533">
        <ele>590.5</ele>
        <time>2026-03-21T11:02:05Z</time>
      </trkpt>
      <trkpt lat="48.01256" lon="7.03541">
        <ele>589</ele>
        <time>2026-03-21T11:02:10Z</time>
      </trkpt>
      <trkpt lat="48.01251" lon="7.03549">
        <ele>587.5</ele>
        <time>2026-03-21T11:02:15Z</time>
      </trkpt>
      <trkpt lat="48.01247" lon="7.03559">
        <ele>585.7</ele>
        <time>2026-03-21T11:02:20Z</time>
      </trkpt>
      <trkpt lat="48.01243" lon="7.03566">
        <ele>584.7</ele>
        <time>2026-03-21T11:02:25Z</time>
      </trkpt>
      <trkpt lat="48.01239" lon="7.03574">
        <ele>583.1</ele>
        <time>2026-03-21T11:02:30Z</time>
      </trkpt>
      <trkpt lat="48.01236" lon="7.03582">
        <ele>581</ele>
        <time>2026-03-21T11:02:35Z</time>
      </trkpt>
      <trkpt lat="48.01232" lon="7.03589">
        <ele>580.4</ele>
        <time>2026-03-21T11:02:40Z</time>
      </trkpt>
      <trkpt lat="48.01228" lon="7.03596">
        <ele>579.9</ele>
        <time>2026-03-21T11:02:45Z</time>
      </trkpt>
      <trkpt lat="48.01223" lon="7.03606">
        <ele>579</ele>
        <time>2026-03-21T11:02:50Z</time>
      </trkpt>
      <trkpt lat="48.01221" lon="7.03615">
        <ele>577.6</ele>
        <time>2026-03-21T11:02:55Z</time>
      </trkpt>
      <trkpt lat="48.01217" lon="7.03625">
        <ele>576.3</ele>
        <time>2026-03-21T11:03:00Z</time>
      </trkpt>
      <trkpt lat="48.01217" lon="7.03632">
        <ele>574.8</ele>
        <time>2026-03-21T11:03:05Z</time>
      </trkpt>
      <trkpt lat="48.01214" lon="7.03639">
        <ele>573.9</ele>
        <time>2026-03-21T11:03:10Z</time>
      </trkpt>
      <trkpt lat="48.0121" lon="7.03643">
        <ele>573.9</ele>
        <time>2026-03-21T11:03:15Z</time>
      </trkpt>
      <trkpt lat="48.01205" lon="7.0365">
        <ele>573.4</ele>
        <time>2026-03-21T11:03:20Z</time>
      </trkpt>
      <trkpt lat="48.01201" lon="7.03653">
        <ele>573.5</ele>
        <time>2026-03-21T11:03:25Z</time>
      </trkpt>
      <trkpt lat="48.01196" lon="7.03658">
        <ele>573.4</ele>
        <time>2026-03-21T11:03:30Z</time>
      </trkpt>
      <trkpt lat="48.0119" lon="7.03664">
        <ele>573.1</ele>
        <time>2026-03-21T11:03:35Z</time>
      </trkpt>
      <trkpt lat="48.01184" lon="7.0367">
        <ele>573.1</ele>
        <time>2026-03-21T11:03:40Z</time>
      </trkpt>
      <trkpt lat="48.01178" lon="7.03677">
        <ele>572.8</ele>
        <time>2026-03-21T11:03:45Z</time>
      </trkpt>
      <trkpt lat="48.01171" lon="7.03679">
        <ele>573.5</ele>
        <time>2026-03-21T11:03:50Z</time>
      </trkpt>
      <trkpt lat="48.01164" lon="7.03685">
        <ele>573.5</ele>
        <time>2026-03-21T11:03:55Z</time>
      </trkpt>
      <trkpt lat="48.01159" lon="7.03689">
        <ele>573.9</ele>
        <time>2026-03-21T11:04:00Z</time>
      </trkpt>
      <trkpt lat="48.01154" lon="7.03692">
        <ele>574.4</ele>
        <time>2026-03-21T11:04:05Z</time>
      </trkpt>
      <trkpt lat="48.01147" lon="7.03697">
        <ele>574.9</ele>
        <time>2026-03-21T11:04:10Z</time>
      </trkpt>
      <trkpt lat="48.01142" lon="7.03701">
        <ele>575</ele>
        <time>2026-03-21T11:04:15Z</time>
      </trkpt>
      <trkpt lat="48.01135" lon="7.03707">
        <ele>574.9</ele>
        <time>2026-03-21T11:04:20Z</time>
      </trkpt>
      <trkpt lat="48.01128" lon="7.03707">
        <ele>576.5</ele>
        <time>2026-03-21T11:04:25Z</time>
      </trkpt>
      <trkpt lat="48.01124" lon="7.03706">
        <ele>577.7</ele>
        <time>2026-03-21T11:04:30Z</time>
      </trkpt>
      <trkpt lat="48.0112" lon="7.03707">
        <ele>578.3</ele>
        <time>2026-03-21T11:04:35Z</time>
      </trkpt>
      <trkpt lat="48.01116" lon="7.03708">
        <ele>578.9</ele>
        <time>2026-03-21T11:04:40Z</time>
      </trkpt>
      <trkpt lat="48.01111" lon="7.03712">
        <ele>578.6</ele>
        <time>2026-03-21T11:04:45Z</time>
      </trkpt>
      <trkpt lat="48.01106" lon="7.03715">
        <ele>578.7</ele>
        <time>2026-03-21T11:04:50Z</time>
      </trkpt>
      <trkpt lat="48.01102" lon="7.03719">
        <ele>578.1</ele>
        <time>2026-03-21T11:04:55Z</time>
      </trkpt>
      <trkpt lat="48.01095" lon="7.03724">
        <ele>577.7</ele>
        <time>2026-03-21T11:05:00Z</time>
      </trkpt>
      <trkpt lat="48.01089" lon="7.03731">
        <ele>576.3</ele>
        <time>2026-03-21T11:05:05Z</time>
      </trkpt>
      <trkpt lat="48.01084" lon="7.03735">
        <ele>575.6</ele>
        <time>2026-03-21T11:05:10Z</time>
      </trkpt>
      <trkpt lat="48.0108" lon="7.03737">
        <ele>574.7</ele>
        <time>2026-03-21T11:05:15Z</time>
      </trkpt>
      <trkpt lat="48.01074" lon="7.03741">
        <ele>572.5</ele>
        <time>2026-03-21T11:05:20Z</time>
      </trkpt>
      <trkpt lat="48.01068" lon="7.03743">
        <ele>571</ele>
        <time>2026-03-21T11:05:25Z</time>
      </trkpt>
      <trkpt lat="48.01062" lon="7.03745">
        <ele>569.5</ele>
        <time>2026-03-21T11:05:30Z</time>
      </trkpt>
      <trkpt lat="48.01056" lon="7.03744">
        <ele>569.3</ele>
        <time>2026-03-21T11:05:35Z</time>
      </trkpt>
      <trkpt lat="48.01052" lon="7.03744">
        <ele>568.8</ele>
        <time>2026-03-21T11:05:40Z</time>
      </trkpt>
      <trkpt lat="48.01046" lon="7.03742">
        <ele>569</ele>
        <time>2026-03-21T11:05:45Z</time>
      </trkpt>
      <trkpt lat="48.01041" lon="7.03745">
        <ele>567.1</ele>
        <time>2026-03-21T11:05:50Z</time>
      </trkpt>
      <trkpt lat="48.01036" lon="7.03745">
        <ele>566.6</ele>
        <time>2026-03-21T11:05:55Z</time>
      </trkpt>
      <trkpt lat="48.01032" lon="7.03745">
        <ele>566.1</ele>
        <time>2026-03-21T11:06:00Z</time>
      </trkpt>
      <trkpt lat="48.01026" lon="7.03745">
        <ele>565.5</ele>
        <time>2026-03-21T11:06:05Z</time>
      </trkpt>
      <trkpt lat="48.01021" lon="7.03747">
        <ele>563.9</ele>
        <time>2026-03-21T11:06:10Z</time>
      </trkpt>
      <trkpt lat="48.01017" lon="7.03748">
        <ele>563</ele>
        <time>2026-03-21T11:06:15Z</time>
      </trkpt>
      <trkpt lat="48.01011" lon="7.03749">
        <ele>561.8</ele>
        <time>2026-03-21T11:06:20Z</time>
      </trkpt>
      <trkpt lat="48.01006" lon="7.03752">
        <ele>560.3</ele>
        <time>2026-03-21T11:06:25Z</time>
      </trkpt>
      <trkpt lat="48.01002" lon="7.03755">
        <ele>559.1</ele>
        <time>2026-03-21T11:06:30Z</time>
      </trkpt>
      <trkpt lat="48.00997" lon="7.03755">
        <ele>558.5</ele>
        <time>2026-03-21T11:06:35Z</time>
      </trkpt>
      <trkpt lat="48.00994" lon="7.03755">
        <ele>558.1</ele>
        <time>2026-03-21T11:06:40Z</time>
      </trkpt>
      <trkpt lat="48.0099" lon="7.03756">
        <ele>557.4</ele>
        <time>2026-03-21T11:06:45Z</time>
      </trkpt>
      <trkpt lat="48.00985" lon="7.03757">
        <ele>556.6</ele>
        <time>2026-03-21T11:06:50Z</time>
      </trkpt>
      <trkpt lat="48.00981" lon="7.03757">
        <ele>556.1</ele>
        <time>2026-03-21T11:06:55Z</time>
      </trkpt>
      <trkpt lat="48.00976" lon="7.03758">
        <ele>555.2</ele>
        <time>2026-03-21T11:07:00Z</time>
      </trkpt>
      <trkpt lat="48.0097" lon="7.03758">
        <ele>554.5</ele>
        <time>2026-03-21T11:07:05Z</time>
      </trkpt>
      <trkpt lat="48.00964" lon="7.0376">
        <ele>553.3</ele>
        <time>2026-03-21T11:07:10Z</time>
      </trkpt>
      <trkpt lat="48.00959" lon="7.03762">
        <ele>552.4</ele>
        <time>2026-03-21T11:07:15Z</time>
      </trkpt>
      <trkpt lat="48.00959" lon="7.03762">
        <ele>552.4</ele>
        <time>2026-03-21T11:07:20Z</time>
      </trkpt>
      <trkpt lat="48.00957" lon="7.03764">
        <ele>551.7</ele>
        <time>2026-03-21T11:07:25Z</time>
      </trkpt>
      <trkpt lat="48.00952" lon="7.03764">
        <ele>551.1</ele>
        <time>2026-03-21T11:07:30Z</time>
      </trkpt>
      <trkpt lat="48.00948" lon="7.03764">
        <ele>550.6</ele>
        <time>2026-03-21T11:07:35Z</time>
      </trkpt>
      <trkpt lat="48.00946" lon="7.03764">
        <ele>550.4</ele>
        <time>2026-03-21T11:07:40Z</time>
      </trkpt>
      <trkpt lat="48.00946" lon="7.03764">
        <ele>550.4</ele>
        <time>2026-03-21T11:07:45Z</time>
      </trkpt>
      <trkpt lat="48.00936" lon="7.03771">
        <ele>548</ele>
        <time>2026-03-21T11:07:50Z</time>
      </trkpt>
      <trkpt lat="48.00935" lon="7.03771">
        <ele>547.9</ele>
        <time>2026-03-21T11:07:55Z</time>
      </trkpt>
      <trkpt lat="48.00927" lon="7.03772">
        <ele>546.8</ele>
        <time>2026-03-21T11:08:00Z</time>
      </trkpt>
      <trkpt lat="48.00923" lon="7.03768">
        <ele>546.9</ele>
        <time>2026-03-21T11:08:05Z</time>
      </trkpt>
      <trkpt lat="48.0092" lon="7.03768">
        <ele>546.6</ele>
        <time>2026-03-21T11:08:10Z</time>
      </trkpt>
      <trkpt lat="48.00918" lon="7.0377">
        <ele>546</ele>
        <time>2026-03-21T11:08:15Z</time>
      </trkpt>
      <trkpt lat="48.00914" lon="7.03772">
        <ele>545.4</ele>
        <time>2026-03-21T11:08:20Z</time>
      </trkpt>
      <trkpt lat="48.00909" lon="7.03771">
        <ele>545.4</ele>
        <time>2026-03-21T11:08:25Z</time>
      </trkpt>
      <trkpt lat="48.00904" lon="7.0377">
        <ele>545.3</ele>
        <time>2026-03-21T11:08:30Z</time>
      </trkpt>
      <trkpt lat="48.00898" lon="7.03772">
        <ele>544.7</ele>
        <time>2026-03-21T11:08:35Z</time>
      </trkpt>
      <trkpt lat="48.00894" lon="7.03772">
        <ele>544.5</ele>
        <time>2026-03-21T11:08:40Z</time>
      </trkpt>
      <trkpt lat="48.00889" lon="7.03775">
        <ele>543.8</ele>
        <time>2026-03-21T11:08:45Z</time>
      </trkpt>
      <trkpt lat="48.00884" lon="7.03778">
        <ele>543.2</ele>
        <time>2026-03-21T11:08:50Z</time>
      </trkpt>
      <trkpt lat="48.00881" lon="7.0378">
        <ele>542.8</ele>
        <time>2026-03-21T11:08:55Z</time>
      </trkpt>
      <trkpt lat="48.00877" lon="7.03782">
        <ele>542.4</ele>
        <time>2026-03-21T11:09:00Z</time>
      </trkpt>
      <trkpt lat="48.00872" lon="7.03781">
        <ele>542.3</ele>
        <time>2026-03-21T11:09:05Z</time>
      </trkpt>
      <trkpt lat="48.00867" lon="7.03777">
        <ele>542.6</ele>
        <time>2026-03-21T11:09:10Z</time>
      </trkpt>
      <trkpt lat="48.00863" lon="7.03777">
        <ele>542.4</ele>
        <time>2026-03-21T11:09:15Z</time>
      </trkpt>
      <trkpt lat="48.00856" lon="7.03776">
        <ele>542.2</ele>
        <time>2026-03-21T11:09:20Z</time>
      </trkpt>
      <trkpt lat="48.00848" lon="7.03773">
        <ele>542.2</ele>
        <time>2026-03-21T11:09:25Z</time>
      </trkpt>
      <trkpt lat="48.00841" lon="7.03772">
        <ele>542</ele>
        <time>2026-03-21T11:09:30Z</time>
      </trkpt>
      <trkpt lat="48.00837" lon="7.03771">
        <ele>541.9</ele>
        <time>2026-03-21T11:09:35Z</time>
      </trkpt>
      <trkpt lat="48.00837" lon="7.03771">
        <ele>541.9</ele>
        <time>2026-03-21T11:09:40Z</time>
      </trkpt>
      <trkpt lat="48.00837" lon="7.03771">
        <ele>541.9</ele>
        <time>2026-03-21T11:09:45Z</time>
      </trkpt>
      <trkpt lat="48.00837" lon="7.03771">
        <ele>541.9</ele>
        <time>2026-03-21T11:09:50Z</time>
      </trkpt>
      <trkpt lat="48.00837" lon="7.03771">
        <ele>541.9</ele>
        <time>2026-03-21T11:09:55Z</time>
      </trkpt>
      <trkpt lat="48.00837" lon="7.03771">
        <ele>541.9</ele>
        <time>2026-03-21T11:10:00Z</time>
      </trkpt>
      <trkpt lat="48.00837" lon="7.03771">
        <ele>541.9</ele>
        <time>2026-03-21T11:10:05Z</time>
      </trkpt>
      <trkpt lat="48.00837" lon="7.03771">
        <ele>541.9</ele>
        <time>2026-03-21T11:10:10Z</time>
      </trkpt>
      <trkpt lat="48.00837" lon="7.03771">
        <ele>541.9</ele>
        <time>2026-03-21T11:10:15Z</time>
      </trkpt>
      <trkpt lat="48.00837" lon="7.03771">
        <ele>541.9</ele>
        <time>2026-03-21T11:10:20Z</time>
      </trkpt>
      <trkpt lat="48.00837" lon="7.03771">
        <ele>541.9</ele>
        <time>2026-03-21T11:10:25Z</time>
      </trkpt>
      <trkpt lat="48.00837" lon="7.03771">
        <ele>541.9</ele>
        <time>2026-03-21T11:10:30Z</time>
      </trkpt>
      <trkpt lat="48.00837" lon="7.03771">
        <ele>541.9</ele>
        <time>2026-03-21T11:10:35Z</time>
      </trkpt>
      <trkpt lat="48.00837" lon="7.03771">
        <ele>541.9</ele>
        <time>2026-03-21T11:10:40Z</time>
      </trkpt>
      <trkpt lat="48.00837" lon="7.03771">
        <ele>541.9</ele>
        <time>2026-03-21T11:10:45Z</time>
      </trkpt>
      <trkpt lat="48.00837" lon="7.03771">
        <ele>541.9</ele>
        <time>2026-03-21T11:10:50Z</time>
      </trkpt>
      <trkpt lat="48.00837" lon="7.03771">
        <ele>541.9</ele>
        <time>2026-03-21T11:10:55Z</time>
      </trkpt>
      <trkpt lat="48.00837" lon="7.03771">
        <ele>541.9</ele>
        <time>2026-03-21T11:11:00Z</time>
      </trkpt>
      <trkpt lat="48.00837" lon="7.03771">
        <ele>541.9</ele>
        <time>2026-03-21T11:11:05Z</time>
      </trkpt>
      <trkpt lat="48.00837" lon="7.03771">
        <ele>541.9</ele>
        <time>2026-03-21T11:11:10Z</time>
      </trkpt>
      <trkpt lat="48.00837" lon="7.03771">
        <ele>541.9</ele>
        <time>2026-03-21T11:11:15Z</time>
      </trkpt>
      <trkpt lat="48.00837" lon="7.03771">
        <ele>541.9</ele>
        <time>2026-03-21T11:11:20Z</time>
      </trkpt>
      <trkpt lat="48.00837" lon="7.03771">
        <ele>541.9</ele>
        <time>2026-03-21T11:11:25Z</time>
      </trkpt>
      <trkpt lat="48.00837" lon="7.03771">
        <ele>541.9</ele>
        <time>2026-03-21T11:11:30Z</time>
      </trkpt>
      <trkpt lat="48.00837" lon="7.03771">
        <ele>541.9</ele>
        <time>2026-03-21T11:11:35Z</time>
      </trkpt>
      <trkpt lat="48.00837" lon="7.03771">
        <ele>541.9</ele>
        <time>2026-03-21T11:11:40Z</time>
      </trkpt>
      <trkpt lat="48.00837" lon="7.03771">
        <ele>541.9</ele>
        <time>2026-03-21T11:11:45Z</time>
      </trkpt>
      <trkpt lat="48.00837" lon="7.03771">
        <ele>541.9</ele>
        <time>2026-03-21T11:11:50Z</time>
      </trkpt>
      <trkpt lat="48.00837" lon="7.03771">
        <ele>541.9</ele>
        <time>2026-03-21T11:11:55Z</time>
      </trkpt>
      <trkpt lat="48.00837" lon="7.03771">
        <ele>541.9</ele>
        <time>2026-03-21T11:12:00Z</time>
      </trkpt>
      <trkpt lat="48.00837" lon="7.03771">
        <ele>541.9</ele>
        <time>2026-03-21T11:12:05Z</time>
      </trkpt>
      <trkpt lat="48.00837" lon="7.03771">
        <ele>541.9</ele>
        <time>2026-03-21T11:12:10Z</time>
      </trkpt>
      <trkpt lat="48.00837" lon="7.03771">
        <ele>541.9</ele>
        <time>2026-03-21T11:12:15Z</time>
      </trkpt>
      <trkpt lat="48.00837" lon="7.03771">
        <ele>541.9</ele>
        <time>2026-03-21T11:12:20Z</time>
      </trkpt>
      <trkpt lat="48.00837" lon="7.03771">
        <ele>541.9</ele>
        <time>2026-03-21T11:12:25Z</time>
      </trkpt>
      <trkpt lat="48.00837" lon="7.03771">
        <ele>541.9</ele>
        <time>2026-03-21T11:12:30Z</time>
      </trkpt>
      <trkpt lat="48.00837" lon="7.03771">
        <ele>541.9</ele>
        <time>2026-03-21T11:12:35Z</time>
      </trkpt>
      <trkpt lat="48.00837" lon="7.03771">
        <ele>541.9</ele>
        <time>2026-03-21T11:12:40Z</time>
      </trkpt>
      <trkpt lat="48.00837" lon="7.03771">
        <ele>541.9</ele>
        <time>2026-03-21T11:12:45Z</time>
      </trkpt>
      <trkpt lat="48.00837" lon="7.03771">
        <ele>541.9</ele>
        <time>2026-03-21T11:12:50Z</time>
      </trkpt>
      <trkpt lat="48.00837" lon="7.03771">
        <ele>541.9</ele>
        <time>2026-03-21T11:12:55Z</time>
      </trkpt>
      <trkpt lat="48.00837" lon="7.03771">
        <ele>541.9</ele>
        <time>2026-03-21T11:13:00Z</time>
      </trkpt>
      <trkpt lat="48.00837" lon="7.03771">
        <ele>541.9</ele>
        <time>2026-03-21T11:13:05Z</time>
      </trkpt>
      <trkpt lat="48.00837" lon="7.03771">
        <ele>541.9</ele>
        <time>2026-03-21T11:13:10Z</time>
      </trkpt>
      <trkpt lat="48.00837" lon="7.03771">
        <ele>541.9</ele>
        <time>2026-03-21T11:13:15Z</time>
      </trkpt>
      <trkpt lat="48.00837" lon="7.03771">
        <ele>541.9</ele>
        <time>2026-03-21T11:13:20Z</time>
      </trkpt>
      <trkpt lat="48.00837" lon="7.03771">
        <ele>541.9</ele>
        <time>2026-03-21T11:13:25Z</time>
      </trkpt>
      <trkpt lat="48.00837" lon="7.03771">
        <ele>541.9</ele>
        <time>2026-03-21T11:13:30Z</time>
      </trkpt>
      <trkpt lat="48.00837" lon="7.03771">
        <ele>541.9</ele>
        <time>2026-03-21T11:13:35Z</time>
      </trkpt>
      <trkpt lat="48.00837" lon="7.03771">
        <ele>541.9</ele>
        <time>2026-03-21T11:13:40Z</time>
      </trkpt>
      <trkpt lat="48.00837" lon="7.03771">
        <ele>541.9</ele>
        <time>2026-03-21T11:13:45Z</time>
      </trkpt>
      <trkpt lat="48.00837" lon="7.03771">
        <ele>541.9</ele>
        <time>2026-03-21T11:13:50Z</time>
      </trkpt>
      <trkpt lat="48.00837" lon="7.03771">
        <ele>541.9</ele>
        <time>2026-03-21T11:13:55Z</time>
      </trkpt>
      <trkpt lat="48.00837" lon="7.03771">
        <ele>541.9</ele>
        <time>2026-03-21T11:14:00Z</time>
      </trkpt>
      <trkpt lat="48.00837" lon="7.03771">
        <ele>541.9</ele>
        <time>2026-03-21T11:14:05Z</time>
      </trkpt>
      <trkpt lat="48.00837" lon="7.03771">
        <ele>541.9</ele>
        <time>2026-03-21T11:14:10Z</time>
      </trkpt>
      <trkpt lat="48.00837" lon="7.03771">
        <ele>541.9</ele>
        <time>2026-03-21T11:14:15Z</time>
      </trkpt>
      <trkpt lat="48.00837" lon="7.03771">
        <ele>541.9</ele>
        <time>2026-03-21T11:14:20Z</time>
      </trkpt>
      <trkpt lat="48.00837" lon="7.03771">
        <ele>541.9</ele>
        <time>2026-03-21T11:14:25Z</time>
      </trkpt>
      <trkpt lat="48.00837" lon="7.03771">
        <ele>541.9</ele>
        <time>2026-03-21T11:14:30Z</time>
      </trkpt>
      <trkpt lat="48.00837" lon="7.03771">
        <ele>541.9</ele>
        <time>2026-03-21T11:14:35Z</time>
      </trkpt>
      <trkpt lat="48.00837" lon="7.03771">
        <ele>541.9</ele>
        <time>2026-03-21T11:14:40Z</time>
      </trkpt>
      <trkpt lat="48.00837" lon="7.03771">
        <ele>541.9</ele>
        <time>2026-03-21T11:14:45Z</time>
      </trkpt>
      <trkpt lat="48.00829" lon="7.03774">
        <ele>540.7</ele>
        <time>2026-03-21T11:14:50Z</time>
      </trkpt>
      <trkpt lat="48.00823" lon="7.03774">
        <ele>539.6</ele>
        <time>2026-03-21T11:14:55Z</time>
      </trkpt>
      <trkpt lat="48.00817" lon="7.03773">
        <ele>538.7</ele>
        <time>2026-03-21T11:15:00Z</time>
      </trkpt>
      <trkpt lat="48.00811" lon="7.03771">
        <ele>537.8</ele>
        <time>2026-03-21T11:15:05Z</time>
      </trkpt>
      <trkpt lat="48.00806" lon="7.03768">
        <ele>537.2</ele>
        <time>2026-03-21T11:15:10Z</time>
      </trkpt>
      <trkpt lat="48.00801" lon="7.03763">
        <ele>536.7</ele>
        <time>2026-03-21T11:15:15Z</time>
      </trkpt>
      <trkpt lat="48.00797" lon="7.0376">
        <ele>536.2</ele>
        <time>2026-03-21T11:15:20Z</time>
      </trkpt>
      <trkpt lat="48.00791" lon="7.0376">
        <ele>535.1</ele>
        <time>2026-03-21T11:15:25Z</time>
      </trkpt>
      <trkpt lat="48.00786" lon="7.03762">
        <ele>534</ele>
        <time>2026-03-21T11:15:30Z</time>
      </trkpt>
      <trkpt lat="48.00785" lon="7.03762">
        <ele>533.8</ele>
        <time>2026-03-21T11:15:35Z</time>
      </trkpt>
      <trkpt lat="48.00784" lon="7.03762">
        <ele>533.7</ele>
        <time>2026-03-21T11:15:40Z</time>
      </trkpt>
      <trkpt lat="48.00776" lon="7.03762">
        <ele>532.2</ele>
        <time>2026-03-21T11:15:45Z</time>
      </trkpt>
      <trkpt lat="48.00769" lon="7.03764">
        <ele>530.8</ele>
        <time>2026-03-21T11:15:50Z</time>
      </trkpt>
      <trkpt lat="48.00765" lon="7.03765">
        <ele>530</ele>
        <time>2026-03-21T11:15:55Z</time>
      </trkpt>
      <trkpt lat="48.0076" lon="7.03767">
        <ele>529</ele>
        <time>2026-03-21T11:16:00Z</time>
      </trkpt>
      <trkpt lat="48.00757" lon="7.0377">
        <ele>528.3</ele>
        <time>2026-03-21T11:16:05Z</time>
      </trkpt>
      <trkpt lat="48.00752" lon="7.03774">
        <ele>527.2</ele>
        <time>2026-03-21T11:16:10Z</time>
      </trkpt>
      <trkpt lat="48.00746" lon="7.03777">
        <ele>526.4</ele>
        <time>2026-03-21T11:16:15Z</time>
      </trkpt>
      <trkpt lat="48.00741" lon="7.03782">
        <ele>525.8</ele>
        <time>2026-03-21T11:16:20Z</time>
      </trkpt>
      <trkpt lat="48.00736" lon="7.03791">
        <ele>525</ele>
        <time>2026-03-21T11:16:25Z</time>
      </trkpt>
      <trkpt lat="48.00733" lon="7.03798">
        <ele>524.5</ele>
        <time>2026-03-21T11:16:30Z</time>
      </trkpt>
      <trkpt lat="48.0073" lon="7.03806">
        <ele>524</ele>
        <time>2026-03-21T11:16:35Z</time>
      </trkpt>
      <trkpt lat="48.00729" lon="7.03813">
        <ele>523.7</ele>
        <time>2026-03-21T11:16:40Z</time>
      </trkpt>
      <trkpt lat="48.00725" lon="7.03823">
        <ele>523.1</ele>
        <time>2026-03-21T11:16:45Z</time>
      </trkpt>
      <trkpt lat="48.00724" lon="7.03831">
        <ele>522.8</ele>
        <time>2026-03-21T11:16:50Z</time>
      </trkpt>
      <trkpt lat="48.00722" lon="7.03839">
        <ele>522.7</ele>
        <time>2026-03-21T11:16:55Z</time>
      </trkpt>
      <trkpt lat="48.00718" lon="7.03847">
        <ele>522.7</ele>
        <time>2026-03-21T11:17:00Z</time>
      </trkpt>
      <trkpt lat="48.00713" lon="7.03849">
        <ele>522.5</ele>
        <time>2026-03-21T11:17:05Z</time>
      </trkpt>
      <trkpt lat="48.00711" lon="7.03842">
        <ele>522.3</ele>
        <time>2026-03-21T11:17:10Z</time>
      </trkpt>
      <trkpt lat="48.00712" lon="7.03834">
        <ele>522.2</ele>
        <time>2026-03-21T11:17:15Z</time>
      </trkpt>
      <trkpt lat="48.0071" lon="7.03825">
        <ele>522.3</ele>
        <time>2026-03-21T11:17:20Z</time>
      </trkpt>
      <trkpt lat="48.00707" lon="7.03814">
        <ele>522.4</ele>
        <time>2026-03-21T11:17:25Z</time>
      </trkpt>
      <trkpt lat="48.00705" lon="7.0381">
        <ele>522.4</ele>
        <time>2026-03-21T11:17:30Z</time>
      </trkpt>
      <trkpt lat="48.00699" lon="7.03807">
        <ele>522</ele>
        <time>2026-03-21T11:17:35Z</time>
      </trkpt>
      <trkpt lat="48.0069" lon="7.03803">
        <ele>521.5</ele>
        <time>2026-03-21T11:17:40Z</time>
      </trkpt>
      <trkpt lat="48.00682" lon="7.03799">
        <ele>521</ele>
        <time>2026-03-21T11:17:45Z</time>
      </trkpt>
      <trkpt lat="48.00676" lon="7.03796">
        <ele>520.6</ele>
        <time>2026-03-21T11:17:50Z</time>
      </trkpt>
      <trkpt lat="48.00672" lon="7.03792">
        <ele>520.4</ele>
        <time>2026-03-21T11:17:55Z</time>
      </trkpt>
      <trkpt lat="48.0067" lon="7.03784">
        <ele>520.3</ele>
        <time>2026-03-21T11:18:00Z</time>
      </trkpt>
      <trkpt lat="48.00669" lon="7.03775">
        <ele>520.2</ele>
        <time>2026-03-21T11:18:05Z</time>
      </trkpt>
      <trkpt lat="48.00669" lon="7.03765">
        <ele>520.2</ele>
        <time>2026-03-21T11:18:10Z</time>
      </trkpt>
      <trkpt lat="48.00671" lon="7.03758">
        <ele>520.4</ele>
        <time>2026-03-21T11:18:15Z</time>
      </trkpt>
      <trkpt lat="48.00673" lon="7.03752">
        <ele>520.6</ele>
        <time>2026-03-21T11:18:20Z</time>
      </trkpt>
      <trkpt lat="48.00674" lon="7.03742">
        <ele>520.9</ele>
        <time>2026-03-21T11:18:25Z</time>
      </trkpt>
      <trkpt lat="48.00675" lon="7.03732">
        <ele>521.4</ele>
        <time>2026-03-21T11:18:30Z</time>
      </trkpt>
      <trkpt lat="48.00675" lon="7.03723">
        <ele>521.6</ele>
        <time>2026-03-21T11:18:35Z</time>
      </trkpt>
      <trkpt lat="48.00671" lon="7.03713">
        <ele>521.4</ele>
        <time>2026-03-21T11:18:40Z</time>
      </trkpt>
      <trkpt lat="48.00666" lon="7.03704">
        <ele>521.1</ele>
        <time>2026-03-21T11:18:45Z</time>
      </trkpt>
      <trkpt lat="48.00661" lon="7.037">
        <ele>521.1</ele>
        <time>2026-03-21T11:18:50Z</time>
      </trkpt>
      <trkpt lat="48.00655" lon="7.03698">
        <ele>521</ele>
        <time>2026-03-21T11:18:55Z</time>
      </trkpt>
      <trkpt lat="48.00648" lon="7.03694">
        <ele>521</ele>
        <time>2026-03-21T11:19:00Z</time>
      </trkpt>
      <trkpt lat="48.00642" lon="7.03691">
        <ele>520.9</ele>
        <time>2026-03-21T11:19:05Z</time>
      </trkpt>
      <trkpt lat="48.00642" lon="7.03689">
        <ele>521</ele>
        <time>2026-03-21T11:19:10Z</time>
      </trkpt>
      <trkpt lat="48.00642" lon="7.03689">
        <ele>521</ele>
        <time>2026-03-21T11:19:15Z</time>
      </trkpt>
      <trkpt lat="48.00642" lon="7.03689">
        <ele>521</ele>
        <time>2026-03-21T11:19:20Z</time>
      </trkpt>
      <trkpt lat="48.00642" lon="7.03689">
        <ele>521</ele>
        <time>2026-03-21T11:19:25Z</time>
      </trkpt>
      <trkpt lat="48.00642" lon="7.03689">
        <ele>521</ele>
        <time>2026-03-21T11:19:30Z</time>
      </trkpt>
      <trkpt lat="48.00642" lon="7.03689">
        <ele>521</ele>
        <time>2026-03-21T11:19:35Z</time>
      </trkpt>
      <trkpt lat="48.00642" lon="7.03689">
        <ele>521</ele>
        <time>2026-03-21T11:19:40Z</time>
      </trkpt>
      <trkpt lat="48.00642" lon="7.03689">
        <ele>521</ele>
        <time>2026-03-21T11:19:45Z</time>
      </trkpt>
      <trkpt lat="48.00642" lon="7.03689">
        <ele>521</ele>
        <time>2026-03-21T11:19:50Z</time>
      </trkpt>
      <trkpt lat="48.00642" lon="7.03689">
        <ele>521</ele>
        <time>2026-03-21T11:19:55Z</time>
      </trkpt>
      <trkpt lat="48.00642" lon="7.03689">
        <ele>521</ele>
        <time>2026-03-21T11:20:00Z</time>
      </trkpt>
      <trkpt lat="48.00642" lon="7.03689">
        <ele>521</ele>
        <time>2026-03-21T11:20:05Z</time>
      </trkpt>
      <trkpt lat="48.00642" lon="7.03689">
        <ele>521</ele>
        <time>2026-03-21T11:20:10Z</time>
      </trkpt>
      <trkpt lat="48.00642" lon="7.03689">
        <ele>521</ele>
        <time>2026-03-21T11:20:15Z</time>
      </trkpt>
      <trkpt lat="48.00642" lon="7.03689">
        <ele>521</ele>
        <time>2026-03-21T11:20:20Z</time>
      </trkpt>
      <trkpt lat="48.00642" lon="7.03689">
        <ele>521</ele>
        <time>2026-03-21T11:20:25Z</time>
      </trkpt>
      <trkpt lat="48.00642" lon="7.03689">
        <ele>521</ele>
        <time>2026-03-21T11:20:30Z</time>
      </trkpt>
      <trkpt lat="48.00642" lon="7.03689">
        <ele>521</ele>
        <time>2026-03-21T11:20:35Z</time>
      </trkpt>
      <trkpt lat="48.00642" lon="7.03689">
        <ele>521</ele>
        <time>2026-03-21T11:20:40Z</time>
      </trkpt>
      <trkpt lat="48.00642" lon="7.03689">
        <ele>521</ele>
        <time>2026-03-21T11:20:45Z</time>
      </trkpt>
      <trkpt lat="48.00642" lon="7.03689">
        <ele>521</ele>
        <time>2026-03-21T11:20:50Z</time>
      </trkpt>
      <trkpt lat="48.00642" lon="7.03689">
        <ele>521</ele>
        <time>2026-03-21T11:20:55Z</time>
      </trkpt>
      <trkpt lat="48.00642" lon="7.03689">
        <ele>521</ele>
        <time>2026-03-21T11:21:00Z</time>
      </trkpt>
      <trkpt lat="48.00642" lon="7.03689">
        <ele>521</ele>
        <time>2026-03-21T11:21:05Z</time>
      </trkpt>
      <trkpt lat="48.00642" lon="7.03689">
        <ele>521</ele>
        <time>2026-03-21T11:21:10Z</time>
      </trkpt>
      <trkpt lat="48.00642" lon="7.03689">
        <ele>521</ele>
        <time>2026-03-21T11:21:15Z</time>
      </trkpt>
      <trkpt lat="48.00642" lon="7.03689">
        <ele>521</ele>
        <time>2026-03-21T11:21:20Z</time>
      </trkpt>
      <trkpt lat="48.00642" lon="7.03689">
        <ele>521</ele>
        <time>2026-03-21T11:21:25Z</time>
      </trkpt>
      <trkpt lat="48.00642" lon="7.03689">
        <ele>521</ele>
        <time>2026-03-21T11:21:30Z</time>
      </trkpt>
      <trkpt lat="48.00642" lon="7.03689">
        <ele>521</ele>
        <time>2026-03-21T11:21:35Z</time>
      </trkpt>
      <trkpt lat="48.00642" lon="7.03689">
        <ele>521</ele>
        <time>2026-03-21T11:21:40Z</time>
      </trkpt>
      <trkpt lat="48.00638" lon="7.03685">
        <ele>520.9</ele>
        <time>2026-03-21T11:21:45Z</time>
      </trkpt>
      <trkpt lat="48.00637" lon="7.03683">
        <ele>521</ele>
        <time>2026-03-21T11:21:50Z</time>
      </trkpt>
      <trkpt lat="48.00638" lon="7.03681">
        <ele>521</ele>
        <time>2026-03-21T11:21:55Z</time>
      </trkpt>
      <trkpt lat="48.00638" lon="7.03681">
        <ele>521</ele>
        <time>2026-03-21T11:22:00Z</time>
      </trkpt>
      <trkpt lat="48.00638" lon="7.03681">
        <ele>521</ele>
        <time>2026-03-21T11:22:05Z</time>
      </trkpt>
      <trkpt lat="48.00638" lon="7.03681">
        <ele>521</ele>
        <time>2026-03-21T11:22:10Z</time>
      </trkpt>
      <trkpt lat="48.00638" lon="7.03681">
        <ele>521</ele>
        <time>2026-03-21T11:22:15Z</time>
      </trkpt>
      <trkpt lat="48.00638" lon="7.03681">
        <ele>521</ele>
        <time>2026-03-21T11:22:20Z</time>
      </trkpt>
      <trkpt lat="48.00638" lon="7.03681">
        <ele>521</ele>
        <time>2026-03-21T11:22:25Z</time>
      </trkpt>
      <trkpt lat="48.00638" lon="7.03681">
        <ele>521</ele>
        <time>2026-03-21T11:22:30Z</time>
      </trkpt>
      <trkpt lat="48.00638" lon="7.03681">
        <ele>521</ele>
        <time>2026-03-21T11:22:35Z</time>
      </trkpt>
      <trkpt lat="48.00638" lon="7.03681">
        <ele>521</ele>
        <time>2026-03-21T11:22:40Z</time>
      </trkpt>
      <trkpt lat="48.00638" lon="7.03681">
        <ele>521</ele>
        <time>2026-03-21T11:22:45Z</time>
      </trkpt>
      <trkpt lat="48.00638" lon="7.03681">
        <ele>521</ele>
        <time>2026-03-21T11:22:50Z</time>
      </trkpt>
      <trkpt lat="48.00638" lon="7.03681">
        <ele>521</ele>
        <time>2026-03-21T11:22:55Z</time>
      </trkpt>
      <trkpt lat="48.00638" lon="7.03681">
        <ele>521</ele>
        <time>2026-03-21T11:23:00Z</time>
      </trkpt>
      <trkpt lat="48.00638" lon="7.03681">
        <ele>521</ele>
        <time>2026-03-21T11:23:05Z</time>
      </trkpt>
      <trkpt lat="48.00638" lon="7.03681">
        <ele>521</ele>
        <time>2026-03-21T11:23:10Z</time>
      </trkpt>
      <trkpt lat="48.00638" lon="7.03681">
        <ele>521</ele>
        <time>2026-03-21T11:23:15Z</time>
      </trkpt>
      <trkpt lat="48.00638" lon="7.03681">
        <ele>521</ele>
        <time>2026-03-21T11:23:20Z</time>
      </trkpt>
      <trkpt lat="48.00638" lon="7.03681">
        <ele>521</ele>
        <time>2026-03-21T11:23:25Z</time>
      </trkpt>
      <trkpt lat="48.00638" lon="7.03681">
        <ele>521</ele>
        <time>2026-03-21T11:23:30Z</time>
      </trkpt>
      <trkpt lat="48.00638" lon="7.03681">
        <ele>521</ele>
        <time>2026-03-21T11:23:35Z</time>
      </trkpt>
      <trkpt lat="48.00638" lon="7.03681">
        <ele>521</ele>
        <time>2026-03-21T11:23:40Z</time>
      </trkpt>
      <trkpt lat="48.00638" lon="7.03681">
        <ele>521</ele>
        <time>2026-03-21T11:23:45Z</time>
      </trkpt>
      <trkpt lat="48.00638" lon="7.03681">
        <ele>521</ele>
        <time>2026-03-21T11:23:50Z</time>
      </trkpt>
      <trkpt lat="48.00638" lon="7.03681">
        <ele>521</ele>
        <time>2026-03-21T11:23:55Z</time>
      </trkpt>
      <trkpt lat="48.00638" lon="7.03681">
        <ele>521</ele>
        <time>2026-03-21T11:24:00Z</time>
      </trkpt>
      <trkpt lat="48.00638" lon="7.03681">
        <ele>521</ele>
        <time>2026-03-21T11:24:05Z</time>
      </trkpt>
      <trkpt lat="48.00638" lon="7.03681">
        <ele>521</ele>
        <time>2026-03-21T11:24:10Z</time>
      </trkpt>
      <trkpt lat="48.00638" lon="7.03681">
        <ele>521</ele>
        <time>2026-03-21T11:24:15Z</time>
      </trkpt>
      <trkpt lat="48.00638" lon="7.03681">
        <ele>521</ele>
        <time>2026-03-21T11:24:20Z</time>
      </trkpt>
      <trkpt lat="48.00638" lon="7.03681">
        <ele>521</ele>
        <time>2026-03-21T11:24:25Z</time>
      </trkpt>
      <trkpt lat="48.00638" lon="7.03681">
        <ele>521</ele>
        <time>2026-03-21T11:24:30Z</time>
      </trkpt>
      <trkpt lat="48.00631" lon="7.03672">
        <ele>521</ele>
        <time>2026-03-21T11:24:35Z</time>
      </trkpt>
      <trkpt lat="48.00631" lon="7.03671">
        <ele>521.1</ele>
        <time>2026-03-21T11:24:40Z</time>
      </trkpt>
      <trkpt lat="48.00631" lon="7.03671">
        <ele>521.1</ele>
        <time>2026-03-21T11:24:45Z</time>
      </trkpt>
      <trkpt lat="48.00631" lon="7.03671">
        <ele>521.1</ele>
        <time>2026-03-21T11:24:50Z</time>
      </trkpt>
      <trkpt lat="48.00631" lon="7.03671">
        <ele>521.1</ele>
        <time>2026-03-21T11:24:55Z</time>
      </trkpt>
      <trkpt lat="48.00631" lon="7.03671">
        <ele>521.1</ele>
        <time>2026-03-21T11:25:00Z</time>
      </trkpt>
      <trkpt lat="48.00631" lon="7.03671">
        <ele>521.1</ele>
        <time>2026-03-21T11:25:05Z</time>
      </trkpt>
      <trkpt lat="48.00631" lon="7.03671">
        <ele>521.1</ele>
        <time>2026-03-21T11:25:10Z</time>
      </trkpt>
      <trkpt lat="48.00631" lon="7.03671">
        <ele>521.1</ele>
        <time>2026-03-21T11:25:15Z</time>
      </trkpt>
      <trkpt lat="48.00626" lon="7.03663">
        <ele>521.2</ele>
        <time>2026-03-21T11:25:20Z</time>
      </trkpt>
      <trkpt lat="48.00624" lon="7.0366">
        <ele>521.3</ele>
        <time>2026-03-21T11:25:25Z</time>
      </trkpt>
      <trkpt lat="48.00622" lon="7.03658">
        <ele>521.4</ele>
        <time>2026-03-21T11:25:30Z</time>
      </trkpt>
      <trkpt lat="48.00621" lon="7.03657">
        <ele>521.4</ele>
        <time>2026-03-21T11:25:35Z</time>
      </trkpt>
      <trkpt lat="48.00621" lon="7.03655">
        <ele>521.5</ele>
        <time>2026-03-21T11:25:40Z</time>
      </trkpt>
      <trkpt lat="48.00621" lon="7.03655">
        <ele>521.5</ele>
        <time>2026-03-21T11:25:45Z</time>
      </trkpt>
      <trkpt lat="48.00617" lon="7.03654">
        <ele>521.4</ele>
        <time>2026-03-21T11:25:50Z</time>
      </trkpt>
      <trkpt lat="48.00614" lon="7.03651">
        <ele>521.5</ele>
        <time>2026-03-21T11:25:55Z</time>
      </trkpt>
      <trkpt lat="48.00612" lon="7.0365">
        <ele>521.5</ele>
        <time>2026-03-21T11:26:00Z</time>
      </trkpt>
      <trkpt lat="48.00611" lon="7.03647">
        <ele>521.6</ele>
        <time>2026-03-21T11:26:05Z</time>
      </trkpt>
      <trkpt lat="48.00611" lon="7.03643">
        <ele>521.8</ele>
        <time>2026-03-21T11:26:10Z</time>
      </trkpt>
      <trkpt lat="48.00609" lon="7.03638">
        <ele>522</ele>
        <time>2026-03-21T11:26:15Z</time>
      </trkpt>
      <trkpt lat="48.00607" lon="7.03634">
        <ele>522.1</ele>
        <time>2026-03-21T11:26:20Z</time>
      </trkpt>
      <trkpt lat="48.00605" lon="7.03631">
        <ele>522.1</ele>
        <time>2026-03-21T11:26:25Z</time>
      </trkpt>
      <trkpt lat="48.00604" lon="7.03629">
        <ele>522.2</ele>
        <time>2026-03-21T11:26:30Z</time>
      </trkpt>
      <trkpt lat="48.00602" lon="7.03626">
        <ele>522.2</ele>
        <time>2026-03-21T11:26:35Z</time>
      </trkpt>
      <trkpt lat="48.00603" lon="7.03621">
        <ele>522.5</ele>
        <time>2026-03-21T11:26:40Z</time>
      </trkpt>
      <trkpt lat="48.00601" lon="7.03616">
        <ele>522.6</ele>
        <time>2026-03-21T11:26:45Z</time>
      </trkpt>
      <trkpt lat="48.00601" lon="7.03612">
        <ele>522.8</ele>
        <time>2026-03-21T11:26:50Z</time>
      </trkpt>
      <trkpt lat="48.006" lon="7.03608">
        <ele>522.9</ele>
        <time>2026-03-21T11:26:55Z</time>
      </trkpt>
      <trkpt lat="48.00598" lon="7.03604">
        <ele>523</ele>
        <time>2026-03-21T11:27:00Z</time>
      </trkpt>
      <trkpt lat="48.00598" lon="7.036">
        <ele>523.2</ele>
        <time>2026-03-21T11:27:05Z</time>
      </trkpt>
      <trkpt lat="48.00597" lon="7.03597">
        <ele>523.2</ele>
        <time>2026-03-21T11:27:10Z</time>
      </trkpt>
      <trkpt lat="48.00596" lon="7.03594">
        <ele>523.3</ele>
        <time>2026-03-21T11:27:15Z</time>
      </trkpt>
      <trkpt lat="48.00595" lon="7.03591">
        <ele>523.4</ele>
        <time>2026-03-21T11:27:20Z</time>
      </trkpt>
      <trkpt lat="48.00594" lon="7.03587">
        <ele>523.5</ele>
        <time>2026-03-21T11:27:25Z</time>
      </trkpt>
      <trkpt lat="48.00593" lon="7.03583">
        <ele>523.6</ele>
        <time>2026-03-21T11:27:30Z</time>
      </trkpt>
      <trkpt lat="48.00592" lon="7.03578">
        <ele>524</ele>
        <time>2026-03-21T11:27:35Z</time>
      </trkpt>
      <trkpt lat="48.0059" lon="7.03575">
        <ele>524.1</ele>
        <time>2026-03-21T11:27:40Z</time>
      </trkpt>
      <trkpt lat="48.00589" lon="7.03571">
        <ele>524.3</ele>
        <time>2026-03-21T11:27:45Z</time>
      </trkpt>
      <trkpt lat="48.00586" lon="7.03568">
        <ele>524.3</ele>
        <time>2026-03-21T11:27:50Z</time>
      </trkpt>
      <trkpt lat="48.00584" lon="7.03562">
        <ele>524.6</ele>
        <time>2026-03-21T11:27:55Z</time>
      </trkpt>
      <trkpt lat="48.00582" lon="7.03558">
        <ele>524.8</ele>
        <time>2026-03-21T11:28:00Z</time>
      </trkpt>
      <trkpt lat="48.00579" lon="7.03554">
        <ele>525.1</ele>
        <time>2026-03-21T11:28:05Z</time>
      </trkpt>
      <trkpt lat="48.00578" lon="7.03549">
        <ele>525.5</ele>
        <time>2026-03-21T11:28:10Z</time>
      </trkpt>
      <trkpt lat="48.00577" lon="7.03545">
        <ele>525.7</ele>
        <time>2026-03-21T11:28:15Z</time>
      </trkpt>
      <trkpt lat="48.00575" lon="7.03539">
        <ele>526.1</ele>
        <time>2026-03-21T11:28:20Z</time>
      </trkpt>
      <trkpt lat="48.00575" lon="7.03534">
        <ele>526.5</ele>
        <time>2026-03-21T11:28:25Z</time>
      </trkpt>
      <trkpt lat="48.00572" lon="7.0353">
        <ele>526.7</ele>
        <time>2026-03-21T11:28:30Z</time>
      </trkpt>
      <trkpt lat="48.0057" lon="7.03525">
        <ele>527</ele>
        <time>2026-03-21T11:28:35Z</time>
      </trkpt>
      <trkpt lat="48.00568" lon="7.0352">
        <ele>527.2</ele>
        <time>2026-03-21T11:28:40Z</time>
      </trkpt>
      <trkpt lat="48.00566" lon="7.03515">
        <ele>527.5</ele>
        <time>2026-03-21T11:28:45Z</time>
      </trkpt>
      <trkpt lat="48.00563" lon="7.03511">
        <ele>527.6</ele>
        <time>2026-03-21T11:28:50Z</time>
      </trkpt>
      <trkpt lat="48.0056" lon="7.03507">
        <ele>527.8</ele>
        <time>2026-03-21T11:28:55Z</time>
      </trkpt>
      <trkpt lat="48.00558" lon="7.03501">
        <ele>528</ele>
        <time>2026-03-21T11:29:00Z</time>
      </trkpt>
      <trkpt lat="48.00556" lon="7.03497">
        <ele>528</ele>
        <time>2026-03-21T11:29:05Z</time>
      </trkpt>
      <trkpt lat="48.00553" lon="7.03491">
        <ele>527.9</ele>
        <time>2026-03-21T11:29:10Z</time>
      </trkpt>
      <trkpt lat="48.0055" lon="7.03486">
        <ele>527.8</ele>
        <time>2026-03-21T11:29:15Z</time>
      </trkpt>
      <trkpt lat="48.00549" lon="7.03481">
        <ele>527.7</ele>
        <time>2026-03-21T11:29:20Z</time>
      </trkpt>
      <trkpt lat="48.00547" lon="7.03476">
        <ele>527.7</ele>
        <time>2026-03-21T11:29:25Z</time>
      </trkpt>
      <trkpt lat="48.00544" lon="7.03471">
        <ele>527.6</ele>
        <time>2026-03-21T11:29:30Z</time>
      </trkpt>
      <trkpt lat="48.0054" lon="7.03466">
        <ele>527.5</ele>
        <time>2026-03-21T11:29:35Z</time>
      </trkpt>
      <trkpt lat="48.00537" lon="7.03462">
        <ele>527.4</ele>
        <time>2026-03-21T11:29:40Z</time>
      </trkpt>
      <trkpt lat="48.00532" lon="7.03459">
        <ele>527.3</ele>
        <time>2026-03-21T11:29:45Z</time>
      </trkpt>
      <trkpt lat="48.0053" lon="7.03454">
        <ele>527.2</ele>
        <time>2026-03-21T11:29:50Z</time>
      </trkpt>
      <trkpt lat="48.00526" lon="7.03449">
        <ele>527.2</ele>
        <time>2026-03-21T11:29:55Z</time>
      </trkpt>
      <trkpt lat="48.00522" lon="7.03445">
        <ele>527.1</ele>
        <time>2026-03-21T11:30:00Z</time>
      </trkpt>
      <trkpt lat="48.0052" lon="7.03443">
        <ele>527.1</ele>
        <time>2026-03-21T11:30:05Z</time>
      </trkpt>
      <trkpt lat="48.00515" lon="7.03439">
        <ele>527</ele>
        <time>2026-03-21T11:30:10Z</time>
      </trkpt>
      <trkpt lat="48.00511" lon="7.03434">
        <ele>527</ele>
        <time>2026-03-21T11:30:15Z</time>
      </trkpt>
      <trkpt lat="48.00506" lon="7.03429">
        <ele>526.9</ele>
        <time>2026-03-21T11:30:20Z</time>
      </trkpt>
      <trkpt lat="48.00502" lon="7.03425">
        <ele>526.9</ele>
        <time>2026-03-21T11:30:25Z</time>
      </trkpt>
      <trkpt lat="48.00497" lon="7.03415">
        <ele>527</ele>
        <time>2026-03-21T11:30:30Z</time>
      </trkpt>
      <trkpt lat="48.00491" lon="7.03409">
        <ele>527</ele>
        <time>2026-03-21T11:30:35Z</time>
      </trkpt>
      <trkpt lat="48.00486" lon="7.03404">
        <ele>527</ele>
        <time>2026-03-21T11:30:40Z</time>
      </trkpt>
      <trkpt lat="48.00482" lon="7.03399">
        <ele>527</ele>
        <time>2026-03-21T11:30:45Z</time>
      </trkpt>
      <trkpt lat="48.00477" lon="7.03394">
        <ele>527.1</ele>
        <time>2026-03-21T11:30:50Z</time>
      </trkpt>
      <trkpt lat="48.00473" lon="7.03389">
        <ele>527.1</ele>
        <time>2026-03-21T11:30:55Z</time>
      </trkpt>
      <trkpt lat="48.00468" lon="7.03383">
        <ele>527.2</ele>
        <time>2026-03-21T11:31:00Z</time>
      </trkpt>
      <trkpt lat="48.00463" lon="7.03378">
        <ele>527.2</ele>
        <time>2026-03-21T11:31:05Z</time>
      </trkpt>
      <trkpt lat="48.00459" lon="7.03373">
        <ele>527.3</ele>
        <time>2026-03-21T11:31:10Z</time>
      </trkpt>
      <trkpt lat="48.00455" lon="7.03373">
        <ele>527.3</ele>
        <time>2026-03-21T11:31:15Z</time>
      </trkpt>
      <trkpt lat="48.00453" lon="7.03375">
        <ele>527.3</ele>
        <time>2026-03-21T11:31:20Z</time>
      </trkpt>
      <trkpt lat="48.00453" lon="7.03375">
        <ele>527.3</ele>
        <time>2026-03-21T11:31:25Z</time>
      </trkpt>
      <trkpt lat="48.00453" lon="7.03375">
        <ele>527.3</ele>
        <time>2026-03-21T11:31:30Z</time>
      </trkpt>
      <trkpt lat="48.00453" lon="7.03375">
        <ele>527.3</ele>
        <time>2026-03-21T11:31:35Z</time>
      </trkpt>
      <trkpt lat="48.00452" lon="7.03366">
        <ele>527.4</ele>
        <time>2026-03-21T11:31:40Z</time>
      </trkpt>
      <trkpt lat="48.00448" lon="7.0336">
        <ele>527.4</ele>
        <time>2026-03-21T11:31:45Z</time>
      </trkpt>
      <trkpt lat="48.00446" lon="7.03353">
        <ele>527.5</ele>
        <time>2026-03-21T11:31:50Z</time>
      </trkpt>
      <trkpt lat="48.00442" lon="7.03346">
        <ele>527.6</ele>
        <time>2026-03-21T11:31:55Z</time>
      </trkpt>
      <trkpt lat="48.00439" lon="7.0334">
        <ele>527.7</ele>
        <time>2026-03-21T11:32:00Z</time>
      </trkpt>
      <trkpt lat="48.00437" lon="7.03332">
        <ele>527.8</ele>
        <time>2026-03-21T11:32:05Z</time>
      </trkpt>
      <trkpt lat="48.00435" lon="7.03324">
        <ele>528.1</ele>
        <time>2026-03-21T11:32:10Z</time>
      </trkpt>
      <trkpt lat="48.00433" lon="7.03315">
        <ele>528.5</ele>
        <time>2026-03-21T11:32:15Z</time>
      </trkpt>
      <trkpt lat="48.00429" lon="7.03308">
        <ele>528.8</ele>
        <time>2026-03-21T11:32:20Z</time>
      </trkpt>
      <trkpt lat="48.00425" lon="7.03303">
        <ele>529</ele>
        <time>2026-03-21T11:32:25Z</time>
      </trkpt>
      <trkpt lat="48.00422" lon="7.03297">
        <ele>529.2</ele>
        <time>2026-03-21T11:32:30Z</time>
      </trkpt>
      <trkpt lat="48.00421" lon="7.03295">
        <ele>529.3</ele>
        <time>2026-03-21T11:32:35Z</time>
      </trkpt>
      <trkpt lat="48.0042" lon="7.03294">
        <ele>529.4</ele>
        <time>2026-03-21T11:32:40Z</time>
      </trkpt>
      <trkpt lat="48.0042" lon="7.03294">
        <ele>529.4</ele>
        <time>2026-03-21T11:32:45Z</time>
      </trkpt>
      <trkpt lat="48.00417" lon="7.03304">
        <ele>529.1</ele>
        <time>2026-03-21T11:32:50Z</time>
      </trkpt>
      <trkpt lat="48.00414" lon="7.03311">
        <ele>529.1</ele>
        <time>2026-03-21T11:32:55Z</time>
      </trkpt>
      <trkpt lat="48.0041" lon="7.03322">
        <ele>529.3</ele>
        <time>2026-03-21T11:33:00Z</time>
      </trkpt>
      <trkpt lat="48.00405" lon="7.03328">
        <ele>529.7</ele>
        <time>2026-03-21T11:33:05Z</time>
      </trkpt>
      <trkpt lat="48.00405" lon="7.0333">
        <ele>529.6</ele>
        <time>2026-03-21T11:33:10Z</time>
      </trkpt>
      <trkpt lat="48.00406" lon="7.0334">
        <ele>529.3</ele>
        <time>2026-03-21T11:33:15Z</time>
      </trkpt>
      <trkpt lat="48.00408" lon="7.03348">
        <ele>528.9</ele>
        <time>2026-03-21T11:33:20Z</time>
      </trkpt>
      <trkpt lat="48.00414" lon="7.03354">
        <ele>528.1</ele>
        <time>2026-03-21T11:33:25Z</time>
      </trkpt>
      <trkpt lat="48.00419" lon="7.03359">
        <ele>527.7</ele>
        <time>2026-03-21T11:33:30Z</time>
      </trkpt>
      <trkpt lat="48.00425" lon="7.03359">
        <ele>527.6</ele>
        <time>2026-03-21T11:33:35Z</time>
      </trkpt>
      <trkpt lat="48.00426" lon="7.03359">
        <ele>527.6</ele>
        <time>2026-03-21T11:33:40Z</time>
      </trkpt>
      <trkpt lat="48.00426" lon="7.03359">
        <ele>527.6</ele>
        <time>2026-03-21T11:33:45Z</time>
      </trkpt>
      <trkpt lat="48.00426" lon="7.03359">
        <ele>527.6</ele>
        <time>2026-03-21T11:33:50Z</time>
      </trkpt>
      <trkpt lat="48.00426" lon="7.03359">
        <ele>527.6</ele>
        <time>2026-03-21T11:33:55Z</time>
      </trkpt>
      <trkpt lat="48.00426" lon="7.03359">
        <ele>527.6</ele>
        <time>2026-03-21T11:34:00Z</time>
      </trkpt>
      <trkpt lat="48.00423" lon="7.03358">
        <ele>527.7</ele>
        <time>2026-03-21T11:34:05Z</time>
      </trkpt>
      <trkpt lat="48.00416" lon="7.03354">
        <ele>527.8</ele>
        <time>2026-03-21T11:34:10Z</time>
      </trkpt>
      <trkpt lat="48.00409" lon="7.03352">
        <ele>528.8</ele>
        <time>2026-03-21T11:34:15Z</time>
      </trkpt>
      <trkpt lat="48.00403" lon="7.03352">
        <ele>529.5</ele>
        <time>2026-03-21T11:34:20Z</time>
      </trkpt>
      <trkpt lat="48.00399" lon="7.03353">
        <ele>530</ele>
        <time>2026-03-21T11:34:25Z</time>
      </trkpt>
      <trkpt lat="48.00395" lon="7.03358">
        <ele>530.5</ele>
        <time>2026-03-21T11:34:30Z</time>
      </trkpt>
      <trkpt lat="48.00393" lon="7.03362">
        <ele>530.7</ele>
        <time>2026-03-21T11:34:35Z</time>
      </trkpt>
      <trkpt lat="48.00393" lon="7.03364">
        <ele>530.7</ele>
        <time>2026-03-21T11:34:40Z</time>
      </trkpt>
      <trkpt lat="48.00393" lon="7.03364">
        <ele>530.7</ele>
        <time>2026-03-21T11:34:45Z</time>
      </trkpt>
      <trkpt lat="48.00393" lon="7.03364">
        <ele>530.7</ele>
        <time>2026-03-21T11:34:50Z</time>
      </trkpt>
      <trkpt lat="48.00393" lon="7.03364">
        <ele>530.7</ele>
        <time>2026-03-21T11:34:55Z</time>
      </trkpt>
      <trkpt lat="48.00393" lon="7.03364">
        <ele>530.7</ele>
        <time>2026-03-21T11:35:00Z</time>
      </trkpt>
      <trkpt lat="48.00393" lon="7.03364">
        <ele>530.7</ele>
        <time>2026-03-21T11:35:05Z</time>
      </trkpt>
      <trkpt lat="48.00393" lon="7.03364">
        <ele>530.7</ele>
        <time>2026-03-21T11:35:10Z</time>
      </trkpt>
      <trkpt lat="48.00393" lon="7.03364">
        <ele>530.7</ele>
        <time>2026-03-21T11:35:15Z</time>
      </trkpt>
      <trkpt lat="48.00393" lon="7.03364">
        <ele>530.7</ele>
        <time>2026-03-21T11:35:20Z</time>
      </trkpt>
      <trkpt lat="48.00393" lon="7.03364">
        <ele>530.7</ele>
        <time>2026-03-21T11:35:25Z</time>
      </trkpt>
      <trkpt lat="48.00393" lon="7.03364">
        <ele>530.7</ele>
        <time>2026-03-21T11:35:30Z</time>
      </trkpt>
      <trkpt lat="48.00393" lon="7.03364">
        <ele>530.7</ele>
        <time>2026-03-21T11:35:35Z</time>
      </trkpt>
      <trkpt lat="48.00393" lon="7.03364">
        <ele>530.7</ele>
        <time>2026-03-21T11:35:40Z</time>
      </trkpt>
      <trkpt lat="48.00393" lon="7.03364">
        <ele>530.7</ele>
        <time>2026-03-21T11:35:45Z</time>
      </trkpt>
      <trkpt lat="48.00393" lon="7.03364">
        <ele>530.7</ele>
        <time>2026-03-21T11:35:50Z</time>
      </trkpt>
      <trkpt lat="48.00393" lon="7.03364">
        <ele>530.7</ele>
        <time>2026-03-21T11:35:55Z</time>
      </trkpt>
      <trkpt lat="48.00393" lon="7.03364">
        <ele>530.7</ele>
        <time>2026-03-21T11:36:00Z</time>
      </trkpt>
      <trkpt lat="48.00388" lon="7.0335">
        <ele>531.5</ele>
        <time>2026-03-21T11:36:05Z</time>
      </trkpt>
      <trkpt lat="48.00386" lon="7.03348">
        <ele>531.8</ele>
        <time>2026-03-21T11:36:10Z</time>
      </trkpt>
      <trkpt lat="48.00383" lon="7.03342">
        <ele>532.3</ele>
        <time>2026-03-21T11:36:15Z</time>
      </trkpt>
      <trkpt lat="48.00381" lon="7.03337">
        <ele>532.6</ele>
        <time>2026-03-21T11:36:20Z</time>
      </trkpt>
      <trkpt lat="48.00382" lon="7.03336">
        <ele>532.5</ele>
        <time>2026-03-21T11:36:25Z</time>
      </trkpt>
      <trkpt lat="48.00376" lon="7.03332">
        <ele>533.4</ele>
        <time>2026-03-21T11:36:30Z</time>
      </trkpt>
      <trkpt lat="48.00372" lon="7.03327">
        <ele>534</ele>
        <time>2026-03-21T11:36:35Z</time>
      </trkpt>
      <trkpt lat="48.00368" lon="7.03319">
        <ele>534.6</ele>
        <time>2026-03-21T11:36:40Z</time>
      </trkpt>
      <trkpt lat="48.00364" lon="7.0331">
        <ele>535.3</ele>
        <time>2026-03-21T11:36:45Z</time>
      </trkpt>
      <trkpt lat="48.00361" lon="7.03301">
        <ele>535.7</ele>
        <time>2026-03-21T11:36:50Z</time>
      </trkpt>
      <trkpt lat="48.00359" lon="7.03294">
        <ele>536</ele>
        <time>2026-03-21T11:36:55Z</time>
      </trkpt>
      <trkpt lat="48.00355" lon="7.03285">
        <ele>536.6</ele>
        <time>2026-03-21T11:37:00Z</time>
      </trkpt>
      <trkpt lat="48.0035" lon="7.03275">
        <ele>537.2</ele>
        <time>2026-03-21T11:37:05Z</time>
      </trkpt>
      <trkpt lat="48.00346" lon="7.03266">
        <ele>537.7</ele>
        <time>2026-03-21T11:37:10Z</time>
      </trkpt>
      <trkpt lat="48.00343" lon="7.0326">
        <ele>538</ele>
        <time>2026-03-21T11:37:15Z</time>
      </trkpt>
      <trkpt lat="48.00338" lon="7.03259">
        <ele>538.5</ele>
        <time>2026-03-21T11:37:20Z</time>
      </trkpt>
      <trkpt lat="48.00332" lon="7.03258">
        <ele>539.4</ele>
        <time>2026-03-21T11:37:25Z</time>
      </trkpt>
      <trkpt lat="48.0033" lon="7.03259">
        <ele>540.1</ele>
        <time>2026-03-21T11:37:30Z</time>
      </trkpt>
      <trkpt lat="48.00331" lon="7.03258">
        <ele>539.8</ele>
        <time>2026-03-21T11:37:35Z</time>
      </trkpt>
      <trkpt lat="48.00331" lon="7.0325">
        <ele>539.7</ele>
        <time>2026-03-21T11:37:40Z</time>
      </trkpt>
      <trkpt lat="48.00331" lon="7.0325">
        <ele>539.7</ele>
        <time>2026-03-21T11:37:45Z</time>
      </trkpt>
      <trkpt lat="48.00332" lon="7.03243">
        <ele>539.3</ele>
        <time>2026-03-21T11:37:50Z</time>
      </trkpt>
      <trkpt lat="48.00328" lon="7.03233">
        <ele>540.3</ele>
        <time>2026-03-21T11:37:55Z</time>
      </trkpt>
      <trkpt lat="48.00324" lon="7.03227">
        <ele>541.2</ele>
        <time>2026-03-21T11:38:00Z</time>
      </trkpt>
      <trkpt lat="48.00321" lon="7.0322">
        <ele>541.8</ele>
        <time>2026-03-21T11:38:05Z</time>
      </trkpt>
      <trkpt lat="48.00318" lon="7.03213">
        <ele>542.3</ele>
        <time>2026-03-21T11:38:10Z</time>
      </trkpt>
      <trkpt lat="48.00309" lon="7.03203">
        <ele>543.9</ele>
        <time>2026-03-21T11:38:15Z</time>
      </trkpt>
      <trkpt lat="48.00307" lon="7.03198">
        <ele>544</ele>
        <time>2026-03-21T11:38:20Z</time>
      </trkpt>
      <trkpt lat="48.00305" lon="7.03194">
        <ele>544.2</ele>
        <time>2026-03-21T11:38:25Z</time>
      </trkpt>
      <trkpt lat="48.00305" lon="7.03194">
        <ele>544.2</ele>
        <time>2026-03-21T11:38:30Z</time>
      </trkpt>
      <trkpt lat="48.00305" lon="7.03194">
        <ele>544.2</ele>
        <time>2026-03-21T11:38:35Z</time>
      </trkpt>
      <trkpt lat="48.00305" lon="7.03194">
        <ele>544.2</ele>
        <time>2026-03-21T11:38:40Z</time>
      </trkpt>
      <trkpt lat="48.00305" lon="7.03194">
        <ele>544.2</ele>
        <time>2026-03-21T11:38:45Z</time>
      </trkpt>
      <trkpt lat="48.00305" lon="7.03194">
        <ele>544.2</ele>
        <time>2026-03-21T11:38:50Z</time>
      </trkpt>
      <trkpt lat="48.00305" lon="7.03194">
        <ele>544.2</ele>
        <time>2026-03-21T11:38:55Z</time>
      </trkpt>
      <trkpt lat="48.00305" lon="7.03194">
        <ele>544.2</ele>
        <time>2026-03-21T11:39:00Z</time>
      </trkpt>
      <trkpt lat="48.00302" lon="7.03187">
        <ele>544.3</ele>
        <time>2026-03-21T11:39:05Z</time>
      </trkpt>
      <trkpt lat="48.00298" lon="7.03181">
        <ele>544.6</ele>
        <time>2026-03-21T11:39:10Z</time>
      </trkpt>
      <trkpt lat="48.00294" lon="7.03175">
        <ele>544.8</ele>
        <time>2026-03-21T11:39:15Z</time>
      </trkpt>
      <trkpt lat="48.0029" lon="7.0317">
        <ele>545.1</ele>
        <time>2026-03-21T11:39:20Z</time>
      </trkpt>
      <trkpt lat="48.00284" lon="7.03166">
        <ele>545.7</ele>
        <time>2026-03-21T11:39:25Z</time>
      </trkpt>
      <trkpt lat="48.00279" lon="7.03165">
        <ele>546.5</ele>
        <time>2026-03-21T11:39:30Z</time>
      </trkpt>
      <trkpt lat="48.00275" lon="7.03158">
        <ele>547.3</ele>
        <time>2026-03-21T11:39:35Z</time>
      </trkpt>
      <trkpt lat="48.00269" lon="7.03154">
        <ele>548.4</ele>
        <time>2026-03-21T11:39:40Z</time>
      </trkpt>
      <trkpt lat="48.00264" lon="7.03149">
        <ele>549.3</ele>
        <time>2026-03-21T11:39:45Z</time>
      </trkpt>
      <trkpt lat="48.0026" lon="7.03144">
        <ele>550.2</ele>
        <time>2026-03-21T11:39:50Z</time>
      </trkpt>
      <trkpt lat="48.00254" lon="7.03139">
        <ele>551.3</ele>
        <time>2026-03-21T11:39:55Z</time>
      </trkpt>
      <trkpt lat="48.00249" lon="7.03135">
        <ele>552.4</ele>
        <time>2026-03-21T11:40:00Z</time>
      </trkpt>
      <trkpt lat="48.00242" lon="7.0313">
        <ele>554.6</ele>
        <time>2026-03-21T11:40:05Z</time>
      </trkpt>
      <trkpt lat="48.00237" lon="7.03126">
        <ele>556.2</ele>
        <time>2026-03-21T11:40:10Z</time>
      </trkpt>
      <trkpt lat="48.00233" lon="7.03123">
        <ele>557.3</ele>
        <time>2026-03-21T11:40:15Z</time>
      </trkpt>
      <trkpt lat="48.00228" lon="7.03121">
        <ele>558.7</ele>
        <time>2026-03-21T11:40:20Z</time>
      </trkpt>
      <trkpt lat="48.00221" lon="7.03119">
        <ele>560.6</ele>
        <time>2026-03-21T11:40:25Z</time>
      </trkpt>
      <trkpt lat="48.00217" lon="7.03114">
        <ele>561.6</ele>
        <time>2026-03-21T11:40:30Z</time>
      </trkpt>
      <trkpt lat="48.00212" lon="7.03122">
        <ele>563.1</ele>
        <time>2026-03-21T11:40:35Z</time>
      </trkpt>
      <trkpt lat="48.00218" lon="7.03122">
        <ele>561.5</ele>
        <time>2026-03-21T11:40:40Z</time>
      </trkpt>
      <trkpt lat="48.00227" lon="7.03123">
        <ele>559</ele>
        <time>2026-03-21T11:40:45Z</time>
      </trkpt>
      <trkpt lat="48.00233" lon="7.03128">
        <ele>557.3</ele>
        <time>2026-03-21T11:40:50Z</time>
      </trkpt>
      <trkpt lat="48.00233" lon="7.03128">
        <ele>557.3</ele>
        <time>2026-03-21T11:40:55Z</time>
      </trkpt>
      <trkpt lat="48.00233" lon="7.03128">
        <ele>557.3</ele>
        <time>2026-03-21T11:41:00Z</time>
      </trkpt>
      <trkpt lat="48.00228" lon="7.03119">
        <ele>558.7</ele>
        <time>2026-03-21T11:41:05Z</time>
      </trkpt>
      <trkpt lat="48.00221" lon="7.03118">
        <ele>560.6</ele>
        <time>2026-03-21T11:41:10Z</time>
      </trkpt>
      <trkpt lat="48.00214" lon="7.03115">
        <ele>562.4</ele>
        <time>2026-03-21T11:41:15Z</time>
      </trkpt>
      <trkpt lat="48.00208" lon="7.03112">
        <ele>563.9</ele>
        <time>2026-03-21T11:41:20Z</time>
      </trkpt>
      <trkpt lat="48.00202" lon="7.0311">
        <ele>565.4</ele>
        <time>2026-03-21T11:41:25Z</time>
      </trkpt>
      <trkpt lat="48.00195" lon="7.03107">
        <ele>567.1</ele>
        <time>2026-03-21T11:41:30Z</time>
      </trkpt>
      <trkpt lat="48.00187" lon="7.03104">
        <ele>568.9</ele>
        <time>2026-03-21T11:41:35Z</time>
      </trkpt>
      <trkpt lat="48.0018" lon="7.03102">
        <ele>570.5</ele>
        <time>2026-03-21T11:41:40Z</time>
      </trkpt>
      <trkpt lat="48.00176" lon="7.03096">
        <ele>571</ele>
        <time>2026-03-21T11:41:45Z</time>
      </trkpt>
      <trkpt lat="48.0017" lon="7.0309">
        <ele>571.9</ele>
        <time>2026-03-21T11:41:50Z</time>
      </trkpt>
      <trkpt lat="48.00165" lon="7.0309">
        <ele>573.4</ele>
        <time>2026-03-21T11:41:55Z</time>
      </trkpt>
      <trkpt lat="48.00159" lon="7.03087">
        <ele>575.6</ele>
        <time>2026-03-21T11:42:00Z</time>
      </trkpt>
      <trkpt lat="48.00155" lon="7.03083">
        <ele>576.9</ele>
        <time>2026-03-21T11:42:05Z</time>
      </trkpt>
      <trkpt lat="48.00151" lon="7.03081">
        <ele>578.7</ele>
        <time>2026-03-21T11:42:10Z</time>
      </trkpt>
      <trkpt lat="48.00147" lon="7.03079">
        <ele>580.4</ele>
        <time>2026-03-21T11:42:15Z</time>
      </trkpt>
      <trkpt lat="48.00144" lon="7.0308">
        <ele>581.6</ele>
        <time>2026-03-21T11:42:20Z</time>
      </trkpt>
      <trkpt lat="48.0014" lon="7.03079">
        <ele>583.3</ele>
        <time>2026-03-21T11:42:25Z</time>
      </trkpt>
      <trkpt lat="48.00138" lon="7.03077">
        <ele>584.1</ele>
        <time>2026-03-21T11:42:30Z</time>
      </trkpt>
      <trkpt lat="48.00138" lon="7.03075">
        <ele>584.2</ele>
        <time>2026-03-21T11:42:35Z</time>
      </trkpt>
      <trkpt lat="48.00137" lon="7.03075">
        <ele>584.5</ele>
        <time>2026-03-21T11:42:40Z</time>
      </trkpt>
      <trkpt lat="48.00137" lon="7.03075">
        <ele>584.5</ele>
        <time>2026-03-21T11:42:45Z</time>
      </trkpt>
      <trkpt lat="48.00137" lon="7.03075">
        <ele>584.5</ele>
        <time>2026-03-21T11:42:50Z</time>
      </trkpt>
      <trkpt lat="48.00129" lon="7.03072">
        <ele>587.7</ele>
        <time>2026-03-21T11:42:55Z</time>
      </trkpt>
      <trkpt lat="48.00126" lon="7.03073">
        <ele>588.9</ele>
        <time>2026-03-21T11:43:00Z</time>
      </trkpt>
      <trkpt lat="48.00123" lon="7.03075">
        <ele>590.1</ele>
        <time>2026-03-21T11:43:05Z</time>
      </trkpt>
      <trkpt lat="48.00121" lon="7.03075">
        <ele>590.9</ele>
        <time>2026-03-21T11:43:10Z</time>
      </trkpt>
      <trkpt lat="48.00118" lon="7.03072">
        <ele>591.9</ele>
        <time>2026-03-21T11:43:15Z</time>
      </trkpt>
      <trkpt lat="48.00117" lon="7.03072">
        <ele>592.3</ele>
        <time>2026-03-21T11:43:20Z</time>
      </trkpt>
      <trkpt lat="48.00113" lon="7.03072">
        <ele>593.9</ele>
        <time>2026-03-21T11:43:25Z</time>
      </trkpt>
      <trkpt lat="48.00108" lon="7.03073">
        <ele>595.9</ele>
        <time>2026-03-21T11:43:30Z</time>
      </trkpt>
      <trkpt lat="48.00104" lon="7.03073">
        <ele>597.4</ele>
        <time>2026-03-21T11:43:35Z</time>
      </trkpt>
      <trkpt lat="48.00102" lon="7.03068">
        <ele>597.8</ele>
        <time>2026-03-21T11:43:40Z</time>
      </trkpt>
      <trkpt lat="48.00099" lon="7.03068">
        <ele>598.9</ele>
        <time>2026-03-21T11:43:45Z</time>
      </trkpt>
      <trkpt lat="48.00096" lon="7.03066">
        <ele>599.8</ele>
        <time>2026-03-21T11:43:50Z</time>
      </trkpt>
      <trkpt lat="48.00096" lon="7.03066">
        <ele>599.8</ele>
        <time>2026-03-21T11:43:55Z</time>
      </trkpt>
      <trkpt lat="48.00096" lon="7.03066">
        <ele>599.8</ele>
        <time>2026-03-21T11:44:00Z</time>
      </trkpt>
      <trkpt lat="48.00096" lon="7.03066">
        <ele>599.8</ele>
        <time>2026-03-21T11:44:05Z</time>
      </trkpt>
      <trkpt lat="48.0009" lon="7.03052">
        <ele>600.3</ele>
        <time>2026-03-21T11:44:10Z</time>
      </trkpt>
      <trkpt lat="48.00088" lon="7.03048">
        <ele>600.4</ele>
        <time>2026-03-21T11:44:15Z</time>
      </trkpt>
      <trkpt lat="48.00088" lon="7.03045">
        <ele>600</ele>
        <time>2026-03-21T11:44:20Z</time>
      </trkpt>
      <trkpt lat="48.00088" lon="7.0304">
        <ele>599.4</ele>
        <time>2026-03-21T11:44:25Z</time>
      </trkpt>
      <trkpt lat="48.00087" lon="7.03035">
        <ele>599</ele>
        <time>2026-03-21T11:44:30Z</time>
      </trkpt>
      <trkpt lat="48.00087" lon="7.03035">
        <ele>599</ele>
        <time>2026-03-21T11:44:35Z</time>
      </trkpt>
      <trkpt lat="48.00087" lon="7.03035">
        <ele>599</ele>
        <time>2026-03-21T11:44:40Z</time>
      </trkpt>
      <trkpt lat="48.00087" lon="7.03035">
        <ele>599</ele>
        <time>2026-03-21T11:44:45Z</time>
      </trkpt>
      <trkpt lat="48.00087" lon="7.03035">
        <ele>599</ele>
        <time>2026-03-21T11:44:50Z</time>
      </trkpt>
      <trkpt lat="48.00087" lon="7.03035">
        <ele>599</ele>
        <time>2026-03-21T11:44:55Z</time>
      </trkpt>
      <trkpt lat="48.00087" lon="7.03035">
        <ele>599</ele>
        <time>2026-03-21T11:45:00Z</time>
      </trkpt>
      <trkpt lat="48.00087" lon="7.03035">
        <ele>599</ele>
        <time>2026-03-21T11:45:05Z</time>
      </trkpt>
      <trkpt lat="48.00087" lon="7.03035">
        <ele>599</ele>
        <time>2026-03-21T11:45:10Z</time>
      </trkpt>
      <trkpt lat="48.00086" lon="7.03036">
        <ele>599.4</ele>
        <time>2026-03-21T11:45:15Z</time>
      </trkpt>
      <trkpt lat="48.00084" lon="7.03031">
        <ele>599.3</ele>
        <time>2026-03-21T11:45:20Z</time>
      </trkpt>
      <trkpt lat="48.00086" lon="7.03025">
        <ele>597.9</ele>
        <time>2026-03-21T11:45:25Z</time>
      </trkpt>
      <trkpt lat="48.00087" lon="7.03016">
        <ele>596.5</ele>
        <time>2026-03-21T11:45:30Z</time>
      </trkpt>
      <trkpt lat="48.00087" lon="7.03007">
        <ele>595.3</ele>
        <time>2026-03-21T11:45:35Z</time>
      </trkpt>
      <trkpt lat="48.00088" lon="7.03002">
        <ele>594.4</ele>
        <time>2026-03-21T11:45:40Z</time>
      </trkpt>
      <trkpt lat="48.00089" lon="7.02996">
        <ele>593.6</ele>
        <time>2026-03-21T11:45:45Z</time>
      </trkpt>
      <trkpt lat="48.0009" lon="7.02992">
        <ele>593.1</ele>
        <time>2026-03-21T11:45:50Z</time>
      </trkpt>
      <trkpt lat="48.00089" lon="7.02988">
        <ele>592.9</ele>
        <time>2026-03-21T11:45:55Z</time>
      </trkpt>
      <trkpt lat="48.00089" lon="7.02982">
        <ele>592.4</ele>
        <time>2026-03-21T11:46:00Z</time>
      </trkpt>
      <trkpt lat="48.00089" lon="7.02978">
        <ele>592</ele>
        <time>2026-03-21T11:46:05Z</time>
      </trkpt>
      <trkpt lat="48.00091" lon="7.02973">
        <ele>591.3</ele>
        <time>2026-03-21T11:46:10Z</time>
      </trkpt>
      <trkpt lat="48.00092" lon="7.02968">
        <ele>590.7</ele>
        <time>2026-03-21T11:46:15Z</time>
      </trkpt>
      <trkpt lat="48.00094" lon="7.02963">
        <ele>590</ele>
        <time>2026-03-21T11:46:20Z</time>
      </trkpt>
      <trkpt lat="48.00097" lon="7.02959">
        <ele>589.2</ele>
        <time>2026-03-21T11:46:25Z</time>
      </trkpt>
      <trkpt lat="48.00103" lon="7.02952">
        <ele>587.9</ele>
        <time>2026-03-21T11:46:30Z</time>
      </trkpt>
      <trkpt lat="48.00103" lon="7.02949">
        <ele>587.7</ele>
        <time>2026-03-21T11:46:35Z</time>
      </trkpt>
      <trkpt lat="48.00099" lon="7.02941">
        <ele>587.6</ele>
        <time>2026-03-21T11:46:40Z</time>
      </trkpt>
      <trkpt lat="48.00099" lon="7.02941">
        <ele>587.6</ele>
        <time>2026-03-21T11:46:45Z</time>
      </trkpt>
      <trkpt lat="48.00103" lon="7.02943">
        <ele>587.3</ele>
        <time>2026-03-21T11:46:50Z</time>
      </trkpt>
      <trkpt lat="48.0011" lon="7.02943">
        <ele>586.5</ele>
        <time>2026-03-21T11:46:55Z</time>
      </trkpt>
      <trkpt lat="48.00115" lon="7.0294">
        <ele>585.7</ele>
        <time>2026-03-21T11:47:00Z</time>
      </trkpt>
      <trkpt lat="48.00119" lon="7.02938">
        <ele>585.2</ele>
        <time>2026-03-21T11:47:05Z</time>
      </trkpt>
      <trkpt lat="48.00124" lon="7.02934">
        <ele>584.4</ele>
        <time>2026-03-21T11:47:10Z</time>
      </trkpt>
      <trkpt lat="48.00127" lon="7.0293">
        <ele>583.9</ele>
        <time>2026-03-21T11:47:15Z</time>
      </trkpt>
      <trkpt lat="48.00129" lon="7.02931">
        <ele>583.8</ele>
        <time>2026-03-21T11:47:20Z</time>
      </trkpt>
      <trkpt lat="48.00131" lon="7.02929">
        <ele>583.5</ele>
        <time>2026-03-21T11:47:25Z</time>
      </trkpt>
      <trkpt lat="48.00135" lon="7.0292">
        <ele>582.8</ele>
        <time>2026-03-21T11:47:30Z</time>
      </trkpt>
      <trkpt lat="48.00136" lon="7.02913">
        <ele>582.4</ele>
        <time>2026-03-21T11:47:35Z</time>
      </trkpt>
      <trkpt lat="48.0014" lon="7.02907">
        <ele>581.9</ele>
        <time>2026-03-21T11:47:40Z</time>
      </trkpt>
      <trkpt lat="48.00144" lon="7.02902">
        <ele>581.4</ele>
        <time>2026-03-21T11:47:45Z</time>
      </trkpt>
      <trkpt lat="48.00149" lon="7.02901">
        <ele>581</ele>
        <time>2026-03-21T11:47:50Z</time>
      </trkpt>
      <trkpt lat="48.00153" lon="7.02901">
        <ele>580.7</ele>
        <time>2026-03-21T11:47:55Z</time>
      </trkpt>
      <trkpt lat="48.00157" lon="7.02902">
        <ele>580.4</ele>
        <time>2026-03-21T11:48:00Z</time>
      </trkpt>
      <trkpt lat="48.00161" lon="7.02904">
        <ele>580.1</ele>
        <time>2026-03-21T11:48:05Z</time>
      </trkpt>
      <trkpt lat="48.00167" lon="7.02904">
        <ele>579.7</ele>
        <time>2026-03-21T11:48:10Z</time>
      </trkpt>
      <trkpt lat="48.00169" lon="7.02903">
        <ele>579.9</ele>
        <time>2026-03-21T11:48:15Z</time>
      </trkpt>
      <trkpt lat="48.00172" lon="7.02899">
        <ele>580.1</ele>
        <time>2026-03-21T11:48:20Z</time>
      </trkpt>
      <trkpt lat="48.00175" lon="7.02902">
        <ele>580.5</ele>
        <time>2026-03-21T11:48:25Z</time>
      </trkpt>
      <trkpt lat="48.00175" lon="7.02902">
        <ele>580.5</ele>
        <time>2026-03-21T11:48:30Z</time>
      </trkpt>
      <trkpt lat="48.00175" lon="7.02902">
        <ele>580.5</ele>
        <time>2026-03-21T11:48:35Z</time>
      </trkpt>
      <trkpt lat="48.00175" lon="7.02902">
        <ele>580.5</ele>
        <time>2026-03-21T11:48:40Z</time>
      </trkpt>
      <trkpt lat="48.00177" lon="7.02888">
        <ele>580.5</ele>
        <time>2026-03-21T11:48:45Z</time>
      </trkpt>
      <trkpt lat="48.00184" lon="7.02884">
        <ele>581.3</ele>
        <time>2026-03-21T11:48:50Z</time>
      </trkpt>
      <trkpt lat="48.00187" lon="7.02878">
        <ele>581.7</ele>
        <time>2026-03-21T11:48:55Z</time>
      </trkpt>
      <trkpt lat="48.00186" lon="7.02871">
        <ele>581.5</ele>
        <time>2026-03-21T11:49:00Z</time>
      </trkpt>
      <trkpt lat="48.00185" lon="7.02863">
        <ele>581.4</ele>
        <time>2026-03-21T11:49:05Z</time>
      </trkpt>
      <trkpt lat="48.00186" lon="7.02856">
        <ele>581.5</ele>
        <time>2026-03-21T11:49:10Z</time>
      </trkpt>
      <trkpt lat="48.00186" lon="7.02849">
        <ele>581.5</ele>
        <time>2026-03-21T11:49:15Z</time>
      </trkpt>
      <trkpt lat="48.00185" lon="7.02843">
        <ele>581.3</ele>
        <time>2026-03-21T11:49:20Z</time>
      </trkpt>
      <trkpt lat="48.00187" lon="7.02838">
        <ele>581.7</ele>
        <time>2026-03-21T11:49:25Z</time>
      </trkpt>
      <trkpt lat="48.0019" lon="7.02831">
        <ele>582.3</ele>
        <time>2026-03-21T11:49:30Z</time>
      </trkpt>
      <trkpt lat="48.00192" lon="7.02823">
        <ele>583.1</ele>
        <time>2026-03-21T11:49:35Z</time>
      </trkpt>
      <trkpt lat="48.00193" lon="7.02817">
        <ele>583.7</ele>
        <time>2026-03-21T11:49:40Z</time>
      </trkpt>
      <trkpt lat="48.00196" lon="7.02813">
        <ele>584.5</ele>
        <time>2026-03-21T11:49:45Z</time>
      </trkpt>
      <trkpt lat="48.00196" lon="7.02806">
        <ele>585</ele>
        <time>2026-03-21T11:49:50Z</time>
      </trkpt>
      <trkpt lat="48.00198" lon="7.02805">
        <ele>585.5</ele>
        <time>2026-03-21T11:49:55Z</time>
      </trkpt>
      <trkpt lat="48.00196" lon="7.02801">
        <ele>585.3</ele>
        <time>2026-03-21T11:50:00Z</time>
      </trkpt>
      <trkpt lat="48.00189" lon="7.02798">
        <ele>583.9</ele>
        <time>2026-03-21T11:50:05Z</time>
      </trkpt>
      <trkpt lat="48.00187" lon="7.02792">
        <ele>583.7</ele>
        <time>2026-03-21T11:50:10Z</time>
      </trkpt>
      <trkpt lat="48.00187" lon="7.02784">
        <ele>584.1</ele>
        <time>2026-03-21T11:50:15Z</time>
      </trkpt>
      <trkpt lat="48.00185" lon="7.0278">
        <ele>583.8</ele>
        <time>2026-03-21T11:50:20Z</time>
      </trkpt>
      <trkpt lat="48.00185" lon="7.02779">
        <ele>583.9</ele>
        <time>2026-03-21T11:50:25Z</time>
      </trkpt>
      <trkpt lat="48.00185" lon="7.02779">
        <ele>583.9</ele>
        <time>2026-03-21T11:50:30Z</time>
      </trkpt>
      <trkpt lat="48.00185" lon="7.02779">
        <ele>583.9</ele>
        <time>2026-03-21T11:50:35Z</time>
      </trkpt>
      <trkpt lat="48.00185" lon="7.02779">
        <ele>583.9</ele>
        <time>2026-03-21T11:50:40Z</time>
      </trkpt>
      <trkpt lat="48.00185" lon="7.02779">
        <ele>583.9</ele>
        <time>2026-03-21T11:50:45Z</time>
      </trkpt>
      <trkpt lat="48.00185" lon="7.02779">
        <ele>583.9</ele>
        <time>2026-03-21T11:50:50Z</time>
      </trkpt>
      <trkpt lat="48.0018" lon="7.02784">
        <ele>582.4</ele>
        <time>2026-03-21T11:50:55Z</time>
      </trkpt>
      <trkpt lat="48.00177" lon="7.0278">
        <ele>581.9</ele>
        <time>2026-03-21T11:51:00Z</time>
      </trkpt>
      <trkpt lat="48.00177" lon="7.02776">
        <ele>582</ele>
        <time>2026-03-21T11:51:05Z</time>
      </trkpt>
      <trkpt lat="48.00172" lon="7.02769">
        <ele>580.9</ele>
        <time>2026-03-21T11:51:10Z</time>
      </trkpt>
      <trkpt lat="48.00167" lon="7.02762">
        <ele>579.8</ele>
        <time>2026-03-21T11:51:15Z</time>
      </trkpt>
      <trkpt lat="48.00165" lon="7.02755">
        <ele>579.8</ele>
        <time>2026-03-21T11:51:20Z</time>
      </trkpt>
      <trkpt lat="48.00165" lon="7.02751">
        <ele>579.9</ele>
        <time>2026-03-21T11:51:25Z</time>
      </trkpt>
      <trkpt lat="48.00166" lon="7.02746">
        <ele>580.1</ele>
        <time>2026-03-21T11:51:30Z</time>
      </trkpt>
      <trkpt lat="48.00167" lon="7.02743">
        <ele>580.3</ele>
        <time>2026-03-21T11:51:35Z</time>
      </trkpt>
      <trkpt lat="48.00168" lon="7.02738">
        <ele>580.7</ele>
        <time>2026-03-21T11:51:40Z</time>
      </trkpt>
      <trkpt lat="48.00167" lon="7.02736">
        <ele>580.4</ele>
        <time>2026-03-21T11:51:45Z</time>
      </trkpt>
      <trkpt lat="48.00167" lon="7.02735">
        <ele>580.5</ele>
        <time>2026-03-21T11:51:50Z</time>
      </trkpt>
      <trkpt lat="48.00167" lon="7.02735">
        <ele>580.5</ele>
        <time>2026-03-21T11:51:55Z</time>
      </trkpt>
      <trkpt lat="48.00167" lon="7.02735">
        <ele>580.5</ele>
        <time>2026-03-21T11:52:00Z</time>
      </trkpt>
      <trkpt lat="48.00167" lon="7.02735">
        <ele>580.5</ele>
        <time>2026-03-21T11:52:05Z</time>
      </trkpt>
      <trkpt lat="48.00166" lon="7.02728">
        <ele>580.5</ele>
        <time>2026-03-21T11:52:10Z</time>
      </trkpt>
      <trkpt lat="48.00165" lon="7.02726">
        <ele>580.5</ele>
        <time>2026-03-21T11:52:15Z</time>
      </trkpt>
      <trkpt lat="48.00165" lon="7.02726">
        <ele>580.5</ele>
        <time>2026-03-21T11:52:20Z</time>
      </trkpt>
      <trkpt lat="48.00165" lon="7.02726">
        <ele>580.5</ele>
        <time>2026-03-21T11:52:25Z</time>
      </trkpt>
      <trkpt lat="48.0016" lon="7.02714">
        <ele>580.4</ele>
        <time>2026-03-21T11:52:30Z</time>
      </trkpt>
      <trkpt lat="48.00159" lon="7.02709">
        <ele>580.4</ele>
        <time>2026-03-21T11:52:35Z</time>
      </trkpt>
      <trkpt lat="48.00159" lon="7.02706">
        <ele>580.5</ele>
        <time>2026-03-21T11:52:40Z</time>
      </trkpt>
      <trkpt lat="48.00159" lon="7.02701">
        <ele>580.6</ele>
        <time>2026-03-21T11:52:45Z</time>
      </trkpt>
      <trkpt lat="48.00159" lon="7.02698">
        <ele>580.7</ele>
        <time>2026-03-21T11:52:50Z</time>
      </trkpt>
      <trkpt lat="48.00158" lon="7.02695">
        <ele>580.6</ele>
        <time>2026-03-21T11:52:55Z</time>
      </trkpt>
      <trkpt lat="48.00158" lon="7.02695">
        <ele>580.6</ele>
        <time>2026-03-21T11:53:00Z</time>
      </trkpt>
      <trkpt lat="48.00158" lon="7.02695">
        <ele>580.6</ele>
        <time>2026-03-21T11:53:05Z</time>
      </trkpt>
      <trkpt lat="48.00157" lon="7.0268">
        <ele>580.8</ele>
        <time>2026-03-21T11:53:10Z</time>
      </trkpt>
      <trkpt lat="48.00157" lon="7.02676">
        <ele>580.9</ele>
        <time>2026-03-21T11:53:15Z</time>
      </trkpt>
      <trkpt lat="48.00155" lon="7.02672">
        <ele>580.8</ele>
        <time>2026-03-21T11:53:20Z</time>
      </trkpt>
      <trkpt lat="48.00155" lon="7.02665">
        <ele>581</ele>
        <time>2026-03-21T11:53:25Z</time>
      </trkpt>
      <trkpt lat="48.00155" lon="7.02658">
        <ele>581.7</ele>
        <time>2026-03-21T11:53:30Z</time>
      </trkpt>
      <trkpt lat="48.00154" lon="7.02648">
        <ele>582.5</ele>
        <time>2026-03-21T11:53:35Z</time>
      </trkpt>
      <trkpt lat="48.00153" lon="7.02639">
        <ele>583.2</ele>
        <time>2026-03-21T11:53:40Z</time>
      </trkpt>
      <trkpt lat="48.00153" lon="7.02633">
        <ele>583.7</ele>
        <time>2026-03-21T11:53:45Z</time>
      </trkpt>
      <trkpt lat="48.00154" lon="7.02626">
        <ele>584.5</ele>
        <time>2026-03-21T11:53:50Z</time>
      </trkpt>
      <trkpt lat="48.00153" lon="7.02621">
        <ele>584.8</ele>
        <time>2026-03-21T11:53:55Z</time>
      </trkpt>
      <trkpt lat="48.00155" lon="7.02614">
        <ele>585.7</ele>
        <time>2026-03-21T11:54:00Z</time>
      </trkpt>
      <trkpt lat="48.00157" lon="7.02608">
        <ele>586.5</ele>
        <time>2026-03-21T11:54:05Z</time>
      </trkpt>
      <trkpt lat="48.00155" lon="7.02601">
        <ele>586.9</ele>
        <time>2026-03-21T11:54:10Z</time>
      </trkpt>
      <trkpt lat="48.00157" lon="7.02593">
        <ele>587.8</ele>
        <time>2026-03-21T11:54:15Z</time>
      </trkpt>
      <trkpt lat="48.0016" lon="7.02586">
        <ele>588.9</ele>
        <time>2026-03-21T11:54:20Z</time>
      </trkpt>
      <trkpt lat="48.00163" lon="7.02581">
        <ele>590</ele>
        <time>2026-03-21T11:54:25Z</time>
      </trkpt>
      <trkpt lat="48.00164" lon="7.02575">
        <ele>591.3</ele>
        <time>2026-03-21T11:54:30Z</time>
      </trkpt>
      <trkpt lat="48.00164" lon="7.02565">
        <ele>593.4</ele>
        <time>2026-03-21T11:54:35Z</time>
      </trkpt>
      <trkpt lat="48.00164" lon="7.02557">
        <ele>595</ele>
        <time>2026-03-21T11:54:40Z</time>
      </trkpt>
      <trkpt lat="48.00165" lon="7.0255">
        <ele>596.6</ele>
        <time>2026-03-21T11:54:45Z</time>
      </trkpt>
      <trkpt lat="48.00165" lon="7.0255">
        <ele>596.6</ele>
        <time>2026-03-21T11:54:50Z</time>
      </trkpt>
      <trkpt lat="48.00165" lon="7.0255">
        <ele>596.6</ele>
        <time>2026-03-21T11:54:55Z</time>
      </trkpt>
      <trkpt lat="48.00173" lon="7.02548">
        <ele>598.8</ele>
        <time>2026-03-21T11:55:00Z</time>
      </trkpt>
      <trkpt lat="48.00173" lon="7.0254">
        <ele>600.3</ele>
        <time>2026-03-21T11:55:05Z</time>
      </trkpt>
      <trkpt lat="48.00174" lon="7.02532">
        <ele>602.1</ele>
        <time>2026-03-21T11:55:10Z</time>
      </trkpt>
      <trkpt lat="48.00177" lon="7.02526">
        <ele>603.8</ele>
        <time>2026-03-21T11:55:15Z</time>
      </trkpt>
      <trkpt lat="48.0018" lon="7.02519">
        <ele>605.7</ele>
        <time>2026-03-21T11:55:20Z</time>
      </trkpt>
      <trkpt lat="48.00183" lon="7.02513">
        <ele>607.3</ele>
        <time>2026-03-21T11:55:25Z</time>
      </trkpt>
      <trkpt lat="48.00185" lon="7.02504">
        <ele>609.2</ele>
        <time>2026-03-21T11:55:30Z</time>
      </trkpt>
      <trkpt lat="48.00188" lon="7.02499">
        <ele>610.6</ele>
        <time>2026-03-21T11:55:35Z</time>
      </trkpt>
      <trkpt lat="48.00188" lon="7.02493">
        <ele>612</ele>
        <time>2026-03-21T11:55:40Z</time>
      </trkpt>
      <trkpt lat="48.00189" lon="7.02491">
        <ele>612.6</ele>
        <time>2026-03-21T11:55:45Z</time>
      </trkpt>
      <trkpt lat="48.0019" lon="7.02486">
        <ele>614</ele>
        <time>2026-03-21T11:55:50Z</time>
      </trkpt>
      <trkpt lat="48.00187" lon="7.02478">
        <ele>615.5</ele>
        <time>2026-03-21T11:55:55Z</time>
      </trkpt>
      <trkpt lat="48.00182" lon="7.02479">
        <ele>614.7</ele>
        <time>2026-03-21T11:56:00Z</time>
      </trkpt>
      <trkpt lat="48.00177" lon="7.0248">
        <ele>613.9</ele>
        <time>2026-03-21T11:56:05Z</time>
      </trkpt>
      <trkpt lat="48.0017" lon="7.02481">
        <ele>612.9</ele>
        <time>2026-03-21T11:56:10Z</time>
      </trkpt>
      <trkpt lat="48.00165" lon="7.02477">
        <ele>613.4</ele>
        <time>2026-03-21T11:56:15Z</time>
      </trkpt>
      <trkpt lat="48.00159" lon="7.02472">
        <ele>613.8</ele>
        <time>2026-03-21T11:56:20Z</time>
      </trkpt>
      <trkpt lat="48.00156" lon="7.0247">
        <ele>613.9</ele>
        <time>2026-03-21T11:56:25Z</time>
      </trkpt>
      <trkpt lat="48.00153" lon="7.02467">
        <ele>614.2</ele>
        <time>2026-03-21T11:56:30Z</time>
      </trkpt>
      <trkpt lat="48.00149" lon="7.02466">
        <ele>613.9</ele>
        <time>2026-03-21T11:56:35Z</time>
      </trkpt>
      <trkpt lat="48.00145" lon="7.02464">
        <ele>613.8</ele>
        <time>2026-03-21T11:56:40Z</time>
      </trkpt>
      <trkpt lat="48.00141" lon="7.02459">
        <ele>614.5</ele>
        <time>2026-03-21T11:56:45Z</time>
      </trkpt>
      <trkpt lat="48.00138" lon="7.02458">
        <ele>614.3</ele>
        <time>2026-03-21T11:56:50Z</time>
      </trkpt>
      <trkpt lat="48.00136" lon="7.02457">
        <ele>614.2</ele>
        <time>2026-03-21T11:56:55Z</time>
      </trkpt>
      <trkpt lat="48.00133" lon="7.02456">
        <ele>614</ele>
        <time>2026-03-21T11:57:00Z</time>
      </trkpt>
      <trkpt lat="48.00132" lon="7.02453">
        <ele>614.7</ele>
        <time>2026-03-21T11:57:05Z</time>
      </trkpt>
      <trkpt lat="48.00132" lon="7.02453">
        <ele>614.7</ele>
        <time>2026-03-21T11:57:10Z</time>
      </trkpt>
      <trkpt lat="48.00123" lon="7.0245">
        <ele>614</ele>
        <time>2026-03-21T11:57:15Z</time>
      </trkpt>
      <trkpt lat="48.0012" lon="7.02446">
        <ele>614.5</ele>
        <time>2026-03-21T11:57:20Z</time>
      </trkpt>
      <trkpt lat="48.00117" lon="7.02444">
        <ele>614.6</ele>
        <time>2026-03-21T11:57:25Z</time>
      </trkpt>
      <trkpt lat="48.00118" lon="7.02439">
        <ele>616.1</ele>
        <time>2026-03-21T11:57:30Z</time>
      </trkpt>
      <trkpt lat="48.00117" lon="7.02437">
        <ele>616.5</ele>
        <time>2026-03-21T11:57:35Z</time>
      </trkpt>
      <trkpt lat="48.00117" lon="7.02437">
        <ele>616.5</ele>
        <time>2026-03-21T11:57:40Z</time>
      </trkpt>
      <trkpt lat="48.00117" lon="7.02437">
        <ele>616.5</ele>
        <time>2026-03-21T11:57:45Z</time>
      </trkpt>
      <trkpt lat="48.0011" lon="7.02424">
        <ele>618.8</ele>
        <time>2026-03-21T11:57:50Z</time>
      </trkpt>
      <trkpt lat="48.00109" lon="7.02418">
        <ele>620.3</ele>
        <time>2026-03-21T11:57:55Z</time>
      </trkpt>
      <trkpt lat="48.00106" lon="7.02413">
        <ele>621.5</ele>
        <time>2026-03-21T11:58:00Z</time>
      </trkpt>
      <trkpt lat="48.00106" lon="7.02411">
        <ele>622.3</ele>
        <time>2026-03-21T11:58:05Z</time>
      </trkpt>
      <trkpt lat="48.00106" lon="7.02411">
        <ele>622.3</ele>
        <time>2026-03-21T11:58:10Z</time>
      </trkpt>
      <trkpt lat="48.00106" lon="7.02411">
        <ele>622.3</ele>
        <time>2026-03-21T11:58:15Z</time>
      </trkpt>
      <trkpt lat="48.00101" lon="7.02399">
        <ele>626</ele>
        <time>2026-03-21T11:58:20Z</time>
      </trkpt>
      <trkpt lat="48.00099" lon="7.02398">
        <ele>626</ele>
        <time>2026-03-21T11:58:25Z</time>
      </trkpt>
      <trkpt lat="48.00096" lon="7.02399">
        <ele>625.1</ele>
        <time>2026-03-21T11:58:30Z</time>
      </trkpt>
      <trkpt lat="48.00091" lon="7.02396">
        <ele>625.3</ele>
        <time>2026-03-21T11:58:35Z</time>
      </trkpt>
      <trkpt lat="48.00086" lon="7.02392">
        <ele>626</ele>
        <time>2026-03-21T11:58:40Z</time>
      </trkpt>
      <trkpt lat="48.00084" lon="7.02391">
        <ele>626</ele>
        <time>2026-03-21T11:58:45Z</time>
      </trkpt>
      <trkpt lat="48.00084" lon="7.02388">
        <ele>627.1</ele>
        <time>2026-03-21T11:58:50Z</time>
      </trkpt>
      <trkpt lat="48.00083" lon="7.02387">
        <ele>627.3</ele>
        <time>2026-03-21T11:58:55Z</time>
      </trkpt>
      <trkpt lat="48.00076" lon="7.02384">
        <ele>627.2</ele>
        <time>2026-03-21T11:59:00Z</time>
      </trkpt>
      <trkpt lat="48.00072" lon="7.02382">
        <ele>627.2</ele>
        <time>2026-03-21T11:59:05Z</time>
      </trkpt>
      <trkpt lat="48.00071" lon="7.0238">
        <ele>627.8</ele>
        <time>2026-03-21T11:59:10Z</time>
      </trkpt>
      <trkpt lat="48.00071" lon="7.0238">
        <ele>627.8</ele>
        <time>2026-03-21T11:59:15Z</time>
      </trkpt>
      <trkpt lat="48.00061" lon="7.02373">
        <ele>628.4</ele>
        <time>2026-03-21T11:59:20Z</time>
      </trkpt>
      <trkpt lat="48.0006" lon="7.02371">
        <ele>629</ele>
        <time>2026-03-21T11:59:25Z</time>
      </trkpt>
      <trkpt lat="48.0006" lon="7.02371">
        <ele>629</ele>
        <time>2026-03-21T11:59:30Z</time>
      </trkpt>
      <trkpt lat="48.0006" lon="7.02371">
        <ele>629</ele>
        <time>2026-03-21T11:59:35Z</time>
      </trkpt>
      <trkpt lat="48.00053" lon="7.02359">
        <ele>631.9</ele>
        <time>2026-03-21T11:59:40Z</time>
      </trkpt>
      <trkpt lat="48.00049" lon="7.02353">
        <ele>633.2</ele>
        <time>2026-03-21T11:59:45Z</time>
      </trkpt>
      <trkpt lat="48.00046" lon="7.0235">
        <ele>633.6</ele>
        <time>2026-03-21T11:59:50Z</time>
      </trkpt>
      <trkpt lat="48.00042" lon="7.02348">
        <ele>633.5</ele>
        <time>2026-03-21T11:59:55Z</time>
      </trkpt>
      <trkpt lat="48.00038" lon="7.02345">
        <ele>633.6</ele>
        <time>2026-03-21T12:00:00Z</time>
      </trkpt>
      <trkpt lat="48.00036" lon="7.02343">
        <ele>633.9</ele>
        <time>2026-03-21T12:00:05Z</time>
      </trkpt>
      <trkpt lat="48.00032" lon="7.02341">
        <ele>633.7</ele>
        <time>2026-03-21T12:00:10Z</time>
      </trkpt>
      <trkpt lat="48.00029" lon="7.02338">
        <ele>634</ele>
        <time>2026-03-21T12:00:15Z</time>
      </trkpt>
      <trkpt lat="48.00028" lon="7.02337">
        <ele>634.2</ele>
        <time>2026-03-21T12:00:20Z</time>
      </trkpt>
      <trkpt lat="48.00028" lon="7.02337">
        <ele>634.2</ele>
        <time>2026-03-21T12:00:25Z</time>
      </trkpt>
      <trkpt lat="48.00028" lon="7.02337">
        <ele>634.2</ele>
        <time>2026-03-21T12:00:30Z</time>
      </trkpt>
      <trkpt lat="48.00019" lon="7.02333">
        <ele>633.5</ele>
        <time>2026-03-21T12:00:35Z</time>
      </trkpt>
      <trkpt lat="48.00015" lon="7.02333">
        <ele>632.6</ele>
        <time>2026-03-21T12:00:40Z</time>
      </trkpt>
      <trkpt lat="48.00015" lon="7.02333">
        <ele>632.6</ele>
        <time>2026-03-21T12:00:45Z</time>
      </trkpt>
      <trkpt lat="48.00015" lon="7.02333">
        <ele>632.6</ele>
        <time>2026-03-21T12:00:50Z</time>
      </trkpt>
      <trkpt lat="48.00015" lon="7.02333">
        <ele>632.6</ele>
        <time>2026-03-21T12:00:55Z</time>
      </trkpt>
      <trkpt lat="48.00006" lon="7.02326">
        <ele>633.9</ele>
        <time>2026-03-21T12:01:00Z</time>
      </trkpt>
      <trkpt lat="48.00003" lon="7.02325">
        <ele>633.8</ele>
        <time>2026-03-21T12:01:05Z</time>
      </trkpt>
      <trkpt lat="48.00003" lon="7.02324">
        <ele>634.3</ele>
        <time>2026-03-21T12:01:10Z</time>
      </trkpt>
      <trkpt lat="48.00003" lon="7.02324">
        <ele>634.3</ele>
        <time>2026-03-21T12:01:15Z</time>
      </trkpt>
      <trkpt lat="47.99998" lon="7.02316">
        <ele>637.2</ele>
        <time>2026-03-21T12:01:20Z</time>
      </trkpt>
      <trkpt lat="47.99994" lon="7.02313">
        <ele>638.1</ele>
        <time>2026-03-21T12:01:25Z</time>
      </trkpt>
      <trkpt lat="47.9999" lon="7.02312">
        <ele>638</ele>
        <time>2026-03-21T12:01:30Z</time>
      </trkpt>
      <trkpt lat="47.99986" lon="7.0231">
        <ele>638.3</ele>
        <time>2026-03-21T12:01:35Z</time>
      </trkpt>
      <trkpt lat="47.99986" lon="7.02309">
        <ele>638.8</ele>
        <time>2026-03-21T12:01:40Z</time>
      </trkpt>
      <trkpt lat="47.99986" lon="7.02309">
        <ele>638.8</ele>
        <time>2026-03-21T12:01:45Z</time>
      </trkpt>
      <trkpt lat="47.99986" lon="7.02309">
        <ele>638.8</ele>
        <time>2026-03-21T12:01:50Z</time>
      </trkpt>
      <trkpt lat="47.99974" lon="7.02303">
        <ele>639.8</ele>
        <time>2026-03-21T12:01:55Z</time>
      </trkpt>
      <trkpt lat="47.99971" lon="7.02301">
        <ele>640.3</ele>
        <time>2026-03-21T12:02:00Z</time>
      </trkpt>
      <trkpt lat="47.9997" lon="7.02299">
        <ele>641</ele>
        <time>2026-03-21T12:02:05Z</time>
      </trkpt>
      <trkpt lat="47.99967" lon="7.02296">
        <ele>641.9</ele>
        <time>2026-03-21T12:02:10Z</time>
      </trkpt>
      <trkpt lat="47.99967" lon="7.02293">
        <ele>643.3</ele>
        <time>2026-03-21T12:02:15Z</time>
      </trkpt>
      <trkpt lat="47.99967" lon="7.02293">
        <ele>643.3</ele>
        <time>2026-03-21T12:02:20Z</time>
      </trkpt>
      <trkpt lat="47.99967" lon="7.02293">
        <ele>643.3</ele>
        <time>2026-03-21T12:02:25Z</time>
      </trkpt>
      <trkpt lat="47.99959" lon="7.02283">
        <ele>646.6</ele>
        <time>2026-03-21T12:02:30Z</time>
      </trkpt>
      <trkpt lat="47.99958" lon="7.02282">
        <ele>646.8</ele>
        <time>2026-03-21T12:02:35Z</time>
      </trkpt>
      <trkpt lat="47.99953" lon="7.02278">
        <ele>647.8</ele>
        <time>2026-03-21T12:02:40Z</time>
      </trkpt>
      <trkpt lat="47.9995" lon="7.02275">
        <ele>648.6</ele>
        <time>2026-03-21T12:02:45Z</time>
      </trkpt>
      <trkpt lat="47.99947" lon="7.02273">
        <ele>648.9</ele>
        <time>2026-03-21T12:02:50Z</time>
      </trkpt>
      <trkpt lat="47.99945" lon="7.02271">
        <ele>649.4</ele>
        <time>2026-03-21T12:02:55Z</time>
      </trkpt>
      <trkpt lat="47.99943" lon="7.02266">
        <ele>651.3</ele>
        <time>2026-03-21T12:03:00Z</time>
      </trkpt>
      <trkpt lat="47.9994" lon="7.02262">
        <ele>652.5</ele>
        <time>2026-03-21T12:03:05Z</time>
      </trkpt>
      <trkpt lat="47.99938" lon="7.02257">
        <ele>654.3</ele>
        <time>2026-03-21T12:03:10Z</time>
      </trkpt>
      <trkpt lat="47.99933" lon="7.02256">
        <ele>653.7</ele>
        <time>2026-03-21T12:03:15Z</time>
      </trkpt>
      <trkpt lat="47.9993" lon="7.02253">
        <ele>654.4</ele>
        <time>2026-03-21T12:03:20Z</time>
      </trkpt>
      <trkpt lat="47.9993" lon="7.02253">
        <ele>654.4</ele>
        <time>2026-03-21T12:03:25Z</time>
      </trkpt>
      <trkpt lat="47.9993" lon="7.02253">
        <ele>654.4</ele>
        <time>2026-03-21T12:03:30Z</time>
      </trkpt>
      <trkpt lat="47.99923" lon="7.02247">
        <ele>655.2</ele>
        <time>2026-03-21T12:03:35Z</time>
      </trkpt>
      <trkpt lat="47.9992" lon="7.02244">
        <ele>655.5</ele>
        <time>2026-03-21T12:03:40Z</time>
      </trkpt>
      <trkpt lat="47.9992" lon="7.02241">
        <ele>656.4</ele>
        <time>2026-03-21T12:03:45Z</time>
      </trkpt>
      <trkpt lat="47.99926" lon="7.02241">
        <ele>657.6</ele>
        <time>2026-03-21T12:03:50Z</time>
      </trkpt>
      <trkpt lat="47.99932" lon="7.02244">
        <ele>657.9</ele>
        <time>2026-03-21T12:03:55Z</time>
      </trkpt>
      <trkpt lat="47.99935" lon="7.02247">
        <ele>657.6</ele>
        <time>2026-03-21T12:04:00Z</time>
      </trkpt>
      <trkpt lat="47.9994" lon="7.02253">
        <ele>656.4</ele>
        <time>2026-03-21T12:04:05Z</time>
      </trkpt>
      <trkpt lat="47.99946" lon="7.02256">
        <ele>656.3</ele>
        <time>2026-03-21T12:04:10Z</time>
      </trkpt>
      <trkpt lat="47.99951" lon="7.02256">
        <ele>657.3</ele>
        <time>2026-03-21T12:04:15Z</time>
      </trkpt>
      <trkpt lat="47.99954" lon="7.02255">
        <ele>658.4</ele>
        <time>2026-03-21T12:04:20Z</time>
      </trkpt>
      <trkpt lat="47.99958" lon="7.02254">
        <ele>659.6</ele>
        <time>2026-03-21T12:04:25Z</time>
      </trkpt>
      <trkpt lat="47.99962" lon="7.02255">
        <ele>660</ele>
        <time>2026-03-21T12:04:30Z</time>
      </trkpt>
      <trkpt lat="47.99964" lon="7.02256">
        <ele>659.9</ele>
        <time>2026-03-21T12:04:35Z</time>
      </trkpt>
      <trkpt lat="47.99968" lon="7.02252">
        <ele>662.5</ele>
        <time>2026-03-21T12:04:40Z</time>
      </trkpt>
      <trkpt lat="47.99971" lon="7.0225">
        <ele>664.1</ele>
        <time>2026-03-21T12:04:45Z</time>
      </trkpt>
      <trkpt lat="47.99973" lon="7.02248">
        <ele>665.1</ele>
        <time>2026-03-21T12:04:50Z</time>
      </trkpt>
      <trkpt lat="47.99977" lon="7.02245">
        <ele>666.8</ele>
        <time>2026-03-21T12:04:55Z</time>
      </trkpt>
      <trkpt lat="47.99979" lon="7.02244">
        <ele>667.5</ele>
        <time>2026-03-21T12:05:00Z</time>
      </trkpt>
      <trkpt lat="47.99981" lon="7.02237">
        <ele>669.9</ele>
        <time>2026-03-21T12:05:05Z</time>
      </trkpt>
      <trkpt lat="47.99982" lon="7.02237">
        <ele>670.1</ele>
        <time>2026-03-21T12:05:10Z</time>
      </trkpt>
      <trkpt lat="47.99982" lon="7.02237">
        <ele>670.1</ele>
        <time>2026-03-21T12:05:15Z</time>
      </trkpt>
      <trkpt lat="47.99982" lon="7.02237">
        <ele>670.1</ele>
        <time>2026-03-21T12:05:20Z</time>
      </trkpt>
      <trkpt lat="47.99982" lon="7.02237">
        <ele>670.1</ele>
        <time>2026-03-21T12:05:25Z</time>
      </trkpt>
      <trkpt lat="47.99977" lon="7.0223">
        <ele>671.1</ele>
        <time>2026-03-21T12:05:30Z</time>
      </trkpt>
      <trkpt lat="47.99971" lon="7.02225">
        <ele>671.4</ele>
        <time>2026-03-21T12:05:35Z</time>
      </trkpt>
      <trkpt lat="47.99967" lon="7.02221">
        <ele>671.8</ele>
        <time>2026-03-21T12:05:40Z</time>
      </trkpt>
      <trkpt lat="47.99963" lon="7.02218">
        <ele>671.8</ele>
        <time>2026-03-21T12:05:45Z</time>
      </trkpt>
      <trkpt lat="47.99959" lon="7.02217">
        <ele>671.3</ele>
        <time>2026-03-21T12:05:50Z</time>
      </trkpt>
      <trkpt lat="47.99954" lon="7.02215">
        <ele>670.9</ele>
        <time>2026-03-21T12:05:55Z</time>
      </trkpt>
      <trkpt lat="47.99951" lon="7.02211">
        <ele>671.5</ele>
        <time>2026-03-21T12:06:00Z</time>
      </trkpt>
      <trkpt lat="47.9995" lon="7.02207">
        <ele>672.5</ele>
        <time>2026-03-21T12:06:05Z</time>
      </trkpt>
      <trkpt lat="47.99948" lon="7.02201">
        <ele>673.9</ele>
        <time>2026-03-21T12:06:10Z</time>
      </trkpt>
      <trkpt lat="47.99948" lon="7.02198">
        <ele>674.8</ele>
        <time>2026-03-21T12:06:15Z</time>
      </trkpt>
      <trkpt lat="47.99943" lon="7.02196">
        <ele>674.4</ele>
        <time>2026-03-21T12:06:20Z</time>
      </trkpt>
      <trkpt lat="47.9994" lon="7.02194">
        <ele>674.4</ele>
        <time>2026-03-21T12:06:25Z</time>
      </trkpt>
      <trkpt lat="47.99938" lon="7.02191">
        <ele>674.9</ele>
        <time>2026-03-21T12:06:30Z</time>
      </trkpt>
      <trkpt lat="47.99935" lon="7.02188">
        <ele>675.2</ele>
        <time>2026-03-21T12:06:35Z</time>
      </trkpt>
      <trkpt lat="47.99934" lon="7.02188">
        <ele>675</ele>
        <time>2026-03-21T12:06:40Z</time>
      </trkpt>
      <trkpt lat="47.99929" lon="7.02184">
        <ele>675.2</ele>
        <time>2026-03-21T12:06:45Z</time>
      </trkpt>
      <trkpt lat="47.99929" lon="7.02181">
        <ele>676.1</ele>
        <time>2026-03-21T12:06:50Z</time>
      </trkpt>
      <trkpt lat="47.99934" lon="7.02178">
        <ele>678</ele>
        <time>2026-03-21T12:06:55Z</time>
      </trkpt>
      <trkpt lat="47.99941" lon="7.02179">
        <ele>679</ele>
        <time>2026-03-21T12:07:00Z</time>
      </trkpt>
      <trkpt lat="47.99946" lon="7.02183">
        <ele>678.8</ele>
        <time>2026-03-21T12:07:05Z</time>
      </trkpt>
      <trkpt lat="47.99949" lon="7.02188">
        <ele>677.9</ele>
        <time>2026-03-21T12:07:10Z</time>
      </trkpt>
      <trkpt lat="47.99953" lon="7.02192">
        <ele>677.5</ele>
        <time>2026-03-21T12:07:15Z</time>
      </trkpt>
      <trkpt lat="47.99956" lon="7.02194">
        <ele>677.5</ele>
        <time>2026-03-21T12:07:20Z</time>
      </trkpt>
      <trkpt lat="47.9996" lon="7.02195">
        <ele>678</ele>
        <time>2026-03-21T12:07:25Z</time>
      </trkpt>
      <trkpt lat="47.99965" lon="7.02194">
        <ele>679.3</ele>
        <time>2026-03-21T12:07:30Z</time>
      </trkpt>
      <trkpt lat="47.99968" lon="7.02194">
        <ele>679.9</ele>
        <time>2026-03-21T12:07:35Z</time>
      </trkpt>
      <trkpt lat="47.9997" lon="7.02193">
        <ele>680.5</ele>
        <time>2026-03-21T12:07:40Z</time>
      </trkpt>
      <trkpt lat="47.99973" lon="7.02192">
        <ele>681.4</ele>
        <time>2026-03-21T12:07:45Z</time>
      </trkpt>
      <trkpt lat="47.99981" lon="7.02193">
        <ele>682.7</ele>
        <time>2026-03-21T12:07:50Z</time>
      </trkpt>
      <trkpt lat="47.99988" lon="7.02194">
        <ele>683.8</ele>
        <time>2026-03-21T12:07:55Z</time>
      </trkpt>
      <trkpt lat="47.99991" lon="7.02194">
        <ele>684.4</ele>
        <time>2026-03-21T12:08:00Z</time>
      </trkpt>
      <trkpt lat="47.99989" lon="7.02187">
        <ele>686</ele>
        <time>2026-03-21T12:08:05Z</time>
      </trkpt>
      <trkpt lat="47.99985" lon="7.02183">
        <ele>686.4</ele>
        <time>2026-03-21T12:08:10Z</time>
      </trkpt>
      <trkpt lat="47.99979" lon="7.0218">
        <ele>686.1</ele>
        <time>2026-03-21T12:08:15Z</time>
      </trkpt>
      <trkpt lat="47.99975" lon="7.02177">
        <ele>686.2</ele>
        <time>2026-03-21T12:08:20Z</time>
      </trkpt>
      <trkpt lat="47.99972" lon="7.02171">
        <ele>687.4</ele>
        <time>2026-03-21T12:08:25Z</time>
      </trkpt>
      <trkpt lat="47.9997" lon="7.02169">
        <ele>687.6</ele>
        <time>2026-03-21T12:08:30Z</time>
      </trkpt>
      <trkpt lat="47.99964" lon="7.02164">
        <ele>688.3</ele>
        <time>2026-03-21T12:08:35Z</time>
      </trkpt>
      <trkpt lat="47.99962" lon="7.02163">
        <ele>688.3</ele>
        <time>2026-03-21T12:08:40Z</time>
      </trkpt>
      <trkpt lat="47.99957" lon="7.02163">
        <ele>687.3</ele>
        <time>2026-03-21T12:08:45Z</time>
      </trkpt>
      <trkpt lat="47.99955" lon="7.02159">
        <ele>688.6</ele>
        <time>2026-03-21T12:08:50Z</time>
      </trkpt>
      <trkpt lat="47.99952" lon="7.02157">
        <ele>688.9</ele>
        <time>2026-03-21T12:08:55Z</time>
      </trkpt>
      <trkpt lat="47.99948" lon="7.02153">
        <ele>689.8</ele>
        <time>2026-03-21T12:09:00Z</time>
      </trkpt>
      <trkpt lat="47.99945" lon="7.0215">
        <ele>690.4</ele>
        <time>2026-03-21T12:09:05Z</time>
      </trkpt>
      <trkpt lat="47.9994" lon="7.02144">
        <ele>691.8</ele>
        <time>2026-03-21T12:09:10Z</time>
      </trkpt>
      <trkpt lat="47.99935" lon="7.02139">
        <ele>692.7</ele>
        <time>2026-03-21T12:09:15Z</time>
      </trkpt>
      <trkpt lat="47.9993" lon="7.02136">
        <ele>692.8</ele>
        <time>2026-03-21T12:09:20Z</time>
      </trkpt>
      <trkpt lat="47.99927" lon="7.02132">
        <ele>693.7</ele>
        <time>2026-03-21T12:09:25Z</time>
      </trkpt>
      <trkpt lat="47.99923" lon="7.02128">
        <ele>694.3</ele>
        <time>2026-03-21T12:09:30Z</time>
      </trkpt>
      <trkpt lat="47.99921" lon="7.02127">
        <ele>694.3</ele>
        <time>2026-03-21T12:09:35Z</time>
      </trkpt>
      <trkpt lat="47.99921" lon="7.02127">
        <ele>694.3</ele>
        <time>2026-03-21T12:09:40Z</time>
      </trkpt>
      <trkpt lat="47.99921" lon="7.02127">
        <ele>694.3</ele>
        <time>2026-03-21T12:09:45Z</time>
      </trkpt>
      <trkpt lat="47.9991" lon="7.02123">
        <ele>693.2</ele>
        <time>2026-03-21T12:09:50Z</time>
      </trkpt>
      <trkpt lat="47.9991" lon="7.02123">
        <ele>693.2</ele>
        <time>2026-03-21T12:09:55Z</time>
      </trkpt>
      <trkpt lat="47.9991" lon="7.02123">
        <ele>693.2</ele>
        <time>2026-03-21T12:10:00Z</time>
      </trkpt>
      <trkpt lat="47.9991" lon="7.02123">
        <ele>693.2</ele>
        <time>2026-03-21T12:10:05Z</time>
      </trkpt>
      <trkpt lat="47.99901" lon="7.02111">
        <ele>695.7</ele>
        <time>2026-03-21T12:10:10Z</time>
      </trkpt>
      <trkpt lat="47.99899" lon="7.02104">
        <ele>697.9</ele>
        <time>2026-03-21T12:10:15Z</time>
      </trkpt>
      <trkpt lat="47.99897" lon="7.02099">
        <ele>699.4</ele>
        <time>2026-03-21T12:10:20Z</time>
      </trkpt>
      <trkpt lat="47.99896" lon="7.02097">
        <ele>699.9</ele>
        <time>2026-03-21T12:10:25Z</time>
      </trkpt>
      <trkpt lat="47.99895" lon="7.02095">
        <ele>700.4</ele>
        <time>2026-03-21T12:10:30Z</time>
      </trkpt>
      <trkpt lat="47.99889" lon="7.02092">
        <ele>700.1</ele>
        <time>2026-03-21T12:10:35Z</time>
      </trkpt>
      <trkpt lat="47.99884" lon="7.02088">
        <ele>700.4</ele>
        <time>2026-03-21T12:10:40Z</time>
      </trkpt>
      <trkpt lat="47.99881" lon="7.02086">
        <ele>700.4</ele>
        <time>2026-03-21T12:10:45Z</time>
      </trkpt>
      <trkpt lat="47.99877" lon="7.02085">
        <ele>699.9</ele>
        <time>2026-03-21T12:10:50Z</time>
      </trkpt>
      <trkpt lat="47.99873" lon="7.02081">
        <ele>700.4</ele>
        <time>2026-03-21T12:10:55Z</time>
      </trkpt>
      <trkpt lat="47.99873" lon="7.0208">
        <ele>700.7</ele>
        <time>2026-03-21T12:11:00Z</time>
      </trkpt>
      <trkpt lat="47.99871" lon="7.02071">
        <ele>703.6</ele>
        <time>2026-03-21T12:11:05Z</time>
      </trkpt>
      <trkpt lat="47.99868" lon="7.02067">
        <ele>704.4</ele>
        <time>2026-03-21T12:11:10Z</time>
      </trkpt>
      <trkpt lat="47.99868" lon="7.02062">
        <ele>706.2</ele>
        <time>2026-03-21T12:11:15Z</time>
      </trkpt>
      <trkpt lat="47.99866" lon="7.02057">
        <ele>707.6</ele>
        <time>2026-03-21T12:11:20Z</time>
      </trkpt>
      <trkpt lat="47.99863" lon="7.02055">
        <ele>707.7</ele>
        <time>2026-03-21T12:11:25Z</time>
      </trkpt>
      <trkpt lat="47.9986" lon="7.02052">
        <ele>708.2</ele>
        <time>2026-03-21T12:11:30Z</time>
      </trkpt>
      <trkpt lat="47.99857" lon="7.02047">
        <ele>709.4</ele>
        <time>2026-03-21T12:11:35Z</time>
      </trkpt>
      <trkpt lat="47.99856" lon="7.02044">
        <ele>710.4</ele>
        <time>2026-03-21T12:11:40Z</time>
      </trkpt>
      <trkpt lat="47.99853" lon="7.02042">
        <ele>710.5</ele>
        <time>2026-03-21T12:11:45Z</time>
      </trkpt>
      <trkpt lat="47.99849" lon="7.02038">
        <ele>711.2</ele>
        <time>2026-03-21T12:11:50Z</time>
      </trkpt>
      <trkpt lat="47.99845" lon="7.02035">
        <ele>711.5</ele>
        <time>2026-03-21T12:11:55Z</time>
      </trkpt>
      <trkpt lat="47.99844" lon="7.02029">
        <ele>713.7</ele>
        <time>2026-03-21T12:12:00Z</time>
      </trkpt>
      <trkpt lat="47.99843" lon="7.02028">
        <ele>713.8</ele>
        <time>2026-03-21T12:12:05Z</time>
      </trkpt>
      <trkpt lat="47.99843" lon="7.02028">
        <ele>713.8</ele>
        <time>2026-03-21T12:12:10Z</time>
      </trkpt>
      <trkpt lat="47.99843" lon="7.02028">
        <ele>713.8</ele>
        <time>2026-03-21T12:12:15Z</time>
      </trkpt>
      <trkpt lat="47.99833" lon="7.02019">
        <ele>715.4</ele>
        <time>2026-03-21T12:12:20Z</time>
      </trkpt>
      <trkpt lat="47.99831" lon="7.02015">
        <ele>716.8</ele>
        <time>2026-03-21T12:12:25Z</time>
      </trkpt>
      <trkpt lat="47.9983" lon="7.02009">
        <ele>719.1</ele>
        <time>2026-03-21T12:12:30Z</time>
      </trkpt>
      <trkpt lat="47.99828" lon="7.02006">
        <ele>720.1</ele>
        <time>2026-03-21T12:12:35Z</time>
      </trkpt>
      <trkpt lat="47.99826" lon="7.02005">
        <ele>720.3</ele>
        <time>2026-03-21T12:12:40Z</time>
      </trkpt>
      <trkpt lat="47.99824" lon="7.02">
        <ele>722.1</ele>
        <time>2026-03-21T12:12:45Z</time>
      </trkpt>
      <trkpt lat="47.99819" lon="7.01997">
        <ele>722.6</ele>
        <time>2026-03-21T12:12:50Z</time>
      </trkpt>
      <trkpt lat="47.99815" lon="7.01994">
        <ele>723.2</ele>
        <time>2026-03-21T12:12:55Z</time>
      </trkpt>
      <trkpt lat="47.99811" lon="7.01991">
        <ele>723.8</ele>
        <time>2026-03-21T12:13:00Z</time>
      </trkpt>
      <trkpt lat="47.99808" lon="7.01985">
        <ele>725.4</ele>
        <time>2026-03-21T12:13:05Z</time>
      </trkpt>
      <trkpt lat="47.99805" lon="7.01981">
        <ele>726.4</ele>
        <time>2026-03-21T12:13:10Z</time>
      </trkpt>
      <trkpt lat="47.99802" lon="7.01978">
        <ele>727.2</ele>
        <time>2026-03-21T12:13:15Z</time>
      </trkpt>
      <trkpt lat="47.998" lon="7.01976">
        <ele>727.6</ele>
        <time>2026-03-21T12:13:20Z</time>
      </trkpt>
      <trkpt lat="47.998" lon="7.01975">
        <ele>728</ele>
        <time>2026-03-21T12:13:25Z</time>
      </trkpt>
      <trkpt lat="47.998" lon="7.01975">
        <ele>728</ele>
        <time>2026-03-21T12:13:30Z</time>
      </trkpt>
      <trkpt lat="47.998" lon="7.01975">
        <ele>728</ele>
        <time>2026-03-21T12:13:35Z</time>
      </trkpt>
      <trkpt lat="47.99793" lon="7.01966">
        <ele>730.3</ele>
        <time>2026-03-21T12:13:40Z</time>
      </trkpt>
      <trkpt lat="47.99792" lon="7.01965">
        <ele>730.6</ele>
        <time>2026-03-21T12:13:45Z</time>
      </trkpt>
      <trkpt lat="47.99792" lon="7.01965">
        <ele>730.6</ele>
        <time>2026-03-21T12:13:50Z</time>
      </trkpt>
      <trkpt lat="47.99789" lon="7.01955">
        <ele>733.6</ele>
        <time>2026-03-21T12:13:55Z</time>
      </trkpt>
      <trkpt lat="47.99788" lon="7.01953">
        <ele>734.2</ele>
        <time>2026-03-21T12:14:00Z</time>
      </trkpt>
      <trkpt lat="47.99788" lon="7.01953">
        <ele>734.2</ele>
        <time>2026-03-21T12:14:05Z</time>
      </trkpt>
      <trkpt lat="47.99788" lon="7.01953">
        <ele>734.2</ele>
        <time>2026-03-21T12:14:10Z</time>
      </trkpt>
      <trkpt lat="47.99777" lon="7.01942">
        <ele>737.1</ele>
        <time>2026-03-21T12:14:15Z</time>
      </trkpt>
      <trkpt lat="47.99775" lon="7.01938">
        <ele>738.3</ele>
        <time>2026-03-21T12:14:20Z</time>
      </trkpt>
      <trkpt lat="47.99775" lon="7.01932">
        <ele>740.3</ele>
        <time>2026-03-21T12:14:25Z</time>
      </trkpt>
      <trkpt lat="47.99774" lon="7.01927">
        <ele>742</ele>
        <time>2026-03-21T12:14:30Z</time>
      </trkpt>
      <trkpt lat="47.99771" lon="7.01923">
        <ele>743.1</ele>
        <time>2026-03-21T12:14:35Z</time>
      </trkpt>
      <trkpt lat="47.9977" lon="7.01922">
        <ele>743.4</ele>
        <time>2026-03-21T12:14:40Z</time>
      </trkpt>
      <trkpt lat="47.9977" lon="7.01922">
        <ele>743.4</ele>
        <time>2026-03-21T12:14:45Z</time>
      </trkpt>
      <trkpt lat="47.9977" lon="7.01922">
        <ele>743.4</ele>
        <time>2026-03-21T12:14:50Z</time>
      </trkpt>
      <trkpt lat="47.99765" lon="7.01915">
        <ele>745.6</ele>
        <time>2026-03-21T12:14:55Z</time>
      </trkpt>
      <trkpt lat="47.99765" lon="7.01915">
        <ele>745.6</ele>
        <time>2026-03-21T12:15:00Z</time>
      </trkpt>
      <trkpt lat="47.99765" lon="7.01915">
        <ele>745.6</ele>
        <time>2026-03-21T12:15:05Z</time>
      </trkpt>
      <trkpt lat="47.99765" lon="7.01915">
        <ele>745.6</ele>
        <time>2026-03-21T12:15:10Z</time>
      </trkpt>
      <trkpt lat="47.99757" lon="7.01905">
        <ele>749.8</ele>
        <time>2026-03-21T12:15:15Z</time>
      </trkpt>
      <trkpt lat="47.99756" lon="7.01903">
        <ele>750.6</ele>
        <time>2026-03-21T12:15:20Z</time>
      </trkpt>
      <trkpt lat="47.99756" lon="7.01903">
        <ele>750.6</ele>
        <time>2026-03-21T12:15:25Z</time>
      </trkpt>
      <trkpt lat="47.99756" lon="7.01903">
        <ele>750.6</ele>
        <time>2026-03-21T12:15:30Z</time>
      </trkpt>
      <trkpt lat="47.99756" lon="7.01903">
        <ele>750.6</ele>
        <time>2026-03-21T12:15:35Z</time>
      </trkpt>
      <trkpt lat="47.99751" lon="7.01891">
        <ele>756</ele>
        <time>2026-03-21T12:15:40Z</time>
      </trkpt>
      <trkpt lat="47.99749" lon="7.0189">
        <ele>756.4</ele>
        <time>2026-03-21T12:15:45Z</time>
      </trkpt>
      <trkpt lat="47.99749" lon="7.0189">
        <ele>756.4</ele>
        <time>2026-03-21T12:15:50Z</time>
      </trkpt>
      <trkpt lat="47.99754" lon="7.01884">
        <ele>759.4</ele>
        <time>2026-03-21T12:15:55Z</time>
      </trkpt>
      <trkpt lat="47.99759" lon="7.01892">
        <ele>755.8</ele>
        <time>2026-03-21T12:16:00Z</time>
      </trkpt>
      <trkpt lat="47.99761" lon="7.01894">
        <ele>754.9</ele>
        <time>2026-03-21T12:16:05Z</time>
      </trkpt>
      <trkpt lat="47.99767" lon="7.01892">
        <ele>756</ele>
        <time>2026-03-21T12:16:10Z</time>
      </trkpt>
      <trkpt lat="47.9977" lon="7.01893">
        <ele>755.7</ele>
        <time>2026-03-21T12:16:15Z</time>
      </trkpt>
      <trkpt lat="47.9977" lon="7.01893">
        <ele>755.7</ele>
        <time>2026-03-21T12:16:20Z</time>
      </trkpt>
      <trkpt lat="47.9977" lon="7.01893">
        <ele>755.7</ele>
        <time>2026-03-21T12:16:25Z</time>
      </trkpt>
      <trkpt lat="47.9977" lon="7.01893">
        <ele>755.7</ele>
        <time>2026-03-21T12:16:30Z</time>
      </trkpt>
      <trkpt lat="47.9977" lon="7.01893">
        <ele>755.7</ele>
        <time>2026-03-21T12:16:35Z</time>
      </trkpt>
      <trkpt lat="47.9977" lon="7.01893">
        <ele>755.7</ele>
        <time>2026-03-21T12:16:40Z</time>
      </trkpt>
      <trkpt lat="47.9977" lon="7.01893">
        <ele>755.7</ele>
        <time>2026-03-21T12:16:45Z</time>
      </trkpt>
      <trkpt lat="47.99769" lon="7.01882">
        <ele>760.5</ele>
        <time>2026-03-21T12:16:50Z</time>
      </trkpt>
      <trkpt lat="47.99764" lon="7.01876">
        <ele>763.1</ele>
        <time>2026-03-21T12:16:55Z</time>
      </trkpt>
      <trkpt lat="47.9976" lon="7.01872">
        <ele>764.9</ele>
        <time>2026-03-21T12:17:00Z</time>
      </trkpt>
      <trkpt lat="47.99758" lon="7.01868">
        <ele>766.8</ele>
        <time>2026-03-21T12:17:05Z</time>
      </trkpt>
      <trkpt lat="47.99756" lon="7.01865">
        <ele>768.1</ele>
        <time>2026-03-21T12:17:10Z</time>
      </trkpt>
      <trkpt lat="47.99752" lon="7.01864">
        <ele>768.6</ele>
        <time>2026-03-21T12:17:15Z</time>
      </trkpt>
      <trkpt lat="47.99748" lon="7.01861">
        <ele>770</ele>
        <time>2026-03-21T12:17:20Z</time>
      </trkpt>
      <trkpt lat="47.99747" lon="7.01854">
        <ele>773.2</ele>
        <time>2026-03-21T12:17:25Z</time>
      </trkpt>
      <trkpt lat="47.99747" lon="7.0185">
        <ele>775.1</ele>
        <time>2026-03-21T12:17:30Z</time>
      </trkpt>
      <trkpt lat="47.99746" lon="7.01846">
        <ele>776.9</ele>
        <time>2026-03-21T12:17:35Z</time>
      </trkpt>
      <trkpt lat="47.99746" lon="7.01846">
        <ele>776.9</ele>
        <time>2026-03-21T12:17:40Z</time>
      </trkpt>
      <trkpt lat="47.99746" lon="7.01846">
        <ele>776.9</ele>
        <time>2026-03-21T12:17:45Z</time>
      </trkpt>
      <trkpt lat="47.99746" lon="7.01846">
        <ele>776.9</ele>
        <time>2026-03-21T12:17:50Z</time>
      </trkpt>
      <trkpt lat="47.99746" lon="7.01846">
        <ele>776.9</ele>
        <time>2026-03-21T12:17:55Z</time>
      </trkpt>
      <trkpt lat="47.99746" lon="7.01846">
        <ele>776.9</ele>
        <time>2026-03-21T12:18:00Z</time>
      </trkpt>
      <trkpt lat="47.99746" lon="7.01846">
        <ele>776.9</ele>
        <time>2026-03-21T12:18:05Z</time>
      </trkpt>
      <trkpt lat="47.99746" lon="7.01846">
        <ele>776.9</ele>
        <time>2026-03-21T12:18:10Z</time>
      </trkpt>
      <trkpt lat="47.99746" lon="7.01846">
        <ele>776.9</ele>
        <time>2026-03-21T12:18:15Z</time>
      </trkpt>
      <trkpt lat="47.99746" lon="7.01846">
        <ele>776.9</ele>
        <time>2026-03-21T12:18:20Z</time>
      </trkpt>
      <trkpt lat="47.99753" lon="7.01854">
        <ele>773.3</ele>
        <time>2026-03-21T12:18:25Z</time>
      </trkpt>
      <trkpt lat="47.99756" lon="7.01856">
        <ele>772.3</ele>
        <time>2026-03-21T12:18:30Z</time>
      </trkpt>
      <trkpt lat="47.99761" lon="7.01855">
        <ele>772.6</ele>
        <time>2026-03-21T12:18:35Z</time>
      </trkpt>
      <trkpt lat="47.99764" lon="7.01851">
        <ele>774.4</ele>
        <time>2026-03-21T12:18:40Z</time>
      </trkpt>
      <trkpt lat="47.99765" lon="7.01847">
        <ele>776.1</ele>
        <time>2026-03-21T12:18:45Z</time>
      </trkpt>
      <trkpt lat="47.99765" lon="7.01845">
        <ele>777</ele>
        <time>2026-03-21T12:18:50Z</time>
      </trkpt>
      <trkpt lat="47.99765" lon="7.01845">
        <ele>777</ele>
        <time>2026-03-21T12:18:55Z</time>
      </trkpt>
      <trkpt lat="47.99765" lon="7.01845">
        <ele>777</ele>
        <time>2026-03-21T12:19:00Z</time>
      </trkpt>
      <trkpt lat="47.99765" lon="7.01845">
        <ele>777</ele>
        <time>2026-03-21T12:19:05Z</time>
      </trkpt>
      <trkpt lat="47.99765" lon="7.01845">
        <ele>777</ele>
        <time>2026-03-21T12:19:10Z</time>
      </trkpt>
      <trkpt lat="47.99765" lon="7.01845">
        <ele>777</ele>
        <time>2026-03-21T12:19:15Z</time>
      </trkpt>
      <trkpt lat="47.99765" lon="7.01845">
        <ele>777</ele>
        <time>2026-03-21T12:19:20Z</time>
      </trkpt>
      <trkpt lat="47.99771" lon="7.01848">
        <ele>775.5</ele>
        <time>2026-03-21T12:19:25Z</time>
      </trkpt>
      <trkpt lat="47.99775" lon="7.01849">
        <ele>775</ele>
        <time>2026-03-21T12:19:30Z</time>
      </trkpt>
      <trkpt lat="47.99778" lon="7.01851">
        <ele>774</ele>
        <time>2026-03-21T12:19:35Z</time>
      </trkpt>
      <trkpt lat="47.99779" lon="7.01851">
        <ele>774</ele>
        <time>2026-03-21T12:19:40Z</time>
      </trkpt>
      <trkpt lat="47.99779" lon="7.01851">
        <ele>774</ele>
        <time>2026-03-21T12:19:45Z</time>
      </trkpt>
      <trkpt lat="47.99779" lon="7.01851">
        <ele>774</ele>
        <time>2026-03-21T12:19:50Z</time>
      </trkpt>
      <trkpt lat="47.99779" lon="7.01851">
        <ele>774</ele>
        <time>2026-03-21T12:19:55Z</time>
      </trkpt>
      <trkpt lat="47.99779" lon="7.01851">
        <ele>774</ele>
        <time>2026-03-21T12:20:00Z</time>
      </trkpt>
      <trkpt lat="47.99779" lon="7.01851">
        <ele>774</ele>
        <time>2026-03-21T12:20:05Z</time>
      </trkpt>
      <trkpt lat="47.99779" lon="7.01851">
        <ele>774</ele>
        <time>2026-03-21T12:20:10Z</time>
      </trkpt>
      <trkpt lat="47.99779" lon="7.01851">
        <ele>774</ele>
        <time>2026-03-21T12:20:15Z</time>
      </trkpt>
      <trkpt lat="47.99779" lon="7.01851">
        <ele>774</ele>
        <time>2026-03-21T12:20:20Z</time>
      </trkpt>
      <trkpt lat="47.99779" lon="7.01851">
        <ele>774</ele>
        <time>2026-03-21T12:20:25Z</time>
      </trkpt>
      <trkpt lat="47.99779" lon="7.01851">
        <ele>774</ele>
        <time>2026-03-21T12:20:30Z</time>
      </trkpt>
      <trkpt lat="47.99779" lon="7.01851">
        <ele>774</ele>
        <time>2026-03-21T12:20:35Z</time>
      </trkpt>
      <trkpt lat="47.99781" lon="7.01855">
        <ele>772.2</ele>
        <time>2026-03-21T12:20:40Z</time>
      </trkpt>
      <trkpt lat="47.99784" lon="7.01855">
        <ele>772.2</ele>
        <time>2026-03-21T12:20:45Z</time>
      </trkpt>
      <trkpt lat="47.99786" lon="7.01854">
        <ele>772.6</ele>
        <time>2026-03-21T12:20:50Z</time>
      </trkpt>
      <trkpt lat="47.9979" lon="7.01855">
        <ele>772.1</ele>
        <time>2026-03-21T12:20:55Z</time>
      </trkpt>
      <trkpt lat="47.99793" lon="7.01856">
        <ele>771.6</ele>
        <time>2026-03-21T12:21:00Z</time>
      </trkpt>
      <trkpt lat="47.99793" lon="7.01859">
        <ele>770.4</ele>
        <time>2026-03-21T12:21:05Z</time>
      </trkpt>
      <trkpt lat="47.99796" lon="7.01862">
        <ele>769.1</ele>
        <time>2026-03-21T12:21:10Z</time>
      </trkpt>
      <trkpt lat="47.99799" lon="7.01863">
        <ele>768.6</ele>
        <time>2026-03-21T12:21:15Z</time>
      </trkpt>
      <trkpt lat="47.99801" lon="7.01864">
        <ele>768.2</ele>
        <time>2026-03-21T12:21:20Z</time>
      </trkpt>
      <trkpt lat="47.99803" lon="7.01866">
        <ele>767.4</ele>
        <time>2026-03-21T12:21:25Z</time>
      </trkpt>
      <trkpt lat="47.99804" lon="7.01866">
        <ele>767.4</ele>
        <time>2026-03-21T12:21:30Z</time>
      </trkpt>
      <trkpt lat="47.99804" lon="7.01866">
        <ele>767.4</ele>
        <time>2026-03-21T12:21:35Z</time>
      </trkpt>
      <trkpt lat="47.99808" lon="7.01869">
        <ele>766.2</ele>
        <time>2026-03-21T12:21:40Z</time>
      </trkpt>
      <trkpt lat="47.99808" lon="7.01869">
        <ele>766.2</ele>
        <time>2026-03-21T12:21:45Z</time>
      </trkpt>
      <trkpt lat="47.99808" lon="7.01869">
        <ele>766.2</ele>
        <time>2026-03-21T12:21:50Z</time>
      </trkpt>
      <trkpt lat="47.99808" lon="7.01869">
        <ele>766.2</ele>
        <time>2026-03-21T12:21:55Z</time>
      </trkpt>
      <trkpt lat="47.99808" lon="7.01869">
        <ele>766.2</ele>
        <time>2026-03-21T12:22:00Z</time>
      </trkpt>
      <trkpt lat="47.99808" lon="7.01869">
        <ele>766.2</ele>
        <time>2026-03-21T12:22:05Z</time>
      </trkpt>
      <trkpt lat="47.99808" lon="7.01869">
        <ele>766.2</ele>
        <time>2026-03-21T12:22:10Z</time>
      </trkpt>
      <trkpt lat="47.99808" lon="7.01869">
        <ele>766.2</ele>
        <time>2026-03-21T12:22:15Z</time>
      </trkpt>
      <trkpt lat="47.99814" lon="7.01878">
        <ele>762.7</ele>
        <time>2026-03-21T12:22:20Z</time>
      </trkpt>
      <trkpt lat="47.99819" lon="7.01883">
        <ele>760.9</ele>
        <time>2026-03-21T12:22:25Z</time>
      </trkpt>
      <trkpt lat="47.99822" lon="7.01883">
        <ele>760.9</ele>
        <time>2026-03-21T12:22:30Z</time>
      </trkpt>
      <trkpt lat="47.99827" lon="7.01884">
        <ele>760.6</ele>
        <time>2026-03-21T12:22:35Z</time>
      </trkpt>
      <trkpt lat="47.9983" lon="7.01887">
        <ele>759.6</ele>
        <time>2026-03-21T12:22:40Z</time>
      </trkpt>
      <trkpt lat="47.99835" lon="7.01887">
        <ele>760</ele>
        <time>2026-03-21T12:22:45Z</time>
      </trkpt>
      <trkpt lat="47.99838" lon="7.01888">
        <ele>760.3</ele>
        <time>2026-03-21T12:22:50Z</time>
      </trkpt>
      <trkpt lat="47.99843" lon="7.01892">
        <ele>760</ele>
        <time>2026-03-21T12:22:55Z</time>
      </trkpt>
      <trkpt lat="47.99846" lon="7.01894">
        <ele>759.9</ele>
        <time>2026-03-21T12:23:00Z</time>
      </trkpt>
      <trkpt lat="47.99851" lon="7.01894">
        <ele>761</ele>
        <time>2026-03-21T12:23:05Z</time>
      </trkpt>
      <trkpt lat="47.99854" lon="7.01896">
        <ele>760.9</ele>
        <time>2026-03-21T12:23:10Z</time>
      </trkpt>
      <trkpt lat="47.99858" lon="7.01898">
        <ele>761</ele>
        <time>2026-03-21T12:23:15Z</time>
      </trkpt>
      <trkpt lat="47.99861" lon="7.01901">
        <ele>760.6</ele>
        <time>2026-03-21T12:23:20Z</time>
      </trkpt>
      <trkpt lat="47.99861" lon="7.01905">
        <ele>759.2</ele>
        <time>2026-03-21T12:23:25Z</time>
      </trkpt>
      <trkpt lat="47.99861" lon="7.01905">
        <ele>759.2</ele>
        <time>2026-03-21T12:23:30Z</time>
      </trkpt>
      <trkpt lat="47.99863" lon="7.01909">
        <ele>758.2</ele>
        <time>2026-03-21T12:23:35Z</time>
      </trkpt>
      <trkpt lat="47.99866" lon="7.01909">
        <ele>758.8</ele>
        <time>2026-03-21T12:23:40Z</time>
      </trkpt>
      <trkpt lat="47.99871" lon="7.0191">
        <ele>759.5</ele>
        <time>2026-03-21T12:23:45Z</time>
      </trkpt>
      <trkpt lat="47.99875" lon="7.01911">
        <ele>760</ele>
        <time>2026-03-21T12:23:50Z</time>
      </trkpt>
      <trkpt lat="47.99879" lon="7.0191">
        <ele>761.3</ele>
        <time>2026-03-21T12:23:55Z</time>
      </trkpt>
      <trkpt lat="47.99882" lon="7.01911">
        <ele>761.6</ele>
        <time>2026-03-21T12:24:00Z</time>
      </trkpt>
      <trkpt lat="47.99885" lon="7.0191">
        <ele>762.6</ele>
        <time>2026-03-21T12:24:05Z</time>
      </trkpt>
      <trkpt lat="47.99887" lon="7.0191">
        <ele>763</ele>
        <time>2026-03-21T12:24:10Z</time>
      </trkpt>
      <trkpt lat="47.9989" lon="7.0191">
        <ele>763.6</ele>
        <time>2026-03-21T12:24:15Z</time>
      </trkpt>
      <trkpt lat="47.99895" lon="7.01913">
        <ele>763.6</ele>
        <time>2026-03-21T12:24:20Z</time>
      </trkpt>
      <trkpt lat="47.999" lon="7.01912">
        <ele>765.1</ele>
        <time>2026-03-21T12:24:25Z</time>
      </trkpt>
      <trkpt lat="47.99903" lon="7.01913">
        <ele>765.4</ele>
        <time>2026-03-21T12:24:30Z</time>
      </trkpt>
      <trkpt lat="47.99906" lon="7.01914">
        <ele>765.7</ele>
        <time>2026-03-21T12:24:35Z</time>
      </trkpt>
      <trkpt lat="47.9991" lon="7.01915">
        <ele>766.2</ele>
        <time>2026-03-21T12:24:40Z</time>
      </trkpt>
      <trkpt lat="47.99912" lon="7.01916">
        <ele>766.2</ele>
        <time>2026-03-21T12:24:45Z</time>
      </trkpt>
      <trkpt lat="47.99915" lon="7.01917">
        <ele>766.5</ele>
        <time>2026-03-21T12:24:50Z</time>
      </trkpt>
      <trkpt lat="47.99919" lon="7.01918">
        <ele>767.3</ele>
        <time>2026-03-21T12:24:55Z</time>
      </trkpt>
      <trkpt lat="47.99922" lon="7.01913">
        <ele>770.1</ele>
        <time>2026-03-21T12:25:00Z</time>
      </trkpt>
      <trkpt lat="47.9992" lon="7.0191">
        <ele>770.5</ele>
        <time>2026-03-21T12:25:05Z</time>
      </trkpt>
      <trkpt lat="47.99914" lon="7.01906">
        <ele>770.3</ele>
        <time>2026-03-21T12:25:10Z</time>
      </trkpt>
      <trkpt lat="47.9991" lon="7.019">
        <ele>771.6</ele>
        <time>2026-03-21T12:25:15Z</time>
      </trkpt>
      <trkpt lat="47.99905" lon="7.01897">
        <ele>771.6</ele>
        <time>2026-03-21T12:25:20Z</time>
      </trkpt>
      <trkpt lat="47.999" lon="7.01894">
        <ele>771.6</ele>
        <time>2026-03-21T12:25:25Z</time>
      </trkpt>
      <trkpt lat="47.99898" lon="7.01892">
        <ele>771.8</ele>
        <time>2026-03-21T12:25:30Z</time>
      </trkpt>
      <trkpt lat="47.99896" lon="7.01888">
        <ele>772.9</ele>
        <time>2026-03-21T12:25:35Z</time>
      </trkpt>
      <trkpt lat="47.99893" lon="7.01885">
        <ele>773.3</ele>
        <time>2026-03-21T12:25:40Z</time>
      </trkpt>
      <trkpt lat="47.99888" lon="7.01883">
        <ele>772.9</ele>
        <time>2026-03-21T12:25:45Z</time>
      </trkpt>
      <trkpt lat="47.99886" lon="7.01877">
        <ele>774.7</ele>
        <time>2026-03-21T12:25:50Z</time>
      </trkpt>
      <trkpt lat="47.99882" lon="7.01875">
        <ele>774.5</ele>
        <time>2026-03-21T12:25:55Z</time>
      </trkpt>
      <trkpt lat="47.99879" lon="7.01874">
        <ele>774.2</ele>
        <time>2026-03-21T12:26:00Z</time>
      </trkpt>
      <trkpt lat="47.99877" lon="7.01871">
        <ele>774.9</ele>
        <time>2026-03-21T12:26:05Z</time>
      </trkpt>
      <trkpt lat="47.99876" lon="7.01866">
        <ele>776.5</ele>
        <time>2026-03-21T12:26:10Z</time>
      </trkpt>
      <trkpt lat="47.99876" lon="7.01863">
        <ele>777.5</ele>
        <time>2026-03-21T12:26:15Z</time>
      </trkpt>
      <trkpt lat="47.99875" lon="7.01862">
        <ele>777.7</ele>
        <time>2026-03-21T12:26:20Z</time>
      </trkpt>
      <trkpt lat="47.99875" lon="7.01862">
        <ele>777.7</ele>
        <time>2026-03-21T12:26:25Z</time>
      </trkpt>
      <trkpt lat="47.99866" lon="7.01855">
        <ele>778.3</ele>
        <time>2026-03-21T12:26:30Z</time>
      </trkpt>
      <trkpt lat="47.99862" lon="7.01855">
        <ele>777.4</ele>
        <time>2026-03-21T12:26:35Z</time>
      </trkpt>
      <trkpt lat="47.99862" lon="7.01855">
        <ele>777.4</ele>
        <time>2026-03-21T12:26:40Z</time>
      </trkpt>
      <trkpt lat="47.99862" lon="7.01855">
        <ele>777.4</ele>
        <time>2026-03-21T12:26:45Z</time>
      </trkpt>
      <trkpt lat="47.9986" lon="7.01841">
        <ele>782</ele>
        <time>2026-03-21T12:26:50Z</time>
      </trkpt>
      <trkpt lat="47.99858" lon="7.01838">
        <ele>782.6</ele>
        <time>2026-03-21T12:26:55Z</time>
      </trkpt>
      <trkpt lat="47.99854" lon="7.01837">
        <ele>782.1</ele>
        <time>2026-03-21T12:27:00Z</time>
      </trkpt>
      <trkpt lat="47.99852" lon="7.01837">
        <ele>781.7</ele>
        <time>2026-03-21T12:27:05Z</time>
      </trkpt>
      <trkpt lat="47.99852" lon="7.01837">
        <ele>781.7</ele>
        <time>2026-03-21T12:27:10Z</time>
      </trkpt>
      <trkpt lat="47.99852" lon="7.01837">
        <ele>781.7</ele>
        <time>2026-03-21T12:27:15Z</time>
      </trkpt>
      <trkpt lat="47.99852" lon="7.01837">
        <ele>781.7</ele>
        <time>2026-03-21T12:27:20Z</time>
      </trkpt>
      <trkpt lat="47.99852" lon="7.01837">
        <ele>781.7</ele>
        <time>2026-03-21T12:27:25Z</time>
      </trkpt>
      <trkpt lat="47.99849" lon="7.0183">
        <ele>783.9</ele>
        <time>2026-03-21T12:27:30Z</time>
      </trkpt>
      <trkpt lat="47.99846" lon="7.01826">
        <ele>785.1</ele>
        <time>2026-03-21T12:27:35Z</time>
      </trkpt>
      <trkpt lat="47.99846" lon="7.01825">
        <ele>785.6</ele>
        <time>2026-03-21T12:27:40Z</time>
      </trkpt>
      <trkpt lat="47.99846" lon="7.01825">
        <ele>785.6</ele>
        <time>2026-03-21T12:27:45Z</time>
      </trkpt>
      <trkpt lat="47.9984" lon="7.01814">
        <ele>789.4</ele>
        <time>2026-03-21T12:27:50Z</time>
      </trkpt>
      <trkpt lat="47.9984" lon="7.0181">
        <ele>791.3</ele>
        <time>2026-03-21T12:27:55Z</time>
      </trkpt>
      <trkpt lat="47.99839" lon="7.01807">
        <ele>792.5</ele>
        <time>2026-03-21T12:28:00Z</time>
      </trkpt>
      <trkpt lat="47.99837" lon="7.01803">
        <ele>793.9</ele>
        <time>2026-03-21T12:28:05Z</time>
      </trkpt>
      <trkpt lat="47.99833" lon="7.01798">
        <ele>795.5</ele>
        <time>2026-03-21T12:28:10Z</time>
      </trkpt>
      <trkpt lat="47.99831" lon="7.01793">
        <ele>797.9</ele>
        <time>2026-03-21T12:28:15Z</time>
      </trkpt>
      <trkpt lat="47.99829" lon="7.01789">
        <ele>799.7</ele>
        <time>2026-03-21T12:28:20Z</time>
      </trkpt>
      <trkpt lat="47.99826" lon="7.01786">
        <ele>801.1</ele>
        <time>2026-03-21T12:28:25Z</time>
      </trkpt>
      <trkpt lat="47.99822" lon="7.01782">
        <ele>802.8</ele>
        <time>2026-03-21T12:28:30Z</time>
      </trkpt>
      <trkpt lat="47.9982" lon="7.0178">
        <ele>803.7</ele>
        <time>2026-03-21T12:28:35Z</time>
      </trkpt>
      <trkpt lat="47.99819" lon="7.01779">
        <ele>804.1</ele>
        <time>2026-03-21T12:28:40Z</time>
      </trkpt>
      <trkpt lat="47.99819" lon="7.01779">
        <ele>804.1</ele>
        <time>2026-03-21T12:28:45Z</time>
      </trkpt>
      <trkpt lat="47.99819" lon="7.01779">
        <ele>804.1</ele>
        <time>2026-03-21T12:28:50Z</time>
      </trkpt>
      <trkpt lat="47.99819" lon="7.01779">
        <ele>804.1</ele>
        <time>2026-03-21T12:28:55Z</time>
      </trkpt>
      <trkpt lat="47.99819" lon="7.01779">
        <ele>804.1</ele>
        <time>2026-03-21T12:29:00Z</time>
      </trkpt>
      <trkpt lat="47.99819" lon="7.01779">
        <ele>804.1</ele>
        <time>2026-03-21T12:29:05Z</time>
      </trkpt>
      <trkpt lat="47.99819" lon="7.01779">
        <ele>804.1</ele>
        <time>2026-03-21T12:29:10Z</time>
      </trkpt>
      <trkpt lat="47.99819" lon="7.01779">
        <ele>804.1</ele>
        <time>2026-03-21T12:29:15Z</time>
      </trkpt>
      <trkpt lat="47.99819" lon="7.01779">
        <ele>804.1</ele>
        <time>2026-03-21T12:29:20Z</time>
      </trkpt>
      <trkpt lat="47.99819" lon="7.01779">
        <ele>804.1</ele>
        <time>2026-03-21T12:29:25Z</time>
      </trkpt>
      <trkpt lat="47.99819" lon="7.01779">
        <ele>804.1</ele>
        <time>2026-03-21T12:29:30Z</time>
      </trkpt>
      <trkpt lat="47.99819" lon="7.01779">
        <ele>804.1</ele>
        <time>2026-03-21T12:29:35Z</time>
      </trkpt>
      <trkpt lat="47.99819" lon="7.01779">
        <ele>804.1</ele>
        <time>2026-03-21T12:29:40Z</time>
      </trkpt>
      <trkpt lat="47.99819" lon="7.01779">
        <ele>804.1</ele>
        <time>2026-03-21T12:29:45Z</time>
      </trkpt>
      <trkpt lat="47.99819" lon="7.01779">
        <ele>804.1</ele>
        <time>2026-03-21T12:29:50Z</time>
      </trkpt>
      <trkpt lat="47.99819" lon="7.01779">
        <ele>804.1</ele>
        <time>2026-03-21T12:29:55Z</time>
      </trkpt>
      <trkpt lat="47.99819" lon="7.01779">
        <ele>804.1</ele>
        <time>2026-03-21T12:30:00Z</time>
      </trkpt>
      <trkpt lat="47.99812" lon="7.01783">
        <ele>802.2</ele>
        <time>2026-03-21T12:30:05Z</time>
      </trkpt>
      <trkpt lat="47.9981" lon="7.0178">
        <ele>803.5</ele>
        <time>2026-03-21T12:30:10Z</time>
      </trkpt>
      <trkpt lat="47.9981" lon="7.0178">
        <ele>803.5</ele>
        <time>2026-03-21T12:30:15Z</time>
      </trkpt>
      <trkpt lat="47.9981" lon="7.0178">
        <ele>803.5</ele>
        <time>2026-03-21T12:30:20Z</time>
      </trkpt>
      <trkpt lat="47.9981" lon="7.0178">
        <ele>803.5</ele>
        <time>2026-03-21T12:30:25Z</time>
      </trkpt>
      <trkpt lat="47.9981" lon="7.0178">
        <ele>803.5</ele>
        <time>2026-03-21T12:30:30Z</time>
      </trkpt>
      <trkpt lat="47.99803" lon="7.01767">
        <ele>808.9</ele>
        <time>2026-03-21T12:30:35Z</time>
      </trkpt>
      <trkpt lat="47.99801" lon="7.01765">
        <ele>809.7</ele>
        <time>2026-03-21T12:30:40Z</time>
      </trkpt>
      <trkpt lat="47.99796" lon="7.01766">
        <ele>809</ele>
        <time>2026-03-21T12:30:45Z</time>
      </trkpt>
      <trkpt lat="47.99794" lon="7.01763">
        <ele>810.2</ele>
        <time>2026-03-21T12:30:50Z</time>
      </trkpt>
      <trkpt lat="47.9979" lon="7.0176">
        <ele>811.3</ele>
        <time>2026-03-21T12:30:55Z</time>
      </trkpt>
      <trkpt lat="47.9979" lon="7.01755">
        <ele>813.3</ele>
        <time>2026-03-21T12:31:00Z</time>
      </trkpt>
      <trkpt lat="47.99789" lon="7.01752">
        <ele>814.5</ele>
        <time>2026-03-21T12:31:05Z</time>
      </trkpt>
      <trkpt lat="47.99785" lon="7.01749">
        <ele>815.4</ele>
        <time>2026-03-21T12:31:10Z</time>
      </trkpt>
      <trkpt lat="47.99785" lon="7.01746">
        <ele>816.4</ele>
        <time>2026-03-21T12:31:15Z</time>
      </trkpt>
      <trkpt lat="47.99797" lon="7.01748">
        <ele>816.5</ele>
        <time>2026-03-21T12:31:20Z</time>
      </trkpt>
      <trkpt lat="47.99804" lon="7.01753">
        <ele>815</ele>
        <time>2026-03-21T12:31:25Z</time>
      </trkpt>
      <trkpt lat="47.99808" lon="7.01753">
        <ele>815.2</ele>
        <time>2026-03-21T12:31:30Z</time>
      </trkpt>
      <trkpt lat="47.99811" lon="7.01756">
        <ele>814</ele>
        <time>2026-03-21T12:31:35Z</time>
      </trkpt>
      <trkpt lat="47.99816" lon="7.0176">
        <ele>812.5</ele>
        <time>2026-03-21T12:31:40Z</time>
      </trkpt>
      <trkpt lat="47.99818" lon="7.01763">
        <ele>811.3</ele>
        <time>2026-03-21T12:31:45Z</time>
      </trkpt>
      <trkpt lat="47.99821" lon="7.01767">
        <ele>809.6</ele>
        <time>2026-03-21T12:31:50Z</time>
      </trkpt>
      <trkpt lat="47.99826" lon="7.01768">
        <ele>809.3</ele>
        <time>2026-03-21T12:31:55Z</time>
      </trkpt>
      <trkpt lat="47.99826" lon="7.01768">
        <ele>809.3</ele>
        <time>2026-03-21T12:32:00Z</time>
      </trkpt>
      <trkpt lat="47.99826" lon="7.01768">
        <ele>809.3</ele>
        <time>2026-03-21T12:32:05Z</time>
      </trkpt>
      <trkpt lat="47.99826" lon="7.01768">
        <ele>809.3</ele>
        <time>2026-03-21T12:32:10Z</time>
      </trkpt>
      <trkpt lat="47.99826" lon="7.01768">
        <ele>809.3</ele>
        <time>2026-03-21T12:32:15Z</time>
      </trkpt>
      <trkpt lat="47.99826" lon="7.01768">
        <ele>809.3</ele>
        <time>2026-03-21T12:32:20Z</time>
      </trkpt>
      <trkpt lat="47.9983" lon="7.01764">
        <ele>811.3</ele>
        <time>2026-03-21T12:32:25Z</time>
      </trkpt>
      <trkpt lat="47.99833" lon="7.01765">
        <ele>811</ele>
        <time>2026-03-21T12:32:30Z</time>
      </trkpt>
      <trkpt lat="47.99835" lon="7.01767">
        <ele>810.3</ele>
        <time>2026-03-21T12:32:35Z</time>
      </trkpt>
      <trkpt lat="47.99839" lon="7.01767">
        <ele>811.1</ele>
        <time>2026-03-21T12:32:40Z</time>
      </trkpt>
      <trkpt lat="47.99843" lon="7.01772">
        <ele>809.5</ele>
        <time>2026-03-21T12:32:45Z</time>
      </trkpt>
      <trkpt lat="47.99845" lon="7.01777">
        <ele>807.5</ele>
        <time>2026-03-21T12:32:50Z</time>
      </trkpt>
      <trkpt lat="47.99848" lon="7.01778">
        <ele>807.6</ele>
        <time>2026-03-21T12:32:55Z</time>
      </trkpt>
      <trkpt lat="47.99855" lon="7.01779">
        <ele>808.4</ele>
        <time>2026-03-21T12:33:00Z</time>
      </trkpt>
      <trkpt lat="47.99859" lon="7.01777">
        <ele>810.1</ele>
        <time>2026-03-21T12:33:05Z</time>
      </trkpt>
      <trkpt lat="47.99861" lon="7.01776">
        <ele>810.9</ele>
        <time>2026-03-21T12:33:10Z</time>
      </trkpt>
      <trkpt lat="47.99862" lon="7.01777">
        <ele>810.6</ele>
        <time>2026-03-21T12:33:15Z</time>
      </trkpt>
      <trkpt lat="47.99864" lon="7.01778">
        <ele>810.5</ele>
        <time>2026-03-21T12:33:20Z</time>
      </trkpt>
      <trkpt lat="47.99865" lon="7.01779">
        <ele>810.3</ele>
        <time>2026-03-21T12:33:25Z</time>
      </trkpt>
      <trkpt lat="47.99869" lon="7.01783">
        <ele>809.2</ele>
        <time>2026-03-21T12:33:30Z</time>
      </trkpt>
      <trkpt lat="47.99873" lon="7.01783">
        <ele>810</ele>
        <time>2026-03-21T12:33:35Z</time>
      </trkpt>
      <trkpt lat="47.99876" lon="7.01786">
        <ele>809.2</ele>
        <time>2026-03-21T12:33:40Z</time>
      </trkpt>
      <trkpt lat="47.9988" lon="7.01787">
        <ele>809.5</ele>
        <time>2026-03-21T12:33:45Z</time>
      </trkpt>
      <trkpt lat="47.99884" lon="7.01789">
        <ele>809.4</ele>
        <time>2026-03-21T12:33:50Z</time>
      </trkpt>
      <trkpt lat="47.99887" lon="7.01792">
        <ele>808.7</ele>
        <time>2026-03-21T12:33:55Z</time>
      </trkpt>
      <trkpt lat="47.99888" lon="7.01793">
        <ele>808.4</ele>
        <time>2026-03-21T12:34:00Z</time>
      </trkpt>
      <trkpt lat="47.99892" lon="7.01795">
        <ele>808.3</ele>
        <time>2026-03-21T12:34:05Z</time>
      </trkpt>
      <trkpt lat="47.99898" lon="7.01798">
        <ele>808.2</ele>
        <time>2026-03-21T12:34:10Z</time>
      </trkpt>
      <trkpt lat="47.99899" lon="7.01798">
        <ele>808.4</ele>
        <time>2026-03-21T12:34:15Z</time>
      </trkpt>
      <trkpt lat="47.99901" lon="7.018">
        <ele>807.9</ele>
        <time>2026-03-21T12:34:20Z</time>
      </trkpt>
      <trkpt lat="47.99903" lon="7.01801">
        <ele>807.9</ele>
        <time>2026-03-21T12:34:25Z</time>
      </trkpt>
      <trkpt lat="47.99906" lon="7.01803">
        <ele>807.6</ele>
        <time>2026-03-21T12:34:30Z</time>
      </trkpt>
      <trkpt lat="47.99908" lon="7.01806">
        <ele>806.7</ele>
        <time>2026-03-21T12:34:35Z</time>
      </trkpt>
      <trkpt lat="47.99912" lon="7.01806">
        <ele>807.5</ele>
        <time>2026-03-21T12:34:40Z</time>
      </trkpt>
      <trkpt lat="47.99915" lon="7.01809">
        <ele>806.9</ele>
        <time>2026-03-21T12:34:45Z</time>
      </trkpt>
      <trkpt lat="47.9992" lon="7.01811">
        <ele>807.6</ele>
        <time>2026-03-21T12:34:50Z</time>
      </trkpt>
      <trkpt lat="47.99922" lon="7.01813">
        <ele>807.5</ele>
        <time>2026-03-21T12:34:55Z</time>
      </trkpt>
      <trkpt lat="47.99926" lon="7.01815">
        <ele>808.1</ele>
        <time>2026-03-21T12:35:00Z</time>
      </trkpt>
      <trkpt lat="47.99928" lon="7.01815">
        <ele>808.8</ele>
        <time>2026-03-21T12:35:05Z</time>
      </trkpt>
      <trkpt lat="47.99931" lon="7.01817">
        <ele>809.1</ele>
        <time>2026-03-21T12:35:10Z</time>
      </trkpt>
      <trkpt lat="47.99931" lon="7.01816">
        <ele>809.5</ele>
        <time>2026-03-21T12:35:15Z</time>
      </trkpt>
      <trkpt lat="47.99932" lon="7.01805">
        <ele>814.2</ele>
        <time>2026-03-21T12:35:20Z</time>
      </trkpt>
      <trkpt lat="47.99929" lon="7.01801">
        <ele>814.8</ele>
        <time>2026-03-21T12:35:25Z</time>
      </trkpt>
      <trkpt lat="47.99926" lon="7.01798">
        <ele>815</ele>
        <time>2026-03-21T12:35:30Z</time>
      </trkpt>
      <trkpt lat="47.99922" lon="7.01793">
        <ele>815.7</ele>
        <time>2026-03-21T12:35:35Z</time>
      </trkpt>
      <trkpt lat="47.99918" lon="7.01789">
        <ele>816</ele>
        <time>2026-03-21T12:35:40Z</time>
      </trkpt>
      <trkpt lat="47.99916" lon="7.01785">
        <ele>817.2</ele>
        <time>2026-03-21T12:35:45Z</time>
      </trkpt>
      <trkpt lat="47.99913" lon="7.0178">
        <ele>818.7</ele>
        <time>2026-03-21T12:35:50Z</time>
      </trkpt>
      <trkpt lat="47.99909" lon="7.01775">
        <ele>820.1</ele>
        <time>2026-03-21T12:35:55Z</time>
      </trkpt>
      <trkpt lat="47.99908" lon="7.01769">
        <ele>822.5</ele>
        <time>2026-03-21T12:36:00Z</time>
      </trkpt>
      <trkpt lat="47.99906" lon="7.01766">
        <ele>823.4</ele>
        <time>2026-03-21T12:36:05Z</time>
      </trkpt>
      <trkpt lat="47.99902" lon="7.01763">
        <ele>824</ele>
        <time>2026-03-21T12:36:10Z</time>
      </trkpt>
      <trkpt lat="47.99898" lon="7.01762">
        <ele>823.7</ele>
        <time>2026-03-21T12:36:15Z</time>
      </trkpt>
      <trkpt lat="47.99895" lon="7.01757">
        <ele>825.3</ele>
        <time>2026-03-21T12:36:20Z</time>
      </trkpt>
      <trkpt lat="47.99895" lon="7.01752">
        <ele>827.5</ele>
        <time>2026-03-21T12:36:25Z</time>
      </trkpt>
      <trkpt lat="47.99895" lon="7.01747">
        <ele>829.4</ele>
        <time>2026-03-21T12:36:30Z</time>
      </trkpt>
      <trkpt lat="47.99893" lon="7.01743">
        <ele>830.4</ele>
        <time>2026-03-21T12:36:35Z</time>
      </trkpt>
      <trkpt lat="47.99893" lon="7.01743">
        <ele>830.4</ele>
        <time>2026-03-21T12:36:40Z</time>
      </trkpt>
      <trkpt lat="47.99893" lon="7.01743">
        <ele>830.4</ele>
        <time>2026-03-21T12:36:45Z</time>
      </trkpt>
      <trkpt lat="47.99893" lon="7.01743">
        <ele>830.4</ele>
        <time>2026-03-21T12:36:50Z</time>
      </trkpt>
      <trkpt lat="47.99893" lon="7.01743">
        <ele>830.4</ele>
        <time>2026-03-21T12:36:55Z</time>
      </trkpt>
      <trkpt lat="47.99893" lon="7.01743">
        <ele>830.4</ele>
        <time>2026-03-21T12:37:00Z</time>
      </trkpt>
      <trkpt lat="47.99893" lon="7.01743">
        <ele>830.4</ele>
        <time>2026-03-21T12:37:05Z</time>
      </trkpt>
      <trkpt lat="47.99893" lon="7.01743">
        <ele>830.4</ele>
        <time>2026-03-21T12:37:10Z</time>
      </trkpt>
      <trkpt lat="47.99893" lon="7.01743">
        <ele>830.4</ele>
        <time>2026-03-21T12:37:15Z</time>
      </trkpt>
      <trkpt lat="47.99893" lon="7.01743">
        <ele>830.4</ele>
        <time>2026-03-21T12:37:20Z</time>
      </trkpt>
      <trkpt lat="47.99892" lon="7.01737">
        <ele>832.3</ele>
        <time>2026-03-21T12:37:25Z</time>
      </trkpt>
      <trkpt lat="47.99885" lon="7.01734">
        <ele>832.1</ele>
        <time>2026-03-21T12:37:30Z</time>
      </trkpt>
      <trkpt lat="47.99882" lon="7.0173">
        <ele>832.9</ele>
        <time>2026-03-21T12:37:35Z</time>
      </trkpt>
      <trkpt lat="47.9988" lon="7.01724">
        <ele>834.6</ele>
        <time>2026-03-21T12:37:40Z</time>
      </trkpt>
      <trkpt lat="47.99877" lon="7.01718">
        <ele>836.1</ele>
        <time>2026-03-21T12:37:45Z</time>
      </trkpt>
      <trkpt lat="47.99875" lon="7.01715">
        <ele>836.8</ele>
        <time>2026-03-21T12:37:50Z</time>
      </trkpt>
      <trkpt lat="47.99871" lon="7.01711">
        <ele>837.4</ele>
        <time>2026-03-21T12:37:55Z</time>
      </trkpt>
      <trkpt lat="47.99866" lon="7.01708">
        <ele>837.5</ele>
        <time>2026-03-21T12:38:00Z</time>
      </trkpt>
      <trkpt lat="47.99863" lon="7.01703">
        <ele>838.6</ele>
        <time>2026-03-21T12:38:05Z</time>
      </trkpt>
      <trkpt lat="47.99862" lon="7.01697">
        <ele>840.4</ele>
        <time>2026-03-21T12:38:10Z</time>
      </trkpt>
      <trkpt lat="47.99857" lon="7.01693">
        <ele>840.8</ele>
        <time>2026-03-21T12:38:15Z</time>
      </trkpt>
      <trkpt lat="47.99855" lon="7.01689">
        <ele>841.8</ele>
        <time>2026-03-21T12:38:20Z</time>
      </trkpt>
      <trkpt lat="47.99853" lon="7.01687">
        <ele>842.1</ele>
        <time>2026-03-21T12:38:25Z</time>
      </trkpt>
      <trkpt lat="47.9985" lon="7.01685">
        <ele>842.2</ele>
        <time>2026-03-21T12:38:30Z</time>
      </trkpt>
      <trkpt lat="47.99847" lon="7.01682">
        <ele>842.6</ele>
        <time>2026-03-21T12:38:35Z</time>
      </trkpt>
      <trkpt lat="47.99843" lon="7.01679">
        <ele>842.8</ele>
        <time>2026-03-21T12:38:40Z</time>
      </trkpt>
      <trkpt lat="47.9984" lon="7.01676">
        <ele>843.2</ele>
        <time>2026-03-21T12:38:45Z</time>
      </trkpt>
      <trkpt lat="47.99841" lon="7.01668">
        <ele>846</ele>
        <time>2026-03-21T12:38:50Z</time>
      </trkpt>
      <trkpt lat="47.99838" lon="7.01663">
        <ele>846.9</ele>
        <time>2026-03-21T12:38:55Z</time>
      </trkpt>
      <trkpt lat="47.99837" lon="7.01661">
        <ele>847.3</ele>
        <time>2026-03-21T12:39:00Z</time>
      </trkpt>
      <trkpt lat="47.99832" lon="7.0166">
        <ele>846.8</ele>
        <time>2026-03-21T12:39:05Z</time>
      </trkpt>
      <trkpt lat="47.99829" lon="7.0166">
        <ele>846.7</ele>
        <time>2026-03-21T12:39:10Z</time>
      </trkpt>
      <trkpt lat="47.99826" lon="7.01656">
        <ele>847.7</ele>
        <time>2026-03-21T12:39:15Z</time>
      </trkpt>
      <trkpt lat="47.99823" lon="7.01653">
        <ele>848.4</ele>
        <time>2026-03-21T12:39:20Z</time>
      </trkpt>
      <trkpt lat="47.99818" lon="7.0165">
        <ele>849.1</ele>
        <time>2026-03-21T12:39:25Z</time>
      </trkpt>
      <trkpt lat="47.99814" lon="7.01646">
        <ele>850.2</ele>
        <time>2026-03-21T12:39:30Z</time>
      </trkpt>
      <trkpt lat="47.99811" lon="7.01641">
        <ele>851.6</ele>
        <time>2026-03-21T12:39:35Z</time>
      </trkpt>
      <trkpt lat="47.99812" lon="7.01633">
        <ele>854</ele>
        <time>2026-03-21T12:39:40Z</time>
      </trkpt>
      <trkpt lat="47.99808" lon="7.01629">
        <ele>855.1</ele>
        <time>2026-03-21T12:39:45Z</time>
      </trkpt>
      <trkpt lat="47.99806" lon="7.0163">
        <ele>854.8</ele>
        <time>2026-03-21T12:39:50Z</time>
      </trkpt>
      <trkpt lat="47.99806" lon="7.01629">
        <ele>855.1</ele>
        <time>2026-03-21T12:39:55Z</time>
      </trkpt>
      <trkpt lat="47.99802" lon="7.01625">
        <ele>856.3</ele>
        <time>2026-03-21T12:40:00Z</time>
      </trkpt>
      <trkpt lat="47.99799" lon="7.01622">
        <ele>857.2</ele>
        <time>2026-03-21T12:40:05Z</time>
      </trkpt>
      <trkpt lat="47.99794" lon="7.0162">
        <ele>857.8</ele>
        <time>2026-03-21T12:40:10Z</time>
      </trkpt>
      <trkpt lat="47.99794" lon="7.01616">
        <ele>859.1</ele>
        <time>2026-03-21T12:40:15Z</time>
      </trkpt>
      <trkpt lat="47.99792" lon="7.01612">
        <ele>860.4</ele>
        <time>2026-03-21T12:40:20Z</time>
      </trkpt>
      <trkpt lat="47.99792" lon="7.01611">
        <ele>860.7</ele>
        <time>2026-03-21T12:40:25Z</time>
      </trkpt>
      <trkpt lat="47.99792" lon="7.01611">
        <ele>860.7</ele>
        <time>2026-03-21T12:40:30Z</time>
      </trkpt>
      <trkpt lat="47.99792" lon="7.01611">
        <ele>860.7</ele>
        <time>2026-03-21T12:40:35Z</time>
      </trkpt>
      <trkpt lat="47.99792" lon="7.01611">
        <ele>860.7</ele>
        <time>2026-03-21T12:40:40Z</time>
      </trkpt>
      <trkpt lat="47.99792" lon="7.01611">
        <ele>860.7</ele>
        <time>2026-03-21T12:40:45Z</time>
      </trkpt>
      <trkpt lat="47.99783" lon="7.01607">
        <ele>862.1</ele>
        <time>2026-03-21T12:40:50Z</time>
      </trkpt>
      <trkpt lat="47.99783" lon="7.01607">
        <ele>862.1</ele>
        <time>2026-03-21T12:40:55Z</time>
      </trkpt>
      <trkpt lat="47.99783" lon="7.01607">
        <ele>862.1</ele>
        <time>2026-03-21T12:41:00Z</time>
      </trkpt>
      <trkpt lat="47.99783" lon="7.01607">
        <ele>862.1</ele>
        <time>2026-03-21T12:41:05Z</time>
      </trkpt>
      <trkpt lat="47.99783" lon="7.01607">
        <ele>862.1</ele>
        <time>2026-03-21T12:41:10Z</time>
      </trkpt>
      <trkpt lat="47.99775" lon="7.01602">
        <ele>863.9</ele>
        <time>2026-03-21T12:41:15Z</time>
      </trkpt>
      <trkpt lat="47.99775" lon="7.01602">
        <ele>863.9</ele>
        <time>2026-03-21T12:41:20Z</time>
      </trkpt>
      <trkpt lat="47.99775" lon="7.01602">
        <ele>863.9</ele>
        <time>2026-03-21T12:41:25Z</time>
      </trkpt>
      <trkpt lat="47.99775" lon="7.01602">
        <ele>863.9</ele>
        <time>2026-03-21T12:41:30Z</time>
      </trkpt>
      <trkpt lat="47.99775" lon="7.01602">
        <ele>863.9</ele>
        <time>2026-03-21T12:41:35Z</time>
      </trkpt>
      <trkpt lat="47.99766" lon="7.01592">
        <ele>867.4</ele>
        <time>2026-03-21T12:41:40Z</time>
      </trkpt>
      <trkpt lat="47.99762" lon="7.01588">
        <ele>868.9</ele>
        <time>2026-03-21T12:41:45Z</time>
      </trkpt>
      <trkpt lat="47.99762" lon="7.01586">
        <ele>869.6</ele>
        <time>2026-03-21T12:41:50Z</time>
      </trkpt>
      <trkpt lat="47.99762" lon="7.01586">
        <ele>869.6</ele>
        <time>2026-03-21T12:41:55Z</time>
      </trkpt>
      <trkpt lat="47.99756" lon="7.01578">
        <ele>872.8</ele>
        <time>2026-03-21T12:42:00Z</time>
      </trkpt>
      <trkpt lat="47.99752" lon="7.01579">
        <ele>872.6</ele>
        <time>2026-03-21T12:42:05Z</time>
      </trkpt>
      <trkpt lat="47.99749" lon="7.01578">
        <ele>873.2</ele>
        <time>2026-03-21T12:42:10Z</time>
      </trkpt>
      <trkpt lat="47.99749" lon="7.01577">
        <ele>873.6</ele>
        <time>2026-03-21T12:42:15Z</time>
      </trkpt>
      <trkpt lat="47.99749" lon="7.01577">
        <ele>873.6</ele>
        <time>2026-03-21T12:42:20Z</time>
      </trkpt>
      <trkpt lat="47.9974" lon="7.01573">
        <ele>876.4</ele>
        <time>2026-03-21T12:42:25Z</time>
      </trkpt>
      <trkpt lat="47.99735" lon="7.01574">
        <ele>876.8</ele>
        <time>2026-03-21T12:42:30Z</time>
      </trkpt>
      <trkpt lat="47.99731" lon="7.01575">
        <ele>877</ele>
        <time>2026-03-21T12:42:35Z</time>
      </trkpt>
      <trkpt lat="47.99727" lon="7.01573">
        <ele>878.3</ele>
        <time>2026-03-21T12:42:40Z</time>
      </trkpt>
      <trkpt lat="47.99727" lon="7.01573">
        <ele>878.3</ele>
        <time>2026-03-21T12:42:45Z</time>
      </trkpt>
      <trkpt lat="47.99727" lon="7.01573">
        <ele>878.3</ele>
        <time>2026-03-21T12:42:50Z</time>
      </trkpt>
      <trkpt lat="47.99727" lon="7.01573">
        <ele>878.3</ele>
        <time>2026-03-21T12:42:55Z</time>
      </trkpt>
      <trkpt lat="47.99727" lon="7.01573">
        <ele>878.3</ele>
        <time>2026-03-21T12:43:00Z</time>
      </trkpt>
      <trkpt lat="47.99727" lon="7.01573">
        <ele>878.3</ele>
        <time>2026-03-21T12:43:05Z</time>
      </trkpt>
      <trkpt lat="47.99727" lon="7.01573">
        <ele>878.3</ele>
        <time>2026-03-21T12:43:10Z</time>
      </trkpt>
      <trkpt lat="47.99733" lon="7.0157">
        <ele>878.6</ele>
        <time>2026-03-21T12:43:15Z</time>
      </trkpt>
      <trkpt lat="47.99736" lon="7.01564">
        <ele>880.5</ele>
        <time>2026-03-21T12:43:20Z</time>
      </trkpt>
      <trkpt lat="47.9974" lon="7.01561">
        <ele>881</ele>
        <time>2026-03-21T12:43:25Z</time>
      </trkpt>
      <trkpt lat="47.99745" lon="7.01558">
        <ele>881.5</ele>
        <time>2026-03-21T12:43:30Z</time>
      </trkpt>
      <trkpt lat="47.99748" lon="7.01558">
        <ele>881</ele>
        <time>2026-03-21T12:43:35Z</time>
      </trkpt>
      <trkpt lat="47.99747" lon="7.01555">
        <ele>882.3</ele>
        <time>2026-03-21T12:43:40Z</time>
      </trkpt>
      <trkpt lat="47.99743" lon="7.01553">
        <ele>883.7</ele>
        <time>2026-03-21T12:43:45Z</time>
      </trkpt>
      <trkpt lat="47.99741" lon="7.01552">
        <ele>884.4</ele>
        <time>2026-03-21T12:43:50Z</time>
      </trkpt>
      <trkpt lat="47.99741" lon="7.01552">
        <ele>884.4</ele>
        <time>2026-03-21T12:43:55Z</time>
      </trkpt>
      <trkpt lat="47.99741" lon="7.01552">
        <ele>884.4</ele>
        <time>2026-03-21T12:44:00Z</time>
      </trkpt>
      <trkpt lat="47.99731" lon="7.01552">
        <ele>885.9</ele>
        <time>2026-03-21T12:44:05Z</time>
      </trkpt>
      <trkpt lat="47.9973" lon="7.01554">
        <ele>885.2</ele>
        <time>2026-03-21T12:44:10Z</time>
      </trkpt>
      <trkpt lat="47.9973" lon="7.01554">
        <ele>885.2</ele>
        <time>2026-03-21T12:44:15Z</time>
      </trkpt>
      <trkpt lat="47.9973" lon="7.01554">
        <ele>885.2</ele>
        <time>2026-03-21T12:44:20Z</time>
      </trkpt>
      <trkpt lat="47.9973" lon="7.01554">
        <ele>885.2</ele>
        <time>2026-03-21T12:44:25Z</time>
      </trkpt>
      <trkpt lat="47.99723" lon="7.01551">
        <ele>887.4</ele>
        <time>2026-03-21T12:44:30Z</time>
      </trkpt>
      <trkpt lat="47.9972" lon="7.01554">
        <ele>886.7</ele>
        <time>2026-03-21T12:44:35Z</time>
      </trkpt>
      <trkpt lat="47.99719" lon="7.01556">
        <ele>886.1</ele>
        <time>2026-03-21T12:44:40Z</time>
      </trkpt>
      <trkpt lat="47.99717" lon="7.01564">
        <ele>883.3</ele>
        <time>2026-03-21T12:44:45Z</time>
      </trkpt>
      <trkpt lat="47.99717" lon="7.01566">
        <ele>882.5</ele>
        <time>2026-03-21T12:44:50Z</time>
      </trkpt>
      <trkpt lat="47.99725" lon="7.01573">
        <ele>878.6</ele>
        <time>2026-03-21T12:44:55Z</time>
      </trkpt>
      <trkpt lat="47.99727" lon="7.01574">
        <ele>877.9</ele>
        <time>2026-03-21T12:45:00Z</time>
      </trkpt>
      <trkpt lat="47.99727" lon="7.01574">
        <ele>877.9</ele>
        <time>2026-03-21T12:45:05Z</time>
      </trkpt>
      <trkpt lat="47.99727" lon="7.01574">
        <ele>877.9</ele>
        <time>2026-03-21T12:45:10Z</time>
      </trkpt>
      <trkpt lat="47.99716" lon="7.01576">
        <ele>878.7</ele>
        <time>2026-03-21T12:45:15Z</time>
      </trkpt>
      <trkpt lat="47.99709" lon="7.01575">
        <ele>880.2</ele>
        <time>2026-03-21T12:45:20Z</time>
      </trkpt>
      <trkpt lat="47.99704" lon="7.01571">
        <ele>882.4</ele>
        <time>2026-03-21T12:45:25Z</time>
      </trkpt>
      <trkpt lat="47.99702" lon="7.01572">
        <ele>882.3</ele>
        <time>2026-03-21T12:45:30Z</time>
      </trkpt>
      <trkpt lat="47.99703" lon="7.01576">
        <ele>880.6</ele>
        <time>2026-03-21T12:45:35Z</time>
      </trkpt>
      <trkpt lat="47.99703" lon="7.01576">
        <ele>880.6</ele>
        <time>2026-03-21T12:45:40Z</time>
      </trkpt>
      <trkpt lat="47.99703" lon="7.01576">
        <ele>880.6</ele>
        <time>2026-03-21T12:45:45Z</time>
      </trkpt>
      <trkpt lat="47.99703" lon="7.01576">
        <ele>880.6</ele>
        <time>2026-03-21T12:45:50Z</time>
      </trkpt>
      <trkpt lat="47.99703" lon="7.01576">
        <ele>880.6</ele>
        <time>2026-03-21T12:45:55Z</time>
      </trkpt>
      <trkpt lat="47.99703" lon="7.01576">
        <ele>880.6</ele>
        <time>2026-03-21T12:46:00Z</time>
      </trkpt>
      <trkpt lat="47.99696" lon="7.0159">
        <ele>876.4</ele>
        <time>2026-03-21T12:46:05Z</time>
      </trkpt>
      <trkpt lat="47.99696" lon="7.0159">
        <ele>876.4</ele>
        <time>2026-03-21T12:46:10Z</time>
      </trkpt>
      <trkpt lat="47.99696" lon="7.0159">
        <ele>876.4</ele>
        <time>2026-03-21T12:46:15Z</time>
      </trkpt>
      <trkpt lat="47.99691" lon="7.01584">
        <ele>879.3</ele>
        <time>2026-03-21T12:46:20Z</time>
      </trkpt>
      <trkpt lat="47.99691" lon="7.01584">
        <ele>879.3</ele>
        <time>2026-03-21T12:46:25Z</time>
      </trkpt>
      <trkpt lat="47.99691" lon="7.01584">
        <ele>879.3</ele>
        <time>2026-03-21T12:46:30Z</time>
      </trkpt>
      <trkpt lat="47.99693" lon="7.0157">
        <ele>884.4</ele>
        <time>2026-03-21T12:46:35Z</time>
      </trkpt>
      <trkpt lat="47.99695" lon="7.01565">
        <ele>886.1</ele>
        <time>2026-03-21T12:46:40Z</time>
      </trkpt>
      <trkpt lat="47.99695" lon="7.01564">
        <ele>886.5</ele>
        <time>2026-03-21T12:46:45Z</time>
      </trkpt>
      <trkpt lat="47.99698" lon="7.01557">
        <ele>888.8</ele>
        <time>2026-03-21T12:46:50Z</time>
      </trkpt>
      <trkpt lat="47.99699" lon="7.01557">
        <ele>888.6</ele>
        <time>2026-03-21T12:46:55Z</time>
      </trkpt>
      <trkpt lat="47.997" lon="7.01557">
        <ele>888.5</ele>
        <time>2026-03-21T12:47:00Z</time>
      </trkpt>
      <trkpt lat="47.997" lon="7.01557">
        <ele>888.5</ele>
        <time>2026-03-21T12:47:05Z</time>
      </trkpt>
      <trkpt lat="47.997" lon="7.01557">
        <ele>888.5</ele>
        <time>2026-03-21T12:47:10Z</time>
      </trkpt>
      <trkpt lat="47.9969" lon="7.01555">
        <ele>890.8</ele>
        <time>2026-03-21T12:47:15Z</time>
      </trkpt>
      <trkpt lat="47.99684" lon="7.01556">
        <ele>891.3</ele>
        <time>2026-03-21T12:47:20Z</time>
      </trkpt>
      <trkpt lat="47.99681" lon="7.01555">
        <ele>892.1</ele>
        <time>2026-03-21T12:47:25Z</time>
      </trkpt>
      <trkpt lat="47.99677" lon="7.01556">
        <ele>892.3</ele>
        <time>2026-03-21T12:47:30Z</time>
      </trkpt>
      <trkpt lat="47.99674" lon="7.01555">
        <ele>893.1</ele>
        <time>2026-03-21T12:47:35Z</time>
      </trkpt>
      <trkpt lat="47.99671" lon="7.01553">
        <ele>894.4</ele>
        <time>2026-03-21T12:47:40Z</time>
      </trkpt>
      <trkpt lat="47.99666" lon="7.01555">
        <ele>894.2</ele>
        <time>2026-03-21T12:47:45Z</time>
      </trkpt>
      <trkpt lat="47.99663" lon="7.01556">
        <ele>893.9</ele>
        <time>2026-03-21T12:47:50Z</time>
      </trkpt>
      <trkpt lat="47.9966" lon="7.01555">
        <ele>894.4</ele>
        <time>2026-03-21T12:47:55Z</time>
      </trkpt>
      <trkpt lat="47.99656" lon="7.01553">
        <ele>895.2</ele>
        <time>2026-03-21T12:48:00Z</time>
      </trkpt>
      <trkpt lat="47.99654" lon="7.01552">
        <ele>895.7</ele>
        <time>2026-03-21T12:48:05Z</time>
      </trkpt>
      <trkpt lat="47.99651" lon="7.01554">
        <ele>894.9</ele>
        <time>2026-03-21T12:48:10Z</time>
      </trkpt>
      <trkpt lat="47.9965" lon="7.01554">
        <ele>895</ele>
        <time>2026-03-21T12:48:15Z</time>
      </trkpt>
      <trkpt lat="47.99647" lon="7.01554">
        <ele>895</ele>
        <time>2026-03-21T12:48:20Z</time>
      </trkpt>
      <trkpt lat="47.99643" lon="7.01554">
        <ele>895.1</ele>
        <time>2026-03-21T12:48:25Z</time>
      </trkpt>
      <trkpt lat="47.9964" lon="7.01555">
        <ele>894.8</ele>
        <time>2026-03-21T12:48:30Z</time>
      </trkpt>
      <trkpt lat="47.99638" lon="7.01553">
        <ele>895.6</ele>
        <time>2026-03-21T12:48:35Z</time>
      </trkpt>
      <trkpt lat="47.99634" lon="7.01551">
        <ele>896.6</ele>
        <time>2026-03-21T12:48:40Z</time>
      </trkpt>
      <trkpt lat="47.99631" lon="7.01549">
        <ele>897.5</ele>
        <time>2026-03-21T12:48:45Z</time>
      </trkpt>
      <trkpt lat="47.99629" lon="7.01547">
        <ele>898.4</ele>
        <time>2026-03-21T12:48:50Z</time>
      </trkpt>
      <trkpt lat="47.99628" lon="7.01547">
        <ele>898.4</ele>
        <time>2026-03-21T12:48:55Z</time>
      </trkpt>
      <trkpt lat="47.99624" lon="7.01547">
        <ele>898.5</ele>
        <time>2026-03-21T12:49:00Z</time>
      </trkpt>
      <trkpt lat="47.99621" lon="7.01545">
        <ele>899.4</ele>
        <time>2026-03-21T12:49:05Z</time>
      </trkpt>
      <trkpt lat="47.99618" lon="7.01543">
        <ele>900.4</ele>
        <time>2026-03-21T12:49:10Z</time>
      </trkpt>
      <trkpt lat="47.99614" lon="7.01549">
        <ele>897.9</ele>
        <time>2026-03-21T12:49:15Z</time>
      </trkpt>
      <trkpt lat="47.99612" lon="7.01552">
        <ele>896.6</ele>
        <time>2026-03-21T12:49:20Z</time>
      </trkpt>
      <trkpt lat="47.9961" lon="7.01552">
        <ele>896.7</ele>
        <time>2026-03-21T12:49:25Z</time>
      </trkpt>
      <trkpt lat="47.99606" lon="7.01552">
        <ele>896.8</ele>
        <time>2026-03-21T12:49:30Z</time>
      </trkpt>
      <trkpt lat="47.99602" lon="7.01551">
        <ele>897.3</ele>
        <time>2026-03-21T12:49:35Z</time>
      </trkpt>
      <trkpt lat="47.996" lon="7.0155">
        <ele>897.8</ele>
        <time>2026-03-21T12:49:40Z</time>
      </trkpt>
      <trkpt lat="47.99596" lon="7.01548">
        <ele>898.8</ele>
        <time>2026-03-21T12:49:45Z</time>
      </trkpt>
      <trkpt lat="47.99593" lon="7.01547">
        <ele>899.3</ele>
        <time>2026-03-21T12:49:50Z</time>
      </trkpt>
      <trkpt lat="47.99588" lon="7.01545">
        <ele>900.4</ele>
        <time>2026-03-21T12:49:55Z</time>
      </trkpt>
      <trkpt lat="47.99582" lon="7.01544">
        <ele>900.9</ele>
        <time>2026-03-21T12:50:00Z</time>
      </trkpt>
      <trkpt lat="47.99578" lon="7.01544">
        <ele>900.9</ele>
        <time>2026-03-21T12:50:05Z</time>
      </trkpt>
      <trkpt lat="47.99575" lon="7.01546">
        <ele>900</ele>
        <time>2026-03-21T12:50:10Z</time>
      </trkpt>
      <trkpt lat="47.99573" lon="7.01548">
        <ele>899.1</ele>
        <time>2026-03-21T12:50:15Z</time>
      </trkpt>
      <trkpt lat="47.99569" lon="7.01549">
        <ele>898.6</ele>
        <time>2026-03-21T12:50:20Z</time>
      </trkpt>
      <trkpt lat="47.99565" lon="7.01548">
        <ele>899</ele>
        <time>2026-03-21T12:50:25Z</time>
      </trkpt>
      <trkpt lat="47.99561" lon="7.01548">
        <ele>899</ele>
        <time>2026-03-21T12:50:30Z</time>
      </trkpt>
      <trkpt lat="47.99556" lon="7.01549">
        <ele>898.5</ele>
        <time>2026-03-21T12:50:35Z</time>
      </trkpt>
      <trkpt lat="47.99553" lon="7.01549">
        <ele>898.5</ele>
        <time>2026-03-21T12:50:40Z</time>
      </trkpt>
      <trkpt lat="47.9955" lon="7.01549">
        <ele>898.4</ele>
        <time>2026-03-21T12:50:45Z</time>
      </trkpt>
      <trkpt lat="47.99546" lon="7.01547">
        <ele>899.4</ele>
        <time>2026-03-21T12:50:50Z</time>
      </trkpt>
      <trkpt lat="47.99544" lon="7.01545">
        <ele>900.4</ele>
        <time>2026-03-21T12:50:55Z</time>
      </trkpt>
      <trkpt lat="47.99541" lon="7.01547">
        <ele>899.4</ele>
        <time>2026-03-21T12:51:00Z</time>
      </trkpt>
      <trkpt lat="47.99537" lon="7.01547">
        <ele>899.4</ele>
        <time>2026-03-21T12:51:05Z</time>
      </trkpt>
      <trkpt lat="47.99533" lon="7.01545">
        <ele>900.3</ele>
        <time>2026-03-21T12:51:10Z</time>
      </trkpt>
      <trkpt lat="47.99529" lon="7.01544">
        <ele>900.8</ele>
        <time>2026-03-21T12:51:15Z</time>
      </trkpt>
      <trkpt lat="47.99526" lon="7.01541">
        <ele>902.3</ele>
        <time>2026-03-21T12:51:20Z</time>
      </trkpt>
      <trkpt lat="47.99523" lon="7.0154">
        <ele>902.8</ele>
        <time>2026-03-21T12:51:25Z</time>
      </trkpt>
      <trkpt lat="47.99521" lon="7.0154">
        <ele>902.8</ele>
        <time>2026-03-21T12:51:30Z</time>
      </trkpt>
      <trkpt lat="47.99518" lon="7.01538">
        <ele>903.9</ele>
        <time>2026-03-21T12:51:35Z</time>
      </trkpt>
      <trkpt lat="47.99513" lon="7.01538">
        <ele>903.9</ele>
        <time>2026-03-21T12:51:40Z</time>
      </trkpt>
      <trkpt lat="47.9951" lon="7.01535">
        <ele>905.5</ele>
        <time>2026-03-21T12:51:45Z</time>
      </trkpt>
      <trkpt lat="47.99509" lon="7.0153">
        <ele>908.1</ele>
        <time>2026-03-21T12:51:50Z</time>
      </trkpt>
      <trkpt lat="47.99506" lon="7.01528">
        <ele>909.1</ele>
        <time>2026-03-21T12:51:55Z</time>
      </trkpt>
      <trkpt lat="47.99506" lon="7.01528">
        <ele>909.1</ele>
        <time>2026-03-21T12:52:00Z</time>
      </trkpt>
      <trkpt lat="47.99502" lon="7.01525">
        <ele>910.8</ele>
        <time>2026-03-21T12:52:05Z</time>
      </trkpt>
      <trkpt lat="47.995" lon="7.01525">
        <ele>910.8</ele>
        <time>2026-03-21T12:52:10Z</time>
      </trkpt>
      <trkpt lat="47.99494" lon="7.01523">
        <ele>912</ele>
        <time>2026-03-21T12:52:15Z</time>
      </trkpt>
      <trkpt lat="47.99491" lon="7.01518">
        <ele>914.7</ele>
        <time>2026-03-21T12:52:20Z</time>
      </trkpt>
      <trkpt lat="47.99488" lon="7.01515">
        <ele>916.2</ele>
        <time>2026-03-21T12:52:25Z</time>
      </trkpt>
      <trkpt lat="47.99483" lon="7.01513">
        <ele>917.3</ele>
        <time>2026-03-21T12:52:30Z</time>
      </trkpt>
      <trkpt lat="47.99478" lon="7.01513">
        <ele>917.4</ele>
        <time>2026-03-21T12:52:35Z</time>
      </trkpt>
      <trkpt lat="47.99473" lon="7.01512">
        <ele>917.9</ele>
        <time>2026-03-21T12:52:40Z</time>
      </trkpt>
      <trkpt lat="47.9947" lon="7.01513">
        <ele>917.4</ele>
        <time>2026-03-21T12:52:45Z</time>
      </trkpt>
      <trkpt lat="47.99468" lon="7.01514">
        <ele>917</ele>
        <time>2026-03-21T12:52:50Z</time>
      </trkpt>
      <trkpt lat="47.99465" lon="7.01517">
        <ele>915.6</ele>
        <time>2026-03-21T12:52:55Z</time>
      </trkpt>
      <trkpt lat="47.99463" lon="7.01517">
        <ele>915.7</ele>
        <time>2026-03-21T12:53:00Z</time>
      </trkpt>
      <trkpt lat="47.9946" lon="7.01517">
        <ele>915.7</ele>
        <time>2026-03-21T12:53:05Z</time>
      </trkpt>
      <trkpt lat="47.99457" lon="7.01515">
        <ele>916.7</ele>
        <time>2026-03-21T12:53:10Z</time>
      </trkpt>
      <trkpt lat="47.99453" lon="7.01514">
        <ele>917.2</ele>
        <time>2026-03-21T12:53:15Z</time>
      </trkpt>
      <trkpt lat="47.99449" lon="7.01509">
        <ele>919.4</ele>
        <time>2026-03-21T12:53:20Z</time>
      </trkpt>
      <trkpt lat="47.99445" lon="7.01509">
        <ele>919.4</ele>
        <time>2026-03-21T12:53:25Z</time>
      </trkpt>
      <trkpt lat="47.99439" lon="7.0151">
        <ele>919</ele>
        <time>2026-03-21T12:53:30Z</time>
      </trkpt>
      <trkpt lat="47.99436" lon="7.0151">
        <ele>919.1</ele>
        <time>2026-03-21T12:53:35Z</time>
      </trkpt>
      <trkpt lat="47.99433" lon="7.01508">
        <ele>919.9</ele>
        <time>2026-03-21T12:53:40Z</time>
      </trkpt>
      <trkpt lat="47.99431" lon="7.01507">
        <ele>920.3</ele>
        <time>2026-03-21T12:53:45Z</time>
      </trkpt>
      <trkpt lat="47.99425" lon="7.01508">
        <ele>919.9</ele>
        <time>2026-03-21T12:53:50Z</time>
      </trkpt>
      <trkpt lat="47.99422" lon="7.01507">
        <ele>920.3</ele>
        <time>2026-03-21T12:53:55Z</time>
      </trkpt>
      <trkpt lat="47.99418" lon="7.01507">
        <ele>920.3</ele>
        <time>2026-03-21T12:54:00Z</time>
      </trkpt>
      <trkpt lat="47.99416" lon="7.01508">
        <ele>919.9</ele>
        <time>2026-03-21T12:54:05Z</time>
      </trkpt>
      <trkpt lat="47.99414" lon="7.01511">
        <ele>918.8</ele>
        <time>2026-03-21T12:54:10Z</time>
      </trkpt>
      <trkpt lat="47.99413" lon="7.01512">
        <ele>918.4</ele>
        <time>2026-03-21T12:54:15Z</time>
      </trkpt>
      <trkpt lat="47.99412" lon="7.01514">
        <ele>917.6</ele>
        <time>2026-03-21T12:54:20Z</time>
      </trkpt>
      <trkpt lat="47.99411" lon="7.01509">
        <ele>919.5</ele>
        <time>2026-03-21T12:54:25Z</time>
      </trkpt>
      <trkpt lat="47.99415" lon="7.01502">
        <ele>922.2</ele>
        <time>2026-03-21T12:54:30Z</time>
      </trkpt>
      <trkpt lat="47.99419" lon="7.01501">
        <ele>922.6</ele>
        <time>2026-03-21T12:54:35Z</time>
      </trkpt>
      <trkpt lat="47.99423" lon="7.01502">
        <ele>922.3</ele>
        <time>2026-03-21T12:54:40Z</time>
      </trkpt>
      <trkpt lat="47.99426" lon="7.01503">
        <ele>921.9</ele>
        <time>2026-03-21T12:54:45Z</time>
      </trkpt>
      <trkpt lat="47.99429" lon="7.01502">
        <ele>922.3</ele>
        <time>2026-03-21T12:54:50Z</time>
      </trkpt>
      <trkpt lat="47.99429" lon="7.01502">
        <ele>922.3</ele>
        <time>2026-03-21T12:54:55Z</time>
      </trkpt>
      <trkpt lat="47.99436" lon="7.01495">
        <ele>924.8</ele>
        <time>2026-03-21T12:55:00Z</time>
      </trkpt>
      <trkpt lat="47.99432" lon="7.01493">
        <ele>925.3</ele>
        <time>2026-03-21T12:55:05Z</time>
      </trkpt>
      <trkpt lat="47.99425" lon="7.01493">
        <ele>925.1</ele>
        <time>2026-03-21T12:55:10Z</time>
      </trkpt>
      <trkpt lat="47.99419" lon="7.01493">
        <ele>925</ele>
        <time>2026-03-21T12:55:15Z</time>
      </trkpt>
      <trkpt lat="47.99416" lon="7.01489">
        <ele>926</ele>
        <time>2026-03-21T12:55:20Z</time>
      </trkpt>
      <trkpt lat="47.99414" lon="7.01488">
        <ele>926.3</ele>
        <time>2026-03-21T12:55:25Z</time>
      </trkpt>
      <trkpt lat="47.99412" lon="7.01489">
        <ele>925.9</ele>
        <time>2026-03-21T12:55:30Z</time>
      </trkpt>
      <trkpt lat="47.99412" lon="7.01489">
        <ele>925.9</ele>
        <time>2026-03-21T12:55:35Z</time>
      </trkpt>
      <trkpt lat="47.99412" lon="7.01489">
        <ele>925.9</ele>
        <time>2026-03-21T12:55:40Z</time>
      </trkpt>
      <trkpt lat="47.99404" lon="7.01492">
        <ele>925</ele>
        <time>2026-03-21T12:55:45Z</time>
      </trkpt>
      <trkpt lat="47.99401" lon="7.01488">
        <ele>926</ele>
        <time>2026-03-21T12:55:50Z</time>
      </trkpt>
      <trkpt lat="47.99401" lon="7.01488">
        <ele>926</ele>
        <time>2026-03-21T12:55:55Z</time>
      </trkpt>
      <trkpt lat="47.99401" lon="7.01488">
        <ele>926</ele>
        <time>2026-03-21T12:56:00Z</time>
      </trkpt>
      <trkpt lat="47.99401" lon="7.01488">
        <ele>926</ele>
        <time>2026-03-21T12:56:05Z</time>
      </trkpt>
      <trkpt lat="47.99401" lon="7.01488">
        <ele>926</ele>
        <time>2026-03-21T12:56:10Z</time>
      </trkpt>
      <trkpt lat="47.99401" lon="7.01488">
        <ele>926</ele>
        <time>2026-03-21T12:56:15Z</time>
      </trkpt>
      <trkpt lat="47.99401" lon="7.01488">
        <ele>926</ele>
        <time>2026-03-21T12:56:20Z</time>
      </trkpt>
      <trkpt lat="47.99401" lon="7.01488">
        <ele>926</ele>
        <time>2026-03-21T12:56:25Z</time>
      </trkpt>
      <trkpt lat="47.99401" lon="7.01488">
        <ele>926</ele>
        <time>2026-03-21T12:56:30Z</time>
      </trkpt>
      <trkpt lat="47.99401" lon="7.01488">
        <ele>926</ele>
        <time>2026-03-21T12:56:35Z</time>
      </trkpt>
      <trkpt lat="47.99401" lon="7.01488">
        <ele>926</ele>
        <time>2026-03-21T12:56:40Z</time>
      </trkpt>
      <trkpt lat="47.99401" lon="7.01488">
        <ele>926</ele>
        <time>2026-03-21T12:56:45Z</time>
      </trkpt>
      <trkpt lat="47.99401" lon="7.01488">
        <ele>926</ele>
        <time>2026-03-21T12:56:50Z</time>
      </trkpt>
      <trkpt lat="47.99401" lon="7.01488">
        <ele>926</ele>
        <time>2026-03-21T12:56:55Z</time>
      </trkpt>
      <trkpt lat="47.99401" lon="7.01488">
        <ele>926</ele>
        <time>2026-03-21T12:57:00Z</time>
      </trkpt>
      <trkpt lat="47.99401" lon="7.01488">
        <ele>926</ele>
        <time>2026-03-21T12:57:05Z</time>
      </trkpt>
      <trkpt lat="47.99401" lon="7.01488">
        <ele>926</ele>
        <time>2026-03-21T12:57:10Z</time>
      </trkpt>
      <trkpt lat="47.99401" lon="7.01488">
        <ele>926</ele>
        <time>2026-03-21T12:57:15Z</time>
      </trkpt>
      <trkpt lat="47.99406" lon="7.015">
        <ele>922.9</ele>
        <time>2026-03-21T12:57:20Z</time>
      </trkpt>
      <trkpt lat="47.99406" lon="7.015">
        <ele>922.9</ele>
        <time>2026-03-21T12:57:25Z</time>
      </trkpt>
      <trkpt lat="47.99418" lon="7.01492">
        <ele>925.2</ele>
        <time>2026-03-21T12:57:30Z</time>
      </trkpt>
      <trkpt lat="47.99423" lon="7.01488">
        <ele>926.5</ele>
        <time>2026-03-21T12:57:35Z</time>
      </trkpt>
      <trkpt lat="47.99423" lon="7.01488">
        <ele>926.5</ele>
        <time>2026-03-21T12:57:40Z</time>
      </trkpt>
      <trkpt lat="47.99423" lon="7.01488">
        <ele>926.5</ele>
        <time>2026-03-21T12:57:45Z</time>
      </trkpt>
      <trkpt lat="47.99423" lon="7.01488">
        <ele>926.5</ele>
        <time>2026-03-21T12:57:50Z</time>
      </trkpt>
      <trkpt lat="47.99423" lon="7.01488">
        <ele>926.5</ele>
        <time>2026-03-21T12:57:55Z</time>
      </trkpt>
      <trkpt lat="47.99423" lon="7.01488">
        <ele>926.5</ele>
        <time>2026-03-21T12:58:00Z</time>
      </trkpt>
      <trkpt lat="47.99423" lon="7.01488">
        <ele>926.5</ele>
        <time>2026-03-21T12:58:05Z</time>
      </trkpt>
      <trkpt lat="47.99423" lon="7.01488">
        <ele>926.5</ele>
        <time>2026-03-21T12:58:10Z</time>
      </trkpt>
      <trkpt lat="47.99423" lon="7.01488">
        <ele>926.5</ele>
        <time>2026-03-21T12:58:15Z</time>
      </trkpt>
      <trkpt lat="47.99423" lon="7.01488">
        <ele>926.5</ele>
        <time>2026-03-21T12:58:20Z</time>
      </trkpt>
      <trkpt lat="47.99423" lon="7.01488">
        <ele>926.5</ele>
        <time>2026-03-21T12:58:25Z</time>
      </trkpt>
      <trkpt lat="47.99423" lon="7.01488">
        <ele>926.5</ele>
        <time>2026-03-21T12:58:30Z</time>
      </trkpt>
      <trkpt lat="47.99423" lon="7.01488">
        <ele>926.5</ele>
        <time>2026-03-21T12:58:35Z</time>
      </trkpt>
      <trkpt lat="47.99423" lon="7.01488">
        <ele>926.5</ele>
        <time>2026-03-21T12:58:40Z</time>
      </trkpt>
      <trkpt lat="47.99423" lon="7.01488">
        <ele>926.5</ele>
        <time>2026-03-21T12:58:45Z</time>
      </trkpt>
      <trkpt lat="47.99423" lon="7.01488">
        <ele>926.5</ele>
        <time>2026-03-21T12:58:50Z</time>
      </trkpt>
      <trkpt lat="47.99423" lon="7.01488">
        <ele>926.5</ele>
        <time>2026-03-21T12:58:55Z</time>
      </trkpt>
      <trkpt lat="47.99423" lon="7.01488">
        <ele>926.5</ele>
        <time>2026-03-21T12:59:00Z</time>
      </trkpt>
      <trkpt lat="47.99423" lon="7.01488">
        <ele>926.5</ele>
        <time>2026-03-21T12:59:05Z</time>
      </trkpt>
      <trkpt lat="47.99423" lon="7.01488">
        <ele>926.5</ele>
        <time>2026-03-21T12:59:10Z</time>
      </trkpt>
      <trkpt lat="47.99423" lon="7.01488">
        <ele>926.5</ele>
        <time>2026-03-21T12:59:15Z</time>
      </trkpt>
      <trkpt lat="47.99422" lon="7.01479">
        <ele>929</ele>
        <time>2026-03-21T12:59:20Z</time>
      </trkpt>
      <trkpt lat="47.99415" lon="7.01478">
        <ele>929</ele>
        <time>2026-03-21T12:59:25Z</time>
      </trkpt>
      <trkpt lat="47.9941" lon="7.01478">
        <ele>928.9</ele>
        <time>2026-03-21T12:59:30Z</time>
      </trkpt>
      <trkpt lat="47.99405" lon="7.01478">
        <ele>928.7</ele>
        <time>2026-03-21T12:59:35Z</time>
      </trkpt>
      <trkpt lat="47.99402" lon="7.01475">
        <ele>929.4</ele>
        <time>2026-03-21T12:59:40Z</time>
      </trkpt>
      <trkpt lat="47.994" lon="7.01475">
        <ele>929.3</ele>
        <time>2026-03-21T12:59:45Z</time>
      </trkpt>
      <trkpt lat="47.99399" lon="7.01476">
        <ele>929</ele>
        <time>2026-03-21T12:59:50Z</time>
      </trkpt>
      <trkpt lat="47.99399" lon="7.01476">
        <ele>929</ele>
        <time>2026-03-21T12:59:55Z</time>
      </trkpt>
      <trkpt lat="47.99399" lon="7.01476">
        <ele>929</ele>
        <time>2026-03-21T13:00:00Z</time>
      </trkpt>
      <trkpt lat="47.99395" lon="7.01477">
        <ele>928.7</ele>
        <time>2026-03-21T13:00:05Z</time>
      </trkpt>
      <trkpt lat="47.99393" lon="7.01478">
        <ele>928.3</ele>
        <time>2026-03-21T13:00:10Z</time>
      </trkpt>
      <trkpt lat="47.99391" lon="7.01477">
        <ele>928.5</ele>
        <time>2026-03-21T13:00:15Z</time>
      </trkpt>
      <trkpt lat="47.99389" lon="7.01477">
        <ele>928.5</ele>
        <time>2026-03-21T13:00:20Z</time>
      </trkpt>
      <trkpt lat="47.99389" lon="7.01477">
        <ele>928.5</ele>
        <time>2026-03-21T13:00:25Z</time>
      </trkpt>
      <trkpt lat="47.99391" lon="7.01468">
        <ele>930.8</ele>
        <time>2026-03-21T13:00:30Z</time>
      </trkpt>
      <trkpt lat="47.99396" lon="7.01464">
        <ele>932</ele>
        <time>2026-03-21T13:00:35Z</time>
      </trkpt>
      <trkpt lat="47.99399" lon="7.01462">
        <ele>932.7</ele>
        <time>2026-03-21T13:00:40Z</time>
      </trkpt>
      <trkpt lat="47.99402" lon="7.0146">
        <ele>933.4</ele>
        <time>2026-03-21T13:00:45Z</time>
      </trkpt>
      <trkpt lat="47.99406" lon="7.0146">
        <ele>933.5</ele>
        <time>2026-03-21T13:00:50Z</time>
      </trkpt>
      <trkpt lat="47.99408" lon="7.01461">
        <ele>933.4</ele>
        <time>2026-03-21T13:00:55Z</time>
      </trkpt>
      <trkpt lat="47.99411" lon="7.01461">
        <ele>933.5</ele>
        <time>2026-03-21T13:01:00Z</time>
      </trkpt>
      <trkpt lat="47.99412" lon="7.01462">
        <ele>933.3</ele>
        <time>2026-03-21T13:01:05Z</time>
      </trkpt>
      <trkpt lat="47.99415" lon="7.01463">
        <ele>933.1</ele>
        <time>2026-03-21T13:01:10Z</time>
      </trkpt>
      <trkpt lat="47.99415" lon="7.01462">
        <ele>933.4</ele>
        <time>2026-03-21T13:01:15Z</time>
      </trkpt>
      <trkpt lat="47.99404" lon="7.01458">
        <ele>934</ele>
        <time>2026-03-21T13:01:20Z</time>
      </trkpt>
      <trkpt lat="47.994" lon="7.01456">
        <ele>934.3</ele>
        <time>2026-03-21T13:01:25Z</time>
      </trkpt>
      <trkpt lat="47.99397" lon="7.01456">
        <ele>934.2</ele>
        <time>2026-03-21T13:01:30Z</time>
      </trkpt>
      <trkpt lat="47.99395" lon="7.01457">
        <ele>933.8</ele>
        <time>2026-03-21T13:01:35Z</time>
      </trkpt>
      <trkpt lat="47.99392" lon="7.01456">
        <ele>933.9</ele>
        <time>2026-03-21T13:01:40Z</time>
      </trkpt>
      <trkpt lat="47.99388" lon="7.01454">
        <ele>934.2</ele>
        <time>2026-03-21T13:01:45Z</time>
      </trkpt>
      <trkpt lat="47.99386" lon="7.01453">
        <ele>934.4</ele>
        <time>2026-03-21T13:01:50Z</time>
      </trkpt>
      <trkpt lat="47.99384" lon="7.01453">
        <ele>934.3</ele>
        <time>2026-03-21T13:01:55Z</time>
      </trkpt>
      <trkpt lat="47.99384" lon="7.01453">
        <ele>934.3</ele>
        <time>2026-03-21T13:02:00Z</time>
      </trkpt>
      <trkpt lat="47.99384" lon="7.01453">
        <ele>934.3</ele>
        <time>2026-03-21T13:02:05Z</time>
      </trkpt>
      <trkpt lat="47.99384" lon="7.01453">
        <ele>934.3</ele>
        <time>2026-03-21T13:02:10Z</time>
      </trkpt>
      <trkpt lat="47.99384" lon="7.01453">
        <ele>934.3</ele>
        <time>2026-03-21T13:02:15Z</time>
      </trkpt>
      <trkpt lat="47.99376" lon="7.01454">
        <ele>933.6</ele>
        <time>2026-03-21T13:02:20Z</time>
      </trkpt>
      <trkpt lat="47.99373" lon="7.01454">
        <ele>933.4</ele>
        <time>2026-03-21T13:02:25Z</time>
      </trkpt>
      <trkpt lat="47.9937" lon="7.01454">
        <ele>933.3</ele>
        <time>2026-03-21T13:02:30Z</time>
      </trkpt>
      <trkpt lat="47.99368" lon="7.01453">
        <ele>933.4</ele>
        <time>2026-03-21T13:02:35Z</time>
      </trkpt>
      <trkpt lat="47.99366" lon="7.01452">
        <ele>933.5</ele>
        <time>2026-03-21T13:02:40Z</time>
      </trkpt>
      <trkpt lat="47.99364" lon="7.01454">
        <ele>933</ele>
        <time>2026-03-21T13:02:45Z</time>
      </trkpt>
      <trkpt lat="47.99358" lon="7.01452">
        <ele>933.1</ele>
        <time>2026-03-21T13:02:50Z</time>
      </trkpt>
      <trkpt lat="47.99356" lon="7.01457">
        <ele>931.9</ele>
        <time>2026-03-21T13:02:55Z</time>
      </trkpt>
      <trkpt lat="47.99358" lon="7.01466">
        <ele>930</ele>
        <time>2026-03-21T13:03:00Z</time>
      </trkpt>
      <trkpt lat="47.99359" lon="7.01467">
        <ele>929.8</ele>
        <time>2026-03-21T13:03:05Z</time>
      </trkpt>
      <trkpt lat="47.9936" lon="7.01467">
        <ele>929.8</ele>
        <time>2026-03-21T13:03:10Z</time>
      </trkpt>
      <trkpt lat="47.9936" lon="7.01467">
        <ele>929.8</ele>
        <time>2026-03-21T13:03:15Z</time>
      </trkpt>
      <trkpt lat="47.99358" lon="7.01458">
        <ele>931.8</ele>
        <time>2026-03-21T13:03:20Z</time>
      </trkpt>
      <trkpt lat="47.99354" lon="7.01448">
        <ele>933.8</ele>
        <time>2026-03-21T13:03:25Z</time>
      </trkpt>
      <trkpt lat="47.99352" lon="7.01439">
        <ele>935.7</ele>
        <time>2026-03-21T13:03:30Z</time>
      </trkpt>
      <trkpt lat="47.99348" lon="7.01434">
        <ele>936.5</ele>
        <time>2026-03-21T13:03:35Z</time>
      </trkpt>
      <trkpt lat="47.99343" lon="7.01434">
        <ele>936.1</ele>
        <time>2026-03-21T13:03:40Z</time>
      </trkpt>
      <trkpt lat="47.99338" lon="7.0143">
        <ele>936.6</ele>
        <time>2026-03-21T13:03:45Z</time>
      </trkpt>
      <trkpt lat="47.99332" lon="7.01428">
        <ele>936.4</ele>
        <time>2026-03-21T13:03:50Z</time>
      </trkpt>
      <trkpt lat="47.99327" lon="7.01425">
        <ele>936.2</ele>
        <time>2026-03-21T13:03:55Z</time>
      </trkpt>
      <trkpt lat="47.99323" lon="7.01423">
        <ele>935.8</ele>
        <time>2026-03-21T13:04:00Z</time>
      </trkpt>
      <trkpt lat="47.99317" lon="7.0142">
        <ele>935.4</ele>
        <time>2026-03-21T13:04:05Z</time>
      </trkpt>
      <trkpt lat="47.99312" lon="7.01416">
        <ele>935.3</ele>
        <time>2026-03-21T13:04:10Z</time>
      </trkpt>
      <trkpt lat="47.99306" lon="7.01412">
        <ele>935</ele>
        <time>2026-03-21T13:04:15Z</time>
      </trkpt>
      <trkpt lat="47.99301" lon="7.01409">
        <ele>934.7</ele>
        <time>2026-03-21T13:04:20Z</time>
      </trkpt>
      <trkpt lat="47.99297" lon="7.01406">
        <ele>934.5</ele>
        <time>2026-03-21T13:04:25Z</time>
      </trkpt>
      <trkpt lat="47.99291" lon="7.01403">
        <ele>934.1</ele>
        <time>2026-03-21T13:04:30Z</time>
      </trkpt>
      <trkpt lat="47.99285" lon="7.01398">
        <ele>934</ele>
        <time>2026-03-21T13:04:35Z</time>
      </trkpt>
      <trkpt lat="47.99279" lon="7.01395">
        <ele>933.6</ele>
        <time>2026-03-21T13:04:40Z</time>
      </trkpt>
      <trkpt lat="47.99273" lon="7.01392">
        <ele>933.2</ele>
        <time>2026-03-21T13:04:45Z</time>
      </trkpt>
      <trkpt lat="47.99268" lon="7.01386">
        <ele>933.6</ele>
        <time>2026-03-21T13:04:50Z</time>
      </trkpt>
      <trkpt lat="47.99263" lon="7.01381">
        <ele>933.8</ele>
        <time>2026-03-21T13:04:55Z</time>
      </trkpt>
      <trkpt lat="47.99258" lon="7.0138">
        <ele>933.2</ele>
        <time>2026-03-21T13:05:00Z</time>
      </trkpt>
      <trkpt lat="47.99253" lon="7.01375">
        <ele>933.5</ele>
        <time>2026-03-21T13:05:05Z</time>
      </trkpt>
      <trkpt lat="47.99247" lon="7.01372">
        <ele>933.4</ele>
        <time>2026-03-21T13:05:10Z</time>
      </trkpt>
      <trkpt lat="47.99244" lon="7.01365">
        <ele>934.6</ele>
        <time>2026-03-21T13:05:15Z</time>
      </trkpt>
      <trkpt lat="47.99241" lon="7.0136">
        <ele>935.5</ele>
        <time>2026-03-21T13:05:20Z</time>
      </trkpt>
      <trkpt lat="47.9924" lon="7.01355">
        <ele>936.6</ele>
        <time>2026-03-21T13:05:25Z</time>
      </trkpt>
      <trkpt lat="47.99236" lon="7.01349">
        <ele>937.7</ele>
        <time>2026-03-21T13:05:30Z</time>
      </trkpt>
      <trkpt lat="47.99232" lon="7.01344">
        <ele>938.6</ele>
        <time>2026-03-21T13:05:35Z</time>
      </trkpt>
      <trkpt lat="47.99231" lon="7.01336">
        <ele>940.4</ele>
        <time>2026-03-21T13:05:40Z</time>
      </trkpt>
      <trkpt lat="47.99226" lon="7.01331">
        <ele>941.4</ele>
        <time>2026-03-21T13:05:45Z</time>
      </trkpt>
      <trkpt lat="47.99222" lon="7.01326">
        <ele>942.3</ele>
        <time>2026-03-21T13:05:50Z</time>
      </trkpt>
      <trkpt lat="47.99218" lon="7.01319">
        <ele>943.7</ele>
        <time>2026-03-21T13:05:55Z</time>
      </trkpt>
      <trkpt lat="47.99216" lon="7.01315">
        <ele>944.5</ele>
        <time>2026-03-21T13:06:00Z</time>
      </trkpt>
      <trkpt lat="47.99213" lon="7.01311">
        <ele>945.2</ele>
        <time>2026-03-21T13:06:05Z</time>
      </trkpt>
      <trkpt lat="47.99208" lon="7.01306">
        <ele>946.1</ele>
        <time>2026-03-21T13:06:10Z</time>
      </trkpt>
      <trkpt lat="47.99203" lon="7.01303">
        <ele>946.5</ele>
        <time>2026-03-21T13:06:15Z</time>
      </trkpt>
      <trkpt lat="47.99202" lon="7.01305">
        <ele>946</ele>
        <time>2026-03-21T13:06:20Z</time>
      </trkpt>
      <trkpt lat="47.99202" lon="7.01302">
        <ele>946.6</ele>
        <time>2026-03-21T13:06:25Z</time>
      </trkpt>
      <trkpt lat="47.99199" lon="7.01296">
        <ele>947.8</ele>
        <time>2026-03-21T13:06:30Z</time>
      </trkpt>
      <trkpt lat="47.99196" lon="7.01293">
        <ele>948.3</ele>
        <time>2026-03-21T13:06:35Z</time>
      </trkpt>
      <trkpt lat="47.99191" lon="7.01287">
        <ele>949.3</ele>
        <time>2026-03-21T13:06:40Z</time>
      </trkpt>
      <trkpt lat="47.99185" lon="7.01281">
        <ele>950.3</ele>
        <time>2026-03-21T13:06:45Z</time>
      </trkpt>
      <trkpt lat="47.99181" lon="7.01276">
        <ele>951.2</ele>
        <time>2026-03-21T13:06:50Z</time>
      </trkpt>
      <trkpt lat="47.99177" lon="7.01272">
        <ele>951.8</ele>
        <time>2026-03-21T13:06:55Z</time>
      </trkpt>
      <trkpt lat="47.99172" lon="7.01269">
        <ele>952.2</ele>
        <time>2026-03-21T13:07:00Z</time>
      </trkpt>
      <trkpt lat="47.99168" lon="7.01264">
        <ele>953.1</ele>
        <time>2026-03-21T13:07:05Z</time>
      </trkpt>
      <trkpt lat="47.99165" lon="7.01259">
        <ele>954.3</ele>
        <time>2026-03-21T13:07:10Z</time>
      </trkpt>
      <trkpt lat="47.99162" lon="7.01252">
        <ele>956.1</ele>
        <time>2026-03-21T13:07:15Z</time>
      </trkpt>
      <trkpt lat="47.99157" lon="7.01249">
        <ele>957.3</ele>
        <time>2026-03-21T13:07:20Z</time>
      </trkpt>
      <trkpt lat="47.99153" lon="7.01244">
        <ele>958.6</ele>
        <time>2026-03-21T13:07:25Z</time>
      </trkpt>
      <trkpt lat="47.99149" lon="7.01242">
        <ele>959.4</ele>
        <time>2026-03-21T13:07:30Z</time>
      </trkpt>
      <trkpt lat="47.99144" lon="7.01239">
        <ele>960.4</ele>
        <time>2026-03-21T13:07:35Z</time>
      </trkpt>
      <trkpt lat="47.9914" lon="7.01235">
        <ele>961.5</ele>
        <time>2026-03-21T13:07:40Z</time>
      </trkpt>
      <trkpt lat="47.99138" lon="7.01231">
        <ele>962.4</ele>
        <time>2026-03-21T13:07:45Z</time>
      </trkpt>
      <trkpt lat="47.99135" lon="7.01229">
        <ele>963.1</ele>
        <time>2026-03-21T13:07:50Z</time>
      </trkpt>
      <trkpt lat="47.99133" lon="7.01227">
        <ele>963.6</ele>
        <time>2026-03-21T13:07:55Z</time>
      </trkpt>
      <trkpt lat="47.99131" lon="7.01221">
        <ele>964.8</ele>
        <time>2026-03-21T13:08:00Z</time>
      </trkpt>
      <trkpt lat="47.99127" lon="7.0122">
        <ele>965.4</ele>
        <time>2026-03-21T13:08:05Z</time>
      </trkpt>
      <trkpt lat="47.99124" lon="7.01218">
        <ele>966.1</ele>
        <time>2026-03-21T13:08:10Z</time>
      </trkpt>
      <trkpt lat="47.99121" lon="7.01215">
        <ele>966.9</ele>
        <time>2026-03-21T13:08:15Z</time>
      </trkpt>
      <trkpt lat="47.99117" lon="7.01212">
        <ele>967.9</ele>
        <time>2026-03-21T13:08:20Z</time>
      </trkpt>
      <trkpt lat="47.99111" lon="7.0121">
        <ele>968.9</ele>
        <time>2026-03-21T13:08:25Z</time>
      </trkpt>
      <trkpt lat="47.99107" lon="7.01207">
        <ele>969.9</ele>
        <time>2026-03-21T13:08:30Z</time>
      </trkpt>
      <trkpt lat="47.99103" lon="7.01202">
        <ele>971.1</ele>
        <time>2026-03-21T13:08:35Z</time>
      </trkpt>
      <trkpt lat="47.99102" lon="7.01193">
        <ele>972.7</ele>
        <time>2026-03-21T13:08:40Z</time>
      </trkpt>
      <trkpt lat="47.99103" lon="7.01187">
        <ele>973.5</ele>
        <time>2026-03-21T13:08:45Z</time>
      </trkpt>
      <trkpt lat="47.99101" lon="7.01182">
        <ele>974.5</ele>
        <time>2026-03-21T13:08:50Z</time>
      </trkpt>
      <trkpt lat="47.99098" lon="7.01178">
        <ele>975.5</ele>
        <time>2026-03-21T13:08:55Z</time>
      </trkpt>
      <trkpt lat="47.99094" lon="7.01176">
        <ele>976.3</ele>
        <time>2026-03-21T13:09:00Z</time>
      </trkpt>
      <trkpt lat="47.99089" lon="7.01175">
        <ele>977</ele>
        <time>2026-03-21T13:09:05Z</time>
      </trkpt>
      <trkpt lat="47.99086" lon="7.01173">
        <ele>977.7</ele>
        <time>2026-03-21T13:09:10Z</time>
      </trkpt>
      <trkpt lat="47.99081" lon="7.01173">
        <ele>978.8</ele>
        <time>2026-03-21T13:09:15Z</time>
      </trkpt>
      <trkpt lat="47.99078" lon="7.01169">
        <ele>980.4</ele>
        <time>2026-03-21T13:09:20Z</time>
      </trkpt>
      <trkpt lat="47.99076" lon="7.01163">
        <ele>982.1</ele>
        <time>2026-03-21T13:09:25Z</time>
      </trkpt>
      <trkpt lat="47.99074" lon="7.01156">
        <ele>984.2</ele>
        <time>2026-03-21T13:09:30Z</time>
      </trkpt>
      <trkpt lat="47.9907" lon="7.0115">
        <ele>986.7</ele>
        <time>2026-03-21T13:09:35Z</time>
      </trkpt>
      <trkpt lat="47.99068" lon="7.01148">
        <ele>987.7</ele>
        <time>2026-03-21T13:09:40Z</time>
      </trkpt>
      <trkpt lat="47.99064" lon="7.01146">
        <ele>989.4</ele>
        <time>2026-03-21T13:09:45Z</time>
      </trkpt>
      <trkpt lat="47.99058" lon="7.01145">
        <ele>991.5</ele>
        <time>2026-03-21T13:09:50Z</time>
      </trkpt>
      <trkpt lat="47.99052" lon="7.01146">
        <ele>993.2</ele>
        <time>2026-03-21T13:09:55Z</time>
      </trkpt>
      <trkpt lat="47.99047" lon="7.01147">
        <ele>994.6</ele>
        <time>2026-03-21T13:10:00Z</time>
      </trkpt>
      <trkpt lat="47.99042" lon="7.01148">
        <ele>996</ele>
        <time>2026-03-21T13:10:05Z</time>
      </trkpt>
      <trkpt lat="47.99039" lon="7.01146">
        <ele>997.3</ele>
        <time>2026-03-21T13:10:10Z</time>
      </trkpt>
      <trkpt lat="47.99037" lon="7.01146">
        <ele>998</ele>
        <time>2026-03-21T13:10:15Z</time>
      </trkpt>
      <trkpt lat="47.99033" lon="7.01148">
        <ele>998.8</ele>
        <time>2026-03-21T13:10:20Z</time>
      </trkpt>
      <trkpt lat="47.9903" lon="7.01148">
        <ele>999.8</ele>
        <time>2026-03-21T13:10:25Z</time>
      </trkpt>
      <trkpt lat="47.99025" lon="7.01149">
        <ele>1001.2</ele>
        <time>2026-03-21T13:10:30Z</time>
      </trkpt>
      <trkpt lat="47.99022" lon="7.01149">
        <ele>1002.2</ele>
        <time>2026-03-21T13:10:35Z</time>
      </trkpt>
      <trkpt lat="47.9902" lon="7.01152">
        <ele>1002.2</ele>
        <time>2026-03-21T13:10:40Z</time>
      </trkpt>
      <trkpt lat="47.99017" lon="7.01152">
        <ele>1003.2</ele>
        <time>2026-03-21T13:10:45Z</time>
      </trkpt>
      <trkpt lat="47.99014" lon="7.01155">
        <ele>1003.6</ele>
        <time>2026-03-21T13:10:50Z</time>
      </trkpt>
      <trkpt lat="47.9901" lon="7.01154">
        <ele>1005.1</ele>
        <time>2026-03-21T13:10:55Z</time>
      </trkpt>
      <trkpt lat="47.99006" lon="7.01154">
        <ele>1006.4</ele>
        <time>2026-03-21T13:11:00Z</time>
      </trkpt>
      <trkpt lat="47.99003" lon="7.01155">
        <ele>1007.1</ele>
        <time>2026-03-21T13:11:05Z</time>
      </trkpt>
      <trkpt lat="47.98999" lon="7.01157">
        <ele>1007.9</ele>
        <time>2026-03-21T13:11:10Z</time>
      </trkpt>
      <trkpt lat="47.98996" lon="7.01157">
        <ele>1008.5</ele>
        <time>2026-03-21T13:11:15Z</time>
      </trkpt>
      <trkpt lat="47.98992" lon="7.0116">
        <ele>1008.7</ele>
        <time>2026-03-21T13:11:20Z</time>
      </trkpt>
      <trkpt lat="47.9899" lon="7.01162">
        <ele>1008.7</ele>
        <time>2026-03-21T13:11:25Z</time>
      </trkpt>
      <trkpt lat="47.98988" lon="7.01165">
        <ele>1008.5</ele>
        <time>2026-03-21T13:11:30Z</time>
      </trkpt>
      <trkpt lat="47.98985" lon="7.01169">
        <ele>1008.2</ele>
        <time>2026-03-21T13:11:35Z</time>
      </trkpt>
      <trkpt lat="47.98982" lon="7.01174">
        <ele>1007.5</ele>
        <time>2026-03-21T13:11:40Z</time>
      </trkpt>
      <trkpt lat="47.98979" lon="7.01178">
        <ele>1007.1</ele>
        <time>2026-03-21T13:11:45Z</time>
      </trkpt>
      <trkpt lat="47.98976" lon="7.01182">
        <ele>1006.5</ele>
        <time>2026-03-21T13:11:50Z</time>
      </trkpt>
      <trkpt lat="47.98974" lon="7.01185">
        <ele>1006.1</ele>
        <time>2026-03-21T13:11:55Z</time>
      </trkpt>
      <trkpt lat="47.98972" lon="7.01193">
        <ele>1004.3</ele>
        <time>2026-03-21T13:12:00Z</time>
      </trkpt>
      <trkpt lat="47.98971" lon="7.01196">
        <ele>1003.6</ele>
        <time>2026-03-21T13:12:05Z</time>
      </trkpt>
      <trkpt lat="47.9897" lon="7.012">
        <ele>1002.7</ele>
        <time>2026-03-21T13:12:10Z</time>
      </trkpt>
      <trkpt lat="47.9897" lon="7.01205">
        <ele>1001.4</ele>
        <time>2026-03-21T13:12:15Z</time>
      </trkpt>
      <trkpt lat="47.98968" lon="7.01209">
        <ele>1000.5</ele>
        <time>2026-03-21T13:12:20Z</time>
      </trkpt>
      <trkpt lat="47.98966" lon="7.01214">
        <ele>999.3</ele>
        <time>2026-03-21T13:12:25Z</time>
      </trkpt>
      <trkpt lat="47.98963" lon="7.0122">
        <ele>997.9</ele>
        <time>2026-03-21T13:12:30Z</time>
      </trkpt>
      <trkpt lat="47.98962" lon="7.01222">
        <ele>997.4</ele>
        <time>2026-03-21T13:12:35Z</time>
      </trkpt>
      <trkpt lat="47.9896" lon="7.01226">
        <ele>996.3</ele>
        <time>2026-03-21T13:12:40Z</time>
      </trkpt>
      <trkpt lat="47.98957" lon="7.0123">
        <ele>995.3</ele>
        <time>2026-03-21T13:12:45Z</time>
      </trkpt>
      <trkpt lat="47.98955" lon="7.01234">
        <ele>994.2</ele>
        <time>2026-03-21T13:12:50Z</time>
      </trkpt>
      <trkpt lat="47.98953" lon="7.01238">
        <ele>993</ele>
        <time>2026-03-21T13:12:55Z</time>
      </trkpt>
      <trkpt lat="47.9895" lon="7.01241">
        <ele>992.2</ele>
        <time>2026-03-21T13:13:00Z</time>
      </trkpt>
      <trkpt lat="47.98947" lon="7.01246">
        <ele>990.6</ele>
        <time>2026-03-21T13:13:05Z</time>
      </trkpt>
      <trkpt lat="47.98944" lon="7.01249">
        <ele>989.6</ele>
        <time>2026-03-21T13:13:10Z</time>
      </trkpt>
      <trkpt lat="47.98941" lon="7.01252">
        <ele>988.2</ele>
        <time>2026-03-21T13:13:15Z</time>
      </trkpt>
      <trkpt lat="47.98938" lon="7.01257">
        <ele>985.3</ele>
        <time>2026-03-21T13:13:20Z</time>
      </trkpt>
      <trkpt lat="47.98934" lon="7.01257">
        <ele>985.2</ele>
        <time>2026-03-21T13:13:25Z</time>
      </trkpt>
      <trkpt lat="47.98931" lon="7.01258">
        <ele>984.6</ele>
        <time>2026-03-21T13:13:30Z</time>
      </trkpt>
      <trkpt lat="47.98928" lon="7.01259">
        <ele>983.9</ele>
        <time>2026-03-21T13:13:35Z</time>
      </trkpt>
      <trkpt lat="47.98924" lon="7.01257">
        <ele>985</ele>
        <time>2026-03-21T13:13:40Z</time>
      </trkpt>
      <trkpt lat="47.98921" lon="7.01254">
        <ele>986.7</ele>
        <time>2026-03-21T13:13:45Z</time>
      </trkpt>
      <trkpt lat="47.98917" lon="7.01255">
        <ele>986</ele>
        <time>2026-03-21T13:13:50Z</time>
      </trkpt>
      <trkpt lat="47.98913" lon="7.01255">
        <ele>985.2</ele>
        <time>2026-03-21T13:13:55Z</time>
      </trkpt>
      <trkpt lat="47.98912" lon="7.01252">
        <ele>986.7</ele>
        <time>2026-03-21T13:14:00Z</time>
      </trkpt>
      <trkpt lat="47.9891" lon="7.0125">
        <ele>987.5</ele>
        <time>2026-03-21T13:14:05Z</time>
      </trkpt>
      <trkpt lat="47.98906" lon="7.01248">
        <ele>987.4</ele>
        <time>2026-03-21T13:14:10Z</time>
      </trkpt>
      <trkpt lat="47.98901" lon="7.01246">
        <ele>987</ele>
        <time>2026-03-21T13:14:15Z</time>
      </trkpt>
      <trkpt lat="47.98898" lon="7.01245">
        <ele>986.7</ele>
        <time>2026-03-21T13:14:20Z</time>
      </trkpt>
      <trkpt lat="47.98896" lon="7.01241">
        <ele>987.9</ele>
        <time>2026-03-21T13:14:25Z</time>
      </trkpt>
      <trkpt lat="47.98892" lon="7.01238">
        <ele>988.2</ele>
        <time>2026-03-21T13:14:30Z</time>
      </trkpt>
      <trkpt lat="47.98888" lon="7.01236">
        <ele>988.2</ele>
        <time>2026-03-21T13:14:35Z</time>
      </trkpt>
      <trkpt lat="47.98885" lon="7.01235">
        <ele>988</ele>
        <time>2026-03-21T13:14:40Z</time>
      </trkpt>
      <trkpt lat="47.98883" lon="7.01233">
        <ele>988.3</ele>
        <time>2026-03-21T13:14:45Z</time>
      </trkpt>
      <trkpt lat="47.98879" lon="7.01229">
        <ele>989.2</ele>
        <time>2026-03-21T13:14:50Z</time>
      </trkpt>
      <trkpt lat="47.98875" lon="7.01228">
        <ele>988.7</ele>
        <time>2026-03-21T13:14:55Z</time>
      </trkpt>
      <trkpt lat="47.98873" lon="7.01223">
        <ele>990.4</ele>
        <time>2026-03-21T13:15:00Z</time>
      </trkpt>
      <trkpt lat="47.9887" lon="7.0122">
        <ele>991.1</ele>
        <time>2026-03-21T13:15:05Z</time>
      </trkpt>
      <trkpt lat="47.98868" lon="7.01217">
        <ele>992</ele>
        <time>2026-03-21T13:15:10Z</time>
      </trkpt>
      <trkpt lat="47.98866" lon="7.01213">
        <ele>993.3</ele>
        <time>2026-03-21T13:15:15Z</time>
      </trkpt>
      <trkpt lat="47.98862" lon="7.01212">
        <ele>992.9</ele>
        <time>2026-03-21T13:15:20Z</time>
      </trkpt>
      <trkpt lat="47.9886" lon="7.01208">
        <ele>994.3</ele>
        <time>2026-03-21T13:15:25Z</time>
      </trkpt>
      <trkpt lat="47.98858" lon="7.01205">
        <ele>995.2</ele>
        <time>2026-03-21T13:15:30Z</time>
      </trkpt>
      <trkpt lat="47.98856" lon="7.01204">
        <ele>995.2</ele>
        <time>2026-03-21T13:15:35Z</time>
      </trkpt>
      <trkpt lat="47.98852" lon="7.01205">
        <ele>994.1</ele>
        <time>2026-03-21T13:15:40Z</time>
      </trkpt>
      <trkpt lat="47.98848" lon="7.01202">
        <ele>994.6</ele>
        <time>2026-03-21T13:15:45Z</time>
      </trkpt>
      <trkpt lat="47.98844" lon="7.01201">
        <ele>994.3</ele>
        <time>2026-03-21T13:15:50Z</time>
      </trkpt>
      <trkpt lat="47.98841" lon="7.01198">
        <ele>995.1</ele>
        <time>2026-03-21T13:15:55Z</time>
      </trkpt>
      <trkpt lat="47.98837" lon="7.01194">
        <ele>996.2</ele>
        <time>2026-03-21T13:16:00Z</time>
      </trkpt>
      <trkpt lat="47.98834" lon="7.01192">
        <ele>996.6</ele>
        <time>2026-03-21T13:16:05Z</time>
      </trkpt>
      <trkpt lat="47.98831" lon="7.0119">
        <ele>996.5</ele>
        <time>2026-03-21T13:16:10Z</time>
      </trkpt>
      <trkpt lat="47.98828" lon="7.01188">
        <ele>996.3</ele>
        <time>2026-03-21T13:16:15Z</time>
      </trkpt>
      <trkpt lat="47.98827" lon="7.01183">
        <ele>998.2</ele>
        <time>2026-03-21T13:16:20Z</time>
      </trkpt>
      <trkpt lat="47.98824" lon="7.01178">
        <ele>999.3</ele>
        <time>2026-03-21T13:16:25Z</time>
      </trkpt>
      <trkpt lat="47.98818" lon="7.01176">
        <ele>997.9</ele>
        <time>2026-03-21T13:16:30Z</time>
      </trkpt>
      <trkpt lat="47.98814" lon="7.01174">
        <ele>997.2</ele>
        <time>2026-03-21T13:16:35Z</time>
      </trkpt>
      <trkpt lat="47.9881" lon="7.01167">
        <ele>998.6</ele>
        <time>2026-03-21T13:16:40Z</time>
      </trkpt>
      <trkpt lat="47.98808" lon="7.01164">
        <ele>998.4</ele>
        <time>2026-03-21T13:16:45Z</time>
      </trkpt>
      <trkpt lat="47.98808" lon="7.01162">
        <ele>998.8</ele>
        <time>2026-03-21T13:16:50Z</time>
      </trkpt>
      <trkpt lat="47.98805" lon="7.0116">
        <ele>997.9</ele>
        <time>2026-03-21T13:16:55Z</time>
      </trkpt>
      <trkpt lat="47.988" lon="7.01156">
        <ele>996.5</ele>
        <time>2026-03-21T13:17:00Z</time>
      </trkpt>
      <trkpt lat="47.98798" lon="7.01151">
        <ele>996.5</ele>
        <time>2026-03-21T13:17:05Z</time>
      </trkpt>
      <trkpt lat="47.98796" lon="7.01146">
        <ele>996.4</ele>
        <time>2026-03-21T13:17:10Z</time>
      </trkpt>
      <trkpt lat="47.98795" lon="7.01143">
        <ele>996.5</ele>
        <time>2026-03-21T13:17:15Z</time>
      </trkpt>
      <trkpt lat="47.98793" lon="7.01138">
        <ele>996.4</ele>
        <time>2026-03-21T13:17:20Z</time>
      </trkpt>
      <trkpt lat="47.98792" lon="7.01134">
        <ele>996.5</ele>
        <time>2026-03-21T13:17:25Z</time>
      </trkpt>
      <trkpt lat="47.98789" lon="7.0113">
        <ele>995.8</ele>
        <time>2026-03-21T13:17:30Z</time>
      </trkpt>
      <trkpt lat="47.98787" lon="7.01127">
        <ele>995.4</ele>
        <time>2026-03-21T13:17:35Z</time>
      </trkpt>
      <trkpt lat="47.98784" lon="7.01121">
        <ele>994.9</ele>
        <time>2026-03-21T13:17:40Z</time>
      </trkpt>
      <trkpt lat="47.98781" lon="7.01115">
        <ele>994.3</ele>
        <time>2026-03-21T13:17:45Z</time>
      </trkpt>
      <trkpt lat="47.9878" lon="7.01108">
        <ele>994.8</ele>
        <time>2026-03-21T13:17:50Z</time>
      </trkpt>
      <trkpt lat="47.98779" lon="7.01102">
        <ele>995.1</ele>
        <time>2026-03-21T13:17:55Z</time>
      </trkpt>
      <trkpt lat="47.98779" lon="7.01096">
        <ele>995.9</ele>
        <time>2026-03-21T13:18:00Z</time>
      </trkpt>
      <trkpt lat="47.98779" lon="7.01093">
        <ele>996.3</ele>
        <time>2026-03-21T13:18:05Z</time>
      </trkpt>
      <trkpt lat="47.98779" lon="7.01089">
        <ele>996.9</ele>
        <time>2026-03-21T13:18:10Z</time>
      </trkpt>
      <trkpt lat="47.98778" lon="7.01084">
        <ele>997</ele>
        <time>2026-03-21T13:18:15Z</time>
      </trkpt>
      <trkpt lat="47.98778" lon="7.01076">
        <ele>997.3</ele>
        <time>2026-03-21T13:18:20Z</time>
      </trkpt>
      <trkpt lat="47.98779" lon="7.0107">
        <ele>997.9</ele>
        <time>2026-03-21T13:18:25Z</time>
      </trkpt>
      <trkpt lat="47.98779" lon="7.01066">
        <ele>998</ele>
        <time>2026-03-21T13:18:30Z</time>
      </trkpt>
      <trkpt lat="47.98779" lon="7.0106">
        <ele>998.1</ele>
        <time>2026-03-21T13:18:35Z</time>
      </trkpt>
      <trkpt lat="47.98778" lon="7.01054">
        <ele>997.7</ele>
        <time>2026-03-21T13:18:40Z</time>
      </trkpt>
      <trkpt lat="47.9878" lon="7.01048">
        <ele>998.8</ele>
        <time>2026-03-21T13:18:45Z</time>
      </trkpt>
      <trkpt lat="47.98782" lon="7.01043">
        <ele>999.9</ele>
        <time>2026-03-21T13:18:50Z</time>
      </trkpt>
      <trkpt lat="47.98783" lon="7.01038">
        <ele>1000.5</ele>
        <time>2026-03-21T13:18:55Z</time>
      </trkpt>
      <trkpt lat="47.98784" lon="7.01034">
        <ele>1001.1</ele>
        <time>2026-03-21T13:19:00Z</time>
      </trkpt>
      <trkpt lat="47.98787" lon="7.01028">
        <ele>1002.7</ele>
        <time>2026-03-21T13:19:05Z</time>
      </trkpt>
      <trkpt lat="47.98788" lon="7.01022">
        <ele>1003.3</ele>
        <time>2026-03-21T13:19:10Z</time>
      </trkpt>
      <trkpt lat="47.9879" lon="7.01019">
        <ele>1004.3</ele>
        <time>2026-03-21T13:19:15Z</time>
      </trkpt>
      <trkpt lat="47.98791" lon="7.01012">
        <ele>1005</ele>
        <time>2026-03-21T13:19:20Z</time>
      </trkpt>
      <trkpt lat="47.98792" lon="7.01007">
        <ele>1005.5</ele>
        <time>2026-03-21T13:19:25Z</time>
      </trkpt>
      <trkpt lat="47.98794" lon="7.01001">
        <ele>1006.6</ele>
        <time>2026-03-21T13:19:30Z</time>
      </trkpt>
      <trkpt lat="47.98796" lon="7.00995">
        <ele>1007.6</ele>
        <time>2026-03-21T13:19:35Z</time>
      </trkpt>
      <trkpt lat="47.98797" lon="7.00988">
        <ele>1008.1</ele>
        <time>2026-03-21T13:19:40Z</time>
      </trkpt>
      <trkpt lat="47.98799" lon="7.00983">
        <ele>1009</ele>
        <time>2026-03-21T13:19:45Z</time>
      </trkpt>
      <trkpt lat="47.98797" lon="7.00977">
        <ele>1008</ele>
        <time>2026-03-21T13:19:50Z</time>
      </trkpt>
      <trkpt lat="47.98796" lon="7.00972">
        <ele>1007.5</ele>
        <time>2026-03-21T13:19:55Z</time>
      </trkpt>
      <trkpt lat="47.98796" lon="7.00969">
        <ele>1007.5</ele>
        <time>2026-03-21T13:20:00Z</time>
      </trkpt>
      <trkpt lat="47.98796" lon="7.00963">
        <ele>1007.4</ele>
        <time>2026-03-21T13:20:05Z</time>
      </trkpt>
      <trkpt lat="47.98796" lon="7.00955">
        <ele>1007.4</ele>
        <time>2026-03-21T13:20:10Z</time>
      </trkpt>
      <trkpt lat="47.98796" lon="7.0095">
        <ele>1007.4</ele>
        <time>2026-03-21T13:20:15Z</time>
      </trkpt>
      <trkpt lat="47.98796" lon="7.00943">
        <ele>1007.3</ele>
        <time>2026-03-21T13:20:20Z</time>
      </trkpt>
      <trkpt lat="47.98796" lon="7.00935">
        <ele>1007.3</ele>
        <time>2026-03-21T13:20:25Z</time>
      </trkpt>
      <trkpt lat="47.98797" lon="7.00929">
        <ele>1007.8</ele>
        <time>2026-03-21T13:20:30Z</time>
      </trkpt>
      <trkpt lat="47.98799" lon="7.00924">
        <ele>1008.7</ele>
        <time>2026-03-21T13:20:35Z</time>
      </trkpt>
      <trkpt lat="47.98801" lon="7.00917">
        <ele>1009.7</ele>
        <time>2026-03-21T13:20:40Z</time>
      </trkpt>
      <trkpt lat="47.98801" lon="7.00911">
        <ele>1009.8</ele>
        <time>2026-03-21T13:20:45Z</time>
      </trkpt>
      <trkpt lat="47.988" lon="7.00905">
        <ele>1009.5</ele>
        <time>2026-03-21T13:20:50Z</time>
      </trkpt>
      <trkpt lat="47.98799" lon="7.00902">
        <ele>1009</ele>
        <time>2026-03-21T13:20:55Z</time>
      </trkpt>
      <trkpt lat="47.98799" lon="7.00902">
        <ele>1009</ele>
        <time>2026-03-21T13:21:00Z</time>
      </trkpt>
      <trkpt lat="47.98799" lon="7.00902">
        <ele>1009</ele>
        <time>2026-03-21T13:21:05Z</time>
      </trkpt>
      <trkpt lat="47.98799" lon="7.00902">
        <ele>1009</ele>
        <time>2026-03-21T13:21:10Z</time>
      </trkpt>
      <trkpt lat="47.98799" lon="7.00902">
        <ele>1009</ele>
        <time>2026-03-21T13:21:15Z</time>
      </trkpt>
      <trkpt lat="47.98799" lon="7.00902">
        <ele>1009</ele>
        <time>2026-03-21T13:21:20Z</time>
      </trkpt>
      <trkpt lat="47.98799" lon="7.00902">
        <ele>1009</ele>
        <time>2026-03-21T13:21:25Z</time>
      </trkpt>
      <trkpt lat="47.98799" lon="7.00902">
        <ele>1009</ele>
        <time>2026-03-21T13:21:30Z</time>
      </trkpt>
      <trkpt lat="47.98799" lon="7.00902">
        <ele>1009</ele>
        <time>2026-03-21T13:21:35Z</time>
      </trkpt>
      <trkpt lat="47.98799" lon="7.00902">
        <ele>1009</ele>
        <time>2026-03-21T13:21:40Z</time>
      </trkpt>
      <trkpt lat="47.98799" lon="7.00902">
        <ele>1009</ele>
        <time>2026-03-21T13:21:45Z</time>
      </trkpt>
      <trkpt lat="47.98799" lon="7.00902">
        <ele>1009</ele>
        <time>2026-03-21T13:21:50Z</time>
      </trkpt>
      <trkpt lat="47.98799" lon="7.00902">
        <ele>1009</ele>
        <time>2026-03-21T13:21:55Z</time>
      </trkpt>
      <trkpt lat="47.98799" lon="7.00902">
        <ele>1009</ele>
        <time>2026-03-21T13:22:00Z</time>
      </trkpt>
      <trkpt lat="47.98799" lon="7.00902">
        <ele>1009</ele>
        <time>2026-03-21T13:22:05Z</time>
      </trkpt>
      <trkpt lat="47.98799" lon="7.00902">
        <ele>1009</ele>
        <time>2026-03-21T13:22:10Z</time>
      </trkpt>
      <trkpt lat="47.98799" lon="7.00902">
        <ele>1009</ele>
        <time>2026-03-21T13:22:15Z</time>
      </trkpt>
      <trkpt lat="47.98797" lon="7.00899">
        <ele>1008.1</ele>
        <time>2026-03-21T13:22:20Z</time>
      </trkpt>
      <trkpt lat="47.98799" lon="7.00893">
        <ele>1009.3</ele>
        <time>2026-03-21T13:22:25Z</time>
      </trkpt>
      <trkpt lat="47.98799" lon="7.00888">
        <ele>1009.4</ele>
        <time>2026-03-21T13:22:30Z</time>
      </trkpt>
      <trkpt lat="47.988" lon="7.00885">
        <ele>1010</ele>
        <time>2026-03-21T13:22:35Z</time>
      </trkpt>
      <trkpt lat="47.98797" lon="7.00883">
        <ele>1008.5</ele>
        <time>2026-03-21T13:22:40Z</time>
      </trkpt>
      <trkpt lat="47.98797" lon="7.00877">
        <ele>1008.6</ele>
        <time>2026-03-21T13:22:45Z</time>
      </trkpt>
      <trkpt lat="47.98796" lon="7.00872">
        <ele>1008.3</ele>
        <time>2026-03-21T13:22:50Z</time>
      </trkpt>
      <trkpt lat="47.98797" lon="7.00865">
        <ele>1008.9</ele>
        <time>2026-03-21T13:22:55Z</time>
      </trkpt>
      <trkpt lat="47.988" lon="7.00855">
        <ele>1010.7</ele>
        <time>2026-03-21T13:23:00Z</time>
      </trkpt>
      <trkpt lat="47.98799" lon="7.00849">
        <ele>1010.3</ele>
        <time>2026-03-21T13:23:05Z</time>
      </trkpt>
      <trkpt lat="47.988" lon="7.00843">
        <ele>1011</ele>
        <time>2026-03-21T13:23:10Z</time>
      </trkpt>
      <trkpt lat="47.98801" lon="7.00836">
        <ele>1011.6</ele>
        <time>2026-03-21T13:23:15Z</time>
      </trkpt>
      <trkpt lat="47.98799" lon="7.00831">
        <ele>1011</ele>
        <time>2026-03-21T13:23:20Z</time>
      </trkpt>
      <trkpt lat="47.98798" lon="7.00825">
        <ele>1011.2</ele>
        <time>2026-03-21T13:23:25Z</time>
      </trkpt>
      <trkpt lat="47.98798" lon="7.00819">
        <ele>1011.9</ele>
        <time>2026-03-21T13:23:30Z</time>
      </trkpt>
      <trkpt lat="47.98796" lon="7.0081">
        <ele>1012</ele>
        <time>2026-03-21T13:23:35Z</time>
      </trkpt>
      <trkpt lat="47.98797" lon="7.00805">
        <ele>1013.1</ele>
        <time>2026-03-21T13:23:40Z</time>
      </trkpt>
      <trkpt lat="47.98796" lon="7.008">
        <ele>1013.2</ele>
        <time>2026-03-21T13:23:45Z</time>
      </trkpt>
      <trkpt lat="47.98795" lon="7.00795">
        <ele>1013.3</ele>
        <time>2026-03-21T13:23:50Z</time>
      </trkpt>
      <trkpt lat="47.98794" lon="7.0079">
        <ele>1013.4</ele>
        <time>2026-03-21T13:23:55Z</time>
      </trkpt>
      <trkpt lat="47.98795" lon="7.00788">
        <ele>1014.2</ele>
        <time>2026-03-21T13:24:00Z</time>
      </trkpt>
      <trkpt lat="47.98794" lon="7.00785">
        <ele>1014</ele>
        <time>2026-03-21T13:24:05Z</time>
      </trkpt>
      <trkpt lat="47.98795" lon="7.0078">
        <ele>1015.1</ele>
        <time>2026-03-21T13:24:10Z</time>
      </trkpt>
      <trkpt lat="47.98795" lon="7.0077">
        <ele>1016.3</ele>
        <time>2026-03-21T13:24:15Z</time>
      </trkpt>
      <trkpt lat="47.98794" lon="7.00762">
        <ele>1016.8</ele>
        <time>2026-03-21T13:24:20Z</time>
      </trkpt>
      <trkpt lat="47.98793" lon="7.00756">
        <ele>1017</ele>
        <time>2026-03-21T13:24:25Z</time>
      </trkpt>
      <trkpt lat="47.98793" lon="7.00749">
        <ele>1017.8</ele>
        <time>2026-03-21T13:24:30Z</time>
      </trkpt>
      <trkpt lat="47.98793" lon="7.00745">
        <ele>1018.4</ele>
        <time>2026-03-21T13:24:35Z</time>
      </trkpt>
      <trkpt lat="47.98792" lon="7.00738">
        <ele>1018.8</ele>
        <time>2026-03-21T13:24:40Z</time>
      </trkpt>
      <trkpt lat="47.98793" lon="7.00734">
        <ele>1019.8</ele>
        <time>2026-03-21T13:24:45Z</time>
      </trkpt>
      <trkpt lat="47.98792" lon="7.00728">
        <ele>1020.1</ele>
        <time>2026-03-21T13:24:50Z</time>
      </trkpt>
      <trkpt lat="47.98793" lon="7.00721">
        <ele>1021.5</ele>
        <time>2026-03-21T13:24:55Z</time>
      </trkpt>
      <trkpt lat="47.98793" lon="7.00716">
        <ele>1022.2</ele>
        <time>2026-03-21T13:25:00Z</time>
      </trkpt>
      <trkpt lat="47.98793" lon="7.00712">
        <ele>1022.7</ele>
        <time>2026-03-21T13:25:05Z</time>
      </trkpt>
      <trkpt lat="47.98794" lon="7.00707">
        <ele>1023.9</ele>
        <time>2026-03-21T13:25:10Z</time>
      </trkpt>
      <trkpt lat="47.98793" lon="7.00703">
        <ele>1023.9</ele>
        <time>2026-03-21T13:25:15Z</time>
      </trkpt>
      <trkpt lat="47.98793" lon="7.00696">
        <ele>1024.8</ele>
        <time>2026-03-21T13:25:20Z</time>
      </trkpt>
      <trkpt lat="47.98794" lon="7.00688">
        <ele>1026.4</ele>
        <time>2026-03-21T13:25:25Z</time>
      </trkpt>
      <trkpt lat="47.98794" lon="7.00684">
        <ele>1026.9</ele>
        <time>2026-03-21T13:25:30Z</time>
      </trkpt>
      <trkpt lat="47.98794" lon="7.00677">
        <ele>1027.8</ele>
        <time>2026-03-21T13:25:35Z</time>
      </trkpt>
      <trkpt lat="47.98794" lon="7.0067">
        <ele>1028.7</ele>
        <time>2026-03-21T13:25:40Z</time>
      </trkpt>
      <trkpt lat="47.98792" lon="7.00664">
        <ele>1029</ele>
        <time>2026-03-21T13:25:45Z</time>
      </trkpt>
      <trkpt lat="47.98793" lon="7.00659">
        <ele>1031.1</ele>
        <time>2026-03-21T13:25:50Z</time>
      </trkpt>
      <trkpt lat="47.98793" lon="7.00655">
        <ele>1032.3</ele>
        <time>2026-03-21T13:25:55Z</time>
      </trkpt>
      <trkpt lat="47.98794" lon="7.00647">
        <ele>1035.3</ele>
        <time>2026-03-21T13:26:00Z</time>
      </trkpt>
      <trkpt lat="47.98793" lon="7.0064">
        <ele>1037</ele>
        <time>2026-03-21T13:26:05Z</time>
      </trkpt>
      <trkpt lat="47.98793" lon="7.00633">
        <ele>1039.1</ele>
        <time>2026-03-21T13:26:10Z</time>
      </trkpt>
      <trkpt lat="47.98792" lon="7.00628">
        <ele>1040.2</ele>
        <time>2026-03-21T13:26:15Z</time>
      </trkpt>
      <trkpt lat="47.98792" lon="7.00623">
        <ele>1041.8</ele>
        <time>2026-03-21T13:26:20Z</time>
      </trkpt>
      <trkpt lat="47.98792" lon="7.00618">
        <ele>1043.3</ele>
        <time>2026-03-21T13:26:25Z</time>
      </trkpt>
      <trkpt lat="47.98789" lon="7.00612">
        <ele>1043.9</ele>
        <time>2026-03-21T13:26:30Z</time>
      </trkpt>
      <trkpt lat="47.98788" lon="7.00608">
        <ele>1044.7</ele>
        <time>2026-03-21T13:26:35Z</time>
      </trkpt>
      <trkpt lat="47.98787" lon="7.00604">
        <ele>1045.5</ele>
        <time>2026-03-21T13:26:40Z</time>
      </trkpt>
      <trkpt lat="47.98785" lon="7.00599">
        <ele>1046.3</ele>
        <time>2026-03-21T13:26:45Z</time>
      </trkpt>
      <trkpt lat="47.98785" lon="7.00596">
        <ele>1047.2</ele>
        <time>2026-03-21T13:26:50Z</time>
      </trkpt>
      <trkpt lat="47.98785" lon="7.00595">
        <ele>1047.6</ele>
        <time>2026-03-21T13:26:55Z</time>
      </trkpt>
      <trkpt lat="47.98785" lon="7.00595">
        <ele>1047.6</ele>
        <time>2026-03-21T13:27:00Z</time>
      </trkpt>
      <trkpt lat="47.98781" lon="7.00583">
        <ele>1049.7</ele>
        <time>2026-03-21T13:27:05Z</time>
      </trkpt>
      <trkpt lat="47.9878" lon="7.00576">
        <ele>1051.2</ele>
        <time>2026-03-21T13:27:10Z</time>
      </trkpt>
      <trkpt lat="47.98779" lon="7.0057">
        <ele>1052.5</ele>
        <time>2026-03-21T13:27:15Z</time>
      </trkpt>
      <trkpt lat="47.98775" lon="7.00565">
        <ele>1052.2</ele>
        <time>2026-03-21T13:27:20Z</time>
      </trkpt>
      <trkpt lat="47.98771" lon="7.00563">
        <ele>1051.1</ele>
        <time>2026-03-21T13:27:25Z</time>
      </trkpt>
      <trkpt lat="47.98768" lon="7.00559">
        <ele>1051</ele>
        <time>2026-03-21T13:27:30Z</time>
      </trkpt>
      <trkpt lat="47.98767" lon="7.00555">
        <ele>1051.7</ele>
        <time>2026-03-21T13:27:35Z</time>
      </trkpt>
      <trkpt lat="47.98766" lon="7.0055">
        <ele>1052.7</ele>
        <time>2026-03-21T13:27:40Z</time>
      </trkpt>
      <trkpt lat="47.98765" lon="7.00546">
        <ele>1053.3</ele>
        <time>2026-03-21T13:27:45Z</time>
      </trkpt>
      <trkpt lat="47.98764" lon="7.00541">
        <ele>1054.3</ele>
        <time>2026-03-21T13:27:50Z</time>
      </trkpt>
      <trkpt lat="47.98762" lon="7.00535">
        <ele>1055.2</ele>
        <time>2026-03-21T13:27:55Z</time>
      </trkpt>
      <trkpt lat="47.98763" lon="7.00532">
        <ele>1056.4</ele>
        <time>2026-03-21T13:28:00Z</time>
      </trkpt>
      <trkpt lat="47.98762" lon="7.00529">
        <ele>1056.8</ele>
        <time>2026-03-21T13:28:05Z</time>
      </trkpt>
      <trkpt lat="47.98759" lon="7.00524">
        <ele>1057</ele>
        <time>2026-03-21T13:28:10Z</time>
      </trkpt>
      <trkpt lat="47.98752" lon="7.00524">
        <ele>1054.2</ele>
        <time>2026-03-21T13:28:15Z</time>
      </trkpt>
      <trkpt lat="47.98746" lon="7.00519">
        <ele>1053.4</ele>
        <time>2026-03-21T13:28:20Z</time>
      </trkpt>
      <trkpt lat="47.98743" lon="7.00516">
        <ele>1053.2</ele>
        <time>2026-03-21T13:28:25Z</time>
      </trkpt>
      <trkpt lat="47.9874" lon="7.00513">
        <ele>1053.1</ele>
        <time>2026-03-21T13:28:30Z</time>
      </trkpt>
      <trkpt lat="47.98736" lon="7.0051">
        <ele>1052.7</ele>
        <time>2026-03-21T13:28:35Z</time>
      </trkpt>
      <trkpt lat="47.98733" lon="7.00507">
        <ele>1052.6</ele>
        <time>2026-03-21T13:28:40Z</time>
      </trkpt>
      <trkpt lat="47.9873" lon="7.00501">
        <ele>1053.5</ele>
        <time>2026-03-21T13:28:45Z</time>
      </trkpt>
      <trkpt lat="47.98727" lon="7.00497">
        <ele>1053.6</ele>
        <time>2026-03-21T13:28:50Z</time>
      </trkpt>
      <trkpt lat="47.98725" lon="7.00492">
        <ele>1054.3</ele>
        <time>2026-03-21T13:28:55Z</time>
      </trkpt>
      <trkpt lat="47.98723" lon="7.00487">
        <ele>1055</ele>
        <time>2026-03-21T13:29:00Z</time>
      </trkpt>
      <trkpt lat="47.98722" lon="7.00482">
        <ele>1056</ele>
        <time>2026-03-21T13:29:05Z</time>
      </trkpt>
      <trkpt lat="47.98722" lon="7.00477">
        <ele>1057.3</ele>
        <time>2026-03-21T13:29:10Z</time>
      </trkpt>
      <trkpt lat="47.9872" lon="7.0047">
        <ele>1058.6</ele>
        <time>2026-03-21T13:29:15Z</time>
      </trkpt>
      <trkpt lat="47.98717" lon="7.00465">
        <ele>1059</ele>
        <time>2026-03-21T13:29:20Z</time>
      </trkpt>
      <trkpt lat="47.98714" lon="7.00461">
        <ele>1059.2</ele>
        <time>2026-03-21T13:29:25Z</time>
      </trkpt>
      <trkpt lat="47.98712" lon="7.00456">
        <ele>1060</ele>
        <time>2026-03-21T13:29:30Z</time>
      </trkpt>
      <trkpt lat="47.98711" lon="7.00451">
        <ele>1061</ele>
        <time>2026-03-21T13:29:35Z</time>
      </trkpt>
      <trkpt lat="47.98708" lon="7.00446">
        <ele>1061.5</ele>
        <time>2026-03-21T13:29:40Z</time>
      </trkpt>
      <trkpt lat="47.98705" lon="7.00442">
        <ele>1061.7</ele>
        <time>2026-03-21T13:29:45Z</time>
      </trkpt>
      <trkpt lat="47.98703" lon="7.00437">
        <ele>1062.5</ele>
        <time>2026-03-21T13:29:50Z</time>
      </trkpt>
      <trkpt lat="47.98703" lon="7.00429">
        <ele>1064.7</ele>
        <time>2026-03-21T13:29:55Z</time>
      </trkpt>
      <trkpt lat="47.98702" lon="7.00423">
        <ele>1066</ele>
        <time>2026-03-21T13:30:00Z</time>
      </trkpt>
      <trkpt lat="47.987" lon="7.00417">
        <ele>1067.1</ele>
        <time>2026-03-21T13:30:05Z</time>
      </trkpt>
      <trkpt lat="47.98697" lon="7.00413">
        <ele>1067.5</ele>
        <time>2026-03-21T13:30:10Z</time>
      </trkpt>
      <trkpt lat="47.98696" lon="7.00408">
        <ele>1068.7</ele>
        <time>2026-03-21T13:30:15Z</time>
      </trkpt>
      <trkpt lat="47.98695" lon="7.00402">
        <ele>1070.2</ele>
        <time>2026-03-21T13:30:20Z</time>
      </trkpt>
      <trkpt lat="47.98694" lon="7.00397">
        <ele>1071.4</ele>
        <time>2026-03-21T13:30:25Z</time>
      </trkpt>
      <trkpt lat="47.98692" lon="7.00392">
        <ele>1072.4</ele>
        <time>2026-03-21T13:30:30Z</time>
      </trkpt>
      <trkpt lat="47.98688" lon="7.00388">
        <ele>1072.5</ele>
        <time>2026-03-21T13:30:35Z</time>
      </trkpt>
      <trkpt lat="47.98686" lon="7.00383">
        <ele>1073.4</ele>
        <time>2026-03-21T13:30:40Z</time>
      </trkpt>
      <trkpt lat="47.98684" lon="7.00378">
        <ele>1074.4</ele>
        <time>2026-03-21T13:30:45Z</time>
      </trkpt>
      <trkpt lat="47.9868" lon="7.00374">
        <ele>1074.5</ele>
        <time>2026-03-21T13:30:50Z</time>
      </trkpt>
      <trkpt lat="47.98676" lon="7.0037">
        <ele>1074.6</ele>
        <time>2026-03-21T13:30:55Z</time>
      </trkpt>
      <trkpt lat="47.98676" lon="7.00363">
        <ele>1076.7</ele>
        <time>2026-03-21T13:31:00Z</time>
      </trkpt>
      <trkpt lat="47.98675" lon="7.00357">
        <ele>1078.2</ele>
        <time>2026-03-21T13:31:05Z</time>
      </trkpt>
      <trkpt lat="47.98673" lon="7.0035">
        <ele>1079.7</ele>
        <time>2026-03-21T13:31:10Z</time>
      </trkpt>
      <trkpt lat="47.9867" lon="7.00346">
        <ele>1080.1</ele>
        <time>2026-03-21T13:31:15Z</time>
      </trkpt>
      <trkpt lat="47.98668" lon="7.00342">
        <ele>1080.8</ele>
        <time>2026-03-21T13:31:20Z</time>
      </trkpt>
      <trkpt lat="47.98665" lon="7.00337">
        <ele>1081.8</ele>
        <time>2026-03-21T13:31:25Z</time>
      </trkpt>
      <trkpt lat="47.98663" lon="7.00332">
        <ele>1083.2</ele>
        <time>2026-03-21T13:31:30Z</time>
      </trkpt>
      <trkpt lat="47.98662" lon="7.00325">
        <ele>1085.7</ele>
        <time>2026-03-21T13:31:35Z</time>
      </trkpt>
      <trkpt lat="47.9866" lon="7.00319">
        <ele>1087.7</ele>
        <time>2026-03-21T13:31:40Z</time>
      </trkpt>
      <trkpt lat="47.98657" lon="7.00313">
        <ele>1089.7</ele>
        <time>2026-03-21T13:31:45Z</time>
      </trkpt>
      <trkpt lat="47.98653" lon="7.00307">
        <ele>1091.7</ele>
        <time>2026-03-21T13:31:50Z</time>
      </trkpt>
      <trkpt lat="47.98652" lon="7.00302">
        <ele>1093.4</ele>
        <time>2026-03-21T13:31:55Z</time>
      </trkpt>
      <trkpt lat="47.98649" lon="7.00299">
        <ele>1094.4</ele>
        <time>2026-03-21T13:32:00Z</time>
      </trkpt>
      <trkpt lat="47.98649" lon="7.00292">
        <ele>1097</ele>
        <time>2026-03-21T13:32:05Z</time>
      </trkpt>
      <trkpt lat="47.98649" lon="7.00284">
        <ele>1099.9</ele>
        <time>2026-03-21T13:32:10Z</time>
      </trkpt>
      <trkpt lat="47.98649" lon="7.0028">
        <ele>1101.3</ele>
        <time>2026-03-21T13:32:15Z</time>
      </trkpt>
      <trkpt lat="47.98647" lon="7.0028">
        <ele>1101.3</ele>
        <time>2026-03-21T13:32:20Z</time>
      </trkpt>
      <trkpt lat="47.98646" lon="7.0028">
        <ele>1101.3</ele>
        <time>2026-03-21T13:32:25Z</time>
      </trkpt>
      <trkpt lat="47.98646" lon="7.0028">
        <ele>1101.3</ele>
        <time>2026-03-21T13:32:30Z</time>
      </trkpt>
      <trkpt lat="47.98646" lon="7.0028">
        <ele>1101.3</ele>
        <time>2026-03-21T13:32:35Z</time>
      </trkpt>
      <trkpt lat="47.98646" lon="7.0028">
        <ele>1101.3</ele>
        <time>2026-03-21T13:32:40Z</time>
      </trkpt>
      <trkpt lat="47.98646" lon="7.0028">
        <ele>1101.3</ele>
        <time>2026-03-21T13:32:45Z</time>
      </trkpt>
      <trkpt lat="47.98646" lon="7.0028">
        <ele>1101.3</ele>
        <time>2026-03-21T13:32:50Z</time>
      </trkpt>
      <trkpt lat="47.98646" lon="7.0028">
        <ele>1101.3</ele>
        <time>2026-03-21T13:32:55Z</time>
      </trkpt>
      <trkpt lat="47.98646" lon="7.0028">
        <ele>1101.3</ele>
        <time>2026-03-21T13:33:00Z</time>
      </trkpt>
      <trkpt lat="47.98646" lon="7.0028">
        <ele>1101.3</ele>
        <time>2026-03-21T13:33:05Z</time>
      </trkpt>
      <trkpt lat="47.98646" lon="7.0028">
        <ele>1101.3</ele>
        <time>2026-03-21T13:33:10Z</time>
      </trkpt>
      <trkpt lat="47.98646" lon="7.0028">
        <ele>1101.3</ele>
        <time>2026-03-21T13:33:15Z</time>
      </trkpt>
      <trkpt lat="47.98646" lon="7.0028">
        <ele>1101.3</ele>
        <time>2026-03-21T13:33:20Z</time>
      </trkpt>
      <trkpt lat="47.98646" lon="7.0028">
        <ele>1101.3</ele>
        <time>2026-03-21T13:33:25Z</time>
      </trkpt>
      <trkpt lat="47.98646" lon="7.0028">
        <ele>1101.3</ele>
        <time>2026-03-21T13:33:30Z</time>
      </trkpt>
      <trkpt lat="47.98646" lon="7.0028">
        <ele>1101.3</ele>
        <time>2026-03-21T13:33:35Z</time>
      </trkpt>
      <trkpt lat="47.98639" lon="7.00282">
        <ele>1100.4</ele>
        <time>2026-03-21T13:33:40Z</time>
      </trkpt>
      <trkpt lat="47.98637" lon="7.00278">
        <ele>1101.9</ele>
        <time>2026-03-21T13:33:45Z</time>
      </trkpt>
      <trkpt lat="47.98635" lon="7.00273">
        <ele>1103.7</ele>
        <time>2026-03-21T13:33:50Z</time>
      </trkpt>
      <trkpt lat="47.98635" lon="7.00266">
        <ele>1106.4</ele>
        <time>2026-03-21T13:33:55Z</time>
      </trkpt>
      <trkpt lat="47.98634" lon="7.00261">
        <ele>1108.3</ele>
        <time>2026-03-21T13:34:00Z</time>
      </trkpt>
      <trkpt lat="47.98635" lon="7.00255">
        <ele>1110.5</ele>
        <time>2026-03-21T13:34:05Z</time>
      </trkpt>
      <trkpt lat="47.98633" lon="7.00252">
        <ele>1111.6</ele>
        <time>2026-03-21T13:34:10Z</time>
      </trkpt>
      <trkpt lat="47.98631" lon="7.00248">
        <ele>1113.1</ele>
        <time>2026-03-21T13:34:15Z</time>
      </trkpt>
      <trkpt lat="47.98629" lon="7.00244">
        <ele>1114.4</ele>
        <time>2026-03-21T13:34:20Z</time>
      </trkpt>
      <trkpt lat="47.98628" lon="7.00242">
        <ele>1115.1</ele>
        <time>2026-03-21T13:34:25Z</time>
      </trkpt>
      <trkpt lat="47.98628" lon="7.00242">
        <ele>1115.1</ele>
        <time>2026-03-21T13:34:30Z</time>
      </trkpt>
      <trkpt lat="47.98628" lon="7.00242">
        <ele>1115.1</ele>
        <time>2026-03-21T13:34:35Z</time>
      </trkpt>
      <trkpt lat="47.98628" lon="7.00242">
        <ele>1115.1</ele>
        <time>2026-03-21T13:34:40Z</time>
      </trkpt>
      <trkpt lat="47.98628" lon="7.00242">
        <ele>1115.1</ele>
        <time>2026-03-21T13:34:45Z</time>
      </trkpt>
      <trkpt lat="47.98628" lon="7.00242">
        <ele>1115.1</ele>
        <time>2026-03-21T13:34:50Z</time>
      </trkpt>
      <trkpt lat="47.98618" lon="7.00235">
        <ele>1117.4</ele>
        <time>2026-03-21T13:34:55Z</time>
      </trkpt>
      <trkpt lat="47.98617" lon="7.00232">
        <ele>1118.4</ele>
        <time>2026-03-21T13:35:00Z</time>
      </trkpt>
      <trkpt lat="47.98616" lon="7.0023">
        <ele>1119.1</ele>
        <time>2026-03-21T13:35:05Z</time>
      </trkpt>
      <trkpt lat="47.98617" lon="7.00221">
        <ele>1122</ele>
        <time>2026-03-21T13:35:10Z</time>
      </trkpt>
      <trkpt lat="47.98617" lon="7.00218">
        <ele>1123</ele>
        <time>2026-03-21T13:35:15Z</time>
      </trkpt>
      <trkpt lat="47.98613" lon="7.00216">
        <ele>1123.7</ele>
        <time>2026-03-21T13:35:20Z</time>
      </trkpt>
      <trkpt lat="47.98611" lon="7.00211">
        <ele>1125.3</ele>
        <time>2026-03-21T13:35:25Z</time>
      </trkpt>
      <trkpt lat="47.98611" lon="7.00208">
        <ele>1126.3</ele>
        <time>2026-03-21T13:35:30Z</time>
      </trkpt>
      <trkpt lat="47.98609" lon="7.00203">
        <ele>1127.9</ele>
        <time>2026-03-21T13:35:35Z</time>
      </trkpt>
      <trkpt lat="47.98608" lon="7.00198">
        <ele>1129.6</ele>
        <time>2026-03-21T13:35:40Z</time>
      </trkpt>
      <trkpt lat="47.98605" lon="7.00194">
        <ele>1130.9</ele>
        <time>2026-03-21T13:35:45Z</time>
      </trkpt>
      <trkpt lat="47.98601" lon="7.00192">
        <ele>1131.6</ele>
        <time>2026-03-21T13:35:50Z</time>
      </trkpt>
      <trkpt lat="47.98597" lon="7.0019">
        <ele>1132.3</ele>
        <time>2026-03-21T13:35:55Z</time>
      </trkpt>
      <trkpt lat="47.98596" lon="7.00186">
        <ele>1133.6</ele>
        <time>2026-03-21T13:36:00Z</time>
      </trkpt>
      <trkpt lat="47.98594" lon="7.00185">
        <ele>1133.9</ele>
        <time>2026-03-21T13:36:05Z</time>
      </trkpt>
      <trkpt lat="47.98592" lon="7.00184">
        <ele>1134.3</ele>
        <time>2026-03-21T13:36:10Z</time>
      </trkpt>
      <trkpt lat="47.98592" lon="7.00184">
        <ele>1134.3</ele>
        <time>2026-03-21T13:36:15Z</time>
      </trkpt>
      <trkpt lat="47.98592" lon="7.00184">
        <ele>1134.3</ele>
        <time>2026-03-21T13:36:20Z</time>
      </trkpt>
      <trkpt lat="47.98582" lon="7.00185">
        <ele>1134</ele>
        <time>2026-03-21T13:36:25Z</time>
      </trkpt>
      <trkpt lat="47.98577" lon="7.00186">
        <ele>1133.5</ele>
        <time>2026-03-21T13:36:30Z</time>
      </trkpt>
      <trkpt lat="47.98571" lon="7.00188">
        <ele>1132.7</ele>
        <time>2026-03-21T13:36:35Z</time>
      </trkpt>
      <trkpt lat="47.98567" lon="7.00187">
        <ele>1132.8</ele>
        <time>2026-03-21T13:36:40Z</time>
      </trkpt>
      <trkpt lat="47.98565" lon="7.00186">
        <ele>1133</ele>
        <time>2026-03-21T13:36:45Z</time>
      </trkpt>
      <trkpt lat="47.98562" lon="7.00183">
        <ele>1133.8</ele>
        <time>2026-03-21T13:36:50Z</time>
      </trkpt>
      <trkpt lat="47.9856" lon="7.0018">
        <ele>1134.6</ele>
        <time>2026-03-21T13:36:55Z</time>
      </trkpt>
      <trkpt lat="47.98557" lon="7.00177">
        <ele>1135.4</ele>
        <time>2026-03-21T13:37:00Z</time>
      </trkpt>
      <trkpt lat="47.98553" lon="7.00177">
        <ele>1135.2</ele>
        <time>2026-03-21T13:37:05Z</time>
      </trkpt>
      <trkpt lat="47.98549" lon="7.00176">
        <ele>1135.3</ele>
        <time>2026-03-21T13:37:10Z</time>
      </trkpt>
      <trkpt lat="47.98545" lon="7.00179">
        <ele>1134.2</ele>
        <time>2026-03-21T13:37:15Z</time>
      </trkpt>
      <trkpt lat="47.98539" lon="7.00176">
        <ele>1134.8</ele>
        <time>2026-03-21T13:37:20Z</time>
      </trkpt>
      <trkpt lat="47.98536" lon="7.00175">
        <ele>1134.9</ele>
        <time>2026-03-21T13:37:25Z</time>
      </trkpt>
      <trkpt lat="47.98532" lon="7.00176">
        <ele>1134.4</ele>
        <time>2026-03-21T13:37:30Z</time>
      </trkpt>
      <trkpt lat="47.98527" lon="7.00176">
        <ele>1134.2</ele>
        <time>2026-03-21T13:37:35Z</time>
      </trkpt>
      <trkpt lat="47.98527" lon="7.00176">
        <ele>1134.2</ele>
        <time>2026-03-21T13:37:40Z</time>
      </trkpt>
      <trkpt lat="47.98527" lon="7.00176">
        <ele>1134.2</ele>
        <time>2026-03-21T13:37:45Z</time>
      </trkpt>
      <trkpt lat="47.98527" lon="7.00176">
        <ele>1134.2</ele>
        <time>2026-03-21T13:37:50Z</time>
      </trkpt>
      <trkpt lat="47.98527" lon="7.00176">
        <ele>1134.2</ele>
        <time>2026-03-21T13:37:55Z</time>
      </trkpt>
      <trkpt lat="47.98527" lon="7.00176">
        <ele>1134.2</ele>
        <time>2026-03-21T13:38:00Z</time>
      </trkpt>
      <trkpt lat="47.98527" lon="7.00176">
        <ele>1134.2</ele>
        <time>2026-03-21T13:38:05Z</time>
      </trkpt>
      <trkpt lat="47.98527" lon="7.00176">
        <ele>1134.2</ele>
        <time>2026-03-21T13:38:10Z</time>
      </trkpt>
      <trkpt lat="47.98527" lon="7.00176">
        <ele>1134.2</ele>
        <time>2026-03-21T13:38:15Z</time>
      </trkpt>
      <trkpt lat="47.98527" lon="7.00176">
        <ele>1134.2</ele>
        <time>2026-03-21T13:38:20Z</time>
      </trkpt>
      <trkpt lat="47.98527" lon="7.00176">
        <ele>1134.2</ele>
        <time>2026-03-21T13:38:25Z</time>
      </trkpt>
      <trkpt lat="47.98527" lon="7.00176">
        <ele>1134.2</ele>
        <time>2026-03-21T13:38:30Z</time>
      </trkpt>
      <trkpt lat="47.98527" lon="7.00176">
        <ele>1134.2</ele>
        <time>2026-03-21T13:38:35Z</time>
      </trkpt>
      <trkpt lat="47.98527" lon="7.00176">
        <ele>1134.2</ele>
        <time>2026-03-21T13:38:40Z</time>
      </trkpt>
      <trkpt lat="47.98527" lon="7.00176">
        <ele>1134.2</ele>
        <time>2026-03-21T13:38:45Z</time>
      </trkpt>
      <trkpt lat="47.98527" lon="7.00176">
        <ele>1134.2</ele>
        <time>2026-03-21T13:38:50Z</time>
      </trkpt>
      <trkpt lat="47.98527" lon="7.00176">
        <ele>1134.2</ele>
        <time>2026-03-21T13:38:55Z</time>
      </trkpt>
      <trkpt lat="47.98527" lon="7.00176">
        <ele>1134.2</ele>
        <time>2026-03-21T13:39:00Z</time>
      </trkpt>
      <trkpt lat="47.98527" lon="7.00176">
        <ele>1134.2</ele>
        <time>2026-03-21T13:39:05Z</time>
      </trkpt>
      <trkpt lat="47.98527" lon="7.00176">
        <ele>1134.2</ele>
        <time>2026-03-21T13:39:10Z</time>
      </trkpt>
      <trkpt lat="47.98527" lon="7.00176">
        <ele>1134.2</ele>
        <time>2026-03-21T13:39:15Z</time>
      </trkpt>
      <trkpt lat="47.98527" lon="7.00176">
        <ele>1134.2</ele>
        <time>2026-03-21T13:39:20Z</time>
      </trkpt>
      <trkpt lat="47.98527" lon="7.00176">
        <ele>1134.2</ele>
        <time>2026-03-21T13:39:25Z</time>
      </trkpt>
      <trkpt lat="47.98527" lon="7.00176">
        <ele>1134.2</ele>
        <time>2026-03-21T13:39:30Z</time>
      </trkpt>
      <trkpt lat="47.98527" lon="7.00176">
        <ele>1134.2</ele>
        <time>2026-03-21T13:39:35Z</time>
      </trkpt>
      <trkpt lat="47.98527" lon="7.00176">
        <ele>1134.2</ele>
        <time>2026-03-21T13:39:40Z</time>
      </trkpt>
      <trkpt lat="47.98527" lon="7.00176">
        <ele>1134.2</ele>
        <time>2026-03-21T13:39:45Z</time>
      </trkpt>
      <trkpt lat="47.98527" lon="7.00176">
        <ele>1134.2</ele>
        <time>2026-03-21T13:39:50Z</time>
      </trkpt>
      <trkpt lat="47.98527" lon="7.00176">
        <ele>1134.2</ele>
        <time>2026-03-21T13:39:55Z</time>
      </trkpt>
      <trkpt lat="47.98523" lon="7.00183">
        <ele>1132.2</ele>
        <time>2026-03-21T13:40:00Z</time>
      </trkpt>
      <trkpt lat="47.98519" lon="7.00187">
        <ele>1131.1</ele>
        <time>2026-03-21T13:40:05Z</time>
      </trkpt>
      <trkpt lat="47.98515" lon="7.00185">
        <ele>1131.4</ele>
        <time>2026-03-21T13:40:10Z</time>
      </trkpt>
      <trkpt lat="47.98509" lon="7.00183">
        <ele>1131.6</ele>
        <time>2026-03-21T13:40:15Z</time>
      </trkpt>
      <trkpt lat="47.98505" lon="7.00183">
        <ele>1131.5</ele>
        <time>2026-03-21T13:40:20Z</time>
      </trkpt>
      <trkpt lat="47.98501" lon="7.00183">
        <ele>1131.3</ele>
        <time>2026-03-21T13:40:25Z</time>
      </trkpt>
      <trkpt lat="47.98497" lon="7.00182">
        <ele>1130.5</ele>
        <time>2026-03-21T13:40:30Z</time>
      </trkpt>
      <trkpt lat="47.98493" lon="7.0018">
        <ele>1129.6</ele>
        <time>2026-03-21T13:40:35Z</time>
      </trkpt>
      <trkpt lat="47.98489" lon="7.00179">
        <ele>1128.5</ele>
        <time>2026-03-21T13:40:40Z</time>
      </trkpt>
      <trkpt lat="47.98485" lon="7.00177">
        <ele>1127.6</ele>
        <time>2026-03-21T13:40:45Z</time>
      </trkpt>
      <trkpt lat="47.9848" lon="7.00176">
        <ele>1126.1</ele>
        <time>2026-03-21T13:40:50Z</time>
      </trkpt>
      <trkpt lat="47.98476" lon="7.00175">
        <ele>1125</ele>
        <time>2026-03-21T13:40:55Z</time>
      </trkpt>
      <trkpt lat="47.98472" lon="7.00174">
        <ele>1123.8</ele>
        <time>2026-03-21T13:41:00Z</time>
      </trkpt>
      <trkpt lat="47.98468" lon="7.00171">
        <ele>1123</ele>
        <time>2026-03-21T13:41:05Z</time>
      </trkpt>
      <trkpt lat="47.98464" lon="7.00167">
        <ele>1122.4</ele>
        <time>2026-03-21T13:41:10Z</time>
      </trkpt>
      <trkpt lat="47.98459" lon="7.00165">
        <ele>1120.9</ele>
        <time>2026-03-21T13:41:15Z</time>
      </trkpt>
      <trkpt lat="47.98457" lon="7.0016">
        <ele>1120.8</ele>
        <time>2026-03-21T13:41:20Z</time>
      </trkpt>
      <trkpt lat="47.98453" lon="7.00156">
        <ele>1119.8</ele>
        <time>2026-03-21T13:41:25Z</time>
      </trkpt>
      <trkpt lat="47.98449" lon="7.00153">
        <ele>1118.7</ele>
        <time>2026-03-21T13:41:30Z</time>
      </trkpt>
      <trkpt lat="47.98446" lon="7.00149">
        <ele>1118</ele>
        <time>2026-03-21T13:41:35Z</time>
      </trkpt>
      <trkpt lat="47.98445" lon="7.00142">
        <ele>1118.3</ele>
        <time>2026-03-21T13:41:40Z</time>
      </trkpt>
      <trkpt lat="47.98445" lon="7.00134">
        <ele>1119.1</ele>
        <time>2026-03-21T13:41:45Z</time>
      </trkpt>
      <trkpt lat="47.98443" lon="7.00128">
        <ele>1119</ele>
        <time>2026-03-21T13:41:50Z</time>
      </trkpt>
      <trkpt lat="47.98441" lon="7.00122">
        <ele>1118.8</ele>
        <time>2026-03-21T13:41:55Z</time>
      </trkpt>
      <trkpt lat="47.9844" lon="7.00117">
        <ele>1119</ele>
        <time>2026-03-21T13:42:00Z</time>
      </trkpt>
      <trkpt lat="47.98439" lon="7.00111">
        <ele>1119.2</ele>
        <time>2026-03-21T13:42:05Z</time>
      </trkpt>
      <trkpt lat="47.98438" lon="7.00105">
        <ele>1119.4</ele>
        <time>2026-03-21T13:42:10Z</time>
      </trkpt>
      <trkpt lat="47.98436" lon="7.00099">
        <ele>1119.2</ele>
        <time>2026-03-21T13:42:15Z</time>
      </trkpt>
      <trkpt lat="47.98434" lon="7.00093">
        <ele>1119</ele>
        <time>2026-03-21T13:42:20Z</time>
      </trkpt>
      <trkpt lat="47.98435" lon="7.00088">
        <ele>1119.8</ele>
        <time>2026-03-21T13:42:25Z</time>
      </trkpt>
      <trkpt lat="47.98431" lon="7.00084">
        <ele>1118.6</ele>
        <time>2026-03-21T13:42:30Z</time>
      </trkpt>
      <trkpt lat="47.98431" lon="7.00078">
        <ele>1119.5</ele>
        <time>2026-03-21T13:42:35Z</time>
      </trkpt>
      <trkpt lat="47.9843" lon="7.00072">
        <ele>1119.9</ele>
        <time>2026-03-21T13:42:40Z</time>
      </trkpt>
      <trkpt lat="47.98429" lon="7.00066">
        <ele>1120.4</ele>
        <time>2026-03-21T13:42:45Z</time>
      </trkpt>
      <trkpt lat="47.98428" lon="7.00061">
        <ele>1120.7</ele>
        <time>2026-03-21T13:42:50Z</time>
      </trkpt>
      <trkpt lat="47.98425" lon="7.00055">
        <ele>1120.4</ele>
        <time>2026-03-21T13:42:55Z</time>
      </trkpt>
      <trkpt lat="47.98424" lon="7.00049">
        <ele>1120.9</ele>
        <time>2026-03-21T13:43:00Z</time>
      </trkpt>
      <trkpt lat="47.98422" lon="7.00043">
        <ele>1121</ele>
        <time>2026-03-21T13:43:05Z</time>
      </trkpt>
      <trkpt lat="47.98421" lon="7.00039">
        <ele>1121.1</ele>
        <time>2026-03-21T13:43:10Z</time>
      </trkpt>
      <trkpt lat="47.98419" lon="7.00033">
        <ele>1121.2</ele>
        <time>2026-03-21T13:43:15Z</time>
      </trkpt>
      <trkpt lat="47.98418" lon="7.00028">
        <ele>1121.5</ele>
        <time>2026-03-21T13:43:20Z</time>
      </trkpt>
      <trkpt lat="47.98417" lon="7.00022">
        <ele>1122</ele>
        <time>2026-03-21T13:43:25Z</time>
      </trkpt>
      <trkpt lat="47.98417" lon="7.00017">
        <ele>1122.7</ele>
        <time>2026-03-21T13:43:30Z</time>
      </trkpt>
      <trkpt lat="47.98416" lon="7.00012">
        <ele>1123</ele>
        <time>2026-03-21T13:43:35Z</time>
      </trkpt>
      <trkpt lat="47.98414" lon="7.00007">
        <ele>1122.8</ele>
        <time>2026-03-21T13:43:40Z</time>
      </trkpt>
      <trkpt lat="47.98412" lon="7.00001">
        <ele>1122.7</ele>
        <time>2026-03-21T13:43:45Z</time>
      </trkpt>
      <trkpt lat="47.9841" lon="6.99996">
        <ele>1122.6</ele>
        <time>2026-03-21T13:43:50Z</time>
      </trkpt>
      <trkpt lat="47.98408" lon="6.99989">
        <ele>1122.7</ele>
        <time>2026-03-21T13:43:55Z</time>
      </trkpt>
      <trkpt lat="47.98407" lon="6.99983">
        <ele>1123.2</ele>
        <time>2026-03-21T13:44:00Z</time>
      </trkpt>
      <trkpt lat="47.98406" lon="6.99977">
        <ele>1123.7</ele>
        <time>2026-03-21T13:44:05Z</time>
      </trkpt>
      <trkpt lat="47.98407" lon="6.99971">
        <ele>1125</ele>
        <time>2026-03-21T13:44:10Z</time>
      </trkpt>
      <trkpt lat="47.98405" lon="6.99965">
        <ele>1125</ele>
        <time>2026-03-21T13:44:15Z</time>
      </trkpt>
      <trkpt lat="47.98402" lon="6.99961">
        <ele>1124.2</ele>
        <time>2026-03-21T13:44:20Z</time>
      </trkpt>
      <trkpt lat="47.98397" lon="6.99956">
        <ele>1122.6</ele>
        <time>2026-03-21T13:44:25Z</time>
      </trkpt>
      <trkpt lat="47.98397" lon="6.99951">
        <ele>1123.4</ele>
        <time>2026-03-21T13:44:30Z</time>
      </trkpt>
      <trkpt lat="47.98397" lon="6.99946">
        <ele>1124.2</ele>
        <time>2026-03-21T13:44:35Z</time>
      </trkpt>
      <trkpt lat="47.98397" lon="6.9994">
        <ele>1125.1</ele>
        <time>2026-03-21T13:44:40Z</time>
      </trkpt>
      <trkpt lat="47.98397" lon="6.99934">
        <ele>1126</ele>
        <time>2026-03-21T13:44:45Z</time>
      </trkpt>
      <trkpt lat="47.98396" lon="6.99929">
        <ele>1126.2</ele>
        <time>2026-03-21T13:44:50Z</time>
      </trkpt>
      <trkpt lat="47.98394" lon="6.99923">
        <ele>1126.2</ele>
        <time>2026-03-21T13:44:55Z</time>
      </trkpt>
      <trkpt lat="47.98394" lon="6.99917">
        <ele>1127.1</ele>
        <time>2026-03-21T13:45:00Z</time>
      </trkpt>
      <trkpt lat="47.98393" lon="6.99911">
        <ele>1127.7</ele>
        <time>2026-03-21T13:45:05Z</time>
      </trkpt>
      <trkpt lat="47.98391" lon="6.99905">
        <ele>1127.9</ele>
        <time>2026-03-21T13:45:10Z</time>
      </trkpt>
      <trkpt lat="47.98389" lon="6.99898">
        <ele>1128.3</ele>
        <time>2026-03-21T13:45:15Z</time>
      </trkpt>
      <trkpt lat="47.98387" lon="6.99894">
        <ele>1128.1</ele>
        <time>2026-03-21T13:45:20Z</time>
      </trkpt>
      <trkpt lat="47.98386" lon="6.99889">
        <ele>1128.6</ele>
        <time>2026-03-21T13:45:25Z</time>
      </trkpt>
      <trkpt lat="47.98385" lon="6.99884">
        <ele>1129.1</ele>
        <time>2026-03-21T13:45:30Z</time>
      </trkpt>
      <trkpt lat="47.98384" lon="6.99877">
        <ele>1129.9</ele>
        <time>2026-03-21T13:45:35Z</time>
      </trkpt>
      <trkpt lat="47.98382" lon="6.99871">
        <ele>1130.1</ele>
        <time>2026-03-21T13:45:40Z</time>
      </trkpt>
      <trkpt lat="47.98381" lon="6.99864">
        <ele>1131</ele>
        <time>2026-03-21T13:45:45Z</time>
      </trkpt>
      <trkpt lat="47.98379" lon="6.99858">
        <ele>1131.2</ele>
        <time>2026-03-21T13:45:50Z</time>
      </trkpt>
      <trkpt lat="47.98378" lon="6.99851">
        <ele>1132</ele>
        <time>2026-03-21T13:45:55Z</time>
      </trkpt>
      <trkpt lat="47.98378" lon="6.99845">
        <ele>1133.2</ele>
        <time>2026-03-21T13:46:00Z</time>
      </trkpt>
      <trkpt lat="47.98377" lon="6.99838">
        <ele>1134.1</ele>
        <time>2026-03-21T13:46:05Z</time>
      </trkpt>
      <trkpt lat="47.98375" lon="6.99832">
        <ele>1134.3</ele>
        <time>2026-03-21T13:46:10Z</time>
      </trkpt>
      <trkpt lat="47.98373" lon="6.99826">
        <ele>1134.8</ele>
        <time>2026-03-21T13:46:15Z</time>
      </trkpt>
      <trkpt lat="47.98371" lon="6.9982">
        <ele>1135.4</ele>
        <time>2026-03-21T13:46:20Z</time>
      </trkpt>
      <trkpt lat="47.98369" lon="6.99813">
        <ele>1136.2</ele>
        <time>2026-03-21T13:46:25Z</time>
      </trkpt>
      <trkpt lat="47.98367" lon="6.99807">
        <ele>1136.8</ele>
        <time>2026-03-21T13:46:30Z</time>
      </trkpt>
      <trkpt lat="47.98366" lon="6.998">
        <ele>1138.1</ele>
        <time>2026-03-21T13:46:35Z</time>
      </trkpt>
      <trkpt lat="47.98364" lon="6.99795">
        <ele>1138.5</ele>
        <time>2026-03-21T13:46:40Z</time>
      </trkpt>
      <trkpt lat="47.98362" lon="6.99788">
        <ele>1139.5</ele>
        <time>2026-03-21T13:46:45Z</time>
      </trkpt>
      <trkpt lat="47.9836" lon="6.99783">
        <ele>1140</ele>
        <time>2026-03-21T13:46:50Z</time>
      </trkpt>
      <trkpt lat="47.98357" lon="6.99778">
        <ele>1140.1</ele>
        <time>2026-03-21T13:46:55Z</time>
      </trkpt>
      <trkpt lat="47.98357" lon="6.99773">
        <ele>1141.4</ele>
        <time>2026-03-21T13:47:00Z</time>
      </trkpt>
      <trkpt lat="47.98357" lon="6.99767">
        <ele>1143</ele>
        <time>2026-03-21T13:47:05Z</time>
      </trkpt>
      <trkpt lat="47.98357" lon="6.99762">
        <ele>1144.3</ele>
        <time>2026-03-21T13:47:10Z</time>
      </trkpt>
      <trkpt lat="47.98356" lon="6.99758">
        <ele>1145</ele>
        <time>2026-03-21T13:47:15Z</time>
      </trkpt>
      <trkpt lat="47.98355" lon="6.99753">
        <ele>1146</ele>
        <time>2026-03-21T13:47:20Z</time>
      </trkpt>
      <trkpt lat="47.98356" lon="6.99748">
        <ele>1147.7</ele>
        <time>2026-03-21T13:47:25Z</time>
      </trkpt>
      <trkpt lat="47.98356" lon="6.99743">
        <ele>1148.9</ele>
        <time>2026-03-21T13:47:30Z</time>
      </trkpt>
      <trkpt lat="47.98356" lon="6.99739">
        <ele>1149.9</ele>
        <time>2026-03-21T13:47:35Z</time>
      </trkpt>
      <trkpt lat="47.98355" lon="6.99735">
        <ele>1150.6</ele>
        <time>2026-03-21T13:47:40Z</time>
      </trkpt>
      <trkpt lat="47.98353" lon="6.99731">
        <ele>1151</ele>
        <time>2026-03-21T13:47:45Z</time>
      </trkpt>
      <trkpt lat="47.98354" lon="6.99727">
        <ele>1152.3</ele>
        <time>2026-03-21T13:47:50Z</time>
      </trkpt>
      <trkpt lat="47.98354" lon="6.99723">
        <ele>1153.3</ele>
        <time>2026-03-21T13:47:55Z</time>
      </trkpt>
      <trkpt lat="47.98354" lon="6.9972">
        <ele>1154.1</ele>
        <time>2026-03-21T13:48:00Z</time>
      </trkpt>
      <trkpt lat="47.98355" lon="6.99719">
        <ele>1154.6</ele>
        <time>2026-03-21T13:48:05Z</time>
      </trkpt>
      <trkpt lat="47.98355" lon="6.99719">
        <ele>1154.6</ele>
        <time>2026-03-21T13:48:10Z</time>
      </trkpt>
      <trkpt lat="47.98357" lon="6.99714">
        <ele>1156.4</ele>
        <time>2026-03-21T13:48:15Z</time>
      </trkpt>
      <trkpt lat="47.98357" lon="6.99707">
        <ele>1158.2</ele>
        <time>2026-03-21T13:48:20Z</time>
      </trkpt>
      <trkpt lat="47.98357" lon="6.99698">
        <ele>1160.4</ele>
        <time>2026-03-21T13:48:25Z</time>
      </trkpt>
      <trkpt lat="47.98357" lon="6.9969">
        <ele>1162.4</ele>
        <time>2026-03-21T13:48:30Z</time>
      </trkpt>
      <trkpt lat="47.98357" lon="6.99681">
        <ele>1164.6</ele>
        <time>2026-03-21T13:48:35Z</time>
      </trkpt>
      <trkpt lat="47.98359" lon="6.99672">
        <ele>1167.1</ele>
        <time>2026-03-21T13:48:40Z</time>
      </trkpt>
      <trkpt lat="47.98361" lon="6.99664">
        <ele>1168.9</ele>
        <time>2026-03-21T13:48:45Z</time>
      </trkpt>
      <trkpt lat="47.98363" lon="6.99655">
        <ele>1170</ele>
        <time>2026-03-21T13:48:50Z</time>
      </trkpt>
      <trkpt lat="47.98361" lon="6.99646">
        <ele>1170.6</ele>
        <time>2026-03-21T13:48:55Z</time>
      </trkpt>
      <trkpt lat="47.98359" lon="6.99636">
        <ele>1171.4</ele>
        <time>2026-03-21T13:49:00Z</time>
      </trkpt>
      <trkpt lat="47.98357" lon="6.99626">
        <ele>1172.3</ele>
        <time>2026-03-21T13:49:05Z</time>
      </trkpt>
      <trkpt lat="47.98355" lon="6.99619">
        <ele>1172.9</ele>
        <time>2026-03-21T13:49:10Z</time>
      </trkpt>
      <trkpt lat="47.98353" lon="6.9961">
        <ele>1173.8</ele>
        <time>2026-03-21T13:49:15Z</time>
      </trkpt>
      <trkpt lat="47.98351" lon="6.99602">
        <ele>1174.7</ele>
        <time>2026-03-21T13:49:20Z</time>
      </trkpt>
      <trkpt lat="47.98346" lon="6.99595">
        <ele>1175.4</ele>
        <time>2026-03-21T13:49:25Z</time>
      </trkpt>
      <trkpt lat="47.98341" lon="6.9959">
        <ele>1176</ele>
        <time>2026-03-21T13:49:30Z</time>
      </trkpt>
      <trkpt lat="47.98336" lon="6.99585">
        <ele>1176.7</ele>
        <time>2026-03-21T13:49:35Z</time>
      </trkpt>
      <trkpt lat="47.9833" lon="6.99582">
        <ele>1176.9</ele>
        <time>2026-03-21T13:49:40Z</time>
      </trkpt>
      <trkpt lat="47.98324" lon="6.99578">
        <ele>1176.7</ele>
        <time>2026-03-21T13:49:45Z</time>
      </trkpt>
      <trkpt lat="47.98319" lon="6.99573">
        <ele>1176.6</ele>
        <time>2026-03-21T13:49:50Z</time>
      </trkpt>
      <trkpt lat="47.98313" lon="6.9957">
        <ele>1176.5</ele>
        <time>2026-03-21T13:49:55Z</time>
      </trkpt>
      <trkpt lat="47.98306" lon="6.99564">
        <ele>1176.5</ele>
        <time>2026-03-21T13:50:00Z</time>
      </trkpt>
      <trkpt lat="47.983" lon="6.99557">
        <ele>1176.7</ele>
        <time>2026-03-21T13:50:05Z</time>
      </trkpt>
      <trkpt lat="47.98296" lon="6.99552">
        <ele>1176.9</ele>
        <time>2026-03-21T13:50:10Z</time>
      </trkpt>
      <trkpt lat="47.98291" lon="6.99545">
        <ele>1177.3</ele>
        <time>2026-03-21T13:50:15Z</time>
      </trkpt>
      <trkpt lat="47.98286" lon="6.99541">
        <ele>1177.5</ele>
        <time>2026-03-21T13:50:20Z</time>
      </trkpt>
      <trkpt lat="47.9828" lon="6.99534">
        <ele>1178.1</ele>
        <time>2026-03-21T13:50:25Z</time>
      </trkpt>
      <trkpt lat="47.98275" lon="6.99528">
        <ele>1178.6</ele>
        <time>2026-03-21T13:50:30Z</time>
      </trkpt>
      <trkpt lat="47.98269" lon="6.99523">
        <ele>1179.1</ele>
        <time>2026-03-21T13:50:35Z</time>
      </trkpt>
      <trkpt lat="47.98264" lon="6.99518">
        <ele>1179.7</ele>
        <time>2026-03-21T13:50:40Z</time>
      </trkpt>
      <trkpt lat="47.98258" lon="6.99512">
        <ele>1180.4</ele>
        <time>2026-03-21T13:50:45Z</time>
      </trkpt>
      <trkpt lat="47.98253" lon="6.99506">
        <ele>1181.2</ele>
        <time>2026-03-21T13:50:50Z</time>
      </trkpt>
      <trkpt lat="47.98249" lon="6.99501">
        <ele>1181.9</ele>
        <time>2026-03-21T13:50:55Z</time>
      </trkpt>
      <trkpt lat="47.98241" lon="6.99495">
        <ele>1182.2</ele>
        <time>2026-03-21T13:51:00Z</time>
      </trkpt>
      <trkpt lat="47.98237" lon="6.99488">
        <ele>1182</ele>
        <time>2026-03-21T13:51:05Z</time>
      </trkpt>
      <trkpt lat="47.98231" lon="6.99482">
        <ele>1182.1</ele>
        <time>2026-03-21T13:51:10Z</time>
      </trkpt>
      <trkpt lat="47.98226" lon="6.99477">
        <ele>1182.2</ele>
        <time>2026-03-21T13:51:15Z</time>
      </trkpt>
      <trkpt lat="47.98221" lon="6.99471">
        <ele>1182.4</ele>
        <time>2026-03-21T13:51:20Z</time>
      </trkpt>
      <trkpt lat="47.98215" lon="6.99465">
        <ele>1182.6</ele>
        <time>2026-03-21T13:51:25Z</time>
      </trkpt>
      <trkpt lat="47.98211" lon="6.99458">
        <ele>1182.8</ele>
        <time>2026-03-21T13:51:30Z</time>
      </trkpt>
      <trkpt lat="47.98206" lon="6.99451">
        <ele>1183</ele>
        <time>2026-03-21T13:51:35Z</time>
      </trkpt>
      <trkpt lat="47.98201" lon="6.99445">
        <ele>1183.4</ele>
        <time>2026-03-21T13:51:40Z</time>
      </trkpt>
      <trkpt lat="47.98196" lon="6.9944">
        <ele>1183.8</ele>
        <time>2026-03-21T13:51:45Z</time>
      </trkpt>
      <trkpt lat="47.98191" lon="6.99435">
        <ele>1184.2</ele>
        <time>2026-03-21T13:51:50Z</time>
      </trkpt>
      <trkpt lat="47.98186" lon="6.99429">
        <ele>1184.7</ele>
        <time>2026-03-21T13:51:55Z</time>
      </trkpt>
      <trkpt lat="47.9818" lon="6.99424">
        <ele>1185.4</ele>
        <time>2026-03-21T13:52:00Z</time>
      </trkpt>
      <trkpt lat="47.98175" lon="6.99416">
        <ele>1185.9</ele>
        <time>2026-03-21T13:52:05Z</time>
      </trkpt>
      <trkpt lat="47.98171" lon="6.99407">
        <ele>1185.5</ele>
        <time>2026-03-21T13:52:10Z</time>
      </trkpt>
      <trkpt lat="47.98167" lon="6.99399">
        <ele>1185.3</ele>
        <time>2026-03-21T13:52:15Z</time>
      </trkpt>
      <trkpt lat="47.98163" lon="6.99392">
        <ele>1185.2</ele>
        <time>2026-03-21T13:52:20Z</time>
      </trkpt>
      <trkpt lat="47.98159" lon="6.99383">
        <ele>1185.1</ele>
        <time>2026-03-21T13:52:25Z</time>
      </trkpt>
      <trkpt lat="47.98154" lon="6.99375">
        <ele>1185.3</ele>
        <time>2026-03-21T13:52:30Z</time>
      </trkpt>
      <trkpt lat="47.98149" lon="6.99365">
        <ele>1185.4</ele>
        <time>2026-03-21T13:52:35Z</time>
      </trkpt>
      <trkpt lat="47.98145" lon="6.99358">
        <ele>1185.6</ele>
        <time>2026-03-21T13:52:40Z</time>
      </trkpt>
      <trkpt lat="47.98141" lon="6.99351">
        <ele>1185.8</ele>
        <time>2026-03-21T13:52:45Z</time>
      </trkpt>
      <trkpt lat="47.98137" lon="6.99341">
        <ele>1185.9</ele>
        <time>2026-03-21T13:52:50Z</time>
      </trkpt>
      <trkpt lat="47.98133" lon="6.99334">
        <ele>1186.3</ele>
        <time>2026-03-21T13:52:55Z</time>
      </trkpt>
      <trkpt lat="47.98128" lon="6.99327">
        <ele>1186.9</ele>
        <time>2026-03-21T13:53:00Z</time>
      </trkpt>
      <trkpt lat="47.98123" lon="6.99319">
        <ele>1187.4</ele>
        <time>2026-03-21T13:53:05Z</time>
      </trkpt>
      <trkpt lat="47.98119" lon="6.99312">
        <ele>1187.9</ele>
        <time>2026-03-21T13:53:10Z</time>
      </trkpt>
      <trkpt lat="47.98115" lon="6.99306">
        <ele>1188.4</ele>
        <time>2026-03-21T13:53:15Z</time>
      </trkpt>
      <trkpt lat="47.98111" lon="6.99298">
        <ele>1188.9</ele>
        <time>2026-03-21T13:53:20Z</time>
      </trkpt>
      <trkpt lat="47.98111" lon="6.99294">
        <ele>1188.7</ele>
        <time>2026-03-21T13:53:25Z</time>
      </trkpt>
      <trkpt lat="47.98105" lon="6.9929">
        <ele>1189.9</ele>
        <time>2026-03-21T13:53:30Z</time>
      </trkpt>
      <trkpt lat="47.98101" lon="6.99285">
        <ele>1190.7</ele>
        <time>2026-03-21T13:53:35Z</time>
      </trkpt>
      <trkpt lat="47.98096" lon="6.99281">
        <ele>1191.8</ele>
        <time>2026-03-21T13:53:40Z</time>
      </trkpt>
      <trkpt lat="47.98093" lon="6.99278">
        <ele>1192.5</ele>
        <time>2026-03-21T13:53:45Z</time>
      </trkpt>
      <trkpt lat="47.98089" lon="6.99274">
        <ele>1193.3</ele>
        <time>2026-03-21T13:53:50Z</time>
      </trkpt>
      <trkpt lat="47.98085" lon="6.99269">
        <ele>1194.2</ele>
        <time>2026-03-21T13:53:55Z</time>
      </trkpt>
      <trkpt lat="47.98082" lon="6.99264">
        <ele>1194.8</ele>
        <time>2026-03-21T13:54:00Z</time>
      </trkpt>
      <trkpt lat="47.98078" lon="6.99261">
        <ele>1195.7</ele>
        <time>2026-03-21T13:54:05Z</time>
      </trkpt>
      <trkpt lat="47.98074" lon="6.99256">
        <ele>1196.5</ele>
        <time>2026-03-21T13:54:10Z</time>
      </trkpt>
      <trkpt lat="47.98072" lon="6.99252">
        <ele>1196.9</ele>
        <time>2026-03-21T13:54:15Z</time>
      </trkpt>
      <trkpt lat="47.9807" lon="6.99248">
        <ele>1197.2</ele>
        <time>2026-03-21T13:54:20Z</time>
      </trkpt>
      <trkpt lat="47.98066" lon="6.99245">
        <ele>1198</ele>
        <time>2026-03-21T13:54:25Z</time>
      </trkpt>
      <trkpt lat="47.98063" lon="6.99241">
        <ele>1198.4</ele>
        <time>2026-03-21T13:54:30Z</time>
      </trkpt>
      <trkpt lat="47.9806" lon="6.99236">
        <ele>1198.8</ele>
        <time>2026-03-21T13:54:35Z</time>
      </trkpt>
      <trkpt lat="47.98057" lon="6.99231">
        <ele>1199.1</ele>
        <time>2026-03-21T13:54:40Z</time>
      </trkpt>
      <trkpt lat="47.98054" lon="6.99225">
        <ele>1199.4</ele>
        <time>2026-03-21T13:54:45Z</time>
      </trkpt>
      <trkpt lat="47.98052" lon="6.9922">
        <ele>1199.5</ele>
        <time>2026-03-21T13:54:50Z</time>
      </trkpt>
      <trkpt lat="47.9805" lon="6.99215">
        <ele>1199.6</ele>
        <time>2026-03-21T13:54:55Z</time>
      </trkpt>
      <trkpt lat="47.98046" lon="6.99211">
        <ele>1200.3</ele>
        <time>2026-03-21T13:55:00Z</time>
      </trkpt>
      <trkpt lat="47.98042" lon="6.99209">
        <ele>1201.2</ele>
        <time>2026-03-21T13:55:05Z</time>
      </trkpt>
      <trkpt lat="47.98039" lon="6.99205">
        <ele>1201.7</ele>
        <time>2026-03-21T13:55:10Z</time>
      </trkpt>
      <trkpt lat="47.98036" lon="6.99202">
        <ele>1202.2</ele>
        <time>2026-03-21T13:55:15Z</time>
      </trkpt>
      <trkpt lat="47.98033" lon="6.99196">
        <ele>1202.5</ele>
        <time>2026-03-21T13:55:20Z</time>
      </trkpt>
      <trkpt lat="47.9803" lon="6.99191">
        <ele>1202.9</ele>
        <time>2026-03-21T13:55:25Z</time>
      </trkpt>
      <trkpt lat="47.98026" lon="6.99187">
        <ele>1203.7</ele>
        <time>2026-03-21T13:55:30Z</time>
      </trkpt>
      <trkpt lat="47.98022" lon="6.99182">
        <ele>1204.3</ele>
        <time>2026-03-21T13:55:35Z</time>
      </trkpt>
      <trkpt lat="47.98018" lon="6.99178">
        <ele>1205.1</ele>
        <time>2026-03-21T13:55:40Z</time>
      </trkpt>
      <trkpt lat="47.98015" lon="6.99173">
        <ele>1205.5</ele>
        <time>2026-03-21T13:55:45Z</time>
      </trkpt>
      <trkpt lat="47.98011" lon="6.99171">
        <ele>1206.4</ele>
        <time>2026-03-21T13:55:50Z</time>
      </trkpt>
      <trkpt lat="47.98007" lon="6.99166">
        <ele>1207.1</ele>
        <time>2026-03-21T13:55:55Z</time>
      </trkpt>
      <trkpt lat="47.98004" lon="6.99161">
        <ele>1207.1</ele>
        <time>2026-03-21T13:56:00Z</time>
      </trkpt>
      <trkpt lat="47.98001" lon="6.99157">
        <ele>1207.3</ele>
        <time>2026-03-21T13:56:05Z</time>
      </trkpt>
      <trkpt lat="47.98" lon="6.99152">
        <ele>1206.9</ele>
        <time>2026-03-21T13:56:10Z</time>
      </trkpt>
      <trkpt lat="47.97998" lon="6.99145">
        <ele>1206.3</ele>
        <time>2026-03-21T13:56:15Z</time>
      </trkpt>
      <trkpt lat="47.97995" lon="6.99137">
        <ele>1205.8</ele>
        <time>2026-03-21T13:56:20Z</time>
      </trkpt>
      <trkpt lat="47.97991" lon="6.99131">
        <ele>1205.9</ele>
        <time>2026-03-21T13:56:25Z</time>
      </trkpt>
      <trkpt lat="47.97988" lon="6.99125">
        <ele>1205.7</ele>
        <time>2026-03-21T13:56:30Z</time>
      </trkpt>
      <trkpt lat="47.97986" lon="6.99119">
        <ele>1205.2</ele>
        <time>2026-03-21T13:56:35Z</time>
      </trkpt>
      <trkpt lat="47.97984" lon="6.99115">
        <ele>1205.1</ele>
        <time>2026-03-21T13:56:40Z</time>
      </trkpt>
      <trkpt lat="47.97982" lon="6.9911">
        <ele>1204.8</ele>
        <time>2026-03-21T13:56:45Z</time>
      </trkpt>
      <trkpt lat="47.9798" lon="6.99105">
        <ele>1204.5</ele>
        <time>2026-03-21T13:56:50Z</time>
      </trkpt>
      <trkpt lat="47.97977" lon="6.99099">
        <ele>1204.3</ele>
        <time>2026-03-21T13:56:55Z</time>
      </trkpt>
      <trkpt lat="47.97976" lon="6.99096">
        <ele>1204.1</ele>
        <time>2026-03-21T13:57:00Z</time>
      </trkpt>
      <trkpt lat="47.97974" lon="6.99091">
        <ele>1203.7</ele>
        <time>2026-03-21T13:57:05Z</time>
      </trkpt>
      <trkpt lat="47.97973" lon="6.99088">
        <ele>1203.5</ele>
        <time>2026-03-21T13:57:10Z</time>
      </trkpt>
      <trkpt lat="47.97971" lon="6.99085">
        <ele>1203.5</ele>
        <time>2026-03-21T13:57:15Z</time>
      </trkpt>
      <trkpt lat="47.97968" lon="6.9908">
        <ele>1203.3</ele>
        <time>2026-03-21T13:57:20Z</time>
      </trkpt>
      <trkpt lat="47.97966" lon="6.99074">
        <ele>1202.5</ele>
        <time>2026-03-21T13:57:25Z</time>
      </trkpt>
      <trkpt lat="47.97963" lon="6.99068">
        <ele>1202</ele>
        <time>2026-03-21T13:57:30Z</time>
      </trkpt>
      <trkpt lat="47.9796" lon="6.9906">
        <ele>1201.1</ele>
        <time>2026-03-21T13:57:35Z</time>
      </trkpt>
      <trkpt lat="47.97959" lon="6.99059">
        <ele>1201.2</ele>
        <time>2026-03-21T13:57:40Z</time>
      </trkpt>
      <trkpt lat="47.97954" lon="6.99051">
        <ele>1200.8</ele>
        <time>2026-03-21T13:57:45Z</time>
      </trkpt>
      <trkpt lat="47.97949" lon="6.99041">
        <ele>1200.1</ele>
        <time>2026-03-21T13:57:50Z</time>
      </trkpt>
      <trkpt lat="47.97946" lon="6.99031">
        <ele>1199</ele>
        <time>2026-03-21T13:57:55Z</time>
      </trkpt>
      <trkpt lat="47.97941" lon="6.99025">
        <ele>1199.1</ele>
        <time>2026-03-21T13:58:00Z</time>
      </trkpt>
      <trkpt lat="47.97937" lon="6.99021">
        <ele>1199.4</ele>
        <time>2026-03-21T13:58:05Z</time>
      </trkpt>
      <trkpt lat="47.97933" lon="6.99016">
        <ele>1199.5</ele>
        <time>2026-03-21T13:58:10Z</time>
      </trkpt>
      <trkpt lat="47.97929" lon="6.99013">
        <ele>1200</ele>
        <time>2026-03-21T13:58:15Z</time>
      </trkpt>
      <trkpt lat="47.97924" lon="6.99007">
        <ele>1200.3</ele>
        <time>2026-03-21T13:58:20Z</time>
      </trkpt>
      <trkpt lat="47.97919" lon="6.99001">
        <ele>1200.6</ele>
        <time>2026-03-21T13:58:25Z</time>
      </trkpt>
      <trkpt lat="47.97914" lon="6.98995">
        <ele>1201.2</ele>
        <time>2026-03-21T13:58:30Z</time>
      </trkpt>
      <trkpt lat="47.97909" lon="6.98988">
        <ele>1201.8</ele>
        <time>2026-03-21T13:58:35Z</time>
      </trkpt>
      <trkpt lat="47.97904" lon="6.98984">
        <ele>1203</ele>
        <time>2026-03-21T13:58:40Z</time>
      </trkpt>
      <trkpt lat="47.97898" lon="6.98978">
        <ele>1204.2</ele>
        <time>2026-03-21T13:58:45Z</time>
      </trkpt>
      <trkpt lat="47.97893" lon="6.98972">
        <ele>1205.2</ele>
        <time>2026-03-21T13:58:50Z</time>
      </trkpt>
      <trkpt lat="47.97889" lon="6.98968">
        <ele>1206.1</ele>
        <time>2026-03-21T13:58:55Z</time>
      </trkpt>
      <trkpt lat="47.97884" lon="6.98962">
        <ele>1207.2</ele>
        <time>2026-03-21T13:59:00Z</time>
      </trkpt>
      <trkpt lat="47.9788" lon="6.98959">
        <ele>1208.3</ele>
        <time>2026-03-21T13:59:05Z</time>
      </trkpt>
      <trkpt lat="47.97876" lon="6.98955">
        <ele>1209.3</ele>
        <time>2026-03-21T13:59:10Z</time>
      </trkpt>
      <trkpt lat="47.97871" lon="6.98953">
        <ele>1210.9</ele>
        <time>2026-03-21T13:59:15Z</time>
      </trkpt>
      <trkpt lat="47.97866" lon="6.98947">
        <ele>1212.1</ele>
        <time>2026-03-21T13:59:20Z</time>
      </trkpt>
      <trkpt lat="47.97859" lon="6.98943">
        <ele>1214.3</ele>
        <time>2026-03-21T13:59:25Z</time>
      </trkpt>
      <trkpt lat="47.97853" lon="6.98938">
        <ele>1216.1</ele>
        <time>2026-03-21T13:59:30Z</time>
      </trkpt>
      <trkpt lat="47.97848" lon="6.98934">
        <ele>1217.7</ele>
        <time>2026-03-21T13:59:35Z</time>
      </trkpt>
      <trkpt lat="47.97845" lon="6.98926">
        <ele>1218.1</ele>
        <time>2026-03-21T13:59:40Z</time>
      </trkpt>
      <trkpt lat="47.97842" lon="6.98917">
        <ele>1218.6</ele>
        <time>2026-03-21T13:59:45Z</time>
      </trkpt>
      <trkpt lat="47.97843" lon="6.98907">
        <ele>1218.2</ele>
        <time>2026-03-21T13:59:50Z</time>
      </trkpt>
      <trkpt lat="47.97849" lon="6.98899">
        <ele>1215.9</ele>
        <time>2026-03-21T13:59:55Z</time>
      </trkpt>
      <trkpt lat="47.97855" lon="6.98894">
        <ele>1213.7</ele>
        <time>2026-03-21T14:00:00Z</time>
      </trkpt>
      <trkpt lat="47.97858" lon="6.9889">
        <ele>1212.7</ele>
        <time>2026-03-21T14:00:05Z</time>
      </trkpt>
      <trkpt lat="47.97862" lon="6.98885">
        <ele>1211.3</ele>
        <time>2026-03-21T14:00:10Z</time>
      </trkpt>
      <trkpt lat="47.97865" lon="6.98878">
        <ele>1210.4</ele>
        <time>2026-03-21T14:00:15Z</time>
      </trkpt>
      <trkpt lat="47.97868" lon="6.98871">
        <ele>1209.5</ele>
        <time>2026-03-21T14:00:20Z</time>
      </trkpt>
      <trkpt lat="47.9787" lon="6.98865">
        <ele>1209</ele>
        <time>2026-03-21T14:00:25Z</time>
      </trkpt>
      <trkpt lat="47.97873" lon="6.98861">
        <ele>1208.2</ele>
        <time>2026-03-21T14:00:30Z</time>
      </trkpt>
      <trkpt lat="47.97874" lon="6.98858">
        <ele>1207.9</ele>
        <time>2026-03-21T14:00:35Z</time>
      </trkpt>
      <trkpt lat="47.97876" lon="6.98854">
        <ele>1207.4</ele>
        <time>2026-03-21T14:00:40Z</time>
      </trkpt>
      <trkpt lat="47.97878" lon="6.98851">
        <ele>1206.9</ele>
        <time>2026-03-21T14:00:45Z</time>
      </trkpt>
      <trkpt lat="47.97881" lon="6.98848">
        <ele>1206.1</ele>
        <time>2026-03-21T14:00:50Z</time>
      </trkpt>
      <trkpt lat="47.97884" lon="6.98845">
        <ele>1205.3</ele>
        <time>2026-03-21T14:00:55Z</time>
      </trkpt>
      <trkpt lat="47.97885" lon="6.98844">
        <ele>1205</ele>
        <time>2026-03-21T14:01:00Z</time>
      </trkpt>
      <trkpt lat="47.97885" lon="6.98844">
        <ele>1205</ele>
        <time>2026-03-21T14:01:05Z</time>
      </trkpt>
      <trkpt lat="47.97885" lon="6.98844">
        <ele>1205</ele>
        <time>2026-03-21T14:01:10Z</time>
      </trkpt>
      <trkpt lat="47.97885" lon="6.98844">
        <ele>1205</ele>
        <time>2026-03-21T14:01:15Z</time>
      </trkpt>
      <trkpt lat="47.97885" lon="6.98844">
        <ele>1205</ele>
        <time>2026-03-21T14:01:20Z</time>
      </trkpt>
      <trkpt lat="47.97885" lon="6.98844">
        <ele>1205</ele>
        <time>2026-03-21T14:01:25Z</time>
      </trkpt>
      <trkpt lat="47.97885" lon="6.98844">
        <ele>1205</ele>
        <time>2026-03-21T14:01:30Z</time>
      </trkpt>
      <trkpt lat="47.97889" lon="6.9883">
        <ele>1204.5</ele>
        <time>2026-03-21T14:01:35Z</time>
      </trkpt>
      <trkpt lat="47.97889" lon="6.9883">
        <ele>1204.5</ele>
        <time>2026-03-21T14:01:40Z</time>
      </trkpt>
      <trkpt lat="47.97889" lon="6.9883">
        <ele>1204.5</ele>
        <time>2026-03-21T14:01:45Z</time>
      </trkpt>
      <trkpt lat="47.97894" lon="6.98822">
        <ele>1203.5</ele>
        <time>2026-03-21T14:01:50Z</time>
      </trkpt>
      <trkpt lat="47.97897" lon="6.98818">
        <ele>1202.8</ele>
        <time>2026-03-21T14:01:55Z</time>
      </trkpt>
      <trkpt lat="47.97899" lon="6.98814">
        <ele>1202.5</ele>
        <time>2026-03-21T14:02:00Z</time>
      </trkpt>
      <trkpt lat="47.979" lon="6.9881">
        <ele>1202.5</ele>
        <time>2026-03-21T14:02:05Z</time>
      </trkpt>
      <trkpt lat="47.97902" lon="6.98806">
        <ele>1202.2</ele>
        <time>2026-03-21T14:02:10Z</time>
      </trkpt>
      <trkpt lat="47.97903" lon="6.98804">
        <ele>1202.1</ele>
        <time>2026-03-21T14:02:15Z</time>
      </trkpt>
      <trkpt lat="47.97906" lon="6.98801">
        <ele>1201.5</ele>
        <time>2026-03-21T14:02:20Z</time>
      </trkpt>
      <trkpt lat="47.97908" lon="6.98799">
        <ele>1201.1</ele>
        <time>2026-03-21T14:02:25Z</time>
      </trkpt>
      <trkpt lat="47.9791" lon="6.98796">
        <ele>1200.8</ele>
        <time>2026-03-21T14:02:30Z</time>
      </trkpt>
      <trkpt lat="47.97911" lon="6.98794">
        <ele>1200.7</ele>
        <time>2026-03-21T14:02:35Z</time>
      </trkpt>
      <trkpt lat="47.97915" lon="6.9879">
        <ele>1200.1</ele>
        <time>2026-03-21T14:02:40Z</time>
      </trkpt>
      <trkpt lat="47.97916" lon="6.98788">
        <ele>1200</ele>
        <time>2026-03-21T14:02:45Z</time>
      </trkpt>
      <trkpt lat="47.97919" lon="6.98785">
        <ele>1199.3</ele>
        <time>2026-03-21T14:02:50Z</time>
      </trkpt>
      <trkpt lat="47.97922" lon="6.98783">
        <ele>1198.6</ele>
        <time>2026-03-21T14:02:55Z</time>
      </trkpt>
      <trkpt lat="47.97926" lon="6.98779">
        <ele>1197.7</ele>
        <time>2026-03-21T14:03:00Z</time>
      </trkpt>
      <trkpt lat="47.9793" lon="6.98774">
        <ele>1197</ele>
        <time>2026-03-21T14:03:05Z</time>
      </trkpt>
      <trkpt lat="47.97932" lon="6.98771">
        <ele>1196.8</ele>
        <time>2026-03-21T14:03:10Z</time>
      </trkpt>
      <trkpt lat="47.97933" lon="6.98768">
        <ele>1196.8</ele>
        <time>2026-03-21T14:03:15Z</time>
      </trkpt>
      <trkpt lat="47.97934" lon="6.98766">
        <ele>1196.7</ele>
        <time>2026-03-21T14:03:20Z</time>
      </trkpt>
      <trkpt lat="47.97935" lon="6.98764">
        <ele>1196.7</ele>
        <time>2026-03-21T14:03:25Z</time>
      </trkpt>
      <trkpt lat="47.97934" lon="6.98763">
        <ele>1197</ele>
        <time>2026-03-21T14:03:30Z</time>
      </trkpt>
      <trkpt lat="47.97934" lon="6.98763">
        <ele>1197</ele>
        <time>2026-03-21T14:03:35Z</time>
      </trkpt>
      <trkpt lat="47.97934" lon="6.98763">
        <ele>1197</ele>
        <time>2026-03-21T14:03:40Z</time>
      </trkpt>
      <trkpt lat="47.97934" lon="6.98763">
        <ele>1197</ele>
        <time>2026-03-21T14:03:45Z</time>
      </trkpt>
      <trkpt lat="47.97934" lon="6.98763">
        <ele>1197</ele>
        <time>2026-03-21T14:03:50Z</time>
      </trkpt>
      <trkpt lat="47.97935" lon="6.98752">
        <ele>1197.9</ele>
        <time>2026-03-21T14:03:55Z</time>
      </trkpt>
      <trkpt lat="47.97936" lon="6.98749">
        <ele>1197.9</ele>
        <time>2026-03-21T14:04:00Z</time>
      </trkpt>
      <trkpt lat="47.97937" lon="6.98746">
        <ele>1197.7</ele>
        <time>2026-03-21T14:04:05Z</time>
      </trkpt>
      <trkpt lat="47.97939" lon="6.98743">
        <ele>1197.3</ele>
        <time>2026-03-21T14:04:10Z</time>
      </trkpt>
      <trkpt lat="47.9794" lon="6.9874">
        <ele>1197.2</ele>
        <time>2026-03-21T14:04:15Z</time>
      </trkpt>
      <trkpt lat="47.97943" lon="6.98738">
        <ele>1196.5</ele>
        <time>2026-03-21T14:04:20Z</time>
      </trkpt>
      <trkpt lat="47.97944" lon="6.98735">
        <ele>1196.4</ele>
        <time>2026-03-21T14:04:25Z</time>
      </trkpt>
      <trkpt lat="47.97947" lon="6.98733">
        <ele>1195.7</ele>
        <time>2026-03-21T14:04:30Z</time>
      </trkpt>
      <trkpt lat="47.97948" lon="6.9873">
        <ele>1195.6</ele>
        <time>2026-03-21T14:04:35Z</time>
      </trkpt>
      <trkpt lat="47.97951" lon="6.98724">
        <ele>1195.2</ele>
        <time>2026-03-21T14:04:40Z</time>
      </trkpt>
      <trkpt lat="47.97954" lon="6.9872">
        <ele>1194.8</ele>
        <time>2026-03-21T14:04:45Z</time>
      </trkpt>
      <trkpt lat="47.97957" lon="6.98715">
        <ele>1194.4</ele>
        <time>2026-03-21T14:04:50Z</time>
      </trkpt>
      <trkpt lat="47.9796" lon="6.98711">
        <ele>1194</ele>
        <time>2026-03-21T14:04:55Z</time>
      </trkpt>
      <trkpt lat="47.97962" lon="6.98705">
        <ele>1194</ele>
        <time>2026-03-21T14:05:00Z</time>
      </trkpt>
      <trkpt lat="47.97965" lon="6.98701">
        <ele>1193.7</ele>
        <time>2026-03-21T14:05:05Z</time>
      </trkpt>
      <trkpt lat="47.97967" lon="6.98696">
        <ele>1193.6</ele>
        <time>2026-03-21T14:05:10Z</time>
      </trkpt>
      <trkpt lat="47.97967" lon="6.98691">
        <ele>1194</ele>
        <time>2026-03-21T14:05:15Z</time>
      </trkpt>
      <trkpt lat="47.97971" lon="6.98688">
        <ele>1193.5</ele>
        <time>2026-03-21T14:05:20Z</time>
      </trkpt>
      <trkpt lat="47.97973" lon="6.98684">
        <ele>1193.5</ele>
        <time>2026-03-21T14:05:25Z</time>
      </trkpt>
      <trkpt lat="47.97974" lon="6.98683">
        <ele>1193.4</ele>
        <time>2026-03-21T14:05:30Z</time>
      </trkpt>
      <trkpt lat="47.97974" lon="6.98681">
        <ele>1193.6</ele>
        <time>2026-03-21T14:05:35Z</time>
      </trkpt>
      <trkpt lat="47.97974" lon="6.98679">
        <ele>1193.7</ele>
        <time>2026-03-21T14:05:40Z</time>
      </trkpt>
      <trkpt lat="47.97973" lon="6.98672">
        <ele>1194.5</ele>
        <time>2026-03-21T14:05:45Z</time>
      </trkpt>
      <trkpt lat="47.97974" lon="6.98664">
        <ele>1194.7</ele>
        <time>2026-03-21T14:05:50Z</time>
      </trkpt>
      <trkpt lat="47.97976" lon="6.98656">
        <ele>1194.3</ele>
        <time>2026-03-21T14:05:55Z</time>
      </trkpt>
      <trkpt lat="47.97977" lon="6.98648">
        <ele>1194</ele>
        <time>2026-03-21T14:06:00Z</time>
      </trkpt>
      <trkpt lat="47.97977" lon="6.9864">
        <ele>1193.8</ele>
        <time>2026-03-21T14:06:05Z</time>
      </trkpt>
      <trkpt lat="47.97976" lon="6.98632">
        <ele>1193.8</ele>
        <time>2026-03-21T14:06:10Z</time>
      </trkpt>
      <trkpt lat="47.97976" lon="6.98624">
        <ele>1193.6</ele>
        <time>2026-03-21T14:06:15Z</time>
      </trkpt>
      <trkpt lat="47.97978" lon="6.98617">
        <ele>1193.3</ele>
        <time>2026-03-21T14:06:20Z</time>
      </trkpt>
      <trkpt lat="47.97979" lon="6.98608">
        <ele>1193</ele>
        <time>2026-03-21T14:06:25Z</time>
      </trkpt>
      <trkpt lat="47.9798" lon="6.98601">
        <ele>1192.7</ele>
        <time>2026-03-21T14:06:30Z</time>
      </trkpt>
      <trkpt lat="47.97981" lon="6.98592">
        <ele>1192.4</ele>
        <time>2026-03-21T14:06:35Z</time>
      </trkpt>
      <trkpt lat="47.97981" lon="6.98584">
        <ele>1192.3</ele>
        <time>2026-03-21T14:06:40Z</time>
      </trkpt>
      <trkpt lat="47.97981" lon="6.98575">
        <ele>1192</ele>
        <time>2026-03-21T14:06:45Z</time>
      </trkpt>
      <trkpt lat="47.97981" lon="6.9857">
        <ele>1191.8</ele>
        <time>2026-03-21T14:06:50Z</time>
      </trkpt>
      <trkpt lat="47.97981" lon="6.98561">
        <ele>1191.5</ele>
        <time>2026-03-21T14:06:55Z</time>
      </trkpt>
      <trkpt lat="47.9798" lon="6.98552">
        <ele>1191.3</ele>
        <time>2026-03-21T14:07:00Z</time>
      </trkpt>
      <trkpt lat="47.97981" lon="6.98544">
        <ele>1190.9</ele>
        <time>2026-03-21T14:07:05Z</time>
      </trkpt>
      <trkpt lat="47.9798" lon="6.98535">
        <ele>1190.7</ele>
        <time>2026-03-21T14:07:10Z</time>
      </trkpt>
      <trkpt lat="47.9798" lon="6.98526">
        <ele>1190.3</ele>
        <time>2026-03-21T14:07:15Z</time>
      </trkpt>
      <trkpt lat="47.97979" lon="6.98517">
        <ele>1190.1</ele>
        <time>2026-03-21T14:07:20Z</time>
      </trkpt>
      <trkpt lat="47.97981" lon="6.98508">
        <ele>1189.6</ele>
        <time>2026-03-21T14:07:25Z</time>
      </trkpt>
      <trkpt lat="47.97979" lon="6.98498">
        <ele>1189.3</ele>
        <time>2026-03-21T14:07:30Z</time>
      </trkpt>
      <trkpt lat="47.97979" lon="6.98491">
        <ele>1188.6</ele>
        <time>2026-03-21T14:07:35Z</time>
      </trkpt>
      <trkpt lat="47.97979" lon="6.9849">
        <ele>1188.5</ele>
        <time>2026-03-21T14:07:40Z</time>
      </trkpt>
      <trkpt lat="47.97979" lon="6.9849">
        <ele>1188.5</ele>
        <time>2026-03-21T14:07:45Z</time>
      </trkpt>
      <trkpt lat="47.97979" lon="6.9849">
        <ele>1188.5</ele>
        <time>2026-03-21T14:07:50Z</time>
      </trkpt>
      <trkpt lat="47.97979" lon="6.9849">
        <ele>1188.5</ele>
        <time>2026-03-21T14:07:55Z</time>
      </trkpt>
      <trkpt lat="47.97985" lon="6.9849">
        <ele>1187.9</ele>
        <time>2026-03-21T14:08:00Z</time>
      </trkpt>
      <trkpt lat="47.9799" lon="6.98486">
        <ele>1186.9</ele>
        <time>2026-03-21T14:08:05Z</time>
      </trkpt>
      <trkpt lat="47.97995" lon="6.98482">
        <ele>1186</ele>
        <time>2026-03-21T14:08:10Z</time>
      </trkpt>
      <trkpt lat="47.98001" lon="6.98478">
        <ele>1185.2</ele>
        <time>2026-03-21T14:08:15Z</time>
      </trkpt>
      <trkpt lat="47.98007" lon="6.98474">
        <ele>1184.9</ele>
        <time>2026-03-21T14:08:20Z</time>
      </trkpt>
      <trkpt lat="47.98012" lon="6.98472">
        <ele>1184.8</ele>
        <time>2026-03-21T14:08:25Z</time>
      </trkpt>
      <trkpt lat="47.98017" lon="6.98467">
        <ele>1184.6</ele>
        <time>2026-03-21T14:08:30Z</time>
      </trkpt>
      <trkpt lat="47.98023" lon="6.98463">
        <ele>1184.5</ele>
        <time>2026-03-21T14:08:35Z</time>
      </trkpt>
      <trkpt lat="47.98029" lon="6.98458">
        <ele>1184.4</ele>
        <time>2026-03-21T14:08:40Z</time>
      </trkpt>
      <trkpt lat="47.98034" lon="6.98455">
        <ele>1184.4</ele>
        <time>2026-03-21T14:08:45Z</time>
      </trkpt>
      <trkpt lat="47.98039" lon="6.98452">
        <ele>1184.4</ele>
        <time>2026-03-21T14:08:50Z</time>
      </trkpt>
      <trkpt lat="47.98042" lon="6.98449">
        <ele>1184.4</ele>
        <time>2026-03-21T14:08:55Z</time>
      </trkpt>
      <trkpt lat="47.98047" lon="6.98445">
        <ele>1184.4</ele>
        <time>2026-03-21T14:09:00Z</time>
      </trkpt>
      <trkpt lat="47.98052" lon="6.98442">
        <ele>1184.5</ele>
        <time>2026-03-21T14:09:05Z</time>
      </trkpt>
      <trkpt lat="47.98056" lon="6.9844">
        <ele>1184.7</ele>
        <time>2026-03-21T14:09:10Z</time>
      </trkpt>
      <trkpt lat="47.98061" lon="6.98436">
        <ele>1184.8</ele>
        <time>2026-03-21T14:09:15Z</time>
      </trkpt>
      <trkpt lat="47.98066" lon="6.98433">
        <ele>1185</ele>
        <time>2026-03-21T14:09:20Z</time>
      </trkpt>
      <trkpt lat="47.9807" lon="6.98429">
        <ele>1185.2</ele>
        <time>2026-03-21T14:09:25Z</time>
      </trkpt>
      <trkpt lat="47.9807" lon="6.98429">
        <ele>1185.2</ele>
        <time>2026-03-21T14:09:30Z</time>
      </trkpt>
      <trkpt lat="47.9807" lon="6.98429">
        <ele>1185.2</ele>
        <time>2026-03-21T14:09:35Z</time>
      </trkpt>
      <trkpt lat="47.9807" lon="6.98429">
        <ele>1185.2</ele>
        <time>2026-03-21T14:09:40Z</time>
      </trkpt>
      <trkpt lat="47.98074" lon="6.98428">
        <ele>1185.4</ele>
        <time>2026-03-21T14:09:45Z</time>
      </trkpt>
      <trkpt lat="47.98079" lon="6.98424">
        <ele>1185.7</ele>
        <time>2026-03-21T14:09:50Z</time>
      </trkpt>
      <trkpt lat="47.98084" lon="6.9842">
        <ele>1186.1</ele>
        <time>2026-03-21T14:09:55Z</time>
      </trkpt>
      <trkpt lat="47.98089" lon="6.98418">
        <ele>1186.5</ele>
        <time>2026-03-21T14:10:00Z</time>
      </trkpt>
      <trkpt lat="47.98095" lon="6.98416">
        <ele>1187</ele>
        <time>2026-03-21T14:10:05Z</time>
      </trkpt>
      <trkpt lat="47.98099" lon="6.98412">
        <ele>1187.3</ele>
        <time>2026-03-21T14:10:10Z</time>
      </trkpt>
      <trkpt lat="47.98102" lon="6.9841">
        <ele>1187.5</ele>
        <time>2026-03-21T14:10:15Z</time>
      </trkpt>
      <trkpt lat="47.98107" lon="6.98407">
        <ele>1187.9</ele>
        <time>2026-03-21T14:10:20Z</time>
      </trkpt>
      <trkpt lat="47.98111" lon="6.98404">
        <ele>1188.3</ele>
        <time>2026-03-21T14:10:25Z</time>
      </trkpt>
      <trkpt lat="47.98114" lon="6.98402">
        <ele>1188.5</ele>
        <time>2026-03-21T14:10:30Z</time>
      </trkpt>
      <trkpt lat="47.98115" lon="6.98402">
        <ele>1188.6</ele>
        <time>2026-03-21T14:10:35Z</time>
      </trkpt>
      <trkpt lat="47.98115" lon="6.98402">
        <ele>1188.6</ele>
        <time>2026-03-21T14:10:40Z</time>
      </trkpt>
      <trkpt lat="47.98115" lon="6.98402">
        <ele>1188.6</ele>
        <time>2026-03-21T14:10:45Z</time>
      </trkpt>
      <trkpt lat="47.98117" lon="6.984">
        <ele>1188.8</ele>
        <time>2026-03-21T14:10:50Z</time>
      </trkpt>
      <trkpt lat="47.98122" lon="6.98398">
        <ele>1189.2</ele>
        <time>2026-03-21T14:10:55Z</time>
      </trkpt>
      <trkpt lat="47.98128" lon="6.98396">
        <ele>1189.8</ele>
        <time>2026-03-21T14:11:00Z</time>
      </trkpt>
      <trkpt lat="47.98133" lon="6.98394">
        <ele>1190.2</ele>
        <time>2026-03-21T14:11:05Z</time>
      </trkpt>
      <trkpt lat="47.98138" lon="6.98393">
        <ele>1190.7</ele>
        <time>2026-03-21T14:11:10Z</time>
      </trkpt>
      <trkpt lat="47.98143" lon="6.9839">
        <ele>1191.2</ele>
        <time>2026-03-21T14:11:15Z</time>
      </trkpt>
      <trkpt lat="47.98148" lon="6.98389">
        <ele>1191.6</ele>
        <time>2026-03-21T14:11:20Z</time>
      </trkpt>
      <trkpt lat="47.98153" lon="6.98387">
        <ele>1192.1</ele>
        <time>2026-03-21T14:11:25Z</time>
      </trkpt>
      <trkpt lat="47.98158" lon="6.98386">
        <ele>1192.6</ele>
        <time>2026-03-21T14:11:30Z</time>
      </trkpt>
      <trkpt lat="47.98163" lon="6.98384">
        <ele>1193</ele>
        <time>2026-03-21T14:11:35Z</time>
      </trkpt>
      <trkpt lat="47.98168" lon="6.98383">
        <ele>1193.6</ele>
        <time>2026-03-21T14:11:40Z</time>
      </trkpt>
      <trkpt lat="47.98172" lon="6.98381">
        <ele>1194.1</ele>
        <time>2026-03-21T14:11:45Z</time>
      </trkpt>
      <trkpt lat="47.98178" lon="6.9838">
        <ele>1194.8</ele>
        <time>2026-03-21T14:11:50Z</time>
      </trkpt>
      <trkpt lat="47.98182" lon="6.98379">
        <ele>1195.3</ele>
        <time>2026-03-21T14:11:55Z</time>
      </trkpt>
      <trkpt lat="47.98187" lon="6.98377">
        <ele>1195.9</ele>
        <time>2026-03-21T14:12:00Z</time>
      </trkpt>
      <trkpt lat="47.98193" lon="6.98375">
        <ele>1196.7</ele>
        <time>2026-03-21T14:12:05Z</time>
      </trkpt>
      <trkpt lat="47.98199" lon="6.98374">
        <ele>1197.4</ele>
        <time>2026-03-21T14:12:10Z</time>
      </trkpt>
      <trkpt lat="47.98203" lon="6.98371">
        <ele>1197.9</ele>
        <time>2026-03-21T14:12:15Z</time>
      </trkpt>
      <trkpt lat="47.98204" lon="6.98372">
        <ele>1198</ele>
        <time>2026-03-21T14:12:20Z</time>
      </trkpt>
      <trkpt lat="47.98204" lon="6.98372">
        <ele>1198</ele>
        <time>2026-03-21T14:12:25Z</time>
      </trkpt>
      <trkpt lat="47.98204" lon="6.98372">
        <ele>1198</ele>
        <time>2026-03-21T14:12:30Z</time>
      </trkpt>
      <trkpt lat="47.98206" lon="6.98371">
        <ele>1198.3</ele>
        <time>2026-03-21T14:12:35Z</time>
      </trkpt>
      <trkpt lat="47.98211" lon="6.98368">
        <ele>1198.9</ele>
        <time>2026-03-21T14:12:40Z</time>
      </trkpt>
      <trkpt lat="47.98216" lon="6.98367">
        <ele>1199.5</ele>
        <time>2026-03-21T14:12:45Z</time>
      </trkpt>
      <trkpt lat="47.98219" lon="6.98367">
        <ele>1199.9</ele>
        <time>2026-03-21T14:12:50Z</time>
      </trkpt>
      <trkpt lat="47.98225" lon="6.98365">
        <ele>1200.6</ele>
        <time>2026-03-21T14:12:55Z</time>
      </trkpt>
      <trkpt lat="47.98229" lon="6.98364">
        <ele>1201.1</ele>
        <time>2026-03-21T14:13:00Z</time>
      </trkpt>
      <trkpt lat="47.98234" lon="6.98362">
        <ele>1201.7</ele>
        <time>2026-03-21T14:13:05Z</time>
      </trkpt>
      <trkpt lat="47.98239" lon="6.9836">
        <ele>1202.4</ele>
        <time>2026-03-21T14:13:10Z</time>
      </trkpt>
      <trkpt lat="47.98245" lon="6.98357">
        <ele>1203.1</ele>
        <time>2026-03-21T14:13:15Z</time>
      </trkpt>
      <trkpt lat="47.9825" lon="6.98353">
        <ele>1203.8</ele>
        <time>2026-03-21T14:13:20Z</time>
      </trkpt>
      <trkpt lat="47.98256" lon="6.9835">
        <ele>1204.4</ele>
        <time>2026-03-21T14:13:25Z</time>
      </trkpt>
      <trkpt lat="47.98262" lon="6.98344">
        <ele>1205.2</ele>
        <time>2026-03-21T14:13:30Z</time>
      </trkpt>
      <trkpt lat="47.98267" lon="6.98343">
        <ele>1205.7</ele>
        <time>2026-03-21T14:13:35Z</time>
      </trkpt>
      <trkpt lat="47.98273" lon="6.98341">
        <ele>1206.5</ele>
        <time>2026-03-21T14:13:40Z</time>
      </trkpt>
      <trkpt lat="47.98278" lon="6.98339">
        <ele>1207.1</ele>
        <time>2026-03-21T14:13:45Z</time>
      </trkpt>
      <trkpt lat="47.98282" lon="6.98339">
        <ele>1207.6</ele>
        <time>2026-03-21T14:13:50Z</time>
      </trkpt>
      <trkpt lat="47.98285" lon="6.98341">
        <ele>1207.8</ele>
        <time>2026-03-21T14:13:55Z</time>
      </trkpt>
      <trkpt lat="47.98288" lon="6.98343">
        <ele>1208</ele>
        <time>2026-03-21T14:14:00Z</time>
      </trkpt>
      <trkpt lat="47.98292" lon="6.98343">
        <ele>1208.5</ele>
        <time>2026-03-21T14:14:05Z</time>
      </trkpt>
      <trkpt lat="47.98296" lon="6.98344">
        <ele>1208.8</ele>
        <time>2026-03-21T14:14:10Z</time>
      </trkpt>
      <trkpt lat="47.98302" lon="6.98344">
        <ele>1209.5</ele>
        <time>2026-03-21T14:14:15Z</time>
      </trkpt>
      <trkpt lat="47.98306" lon="6.98342">
        <ele>1210.1</ele>
        <time>2026-03-21T14:14:20Z</time>
      </trkpt>
      <trkpt lat="47.98311" lon="6.98337">
        <ele>1211</ele>
        <time>2026-03-21T14:14:25Z</time>
      </trkpt>
      <trkpt lat="47.98316" lon="6.98334">
        <ele>1211.9</ele>
        <time>2026-03-21T14:14:30Z</time>
      </trkpt>
      <trkpt lat="47.98319" lon="6.9833">
        <ele>1212</ele>
        <time>2026-03-21T14:14:35Z</time>
      </trkpt>
      <trkpt lat="47.98322" lon="6.98326">
        <ele>1212.1</ele>
        <time>2026-03-21T14:14:40Z</time>
      </trkpt>
      <trkpt lat="47.98325" lon="6.98322">
        <ele>1212.2</ele>
        <time>2026-03-21T14:14:45Z</time>
      </trkpt>
      <trkpt lat="47.98329" lon="6.98319">
        <ele>1212.4</ele>
        <time>2026-03-21T14:14:50Z</time>
      </trkpt>
      <trkpt lat="47.98331" lon="6.98314">
        <ele>1212.3</ele>
        <time>2026-03-21T14:14:55Z</time>
      </trkpt>
      <trkpt lat="47.98334" lon="6.98309">
        <ele>1212.3</ele>
        <time>2026-03-21T14:15:00Z</time>
      </trkpt>
      <trkpt lat="47.98338" lon="6.98303">
        <ele>1212.1</ele>
        <time>2026-03-21T14:15:05Z</time>
      </trkpt>
      <trkpt lat="47.98342" lon="6.98298">
        <ele>1212.1</ele>
        <time>2026-03-21T14:15:10Z</time>
      </trkpt>
      <trkpt lat="47.98346" lon="6.98292">
        <ele>1212</ele>
        <time>2026-03-21T14:15:15Z</time>
      </trkpt>
      <trkpt lat="47.98349" lon="6.98289">
        <ele>1212.1</ele>
        <time>2026-03-21T14:15:20Z</time>
      </trkpt>
      <trkpt lat="47.98353" lon="6.98284">
        <ele>1212.2</ele>
        <time>2026-03-21T14:15:25Z</time>
      </trkpt>
      <trkpt lat="47.98357" lon="6.98282">
        <ele>1212.4</ele>
        <time>2026-03-21T14:15:30Z</time>
      </trkpt>
      <trkpt lat="47.98357" lon="6.98282">
        <ele>1212.4</ele>
        <time>2026-03-21T14:15:35Z</time>
      </trkpt>
      <trkpt lat="47.98363" lon="6.98276">
        <ele>1212.8</ele>
        <time>2026-03-21T14:15:40Z</time>
      </trkpt>
      <trkpt lat="47.98364" lon="6.9827">
        <ele>1212.7</ele>
        <time>2026-03-21T14:15:45Z</time>
      </trkpt>
      <trkpt lat="47.98364" lon="6.98266">
        <ele>1212.6</ele>
        <time>2026-03-21T14:15:50Z</time>
      </trkpt>
      <trkpt lat="47.98364" lon="6.98264">
        <ele>1212.5</ele>
        <time>2026-03-21T14:15:55Z</time>
      </trkpt>
      <trkpt lat="47.98363" lon="6.98263">
        <ele>1212.4</ele>
        <time>2026-03-21T14:16:00Z</time>
      </trkpt>
      <trkpt lat="47.98363" lon="6.98263">
        <ele>1212.4</ele>
        <time>2026-03-21T14:16:05Z</time>
      </trkpt>
    </trkseg>
  </trk>
</gpx>